<?xml version="1.0" encoding="UTF-8" standalone="no" ?>
<gpx xmlns="http://www.topografix.com/GPX/1/1" xmlns:xsi="http://www.w3.org/2001/XMLSchema-instance" xsi:schemaLocation="http://www.topografix.com/GPX/1/1 http://www.topografix.com/GPX/1/1/gpx.xsd" version="1.1" creator="VisuGPX - https://www.visugpx.com">
  <metadata>
    <name>GR 441, GR 30, étape 02</name>
    <desc><![CDATA[Du Lac de Servières à Fougères.]]></desc>
  </metadata>
  <trk>
    <name><![CDATA[GR 441 - GR 30 étape 02_1]]></name>
    <extensions>
      <line xmlns="http://www.topografix.com/GPX/gpx_style/0/2">
        <color>0000FF</color>
        <width>4</width>
      </line>
    </extensions>
    <trkseg>
      <trkpt lat="45.6474" lon="2.85695">
        <ele>1207</ele>
        <time>2021-08-26T05:10:41.000Z</time>
      </trkpt>
      <trkpt lat="45.64735" lon="2.85689">
        <ele>1207</ele>
        <time>2021-08-26T05:10:51.000Z</time>
      </trkpt>
      <trkpt lat="45.64738" lon="2.85697">
        <ele>1207</ele>
        <time>2021-08-26T05:12:02.000Z</time>
      </trkpt>
      <trkpt lat="45.64741" lon="2.85706">
        <ele>1207</ele>
        <time>2021-08-26T05:12:08.000Z</time>
      </trkpt>
      <trkpt lat="45.64745" lon="2.85714">
        <ele>1207</ele>
        <time>2021-08-26T05:12:15.000Z</time>
      </trkpt>
      <trkpt lat="45.64748" lon="2.85723">
        <ele>1207</ele>
        <time>2021-08-26T05:12:40.000Z</time>
      </trkpt>
      <trkpt lat="45.64752" lon="2.85731">
        <ele>1207</ele>
        <time>2021-08-26T05:12:48.000Z</time>
      </trkpt>
      <trkpt lat="45.64756" lon="2.8574">
        <ele>1207.1</ele>
        <time>2021-08-26T05:12:54.000Z</time>
      </trkpt>
      <trkpt lat="45.64759" lon="2.85749">
        <ele>1207.1</ele>
        <time>2021-08-26T05:13:10.000Z</time>
      </trkpt>
      <trkpt lat="45.64761" lon="2.85758">
        <ele>1207.1</ele>
        <time>2021-08-26T05:13:30.000Z</time>
      </trkpt>
      <trkpt lat="45.64762" lon="2.85768">
        <ele>1207.1</ele>
        <time>2021-08-26T05:13:38.000Z</time>
      </trkpt>
      <trkpt lat="45.64767" lon="2.85778">
        <ele>1207.2</ele>
        <time>2021-08-26T05:13:43.000Z</time>
      </trkpt>
      <trkpt lat="45.64769" lon="2.85789">
        <ele>1207.2</ele>
        <time>2021-08-26T05:13:49.000Z</time>
      </trkpt>
      <trkpt lat="45.64772" lon="2.85798">
        <ele>1207.3</ele>
        <time>2021-08-26T05:13:55.000Z</time>
      </trkpt>
      <trkpt lat="45.64768" lon="2.85805">
        <ele>1207.2</ele>
        <time>2021-08-26T05:14:32.000Z</time>
      </trkpt>
      <trkpt lat="45.64772" lon="2.85813">
        <ele>1207.3</ele>
        <time>2021-08-26T05:14:55.000Z</time>
      </trkpt>
      <trkpt lat="45.64775" lon="2.85822">
        <ele>1207.3</ele>
        <time>2021-08-26T05:15:24.000Z</time>
      </trkpt>
      <trkpt lat="45.64776" lon="2.85833">
        <ele>1207.3</ele>
        <time>2021-08-26T05:15:32.000Z</time>
      </trkpt>
      <trkpt lat="45.64776" lon="2.85843">
        <ele>1207.2</ele>
        <time>2021-08-26T05:15:40.000Z</time>
      </trkpt>
      <trkpt lat="45.64779" lon="2.85852">
        <ele>1207.2</ele>
        <time>2021-08-26T05:15:48.000Z</time>
      </trkpt>
      <trkpt lat="45.64781" lon="2.85861">
        <ele>1207.1</ele>
        <time>2021-08-26T05:15:59.000Z</time>
      </trkpt>
      <trkpt lat="45.64778" lon="2.8587">
        <ele>1207</ele>
        <time>2021-08-26T05:16:05.000Z</time>
      </trkpt>
      <trkpt lat="45.64778" lon="2.8588">
        <ele>1207</ele>
        <time>2021-08-26T05:16:13.000Z</time>
      </trkpt>
      <trkpt lat="45.64779" lon="2.8589">
        <ele>1206.9</ele>
        <time>2021-08-26T05:16:20.000Z</time>
      </trkpt>
      <trkpt lat="45.64778" lon="2.85899">
        <ele>1206.8</ele>
        <time>2021-08-26T05:16:29.000Z</time>
      </trkpt>
      <trkpt lat="45.64775" lon="2.85908">
        <ele>1206.8</ele>
        <time>2021-08-26T05:16:38.000Z</time>
      </trkpt>
      <trkpt lat="45.64774" lon="2.85917">
        <ele>1206.7</ele>
        <time>2021-08-26T05:16:44.000Z</time>
      </trkpt>
      <trkpt lat="45.64774" lon="2.85927">
        <ele>1206.8</ele>
        <time>2021-08-26T05:16:51.000Z</time>
      </trkpt>
      <trkpt lat="45.64773" lon="2.85939">
        <ele>1206.9</ele>
        <time>2021-08-26T05:16:57.000Z</time>
      </trkpt>
      <trkpt lat="45.64773" lon="2.85949">
        <ele>1206.9</ele>
        <time>2021-08-26T05:17:06.000Z</time>
      </trkpt>
      <trkpt lat="45.64772" lon="2.85958">
        <ele>1207</ele>
        <time>2021-08-26T05:17:38.000Z</time>
      </trkpt>
      <trkpt lat="45.64778" lon="2.85957">
        <ele>1207</ele>
        <time>2021-08-26T05:17:54.000Z</time>
      </trkpt>
      <trkpt lat="45.64785" lon="2.85954">
        <ele>1207</ele>
        <time>2021-08-26T05:18:01.000Z</time>
      </trkpt>
      <trkpt lat="45.64786" lon="2.85965">
        <ele>1207.1</ele>
        <time>2021-08-26T05:18:10.000Z</time>
      </trkpt>
      <trkpt lat="45.64783" lon="2.85974">
        <ele>1207.1</ele>
        <time>2021-08-26T05:18:15.000Z</time>
      </trkpt>
      <trkpt lat="45.6478" lon="2.85986">
        <ele>1207.2</ele>
        <time>2021-08-26T05:18:21.000Z</time>
      </trkpt>
      <trkpt lat="45.64779" lon="2.85997">
        <ele>1207.3</ele>
        <time>2021-08-26T05:18:26.000Z</time>
      </trkpt>
      <trkpt lat="45.64776" lon="2.86008">
        <ele>1207.5</ele>
        <time>2021-08-26T05:18:31.000Z</time>
      </trkpt>
      <trkpt lat="45.64774" lon="2.8602">
        <ele>1207.6</ele>
        <time>2021-08-26T05:18:37.000Z</time>
      </trkpt>
      <trkpt lat="45.6477" lon="2.86031">
        <ele>1207.7</ele>
        <time>2021-08-26T05:18:44.000Z</time>
      </trkpt>
      <trkpt lat="45.64769" lon="2.86042">
        <ele>1207.8</ele>
        <time>2021-08-26T05:18:50.000Z</time>
      </trkpt>
      <trkpt lat="45.64769" lon="2.86052">
        <ele>1207.9</ele>
        <time>2021-08-26T05:18:56.000Z</time>
      </trkpt>
      <trkpt lat="45.64769" lon="2.86061">
        <ele>1208.1</ele>
        <time>2021-08-26T05:19:05.000Z</time>
      </trkpt>
      <trkpt lat="45.64766" lon="2.86071">
        <ele>1208</ele>
        <time>2021-08-26T05:19:12.000Z</time>
      </trkpt>
      <trkpt lat="45.64763" lon="2.86081">
        <ele>1207.9</ele>
        <time>2021-08-26T05:19:17.000Z</time>
      </trkpt>
      <trkpt lat="45.6476" lon="2.8609">
        <ele>1207.7</ele>
        <time>2021-08-26T05:19:23.000Z</time>
      </trkpt>
      <trkpt lat="45.64769" lon="2.86084">
        <ele>1208.4</ele>
        <time>2021-08-26T05:19:40.000Z</time>
      </trkpt>
      <trkpt lat="45.64764" lon="2.86077">
        <ele>1207.9</ele>
        <time>2021-08-26T05:20:17.000Z</time>
      </trkpt>
      <trkpt lat="45.64764" lon="2.86067">
        <ele>1207.8</ele>
        <time>2021-08-26T05:20:26.000Z</time>
      </trkpt>
      <trkpt lat="45.64768" lon="2.86056">
        <ele>1207.9</ele>
        <time>2021-08-26T05:20:31.000Z</time>
      </trkpt>
      <trkpt lat="45.6477" lon="2.86044">
        <ele>1207.9</ele>
        <time>2021-08-26T05:20:37.000Z</time>
      </trkpt>
      <trkpt lat="45.64773" lon="2.86032">
        <ele>1207.8</ele>
        <time>2021-08-26T05:20:42.000Z</time>
      </trkpt>
      <trkpt lat="45.64774" lon="2.86022">
        <ele>1207.7</ele>
        <time>2021-08-26T05:20:47.000Z</time>
      </trkpt>
      <trkpt lat="45.64777" lon="2.86008">
        <ele>1207.5</ele>
        <time>2021-08-26T05:20:53.000Z</time>
      </trkpt>
      <trkpt lat="45.6478" lon="2.85998">
        <ele>1207.3</ele>
        <time>2021-08-26T05:20:58.000Z</time>
      </trkpt>
      <trkpt lat="45.64781" lon="2.85987">
        <ele>1207.3</ele>
        <time>2021-08-26T05:21:06.000Z</time>
      </trkpt>
      <trkpt lat="45.64783" lon="2.85976">
        <ele>1207.2</ele>
        <time>2021-08-26T05:21:12.000Z</time>
      </trkpt>
      <trkpt lat="45.64784" lon="2.85966">
        <ele>1207.1</ele>
        <time>2021-08-26T05:21:18.000Z</time>
      </trkpt>
      <trkpt lat="45.64786" lon="2.85956">
        <ele>1207</ele>
        <time>2021-08-26T05:21:23.000Z</time>
      </trkpt>
      <trkpt lat="45.64789" lon="2.85946">
        <ele>1206.9</ele>
        <time>2021-08-26T05:21:29.000Z</time>
      </trkpt>
      <trkpt lat="45.6479" lon="2.85936">
        <ele>1206.7</ele>
        <time>2021-08-26T05:21:35.000Z</time>
      </trkpt>
      <trkpt lat="45.64793" lon="2.85924">
        <ele>1206.6</ele>
        <time>2021-08-26T05:21:41.000Z</time>
      </trkpt>
      <trkpt lat="45.64794" lon="2.85914">
        <ele>1206.5</ele>
        <time>2021-08-26T05:21:48.000Z</time>
      </trkpt>
      <trkpt lat="45.64796" lon="2.85904">
        <ele>1206.6</ele>
        <time>2021-08-26T05:21:54.000Z</time>
      </trkpt>
      <trkpt lat="45.64797" lon="2.85893">
        <ele>1206.8</ele>
        <time>2021-08-26T05:22:01.000Z</time>
      </trkpt>
      <trkpt lat="45.64795" lon="2.85884">
        <ele>1206.9</ele>
        <time>2021-08-26T05:22:07.000Z</time>
      </trkpt>
      <trkpt lat="45.64795" lon="2.85872">
        <ele>1207</ele>
        <time>2021-08-26T05:22:13.000Z</time>
      </trkpt>
      <trkpt lat="45.64796" lon="2.85863">
        <ele>1207.2</ele>
        <time>2021-08-26T05:22:25.000Z</time>
      </trkpt>
      <trkpt lat="45.64798" lon="2.85853">
        <ele>1207.3</ele>
        <time>2021-08-26T05:22:32.000Z</time>
      </trkpt>
      <trkpt lat="45.648" lon="2.85837">
        <ele>1207.5</ele>
        <time>2021-08-26T05:22:37.000Z</time>
      </trkpt>
      <trkpt lat="45.648" lon="2.85823">
        <ele>1207.6</ele>
        <time>2021-08-26T05:22:42.000Z</time>
      </trkpt>
      <trkpt lat="45.648" lon="2.85813">
        <ele>1207.6</ele>
        <time>2021-08-26T05:22:47.000Z</time>
      </trkpt>
      <trkpt lat="45.64796" lon="2.85803">
        <ele>1207.6</ele>
        <time>2021-08-26T05:22:53.000Z</time>
      </trkpt>
      <trkpt lat="45.64792" lon="2.85794">
        <ele>1207.5</ele>
        <time>2021-08-26T05:22:58.000Z</time>
      </trkpt>
      <trkpt lat="45.64787" lon="2.85787">
        <ele>1207.4</ele>
        <time>2021-08-26T05:23:03.000Z</time>
      </trkpt>
      <trkpt lat="45.64783" lon="2.85776">
        <ele>1207.4</ele>
        <time>2021-08-26T05:23:09.000Z</time>
      </trkpt>
      <trkpt lat="45.64781" lon="2.85765">
        <ele>1207.4</ele>
        <time>2021-08-26T05:23:14.000Z</time>
      </trkpt>
      <trkpt lat="45.6478" lon="2.85755">
        <ele>1207.4</ele>
        <time>2021-08-26T05:23:19.000Z</time>
      </trkpt>
      <trkpt lat="45.6478" lon="2.85742">
        <ele>1207.5</ele>
        <time>2021-08-26T05:23:25.000Z</time>
      </trkpt>
      <trkpt lat="45.64779" lon="2.85732">
        <ele>1207.6</ele>
        <time>2021-08-26T05:23:30.000Z</time>
      </trkpt>
      <trkpt lat="45.64785" lon="2.85726">
        <ele>1207.8</ele>
        <time>2021-08-26T05:23:39.000Z</time>
      </trkpt>
      <trkpt lat="45.6479" lon="2.8572">
        <ele>1208</ele>
        <time>2021-08-26T05:23:47.000Z</time>
      </trkpt>
      <trkpt lat="45.64793" lon="2.85729">
        <ele>1207.9</ele>
        <time>2021-08-26T05:24:11.000Z</time>
      </trkpt>
      <trkpt lat="45.64796" lon="2.85738">
        <ele>1207.8</ele>
        <time>2021-08-26T05:24:19.000Z</time>
      </trkpt>
      <trkpt lat="45.64801" lon="2.85745">
        <ele>1207.7</ele>
        <time>2021-08-26T05:24:25.000Z</time>
      </trkpt>
      <trkpt lat="45.64809" lon="2.85751">
        <ele>1207.7</ele>
        <time>2021-08-26T05:24:30.000Z</time>
      </trkpt>
      <trkpt lat="45.64813" lon="2.85759">
        <ele>1207.8</ele>
        <time>2021-08-26T05:24:42.000Z</time>
      </trkpt>
      <trkpt lat="45.6482" lon="2.85766">
        <ele>1207.8</ele>
        <time>2021-08-26T05:24:47.000Z</time>
      </trkpt>
      <trkpt lat="45.64825" lon="2.85772">
        <ele>1207.9</ele>
        <time>2021-08-26T05:24:54.000Z</time>
      </trkpt>
      <trkpt lat="45.64832" lon="2.85774">
        <ele>1208</ele>
        <time>2021-08-26T05:25:02.000Z</time>
      </trkpt>
      <trkpt lat="45.64838" lon="2.85778">
        <ele>1208.5</ele>
        <time>2021-08-26T05:25:08.000Z</time>
      </trkpt>
      <trkpt lat="45.64844" lon="2.85785">
        <ele>1209.2</ele>
        <time>2021-08-26T05:25:16.000Z</time>
      </trkpt>
      <trkpt lat="45.64849" lon="2.8579">
        <ele>1209.8</ele>
        <time>2021-08-26T05:25:22.000Z</time>
      </trkpt>
      <trkpt lat="45.64852" lon="2.858">
        <ele>1210.1</ele>
        <time>2021-08-26T05:25:28.000Z</time>
      </trkpt>
      <trkpt lat="45.64854" lon="2.85808">
        <ele>1210.3</ele>
        <time>2021-08-26T05:25:33.000Z</time>
      </trkpt>
      <trkpt lat="45.64858" lon="2.85816">
        <ele>1210.7</ele>
        <time>2021-08-26T05:25:40.000Z</time>
      </trkpt>
      <trkpt lat="45.64863" lon="2.85823">
        <ele>1211.2</ele>
        <time>2021-08-26T05:25:47.000Z</time>
      </trkpt>
      <trkpt lat="45.64873" lon="2.85828">
        <ele>1212.3</ele>
        <time>2021-08-26T05:25:53.000Z</time>
      </trkpt>
      <trkpt lat="45.64881" lon="2.85832">
        <ele>1213.2</ele>
        <time>2021-08-26T05:25:59.000Z</time>
      </trkpt>
      <trkpt lat="45.64886" lon="2.8584">
        <ele>1213.8</ele>
        <time>2021-08-26T05:26:09.000Z</time>
      </trkpt>
      <trkpt lat="45.64893" lon="2.85844">
        <ele>1214.6</ele>
        <time>2021-08-26T05:26:25.000Z</time>
      </trkpt>
      <trkpt lat="45.64898" lon="2.85839">
        <ele>1215.1</ele>
        <time>2021-08-26T05:26:48.000Z</time>
      </trkpt>
      <trkpt lat="45.64903" lon="2.85833">
        <ele>1215.5</ele>
        <time>2021-08-26T05:26:55.000Z</time>
      </trkpt>
      <trkpt lat="45.64908" lon="2.85827">
        <ele>1216.1</ele>
        <time>2021-08-26T05:27:02.000Z</time>
      </trkpt>
      <trkpt lat="45.64913" lon="2.85821">
        <ele>1216.7</ele>
        <time>2021-08-26T05:27:07.000Z</time>
      </trkpt>
      <trkpt lat="45.6492" lon="2.85813">
        <ele>1217.4</ele>
        <time>2021-08-26T05:27:13.000Z</time>
      </trkpt>
      <trkpt lat="45.64927" lon="2.85809">
        <ele>1217.9</ele>
        <time>2021-08-26T05:27:18.000Z</time>
      </trkpt>
      <trkpt lat="45.64939" lon="2.85807">
        <ele>1218.6</ele>
        <time>2021-08-26T05:27:23.000Z</time>
      </trkpt>
      <trkpt lat="45.64949" lon="2.85803">
        <ele>1219.1</ele>
        <time>2021-08-26T05:27:29.000Z</time>
      </trkpt>
      <trkpt lat="45.64957" lon="2.85798">
        <ele>1219.5</ele>
        <time>2021-08-26T05:27:34.000Z</time>
      </trkpt>
      <trkpt lat="45.64961" lon="2.8579">
        <ele>1219.6</ele>
        <time>2021-08-26T05:27:42.000Z</time>
      </trkpt>
      <trkpt lat="45.64966" lon="2.85782">
        <ele>1219.7</ele>
        <time>2021-08-26T05:27:50.000Z</time>
      </trkpt>
      <trkpt lat="45.64969" lon="2.85775">
        <ele>1219.7</ele>
        <time>2021-08-26T05:27:56.000Z</time>
      </trkpt>
      <trkpt lat="45.64974" lon="2.85768">
        <ele>1219.8</ele>
        <time>2021-08-26T05:28:01.000Z</time>
      </trkpt>
      <trkpt lat="45.64979" lon="2.85762">
        <ele>1219.8</ele>
        <time>2021-08-26T05:28:07.000Z</time>
      </trkpt>
      <trkpt lat="45.64985" lon="2.85757">
        <ele>1219.8</ele>
        <time>2021-08-26T05:28:13.000Z</time>
      </trkpt>
      <trkpt lat="45.6499" lon="2.8575">
        <ele>1219.8</ele>
        <time>2021-08-26T05:28:18.000Z</time>
      </trkpt>
      <trkpt lat="45.64997" lon="2.85742">
        <ele>1219.7</ele>
        <time>2021-08-26T05:28:23.000Z</time>
      </trkpt>
      <trkpt lat="45.65005" lon="2.85734">
        <ele>1219.6</ele>
        <time>2021-08-26T05:28:29.000Z</time>
      </trkpt>
      <trkpt lat="45.65011" lon="2.85729">
        <ele>1219.5</ele>
        <time>2021-08-26T05:29:14.000Z</time>
      </trkpt>
      <trkpt lat="45.65017" lon="2.85723">
        <ele>1219.4</ele>
        <time>2021-08-26T05:29:22.000Z</time>
      </trkpt>
      <trkpt lat="45.65021" lon="2.85716">
        <ele>1219.1</ele>
        <time>2021-08-26T05:29:27.000Z</time>
      </trkpt>
      <trkpt lat="45.65026" lon="2.85707">
        <ele>1218.8</ele>
        <time>2021-08-26T05:29:33.000Z</time>
      </trkpt>
      <trkpt lat="45.65031" lon="2.85698">
        <ele>1218.4</ele>
        <time>2021-08-26T05:29:38.000Z</time>
      </trkpt>
      <trkpt lat="45.65035" lon="2.85688">
        <ele>1218</ele>
        <time>2021-08-26T05:29:43.000Z</time>
      </trkpt>
      <trkpt lat="45.65041" lon="2.85679">
        <ele>1217.5</ele>
        <time>2021-08-26T05:29:49.000Z</time>
      </trkpt>
      <trkpt lat="45.65045" lon="2.85671">
        <ele>1217.1</ele>
        <time>2021-08-26T05:29:55.000Z</time>
      </trkpt>
      <trkpt lat="45.65051" lon="2.85664">
        <ele>1216.7</ele>
        <time>2021-08-26T05:30:03.000Z</time>
      </trkpt>
      <trkpt lat="45.65055" lon="2.85657">
        <ele>1216.2</ele>
        <time>2021-08-26T05:30:09.000Z</time>
      </trkpt>
      <trkpt lat="45.6506" lon="2.85649">
        <ele>1215.7</ele>
        <time>2021-08-26T05:30:14.000Z</time>
      </trkpt>
      <trkpt lat="45.65065" lon="2.85642">
        <ele>1215.2</ele>
        <time>2021-08-26T05:30:19.000Z</time>
      </trkpt>
      <trkpt lat="45.65071" lon="2.85633">
        <ele>1214.5</ele>
        <time>2021-08-26T05:30:25.000Z</time>
      </trkpt>
      <trkpt lat="45.65076" lon="2.85625">
        <ele>1213.8</ele>
        <time>2021-08-26T05:30:30.000Z</time>
      </trkpt>
      <trkpt lat="45.65082" lon="2.85618">
        <ele>1213.1</ele>
        <time>2021-08-26T05:30:36.000Z</time>
      </trkpt>
      <trkpt lat="45.65088" lon="2.85613">
        <ele>1212.6</ele>
        <time>2021-08-26T05:30:42.000Z</time>
      </trkpt>
      <trkpt lat="45.65093" lon="2.85608">
        <ele>1212.1</ele>
        <time>2021-08-26T05:30:47.000Z</time>
      </trkpt>
      <trkpt lat="45.65099" lon="2.85602">
        <ele>1211.5</ele>
        <time>2021-08-26T05:30:53.000Z</time>
      </trkpt>
      <trkpt lat="45.65105" lon="2.85597">
        <ele>1211</ele>
        <time>2021-08-26T05:30:59.000Z</time>
      </trkpt>
      <trkpt lat="45.65111" lon="2.85592">
        <ele>1210.5</ele>
        <time>2021-08-26T05:31:05.000Z</time>
      </trkpt>
      <trkpt lat="45.65116" lon="2.85585">
        <ele>1209.9</ele>
        <time>2021-08-26T05:31:11.000Z</time>
      </trkpt>
      <trkpt lat="45.65121" lon="2.85578">
        <ele>1209.5</ele>
        <time>2021-08-26T05:31:17.000Z</time>
      </trkpt>
      <trkpt lat="45.65127" lon="2.85572">
        <ele>1209</ele>
        <time>2021-08-26T05:31:23.000Z</time>
      </trkpt>
      <trkpt lat="45.65133" lon="2.85567">
        <ele>1208.6</ele>
        <time>2021-08-26T05:31:37.000Z</time>
      </trkpt>
      <trkpt lat="45.65138" lon="2.85562">
        <ele>1208.2</ele>
        <time>2021-08-26T05:31:45.000Z</time>
      </trkpt>
      <trkpt lat="45.65144" lon="2.85558">
        <ele>1207.8</ele>
        <time>2021-08-26T05:31:51.000Z</time>
      </trkpt>
      <trkpt lat="45.6515" lon="2.85556">
        <ele>1207.4</ele>
        <time>2021-08-26T05:31:59.000Z</time>
      </trkpt>
      <trkpt lat="45.65158" lon="2.85554">
        <ele>1207</ele>
        <time>2021-08-26T05:32:05.000Z</time>
      </trkpt>
      <trkpt lat="45.65163" lon="2.85549">
        <ele>1206.5</ele>
        <time>2021-08-26T05:32:19.000Z</time>
      </trkpt>
      <trkpt lat="45.65171" lon="2.85545">
        <ele>1205.9</ele>
        <time>2021-08-26T05:32:27.000Z</time>
      </trkpt>
      <trkpt lat="45.65177" lon="2.8554">
        <ele>1205.3</ele>
        <time>2021-08-26T05:32:34.000Z</time>
      </trkpt>
      <trkpt lat="45.65185" lon="2.85539">
        <ele>1204.8</ele>
        <time>2021-08-26T05:32:40.000Z</time>
      </trkpt>
      <trkpt lat="45.6519" lon="2.85531">
        <ele>1204</ele>
        <time>2021-08-26T05:32:49.000Z</time>
      </trkpt>
      <trkpt lat="45.65198" lon="2.85532">
        <ele>1203.6</ele>
        <time>2021-08-26T05:32:57.000Z</time>
      </trkpt>
      <trkpt lat="45.65207" lon="2.85533">
        <ele>1203.1</ele>
        <time>2021-08-26T05:33:02.000Z</time>
      </trkpt>
      <trkpt lat="45.65213" lon="2.85533">
        <ele>1202.7</ele>
        <time>2021-08-26T05:33:08.000Z</time>
      </trkpt>
      <trkpt lat="45.65224" lon="2.85533">
        <ele>1202</ele>
        <time>2021-08-26T05:33:13.000Z</time>
      </trkpt>
      <trkpt lat="45.6523" lon="2.85533">
        <ele>1201.6</ele>
        <time>2021-08-26T05:33:18.000Z</time>
      </trkpt>
      <trkpt lat="45.65238" lon="2.85527">
        <ele>1200.7</ele>
        <time>2021-08-26T05:34:17.000Z</time>
      </trkpt>
      <trkpt lat="45.65245" lon="2.85522">
        <ele>1199.9</ele>
        <time>2021-08-26T05:34:23.000Z</time>
      </trkpt>
      <trkpt lat="45.65253" lon="2.85515">
        <ele>1198.7</ele>
        <time>2021-08-26T05:34:29.000Z</time>
      </trkpt>
      <trkpt lat="45.65259" lon="2.8551">
        <ele>1197.7</ele>
        <time>2021-08-26T05:34:35.000Z</time>
      </trkpt>
      <trkpt lat="45.65266" lon="2.8551">
        <ele>1196.9</ele>
        <time>2021-08-26T05:34:42.000Z</time>
      </trkpt>
      <trkpt lat="45.65272" lon="2.85506">
        <ele>1196</ele>
        <time>2021-08-26T05:34:49.000Z</time>
      </trkpt>
      <trkpt lat="45.65278" lon="2.85502">
        <ele>1195.1</ele>
        <time>2021-08-26T05:34:57.000Z</time>
      </trkpt>
      <trkpt lat="45.6528" lon="2.85493">
        <ele>1194.5</ele>
        <time>2021-08-26T05:35:03.000Z</time>
      </trkpt>
      <trkpt lat="45.65274" lon="2.85486">
        <ele>1194.8</ele>
        <time>2021-08-26T05:35:09.000Z</time>
      </trkpt>
      <trkpt lat="45.6527" lon="2.85469">
        <ele>1194.3</ele>
        <time>2021-08-26T05:35:18.000Z</time>
      </trkpt>
      <trkpt lat="45.65268" lon="2.85455">
        <ele>1193.8</ele>
        <time>2021-08-26T05:35:41.000Z</time>
      </trkpt>
      <trkpt lat="45.65268" lon="2.85441">
        <ele>1193.1</ele>
        <time>2021-08-26T05:35:46.000Z</time>
      </trkpt>
      <trkpt lat="45.65264" lon="2.85424">
        <ele>1192.5</ele>
        <time>2021-08-26T05:35:51.000Z</time>
      </trkpt>
      <trkpt lat="45.65257" lon="2.85419">
        <ele>1192.7</ele>
        <time>2021-08-26T05:35:57.000Z</time>
      </trkpt>
      <trkpt lat="45.6525" lon="2.85415">
        <ele>1193</ele>
        <time>2021-08-26T05:36:04.000Z</time>
      </trkpt>
      <trkpt lat="45.65257" lon="2.85417">
        <ele>1192.6</ele>
        <time>2021-08-26T05:36:14.000Z</time>
      </trkpt>
      <trkpt lat="45.65259" lon="2.85408">
        <ele>1192.3</ele>
        <time>2021-08-26T05:36:51.000Z</time>
      </trkpt>
      <trkpt lat="45.65263" lon="2.85399">
        <ele>1191.8</ele>
        <time>2021-08-26T05:36:58.000Z</time>
      </trkpt>
      <trkpt lat="45.65266" lon="2.85389">
        <ele>1191.4</ele>
        <time>2021-08-26T05:37:05.000Z</time>
      </trkpt>
      <trkpt lat="45.6527" lon="2.8538">
        <ele>1190.9</ele>
        <time>2021-08-26T05:37:12.000Z</time>
      </trkpt>
      <trkpt lat="45.65277" lon="2.85379">
        <ele>1190.5</ele>
        <time>2021-08-26T05:37:18.000Z</time>
      </trkpt>
      <trkpt lat="45.65284" lon="2.85382">
        <ele>1190.1</ele>
        <time>2021-08-26T05:37:23.000Z</time>
      </trkpt>
      <trkpt lat="45.65292" lon="2.85386">
        <ele>1189.7</ele>
        <time>2021-08-26T05:37:29.000Z</time>
      </trkpt>
      <trkpt lat="45.65299" lon="2.85388">
        <ele>1189.4</ele>
        <time>2021-08-26T05:37:34.000Z</time>
      </trkpt>
      <trkpt lat="45.65306" lon="2.85389">
        <ele>1189</ele>
        <time>2021-08-26T05:37:39.000Z</time>
      </trkpt>
      <trkpt lat="45.65314" lon="2.8539">
        <ele>1188.5</ele>
        <time>2021-08-26T05:37:46.000Z</time>
      </trkpt>
      <trkpt lat="45.65322" lon="2.85392">
        <ele>1188.1</ele>
        <time>2021-08-26T05:37:51.000Z</time>
      </trkpt>
      <trkpt lat="45.65332" lon="2.85393">
        <ele>1187.5</ele>
        <time>2021-08-26T05:37:57.000Z</time>
      </trkpt>
      <trkpt lat="45.65342" lon="2.85394">
        <ele>1186.4</ele>
        <time>2021-08-26T05:38:02.000Z</time>
      </trkpt>
      <trkpt lat="45.65354" lon="2.85395">
        <ele>1184.9</ele>
        <time>2021-08-26T05:38:07.000Z</time>
      </trkpt>
      <trkpt lat="45.65366" lon="2.85394">
        <ele>1183.5</ele>
        <time>2021-08-26T05:38:13.000Z</time>
      </trkpt>
      <trkpt lat="45.65377" lon="2.85395">
        <ele>1182.1</ele>
        <time>2021-08-26T05:38:18.000Z</time>
      </trkpt>
      <trkpt lat="45.65387" lon="2.85394">
        <ele>1180.9</ele>
        <time>2021-08-26T05:38:23.000Z</time>
      </trkpt>
      <trkpt lat="45.65401" lon="2.85396">
        <ele>1179.2</ele>
        <time>2021-08-26T05:38:29.000Z</time>
      </trkpt>
      <trkpt lat="45.65408" lon="2.85391">
        <ele>1178.4</ele>
        <time>2021-08-26T05:38:39.000Z</time>
      </trkpt>
      <trkpt lat="45.65417" lon="2.85391">
        <ele>1177.3</ele>
        <time>2021-08-26T05:38:45.000Z</time>
      </trkpt>
      <trkpt lat="45.65426" lon="2.85391">
        <ele>1177</ele>
        <time>2021-08-26T05:38:50.000Z</time>
      </trkpt>
      <trkpt lat="45.65432" lon="2.85395">
        <ele>1176.7</ele>
        <time>2021-08-26T05:38:58.000Z</time>
      </trkpt>
      <trkpt lat="45.65439" lon="2.85397">
        <ele>1176.4</ele>
        <time>2021-08-26T05:39:06.000Z</time>
      </trkpt>
      <trkpt lat="45.65449" lon="2.85396">
        <ele>1176.1</ele>
        <time>2021-08-26T05:39:11.000Z</time>
      </trkpt>
      <trkpt lat="45.65456" lon="2.85397">
        <ele>1175.8</ele>
        <time>2021-08-26T05:39:19.000Z</time>
      </trkpt>
      <trkpt lat="45.65463" lon="2.85395">
        <ele>1175.6</ele>
        <time>2021-08-26T05:39:26.000Z</time>
      </trkpt>
      <trkpt lat="45.6547" lon="2.85393">
        <ele>1175.5</ele>
        <time>2021-08-26T05:39:32.000Z</time>
      </trkpt>
      <trkpt lat="45.65476" lon="2.85388">
        <ele>1175.7</ele>
        <time>2021-08-26T05:39:45.000Z</time>
      </trkpt>
      <trkpt lat="45.65481" lon="2.85383">
        <ele>1176</ele>
        <time>2021-08-26T05:39:55.000Z</time>
      </trkpt>
      <trkpt lat="45.65488" lon="2.85378">
        <ele>1176.4</ele>
        <time>2021-08-26T05:40:02.000Z</time>
      </trkpt>
      <trkpt lat="45.65494" lon="2.85374">
        <ele>1176.7</ele>
        <time>2021-08-26T05:40:07.000Z</time>
      </trkpt>
      <trkpt lat="45.65506" lon="2.85365">
        <ele>1177</ele>
        <time>2021-08-26T05:40:13.000Z</time>
      </trkpt>
      <trkpt lat="45.65514" lon="2.85358">
        <ele>1176.9</ele>
        <time>2021-08-26T05:40:18.000Z</time>
      </trkpt>
      <trkpt lat="45.65521" lon="2.85353">
        <ele>1176.8</ele>
        <time>2021-08-26T05:40:23.000Z</time>
      </trkpt>
      <trkpt lat="45.65534" lon="2.85344">
        <ele>1176.5</ele>
        <time>2021-08-26T05:40:29.000Z</time>
      </trkpt>
      <trkpt lat="45.65544" lon="2.85338">
        <ele>1176.2</ele>
        <time>2021-08-26T05:40:34.000Z</time>
      </trkpt>
      <trkpt lat="45.65551" lon="2.85333">
        <ele>1176.1</ele>
        <time>2021-08-26T05:40:39.000Z</time>
      </trkpt>
      <trkpt lat="45.65558" lon="2.85326">
        <ele>1175.7</ele>
        <time>2021-08-26T05:40:45.000Z</time>
      </trkpt>
      <trkpt lat="45.65565" lon="2.85321">
        <ele>1175.2</ele>
        <time>2021-08-26T05:40:50.000Z</time>
      </trkpt>
      <trkpt lat="45.65573" lon="2.85312">
        <ele>1174.8</ele>
        <time>2021-08-26T05:40:55.000Z</time>
      </trkpt>
      <trkpt lat="45.65583" lon="2.85305">
        <ele>1174.1</ele>
        <time>2021-08-26T05:41:01.000Z</time>
      </trkpt>
      <trkpt lat="45.65588" lon="2.85298">
        <ele>1173.1</ele>
        <time>2021-08-26T05:41:07.000Z</time>
      </trkpt>
      <trkpt lat="45.65594" lon="2.85291">
        <ele>1171.8</ele>
        <time>2021-08-26T05:41:13.000Z</time>
      </trkpt>
      <trkpt lat="45.65601" lon="2.85283">
        <ele>1170.3</ele>
        <time>2021-08-26T05:41:18.000Z</time>
      </trkpt>
      <trkpt lat="45.65607" lon="2.85277">
        <ele>1169.1</ele>
        <time>2021-08-26T05:41:23.000Z</time>
      </trkpt>
      <trkpt lat="45.65612" lon="2.85271">
        <ele>1168.1</ele>
        <time>2021-08-26T05:41:29.000Z</time>
      </trkpt>
      <trkpt lat="45.65618" lon="2.85264">
        <ele>1167</ele>
        <time>2021-08-26T05:41:36.000Z</time>
      </trkpt>
      <trkpt lat="45.65623" lon="2.85257">
        <ele>1166.1</ele>
        <time>2021-08-26T05:41:41.000Z</time>
      </trkpt>
      <trkpt lat="45.65629" lon="2.85251">
        <ele>1165</ele>
        <time>2021-08-26T05:41:46.000Z</time>
      </trkpt>
      <trkpt lat="45.65636" lon="2.85243">
        <ele>1163.7</ele>
        <time>2021-08-26T05:41:51.000Z</time>
      </trkpt>
      <trkpt lat="45.65646" lon="2.85235">
        <ele>1161.8</ele>
        <time>2021-08-26T05:41:57.000Z</time>
      </trkpt>
      <trkpt lat="45.65651" lon="2.85227">
        <ele>1161.2</ele>
        <time>2021-08-26T05:42:02.000Z</time>
      </trkpt>
      <trkpt lat="45.65653" lon="2.85216">
        <ele>1161.4</ele>
        <time>2021-08-26T05:42:07.000Z</time>
      </trkpt>
      <trkpt lat="45.65654" lon="2.85207">
        <ele>1161.7</ele>
        <time>2021-08-26T05:42:22.000Z</time>
      </trkpt>
      <trkpt lat="45.65658" lon="2.85199">
        <ele>1161.4</ele>
        <time>2021-08-26T05:42:29.000Z</time>
      </trkpt>
      <trkpt lat="45.65661" lon="2.8519">
        <ele>1161.4</ele>
        <time>2021-08-26T05:42:37.000Z</time>
      </trkpt>
      <trkpt lat="45.65665" lon="2.85181">
        <ele>1161.3</ele>
        <time>2021-08-26T05:42:44.000Z</time>
      </trkpt>
      <trkpt lat="45.65674" lon="2.85174">
        <ele>1160.4</ele>
        <time>2021-08-26T05:42:49.000Z</time>
      </trkpt>
      <trkpt lat="45.65686" lon="2.85165">
        <ele>1159.3</ele>
        <time>2021-08-26T05:42:54.000Z</time>
      </trkpt>
      <trkpt lat="45.65693" lon="2.85159">
        <ele>1158.7</ele>
        <time>2021-08-26T05:42:59.000Z</time>
      </trkpt>
      <trkpt lat="45.65701" lon="2.85149">
        <ele>1158.2</ele>
        <time>2021-08-26T05:43:05.000Z</time>
      </trkpt>
      <trkpt lat="45.65706" lon="2.85141">
        <ele>1158</ele>
        <time>2021-08-26T05:43:10.000Z</time>
      </trkpt>
      <trkpt lat="45.65712" lon="2.85136">
        <ele>1157.5</ele>
        <time>2021-08-26T05:43:16.000Z</time>
      </trkpt>
      <trkpt lat="45.65716" lon="2.85127">
        <ele>1157.5</ele>
        <time>2021-08-26T05:43:24.000Z</time>
      </trkpt>
      <trkpt lat="45.65722" lon="2.8512">
        <ele>1157</ele>
        <time>2021-08-26T05:43:29.000Z</time>
      </trkpt>
      <trkpt lat="45.65727" lon="2.85114">
        <ele>1156.6</ele>
        <time>2021-08-26T05:43:34.000Z</time>
      </trkpt>
      <trkpt lat="45.65733" lon="2.85108">
        <ele>1156.1</ele>
        <time>2021-08-26T05:43:42.000Z</time>
      </trkpt>
      <trkpt lat="45.6574" lon="2.85102">
        <ele>1155.4</ele>
        <time>2021-08-26T05:43:50.000Z</time>
      </trkpt>
      <trkpt lat="45.65744" lon="2.85095">
        <ele>1155.2</ele>
        <time>2021-08-26T05:43:58.000Z</time>
      </trkpt>
      <trkpt lat="45.65748" lon="2.85087">
        <ele>1155.1</ele>
        <time>2021-08-26T05:44:06.000Z</time>
      </trkpt>
      <trkpt lat="45.65754" lon="2.85081">
        <ele>1154.3</ele>
        <time>2021-08-26T05:44:12.000Z</time>
      </trkpt>
      <trkpt lat="45.65762" lon="2.85076">
        <ele>1153</ele>
        <time>2021-08-26T05:44:17.000Z</time>
      </trkpt>
      <trkpt lat="45.65772" lon="2.85069">
        <ele>1151.3</ele>
        <time>2021-08-26T05:44:22.000Z</time>
      </trkpt>
      <trkpt lat="45.65779" lon="2.85064">
        <ele>1150.1</ele>
        <time>2021-08-26T05:44:27.000Z</time>
      </trkpt>
      <trkpt lat="45.65786" lon="2.85063">
        <ele>1149</ele>
        <time>2021-08-26T05:44:33.000Z</time>
      </trkpt>
      <trkpt lat="45.65793" lon="2.85058">
        <ele>1147.8</ele>
        <time>2021-08-26T05:44:38.000Z</time>
      </trkpt>
      <trkpt lat="45.65799" lon="2.85054">
        <ele>1146.8</ele>
        <time>2021-08-26T05:44:44.000Z</time>
      </trkpt>
      <trkpt lat="45.65805" lon="2.85049">
        <ele>1145.8</ele>
        <time>2021-08-26T05:44:51.000Z</time>
      </trkpt>
      <trkpt lat="45.65811" lon="2.85045">
        <ele>1144.8</ele>
        <time>2021-08-26T05:44:58.000Z</time>
      </trkpt>
      <trkpt lat="45.65817" lon="2.85042">
        <ele>1143.7</ele>
        <time>2021-08-26T05:45:07.000Z</time>
      </trkpt>
      <trkpt lat="45.65824" lon="2.85041">
        <ele>1142.6</ele>
        <time>2021-08-26T05:45:22.000Z</time>
      </trkpt>
      <trkpt lat="45.65834" lon="2.85035">
        <ele>1140.9</ele>
        <time>2021-08-26T05:45:32.000Z</time>
      </trkpt>
      <trkpt lat="45.65846" lon="2.8503">
        <ele>1139.5</ele>
        <time>2021-08-26T05:45:41.000Z</time>
      </trkpt>
      <trkpt lat="45.65855" lon="2.85027">
        <ele>1138.4</ele>
        <time>2021-08-26T05:48:12.000Z</time>
      </trkpt>
      <trkpt lat="45.65862" lon="2.85029">
        <ele>1137.5</ele>
        <time>2021-08-26T05:48:55.000Z</time>
      </trkpt>
      <trkpt lat="45.65868" lon="2.85026">
        <ele>1136.9</ele>
        <time>2021-08-26T05:49:03.000Z</time>
      </trkpt>
      <trkpt lat="45.65873" lon="2.8502">
        <ele>1136.5</ele>
        <time>2021-08-26T05:49:09.000Z</time>
      </trkpt>
      <trkpt lat="45.65879" lon="2.85014">
        <ele>1136.1</ele>
        <time>2021-08-26T05:49:14.000Z</time>
      </trkpt>
      <trkpt lat="45.65886" lon="2.85011">
        <ele>1135.4</ele>
        <time>2021-08-26T05:49:22.000Z</time>
      </trkpt>
      <trkpt lat="45.65892" lon="2.85007">
        <ele>1135</ele>
        <time>2021-08-26T05:49:27.000Z</time>
      </trkpt>
      <trkpt lat="45.65899" lon="2.85005">
        <ele>1134.4</ele>
        <time>2021-08-26T05:49:33.000Z</time>
      </trkpt>
      <trkpt lat="45.65906" lon="2.85003">
        <ele>1133.8</ele>
        <time>2021-08-26T05:49:38.000Z</time>
      </trkpt>
      <trkpt lat="45.65913" lon="2.85003">
        <ele>1133.1</ele>
        <time>2021-08-26T05:49:44.000Z</time>
      </trkpt>
      <trkpt lat="45.6592" lon="2.84999">
        <ele>1132.8</ele>
        <time>2021-08-26T05:49:53.000Z</time>
      </trkpt>
      <trkpt lat="45.65927" lon="2.84998">
        <ele>1132.4</ele>
        <time>2021-08-26T05:49:58.000Z</time>
      </trkpt>
      <trkpt lat="45.65935" lon="2.84996">
        <ele>1131.9</ele>
        <time>2021-08-26T05:50:03.000Z</time>
      </trkpt>
      <trkpt lat="45.65943" lon="2.84995">
        <ele>1131.4</ele>
        <time>2021-08-26T05:50:11.000Z</time>
      </trkpt>
      <trkpt lat="45.6595" lon="2.84994">
        <ele>1131</ele>
        <time>2021-08-26T05:50:18.000Z</time>
      </trkpt>
      <trkpt lat="45.65959" lon="2.84993">
        <ele>1130.4</ele>
        <time>2021-08-26T05:50:23.000Z</time>
      </trkpt>
      <trkpt lat="45.65967" lon="2.84991">
        <ele>1129.8</ele>
        <time>2021-08-26T05:50:29.000Z</time>
      </trkpt>
      <trkpt lat="45.65974" lon="2.8499">
        <ele>1129.3</ele>
        <time>2021-08-26T05:50:35.000Z</time>
      </trkpt>
      <trkpt lat="45.65981" lon="2.84988">
        <ele>1128.8</ele>
        <time>2021-08-26T05:50:41.000Z</time>
      </trkpt>
      <trkpt lat="45.65988" lon="2.84986">
        <ele>1128.2</ele>
        <time>2021-08-26T05:50:46.000Z</time>
      </trkpt>
      <trkpt lat="45.66001" lon="2.8498">
        <ele>1126.9</ele>
        <time>2021-08-26T05:50:51.000Z</time>
      </trkpt>
      <trkpt lat="45.6601" lon="2.84975">
        <ele>1125.6</ele>
        <time>2021-08-26T05:50:57.000Z</time>
      </trkpt>
      <trkpt lat="45.66016" lon="2.84971">
        <ele>1124.8</ele>
        <time>2021-08-26T05:51:02.000Z</time>
      </trkpt>
      <trkpt lat="45.66024" lon="2.84968">
        <ele>1123.9</ele>
        <time>2021-08-26T05:51:07.000Z</time>
      </trkpt>
      <trkpt lat="45.66032" lon="2.84964">
        <ele>1123</ele>
        <time>2021-08-26T05:51:13.000Z</time>
      </trkpt>
      <trkpt lat="45.66038" lon="2.84959">
        <ele>1122.4</ele>
        <time>2021-08-26T05:51:19.000Z</time>
      </trkpt>
      <trkpt lat="45.66046" lon="2.84957">
        <ele>1121.6</ele>
        <time>2021-08-26T05:51:25.000Z</time>
      </trkpt>
      <trkpt lat="45.66052" lon="2.84958">
        <ele>1121</ele>
        <time>2021-08-26T05:51:32.000Z</time>
      </trkpt>
      <trkpt lat="45.66058" lon="2.84953">
        <ele>1120.5</ele>
        <time>2021-08-26T05:51:43.000Z</time>
      </trkpt>
      <trkpt lat="45.66068" lon="2.84949">
        <ele>1119.8</ele>
        <time>2021-08-26T05:51:49.000Z</time>
      </trkpt>
      <trkpt lat="45.66076" lon="2.84945">
        <ele>1119.2</ele>
        <time>2021-08-26T05:51:54.000Z</time>
      </trkpt>
      <trkpt lat="45.66083" lon="2.84943">
        <ele>1118.8</ele>
        <time>2021-08-26T05:51:59.000Z</time>
      </trkpt>
      <trkpt lat="45.66089" lon="2.84939">
        <ele>1118.3</ele>
        <time>2021-08-26T05:52:06.000Z</time>
      </trkpt>
      <trkpt lat="45.66096" lon="2.84936">
        <ele>1117.6</ele>
        <time>2021-08-26T05:52:11.000Z</time>
      </trkpt>
      <trkpt lat="45.66104" lon="2.84932">
        <ele>1117</ele>
        <time>2021-08-26T05:52:17.000Z</time>
      </trkpt>
      <trkpt lat="45.66111" lon="2.84929">
        <ele>1116.4</ele>
        <time>2021-08-26T05:52:24.000Z</time>
      </trkpt>
      <trkpt lat="45.66117" lon="2.84924">
        <ele>1116.2</ele>
        <time>2021-08-26T05:52:30.000Z</time>
      </trkpt>
      <trkpt lat="45.66123" lon="2.84921">
        <ele>1115.8</ele>
        <time>2021-08-26T05:52:38.000Z</time>
      </trkpt>
      <trkpt lat="45.6613" lon="2.8492">
        <ele>1115.2</ele>
        <time>2021-08-26T05:52:45.000Z</time>
      </trkpt>
      <trkpt lat="45.66137" lon="2.84921">
        <ele>1114.4</ele>
        <time>2021-08-26T05:52:52.000Z</time>
      </trkpt>
      <trkpt lat="45.66143" lon="2.84915">
        <ele>1114.3</ele>
        <time>2021-08-26T05:52:58.000Z</time>
      </trkpt>
      <trkpt lat="45.66154" lon="2.84911">
        <ele>1113.2</ele>
        <time>2021-08-26T05:53:03.000Z</time>
      </trkpt>
      <trkpt lat="45.66166" lon="2.84902">
        <ele>1112.1</ele>
        <time>2021-08-26T05:53:09.000Z</time>
      </trkpt>
      <trkpt lat="45.66176" lon="2.84896">
        <ele>1110.6</ele>
        <time>2021-08-26T05:53:14.000Z</time>
      </trkpt>
      <trkpt lat="45.66184" lon="2.84891">
        <ele>1109.4</ele>
        <time>2021-08-26T05:53:19.000Z</time>
      </trkpt>
      <trkpt lat="45.6619" lon="2.84886">
        <ele>1108.5</ele>
        <time>2021-08-26T05:53:25.000Z</time>
      </trkpt>
      <trkpt lat="45.66194" lon="2.84878">
        <ele>1107.9</ele>
        <time>2021-08-26T05:53:33.000Z</time>
      </trkpt>
      <trkpt lat="45.66198" lon="2.84866">
        <ele>1107.3</ele>
        <time>2021-08-26T05:53:38.000Z</time>
      </trkpt>
      <trkpt lat="45.66198" lon="2.84857">
        <ele>1107.2</ele>
        <time>2021-08-26T05:53:48.000Z</time>
      </trkpt>
      <trkpt lat="45.66198" lon="2.84847">
        <ele>1107.2</ele>
        <time>2021-08-26T05:54:06.000Z</time>
      </trkpt>
      <trkpt lat="45.662" lon="2.84835">
        <ele>1106.8</ele>
        <time>2021-08-26T05:54:12.000Z</time>
      </trkpt>
      <trkpt lat="45.662" lon="2.84825">
        <ele>1105.9</ele>
        <time>2021-08-26T05:54:17.000Z</time>
      </trkpt>
      <trkpt lat="45.662" lon="2.84814">
        <ele>1104.8</ele>
        <time>2021-08-26T05:54:23.000Z</time>
      </trkpt>
      <trkpt lat="45.66201" lon="2.84801">
        <ele>1103.3</ele>
        <time>2021-08-26T05:54:29.000Z</time>
      </trkpt>
      <trkpt lat="45.66202" lon="2.8479">
        <ele>1102.1</ele>
        <time>2021-08-26T05:54:35.000Z</time>
      </trkpt>
      <trkpt lat="45.66206" lon="2.84781">
        <ele>1100.7</ele>
        <time>2021-08-26T05:54:41.000Z</time>
      </trkpt>
      <trkpt lat="45.66212" lon="2.84775">
        <ele>1099.5</ele>
        <time>2021-08-26T05:54:47.000Z</time>
      </trkpt>
      <trkpt lat="45.66219" lon="2.84773">
        <ele>1098.6</ele>
        <time>2021-08-26T05:54:57.000Z</time>
      </trkpt>
      <trkpt lat="45.66226" lon="2.84771">
        <ele>1097.7</ele>
        <time>2021-08-26T05:55:02.000Z</time>
      </trkpt>
      <trkpt lat="45.66233" lon="2.84769">
        <ele>1096.8</ele>
        <time>2021-08-26T05:55:07.000Z</time>
      </trkpt>
      <trkpt lat="45.66242" lon="2.84766">
        <ele>1095.7</ele>
        <time>2021-08-26T05:55:13.000Z</time>
      </trkpt>
      <trkpt lat="45.6625" lon="2.84763">
        <ele>1094.8</ele>
        <time>2021-08-26T05:55:18.000Z</time>
      </trkpt>
      <trkpt lat="45.66257" lon="2.84762">
        <ele>1094.1</ele>
        <time>2021-08-26T05:55:23.000Z</time>
      </trkpt>
      <trkpt lat="45.66265" lon="2.84758">
        <ele>1093.2</ele>
        <time>2021-08-26T05:55:29.000Z</time>
      </trkpt>
      <trkpt lat="45.66272" lon="2.84753">
        <ele>1092.3</ele>
        <time>2021-08-26T05:55:34.000Z</time>
      </trkpt>
      <trkpt lat="45.66278" lon="2.84747">
        <ele>1091.4</ele>
        <time>2021-08-26T05:55:40.000Z</time>
      </trkpt>
      <trkpt lat="45.66285" lon="2.84743">
        <ele>1090.5</ele>
        <time>2021-08-26T05:55:45.000Z</time>
      </trkpt>
      <trkpt lat="45.66291" lon="2.84737">
        <ele>1089.5</ele>
        <time>2021-08-26T05:55:50.000Z</time>
      </trkpt>
      <trkpt lat="45.66298" lon="2.84732">
        <ele>1088.5</ele>
        <time>2021-08-26T05:55:55.000Z</time>
      </trkpt>
      <trkpt lat="45.66305" lon="2.84726">
        <ele>1087.5</ele>
        <time>2021-08-26T05:56:01.000Z</time>
      </trkpt>
      <trkpt lat="45.66311" lon="2.8472">
        <ele>1086.5</ele>
        <time>2021-08-26T05:56:07.000Z</time>
      </trkpt>
      <trkpt lat="45.66313" lon="2.84711">
        <ele>1085.5</ele>
        <time>2021-08-26T05:56:13.000Z</time>
      </trkpt>
      <trkpt lat="45.66309" lon="2.84704">
        <ele>1085.3</ele>
        <time>2021-08-26T05:56:19.000Z</time>
      </trkpt>
      <trkpt lat="45.66302" lon="2.84701">
        <ele>1085.7</ele>
        <time>2021-08-26T05:56:26.000Z</time>
      </trkpt>
      <trkpt lat="45.66295" lon="2.84697">
        <ele>1086.1</ele>
        <time>2021-08-26T05:56:31.000Z</time>
      </trkpt>
      <trkpt lat="45.66289" lon="2.84693">
        <ele>1086.3</ele>
        <time>2021-08-26T05:56:38.000Z</time>
      </trkpt>
      <trkpt lat="45.66284" lon="2.84684">
        <ele>1086.1</ele>
        <time>2021-08-26T05:56:44.000Z</time>
      </trkpt>
      <trkpt lat="45.66279" lon="2.84677">
        <ele>1086</ele>
        <time>2021-08-26T05:56:50.000Z</time>
      </trkpt>
      <trkpt lat="45.66274" lon="2.84671">
        <ele>1086</ele>
        <time>2021-08-26T05:56:55.000Z</time>
      </trkpt>
      <trkpt lat="45.66267" lon="2.84664">
        <ele>1086</ele>
        <time>2021-08-26T05:57:01.000Z</time>
      </trkpt>
      <trkpt lat="45.6626" lon="2.84661">
        <ele>1086.3</ele>
        <time>2021-08-26T05:57:06.000Z</time>
      </trkpt>
      <trkpt lat="45.66253" lon="2.84656">
        <ele>1086.3</ele>
        <time>2021-08-26T05:57:11.000Z</time>
      </trkpt>
      <trkpt lat="45.66246" lon="2.84651">
        <ele>1086.1</ele>
        <time>2021-08-26T05:57:17.000Z</time>
      </trkpt>
      <trkpt lat="45.66239" lon="2.84644">
        <ele>1085.4</ele>
        <time>2021-08-26T05:57:22.000Z</time>
      </trkpt>
      <trkpt lat="45.66233" lon="2.8464">
        <ele>1085.1</ele>
        <time>2021-08-26T05:57:27.000Z</time>
      </trkpt>
      <trkpt lat="45.66226" lon="2.84635">
        <ele>1084.6</ele>
        <time>2021-08-26T05:57:33.000Z</time>
      </trkpt>
      <trkpt lat="45.6622" lon="2.84629">
        <ele>1084</ele>
        <time>2021-08-26T05:57:39.000Z</time>
      </trkpt>
      <trkpt lat="45.66214" lon="2.84624">
        <ele>1083.4</ele>
        <time>2021-08-26T05:57:45.000Z</time>
      </trkpt>
      <trkpt lat="45.66208" lon="2.84619">
        <ele>1082.9</ele>
        <time>2021-08-26T05:57:51.000Z</time>
      </trkpt>
      <trkpt lat="45.662" lon="2.84613">
        <ele>1082.2</ele>
        <time>2021-08-26T05:57:57.000Z</time>
      </trkpt>
      <trkpt lat="45.66194" lon="2.84607">
        <ele>1081.4</ele>
        <time>2021-08-26T05:58:02.000Z</time>
      </trkpt>
      <trkpt lat="45.66187" lon="2.846">
        <ele>1080.4</ele>
        <time>2021-08-26T05:58:07.000Z</time>
      </trkpt>
      <trkpt lat="45.66181" lon="2.84595">
        <ele>1079.7</ele>
        <time>2021-08-26T05:58:13.000Z</time>
      </trkpt>
      <trkpt lat="45.66176" lon="2.8459">
        <ele>1079</ele>
        <time>2021-08-26T05:58:18.000Z</time>
      </trkpt>
      <trkpt lat="45.66171" lon="2.84581">
        <ele>1077.4</ele>
        <time>2021-08-26T05:58:23.000Z</time>
      </trkpt>
      <trkpt lat="45.66166" lon="2.84573">
        <ele>1075.6</ele>
        <time>2021-08-26T05:58:30.000Z</time>
      </trkpt>
      <trkpt lat="45.6616" lon="2.84565">
        <ele>1073.1</ele>
        <time>2021-08-26T05:58:35.000Z</time>
      </trkpt>
      <trkpt lat="45.66156" lon="2.84572">
        <ele>1074.3</ele>
        <time>2021-08-26T05:59:08.000Z</time>
      </trkpt>
      <trkpt lat="45.6616" lon="2.8458">
        <ele>1076.5</ele>
        <time>2021-08-26T05:59:16.000Z</time>
      </trkpt>
      <trkpt lat="45.66166" lon="2.84587">
        <ele>1078.5</ele>
        <time>2021-08-26T05:59:22.000Z</time>
      </trkpt>
      <trkpt lat="45.66176" lon="2.84595">
        <ele>1079.8</ele>
        <time>2021-08-26T05:59:27.000Z</time>
      </trkpt>
      <trkpt lat="45.66186" lon="2.846">
        <ele>1080.4</ele>
        <time>2021-08-26T05:59:33.000Z</time>
      </trkpt>
      <trkpt lat="45.66192" lon="2.84605">
        <ele>1081.1</ele>
        <time>2021-08-26T05:59:40.000Z</time>
      </trkpt>
      <trkpt lat="45.66196" lon="2.84612">
        <ele>1082.1</ele>
        <time>2021-08-26T05:59:46.000Z</time>
      </trkpt>
      <trkpt lat="45.662" lon="2.8462">
        <ele>1083.2</ele>
        <time>2021-08-26T05:59:52.000Z</time>
      </trkpt>
      <trkpt lat="45.66206" lon="2.84628">
        <ele>1084.3</ele>
        <time>2021-08-26T05:59:59.000Z</time>
      </trkpt>
      <trkpt lat="45.66212" lon="2.84632">
        <ele>1084.7</ele>
        <time>2021-08-26T06:00:06.000Z</time>
      </trkpt>
      <trkpt lat="45.66217" lon="2.84638">
        <ele>1085.4</ele>
        <time>2021-08-26T06:00:12.000Z</time>
      </trkpt>
      <trkpt lat="45.66223" lon="2.84644">
        <ele>1086</ele>
        <time>2021-08-26T06:00:17.000Z</time>
      </trkpt>
      <trkpt lat="45.66229" lon="2.8465">
        <ele>1086.7</ele>
        <time>2021-08-26T06:00:23.000Z</time>
      </trkpt>
      <trkpt lat="45.66237" lon="2.84656">
        <ele>1087.2</ele>
        <time>2021-08-26T06:00:29.000Z</time>
      </trkpt>
      <trkpt lat="45.66243" lon="2.8466">
        <ele>1087.4</ele>
        <time>2021-08-26T06:00:34.000Z</time>
      </trkpt>
      <trkpt lat="45.6625" lon="2.84664">
        <ele>1087.6</ele>
        <time>2021-08-26T06:00:39.000Z</time>
      </trkpt>
      <trkpt lat="45.66258" lon="2.84669">
        <ele>1087.4</ele>
        <time>2021-08-26T06:00:45.000Z</time>
      </trkpt>
      <trkpt lat="45.66265" lon="2.84672">
        <ele>1087</ele>
        <time>2021-08-26T06:00:50.000Z</time>
      </trkpt>
      <trkpt lat="45.66272" lon="2.84676">
        <ele>1086.6</ele>
        <time>2021-08-26T06:00:55.000Z</time>
      </trkpt>
      <trkpt lat="45.66278" lon="2.84683">
        <ele>1086.6</ele>
        <time>2021-08-26T06:01:01.000Z</time>
      </trkpt>
      <trkpt lat="45.66285" lon="2.84688">
        <ele>1086.3</ele>
        <time>2021-08-26T06:01:07.000Z</time>
      </trkpt>
      <trkpt lat="45.66291" lon="2.84693">
        <ele>1086.1</ele>
        <time>2021-08-26T06:01:13.000Z</time>
      </trkpt>
      <trkpt lat="45.66297" lon="2.84697">
        <ele>1085.9</ele>
        <time>2021-08-26T06:01:19.000Z</time>
      </trkpt>
      <trkpt lat="45.66305" lon="2.84704">
        <ele>1085.7</ele>
        <time>2021-08-26T06:01:25.000Z</time>
      </trkpt>
      <trkpt lat="45.66311" lon="2.8471">
        <ele>1085.6</ele>
        <time>2021-08-26T06:01:30.000Z</time>
      </trkpt>
      <trkpt lat="45.66316" lon="2.84717">
        <ele>1085.8</ele>
        <time>2021-08-26T06:01:36.000Z</time>
      </trkpt>
      <trkpt lat="45.66322" lon="2.84724">
        <ele>1085.8</ele>
        <time>2021-08-26T06:01:43.000Z</time>
      </trkpt>
      <trkpt lat="45.66327" lon="2.8473">
        <ele>1085.9</ele>
        <time>2021-08-26T06:01:49.000Z</time>
      </trkpt>
      <trkpt lat="45.66333" lon="2.84736">
        <ele>1085.9</ele>
        <time>2021-08-26T06:01:56.000Z</time>
      </trkpt>
      <trkpt lat="45.66338" lon="2.84742">
        <ele>1086.4</ele>
        <time>2021-08-26T06:02:02.000Z</time>
      </trkpt>
      <trkpt lat="45.66344" lon="2.84746">
        <ele>1086.8</ele>
        <time>2021-08-26T06:02:07.000Z</time>
      </trkpt>
      <trkpt lat="45.66353" lon="2.84751">
        <ele>1087.2</ele>
        <time>2021-08-26T06:02:13.000Z</time>
      </trkpt>
      <trkpt lat="45.66359" lon="2.84755">
        <ele>1087.3</ele>
        <time>2021-08-26T06:02:18.000Z</time>
      </trkpt>
      <trkpt lat="45.66365" lon="2.84758">
        <ele>1087.4</ele>
        <time>2021-08-26T06:02:23.000Z</time>
      </trkpt>
      <trkpt lat="45.66374" lon="2.84763">
        <ele>1087.4</ele>
        <time>2021-08-26T06:02:29.000Z</time>
      </trkpt>
      <trkpt lat="45.66381" lon="2.84767">
        <ele>1087.4</ele>
        <time>2021-08-26T06:02:34.000Z</time>
      </trkpt>
      <trkpt lat="45.66388" lon="2.8477">
        <ele>1087.4</ele>
        <time>2021-08-26T06:02:39.000Z</time>
      </trkpt>
      <trkpt lat="45.66396" lon="2.84775">
        <ele>1087.4</ele>
        <time>2021-08-26T06:02:45.000Z</time>
      </trkpt>
      <trkpt lat="45.66403" lon="2.84779">
        <ele>1087.3</ele>
        <time>2021-08-26T06:02:50.000Z</time>
      </trkpt>
      <trkpt lat="45.66409" lon="2.84783">
        <ele>1087.2</ele>
        <time>2021-08-26T06:02:55.000Z</time>
      </trkpt>
      <trkpt lat="45.66416" lon="2.84788">
        <ele>1087.1</ele>
        <time>2021-08-26T06:03:01.000Z</time>
      </trkpt>
      <trkpt lat="45.66422" lon="2.84793">
        <ele>1087</ele>
        <time>2021-08-26T06:03:06.000Z</time>
      </trkpt>
      <trkpt lat="45.66428" lon="2.84799">
        <ele>1086.8</ele>
        <time>2021-08-26T06:03:11.000Z</time>
      </trkpt>
      <trkpt lat="45.66435" lon="2.84805">
        <ele>1086.6</ele>
        <time>2021-08-26T06:03:17.000Z</time>
      </trkpt>
      <trkpt lat="45.66442" lon="2.8481">
        <ele>1086.4</ele>
        <time>2021-08-26T06:03:22.000Z</time>
      </trkpt>
      <trkpt lat="45.66449" lon="2.84816">
        <ele>1086.2</ele>
        <time>2021-08-26T06:03:27.000Z</time>
      </trkpt>
      <trkpt lat="45.66456" lon="2.84822">
        <ele>1085.9</ele>
        <time>2021-08-26T06:03:33.000Z</time>
      </trkpt>
      <trkpt lat="45.66463" lon="2.84826">
        <ele>1085.7</ele>
        <time>2021-08-26T06:03:38.000Z</time>
      </trkpt>
      <trkpt lat="45.66471" lon="2.8483">
        <ele>1085.5</ele>
        <time>2021-08-26T06:03:43.000Z</time>
      </trkpt>
      <trkpt lat="45.66479" lon="2.84835">
        <ele>1085.2</ele>
        <time>2021-08-26T06:03:49.000Z</time>
      </trkpt>
      <trkpt lat="45.66485" lon="2.84839">
        <ele>1084.8</ele>
        <time>2021-08-26T06:03:54.000Z</time>
      </trkpt>
      <trkpt lat="45.66493" lon="2.84844">
        <ele>1084.4</ele>
        <time>2021-08-26T06:03:59.000Z</time>
      </trkpt>
      <trkpt lat="45.66501" lon="2.84849">
        <ele>1083.8</ele>
        <time>2021-08-26T06:04:05.000Z</time>
      </trkpt>
      <trkpt lat="45.66507" lon="2.84853">
        <ele>1083.4</ele>
        <time>2021-08-26T06:04:10.000Z</time>
      </trkpt>
      <trkpt lat="45.66515" lon="2.84857">
        <ele>1082.9</ele>
        <time>2021-08-26T06:04:16.000Z</time>
      </trkpt>
      <trkpt lat="45.66521" lon="2.84861">
        <ele>1082.5</ele>
        <time>2021-08-26T06:04:21.000Z</time>
      </trkpt>
      <trkpt lat="45.66527" lon="2.84866">
        <ele>1082</ele>
        <time>2021-08-26T06:04:27.000Z</time>
      </trkpt>
      <trkpt lat="45.66534" lon="2.8487">
        <ele>1081.5</ele>
        <time>2021-08-26T06:04:33.000Z</time>
      </trkpt>
      <trkpt lat="45.66541" lon="2.84873">
        <ele>1081.2</ele>
        <time>2021-08-26T06:04:39.000Z</time>
      </trkpt>
      <trkpt lat="45.6655" lon="2.84878">
        <ele>1080.6</ele>
        <time>2021-08-26T06:04:45.000Z</time>
      </trkpt>
      <trkpt lat="45.66558" lon="2.84882">
        <ele>1080.1</ele>
        <time>2021-08-26T06:04:50.000Z</time>
      </trkpt>
      <trkpt lat="45.66565" lon="2.84885">
        <ele>1079.7</ele>
        <time>2021-08-26T06:04:55.000Z</time>
      </trkpt>
      <trkpt lat="45.66572" lon="2.8489">
        <ele>1079.2</ele>
        <time>2021-08-26T06:05:01.000Z</time>
      </trkpt>
      <trkpt lat="45.66579" lon="2.84894">
        <ele>1078.7</ele>
        <time>2021-08-26T06:05:06.000Z</time>
      </trkpt>
      <trkpt lat="45.66586" lon="2.84898">
        <ele>1078.3</ele>
        <time>2021-08-26T06:05:11.000Z</time>
      </trkpt>
      <trkpt lat="45.66594" lon="2.84902">
        <ele>1077.7</ele>
        <time>2021-08-26T06:05:17.000Z</time>
      </trkpt>
      <trkpt lat="45.66601" lon="2.84904">
        <ele>1077.3</ele>
        <time>2021-08-26T06:05:22.000Z</time>
      </trkpt>
      <trkpt lat="45.66608" lon="2.84906">
        <ele>1076.9</ele>
        <time>2021-08-26T06:05:27.000Z</time>
      </trkpt>
      <trkpt lat="45.66616" lon="2.8491">
        <ele>1076.3</ele>
        <time>2021-08-26T06:05:33.000Z</time>
      </trkpt>
      <trkpt lat="45.66623" lon="2.84912">
        <ele>1075.9</ele>
        <time>2021-08-26T06:05:38.000Z</time>
      </trkpt>
      <trkpt lat="45.66632" lon="2.84914">
        <ele>1075.5</ele>
        <time>2021-08-26T06:05:43.000Z</time>
      </trkpt>
      <trkpt lat="45.66641" lon="2.84915">
        <ele>1075.1</ele>
        <time>2021-08-26T06:05:49.000Z</time>
      </trkpt>
      <trkpt lat="45.66649" lon="2.84916">
        <ele>1074.7</ele>
        <time>2021-08-26T06:05:54.000Z</time>
      </trkpt>
      <trkpt lat="45.66658" lon="2.84918">
        <ele>1074.2</ele>
        <time>2021-08-26T06:05:59.000Z</time>
      </trkpt>
      <trkpt lat="45.66667" lon="2.84922">
        <ele>1073.6</ele>
        <time>2021-08-26T06:06:05.000Z</time>
      </trkpt>
      <trkpt lat="45.66674" lon="2.84924">
        <ele>1073.3</ele>
        <time>2021-08-26T06:06:10.000Z</time>
      </trkpt>
      <trkpt lat="45.66682" lon="2.84927">
        <ele>1072.8</ele>
        <time>2021-08-26T06:06:15.000Z</time>
      </trkpt>
      <trkpt lat="45.66691" lon="2.8493">
        <ele>1072.4</ele>
        <time>2021-08-26T06:06:21.000Z</time>
      </trkpt>
      <trkpt lat="45.66697" lon="2.84932">
        <ele>1072</ele>
        <time>2021-08-26T06:06:26.000Z</time>
      </trkpt>
      <trkpt lat="45.66704" lon="2.84934">
        <ele>1071.7</ele>
        <time>2021-08-26T06:06:31.000Z</time>
      </trkpt>
      <trkpt lat="45.66713" lon="2.84937">
        <ele>1071.2</ele>
        <time>2021-08-26T06:06:37.000Z</time>
      </trkpt>
      <trkpt lat="45.6672" lon="2.8494">
        <ele>1070.7</ele>
        <time>2021-08-26T06:06:42.000Z</time>
      </trkpt>
      <trkpt lat="45.66727" lon="2.84943">
        <ele>1070.2</ele>
        <time>2021-08-26T06:06:47.000Z</time>
      </trkpt>
      <trkpt lat="45.66735" lon="2.84946">
        <ele>1069.7</ele>
        <time>2021-08-26T06:06:53.000Z</time>
      </trkpt>
      <trkpt lat="45.66742" lon="2.8495">
        <ele>1069.1</ele>
        <time>2021-08-26T06:06:58.000Z</time>
      </trkpt>
      <trkpt lat="45.66749" lon="2.84952">
        <ele>1068.6</ele>
        <time>2021-08-26T06:07:03.000Z</time>
      </trkpt>
      <trkpt lat="45.66758" lon="2.84955">
        <ele>1067.8</ele>
        <time>2021-08-26T06:07:09.000Z</time>
      </trkpt>
      <trkpt lat="45.66766" lon="2.84957">
        <ele>1067.1</ele>
        <time>2021-08-26T06:07:14.000Z</time>
      </trkpt>
      <trkpt lat="45.66773" lon="2.8496">
        <ele>1066.3</ele>
        <time>2021-08-26T06:07:19.000Z</time>
      </trkpt>
      <trkpt lat="45.66781" lon="2.84963">
        <ele>1065.5</ele>
        <time>2021-08-26T06:07:25.000Z</time>
      </trkpt>
      <trkpt lat="45.66789" lon="2.84967">
        <ele>1064.6</ele>
        <time>2021-08-26T06:07:31.000Z</time>
      </trkpt>
      <trkpt lat="45.66798" lon="2.8497">
        <ele>1063.8</ele>
        <time>2021-08-26T06:07:37.000Z</time>
      </trkpt>
      <trkpt lat="45.66805" lon="2.84972">
        <ele>1063.2</ele>
        <time>2021-08-26T06:07:42.000Z</time>
      </trkpt>
      <trkpt lat="45.66812" lon="2.84975">
        <ele>1062.5</ele>
        <time>2021-08-26T06:07:47.000Z</time>
      </trkpt>
      <trkpt lat="45.6682" lon="2.84978">
        <ele>1061.7</ele>
        <time>2021-08-26T06:07:53.000Z</time>
      </trkpt>
      <trkpt lat="45.66827" lon="2.84981">
        <ele>1061</ele>
        <time>2021-08-26T06:07:58.000Z</time>
      </trkpt>
      <trkpt lat="45.66834" lon="2.84984">
        <ele>1060.3</ele>
        <time>2021-08-26T06:08:03.000Z</time>
      </trkpt>
      <trkpt lat="45.66843" lon="2.84988">
        <ele>1059.4</ele>
        <time>2021-08-26T06:08:09.000Z</time>
      </trkpt>
      <trkpt lat="45.6685" lon="2.84991">
        <ele>1058.7</ele>
        <time>2021-08-26T06:08:14.000Z</time>
      </trkpt>
      <trkpt lat="45.66858" lon="2.84994">
        <ele>1058</ele>
        <time>2021-08-26T06:08:19.000Z</time>
      </trkpt>
      <trkpt lat="45.66867" lon="2.84999">
        <ele>1057.1</ele>
        <time>2021-08-26T06:08:25.000Z</time>
      </trkpt>
      <trkpt lat="45.66874" lon="2.85001">
        <ele>1056.5</ele>
        <time>2021-08-26T06:08:30.000Z</time>
      </trkpt>
      <trkpt lat="45.6688" lon="2.85003">
        <ele>1055.9</ele>
        <time>2021-08-26T06:08:35.000Z</time>
      </trkpt>
      <trkpt lat="45.66889" lon="2.85007">
        <ele>1055</ele>
        <time>2021-08-26T06:08:41.000Z</time>
      </trkpt>
      <trkpt lat="45.66896" lon="2.8501">
        <ele>1054.3</ele>
        <time>2021-08-26T06:08:46.000Z</time>
      </trkpt>
      <trkpt lat="45.66902" lon="2.85014">
        <ele>1053.5</ele>
        <time>2021-08-26T06:08:51.000Z</time>
      </trkpt>
      <trkpt lat="45.6691" lon="2.85018">
        <ele>1052.7</ele>
        <time>2021-08-26T06:08:57.000Z</time>
      </trkpt>
      <trkpt lat="45.66917" lon="2.85021">
        <ele>1052</ele>
        <time>2021-08-26T06:09:02.000Z</time>
      </trkpt>
      <trkpt lat="45.66925" lon="2.85025">
        <ele>1051.1</ele>
        <time>2021-08-26T06:09:08.000Z</time>
      </trkpt>
      <trkpt lat="45.66932" lon="2.8503">
        <ele>1050.3</ele>
        <time>2021-08-26T06:09:14.000Z</time>
      </trkpt>
      <trkpt lat="45.66939" lon="2.85033">
        <ele>1049.6</ele>
        <time>2021-08-26T06:09:19.000Z</time>
      </trkpt>
      <trkpt lat="45.66949" lon="2.85037">
        <ele>1048.8</ele>
        <time>2021-08-26T06:09:25.000Z</time>
      </trkpt>
      <trkpt lat="45.66955" lon="2.85041">
        <ele>1048.2</ele>
        <time>2021-08-26T06:09:30.000Z</time>
      </trkpt>
      <trkpt lat="45.66962" lon="2.85044">
        <ele>1047.7</ele>
        <time>2021-08-26T06:09:35.000Z</time>
      </trkpt>
      <trkpt lat="45.6697" lon="2.85049">
        <ele>1047</ele>
        <time>2021-08-26T06:09:41.000Z</time>
      </trkpt>
      <trkpt lat="45.66977" lon="2.85051">
        <ele>1046.5</ele>
        <time>2021-08-26T06:09:48.000Z</time>
      </trkpt>
      <trkpt lat="45.66983" lon="2.85055">
        <ele>1046</ele>
        <time>2021-08-26T06:10:03.000Z</time>
      </trkpt>
      <trkpt lat="45.66989" lon="2.85054">
        <ele>1045.9</ele>
        <time>2021-08-26T06:10:12.000Z</time>
      </trkpt>
      <trkpt lat="45.66996" lon="2.85056">
        <ele>1045.5</ele>
        <time>2021-08-26T06:10:18.000Z</time>
      </trkpt>
      <trkpt lat="45.67003" lon="2.85059">
        <ele>1045</ele>
        <time>2021-08-26T06:10:23.000Z</time>
      </trkpt>
      <trkpt lat="45.67011" lon="2.85063">
        <ele>1044.2</ele>
        <time>2021-08-26T06:10:29.000Z</time>
      </trkpt>
      <trkpt lat="45.67019" lon="2.85066">
        <ele>1043.5</ele>
        <time>2021-08-26T06:10:34.000Z</time>
      </trkpt>
      <trkpt lat="45.67026" lon="2.85069">
        <ele>1043</ele>
        <time>2021-08-26T06:10:39.000Z</time>
      </trkpt>
      <trkpt lat="45.67036" lon="2.85072">
        <ele>1042.2</ele>
        <time>2021-08-26T06:10:45.000Z</time>
      </trkpt>
      <trkpt lat="45.67043" lon="2.85076">
        <ele>1041.6</ele>
        <time>2021-08-26T06:10:50.000Z</time>
      </trkpt>
      <trkpt lat="45.6705" lon="2.85078">
        <ele>1041.1</ele>
        <time>2021-08-26T06:10:55.000Z</time>
      </trkpt>
      <trkpt lat="45.67059" lon="2.85081">
        <ele>1040.5</ele>
        <time>2021-08-26T06:11:01.000Z</time>
      </trkpt>
      <trkpt lat="45.67066" lon="2.85084">
        <ele>1040</ele>
        <time>2021-08-26T06:11:06.000Z</time>
      </trkpt>
      <trkpt lat="45.67074" lon="2.85086">
        <ele>1039.4</ele>
        <time>2021-08-26T06:11:11.000Z</time>
      </trkpt>
      <trkpt lat="45.67082" lon="2.85089">
        <ele>1038.8</ele>
        <time>2021-08-26T06:11:17.000Z</time>
      </trkpt>
      <trkpt lat="45.67089" lon="2.85091">
        <ele>1038.4</ele>
        <time>2021-08-26T06:11:22.000Z</time>
      </trkpt>
      <trkpt lat="45.67097" lon="2.85094">
        <ele>1037.9</ele>
        <time>2021-08-26T06:11:28.000Z</time>
      </trkpt>
      <trkpt lat="45.67104" lon="2.85095">
        <ele>1037.5</ele>
        <time>2021-08-26T06:11:33.000Z</time>
      </trkpt>
      <trkpt lat="45.6711" lon="2.85098">
        <ele>1037.1</ele>
        <time>2021-08-26T06:11:38.000Z</time>
      </trkpt>
      <trkpt lat="45.67117" lon="2.851">
        <ele>1036.7</ele>
        <time>2021-08-26T06:11:43.000Z</time>
      </trkpt>
      <trkpt lat="45.67125" lon="2.85103">
        <ele>1036.2</ele>
        <time>2021-08-26T06:11:49.000Z</time>
      </trkpt>
      <trkpt lat="45.67133" lon="2.85105">
        <ele>1035.7</ele>
        <time>2021-08-26T06:11:54.000Z</time>
      </trkpt>
      <trkpt lat="45.6714" lon="2.85107">
        <ele>1035.3</ele>
        <time>2021-08-26T06:11:59.000Z</time>
      </trkpt>
      <trkpt lat="45.6715" lon="2.8511">
        <ele>1034.8</ele>
        <time>2021-08-26T06:12:05.000Z</time>
      </trkpt>
      <trkpt lat="45.67156" lon="2.85112">
        <ele>1034.4</ele>
        <time>2021-08-26T06:12:10.000Z</time>
      </trkpt>
      <trkpt lat="45.67163" lon="2.85114">
        <ele>1034.1</ele>
        <time>2021-08-26T06:12:15.000Z</time>
      </trkpt>
      <trkpt lat="45.67172" lon="2.85117">
        <ele>1033.6</ele>
        <time>2021-08-26T06:12:21.000Z</time>
      </trkpt>
      <trkpt lat="45.67178" lon="2.85119">
        <ele>1033.4</ele>
        <time>2021-08-26T06:12:26.000Z</time>
      </trkpt>
      <trkpt lat="45.67185" lon="2.8512">
        <ele>1033.2</ele>
        <time>2021-08-26T06:12:32.000Z</time>
      </trkpt>
      <trkpt lat="45.67192" lon="2.85117">
        <ele>1033.1</ele>
        <time>2021-08-26T06:12:38.000Z</time>
      </trkpt>
      <trkpt lat="45.67192" lon="2.85105">
        <ele>1033.3</ele>
        <time>2021-08-26T06:13:00.000Z</time>
      </trkpt>
      <trkpt lat="45.67188" lon="2.85097">
        <ele>1033.7</ele>
        <time>2021-08-26T06:13:06.000Z</time>
      </trkpt>
      <trkpt lat="45.67185" lon="2.85089">
        <ele>1034</ele>
        <time>2021-08-26T06:13:13.000Z</time>
      </trkpt>
      <trkpt lat="45.67181" lon="2.85081">
        <ele>1034.2</ele>
        <time>2021-08-26T06:13:21.000Z</time>
      </trkpt>
      <trkpt lat="45.67176" lon="2.85072">
        <ele>1033.9</ele>
        <time>2021-08-26T06:13:26.000Z</time>
      </trkpt>
      <trkpt lat="45.67171" lon="2.85065">
        <ele>1033.7</ele>
        <time>2021-08-26T06:13:31.000Z</time>
      </trkpt>
      <trkpt lat="45.67164" lon="2.85054">
        <ele>1033.4</ele>
        <time>2021-08-26T06:13:37.000Z</time>
      </trkpt>
      <trkpt lat="45.6716" lon="2.85047">
        <ele>1033.3</ele>
        <time>2021-08-26T06:13:42.000Z</time>
      </trkpt>
      <trkpt lat="45.67154" lon="2.8504">
        <ele>1033.5</ele>
        <time>2021-08-26T06:13:47.000Z</time>
      </trkpt>
      <trkpt lat="45.67147" lon="2.85029">
        <ele>1033.6</ele>
        <time>2021-08-26T06:13:53.000Z</time>
      </trkpt>
      <trkpt lat="45.67141" lon="2.85021">
        <ele>1033.9</ele>
        <time>2021-08-26T06:13:58.000Z</time>
      </trkpt>
      <trkpt lat="45.67135" lon="2.85013">
        <ele>1034.2</ele>
        <time>2021-08-26T06:14:03.000Z</time>
      </trkpt>
      <trkpt lat="45.67128" lon="2.85005">
        <ele>1034.8</ele>
        <time>2021-08-26T06:14:09.000Z</time>
      </trkpt>
      <trkpt lat="45.67123" lon="2.84999">
        <ele>1035.2</ele>
        <time>2021-08-26T06:14:14.000Z</time>
      </trkpt>
      <trkpt lat="45.67129" lon="2.84994">
        <ele>1033.9</ele>
        <time>2021-08-26T06:14:20.000Z</time>
      </trkpt>
      <trkpt lat="45.67137" lon="2.84994">
        <ele>1032.9</ele>
        <time>2021-08-26T06:14:25.000Z</time>
      </trkpt>
      <trkpt lat="45.67144" lon="2.84995">
        <ele>1032.1</ele>
        <time>2021-08-26T06:14:31.000Z</time>
      </trkpt>
      <trkpt lat="45.67153" lon="2.84994">
        <ele>1030.8</ele>
        <time>2021-08-26T06:14:37.000Z</time>
      </trkpt>
      <trkpt lat="45.67161" lon="2.84994">
        <ele>1029.8</ele>
        <time>2021-08-26T06:14:42.000Z</time>
      </trkpt>
      <trkpt lat="45.67168" lon="2.84995">
        <ele>1029.2</ele>
        <time>2021-08-26T06:14:47.000Z</time>
      </trkpt>
      <trkpt lat="45.67176" lon="2.84995">
        <ele>1028.8</ele>
        <time>2021-08-26T06:14:53.000Z</time>
      </trkpt>
      <trkpt lat="45.67184" lon="2.84997">
        <ele>1028.7</ele>
        <time>2021-08-26T06:14:58.000Z</time>
      </trkpt>
      <trkpt lat="45.6719" lon="2.84999">
        <ele>1028.7</ele>
        <time>2021-08-26T06:15:10.000Z</time>
      </trkpt>
      <trkpt lat="45.67197" lon="2.84997">
        <ele>1028.1</ele>
        <time>2021-08-26T06:15:16.000Z</time>
      </trkpt>
      <trkpt lat="45.67204" lon="2.84997">
        <ele>1027.7</ele>
        <time>2021-08-26T06:15:21.000Z</time>
      </trkpt>
      <trkpt lat="45.67211" lon="2.84994">
        <ele>1026.9</ele>
        <time>2021-08-26T06:15:26.000Z</time>
      </trkpt>
      <trkpt lat="45.67217" lon="2.84992">
        <ele>1026.3</ele>
        <time>2021-08-26T06:15:33.000Z</time>
      </trkpt>
      <trkpt lat="45.67223" lon="2.84987">
        <ele>1025.3</ele>
        <time>2021-08-26T06:15:38.000Z</time>
      </trkpt>
      <trkpt lat="45.67229" lon="2.8498">
        <ele>1023.9</ele>
        <time>2021-08-26T06:15:43.000Z</time>
      </trkpt>
      <trkpt lat="45.67234" lon="2.84969">
        <ele>1021.9</ele>
        <time>2021-08-26T06:15:49.000Z</time>
      </trkpt>
      <trkpt lat="45.67239" lon="2.84958">
        <ele>1020</ele>
        <time>2021-08-26T06:15:54.000Z</time>
      </trkpt>
      <trkpt lat="45.67244" lon="2.84952">
        <ele>1018.8</ele>
        <time>2021-08-26T06:15:59.000Z</time>
      </trkpt>
      <trkpt lat="45.67252" lon="2.84937">
        <ele>1016.3</ele>
        <time>2021-08-26T06:16:05.000Z</time>
      </trkpt>
      <trkpt lat="45.67256" lon="2.84929">
        <ele>1015.5</ele>
        <time>2021-08-26T06:16:10.000Z</time>
      </trkpt>
      <trkpt lat="45.6726" lon="2.8492">
        <ele>1014.6</ele>
        <time>2021-08-26T06:16:15.000Z</time>
      </trkpt>
      <trkpt lat="45.67266" lon="2.84908">
        <ele>1013.1</ele>
        <time>2021-08-26T06:16:21.000Z</time>
      </trkpt>
      <trkpt lat="45.67272" lon="2.84904">
        <ele>1013.1</ele>
        <time>2021-08-26T06:16:33.000Z</time>
      </trkpt>
      <trkpt lat="45.67278" lon="2.84897">
        <ele>1012.6</ele>
        <time>2021-08-26T06:16:43.000Z</time>
      </trkpt>
      <trkpt lat="45.67277" lon="2.8488">
        <ele>1009.6</ele>
        <time>2021-08-26T06:16:49.000Z</time>
      </trkpt>
      <trkpt lat="45.67278" lon="2.84868">
        <ele>1007.7</ele>
        <time>2021-08-26T06:16:54.000Z</time>
      </trkpt>
      <trkpt lat="45.6728" lon="2.84858">
        <ele>1006.3</ele>
        <time>2021-08-26T06:16:59.000Z</time>
      </trkpt>
      <trkpt lat="45.67281" lon="2.84846">
        <ele>1004.5</ele>
        <time>2021-08-26T06:17:05.000Z</time>
      </trkpt>
      <trkpt lat="45.67281" lon="2.84836">
        <ele>1002.8</ele>
        <time>2021-08-26T06:17:10.000Z</time>
      </trkpt>
      <trkpt lat="45.67281" lon="2.84826">
        <ele>1001.4</ele>
        <time>2021-08-26T06:17:48.000Z</time>
      </trkpt>
      <trkpt lat="45.67283" lon="2.84815">
        <ele>1000.4</ele>
        <time>2021-08-26T06:17:54.000Z</time>
      </trkpt>
      <trkpt lat="45.67283" lon="2.84805">
        <ele>999.1</ele>
        <time>2021-08-26T06:18:21.000Z</time>
      </trkpt>
      <trkpt lat="45.67286" lon="2.84796">
        <ele>998.5</ele>
        <time>2021-08-26T06:18:26.000Z</time>
      </trkpt>
      <trkpt lat="45.67289" lon="2.84786">
        <ele>997.7</ele>
        <time>2021-08-26T06:18:31.000Z</time>
      </trkpt>
      <trkpt lat="45.67293" lon="2.84776">
        <ele>997.2</ele>
        <time>2021-08-26T06:18:37.000Z</time>
      </trkpt>
      <trkpt lat="45.67296" lon="2.84768">
        <ele>996.7</ele>
        <time>2021-08-26T06:18:43.000Z</time>
      </trkpt>
      <trkpt lat="45.67299" lon="2.84757">
        <ele>995.8</ele>
        <time>2021-08-26T06:18:49.000Z</time>
      </trkpt>
      <trkpt lat="45.67302" lon="2.84747">
        <ele>995</ele>
        <time>2021-08-26T06:18:55.000Z</time>
      </trkpt>
      <trkpt lat="45.67305" lon="2.84736">
        <ele>994</ele>
        <time>2021-08-26T06:19:01.000Z</time>
      </trkpt>
      <trkpt lat="45.67307" lon="2.84727">
        <ele>993.1</ele>
        <time>2021-08-26T06:19:06.000Z</time>
      </trkpt>
      <trkpt lat="45.67309" lon="2.84718">
        <ele>992.1</ele>
        <time>2021-08-26T06:19:11.000Z</time>
      </trkpt>
      <trkpt lat="45.67311" lon="2.84706">
        <ele>990.7</ele>
        <time>2021-08-26T06:19:17.000Z</time>
      </trkpt>
      <trkpt lat="45.67312" lon="2.84697">
        <ele>989.6</ele>
        <time>2021-08-26T06:19:22.000Z</time>
      </trkpt>
      <trkpt lat="45.67313" lon="2.84688">
        <ele>988.4</ele>
        <time>2021-08-26T06:19:28.000Z</time>
      </trkpt>
      <trkpt lat="45.67314" lon="2.84677">
        <ele>986.9</ele>
        <time>2021-08-26T06:19:34.000Z</time>
      </trkpt>
      <trkpt lat="45.67315" lon="2.84668">
        <ele>985.7</ele>
        <time>2021-08-26T06:19:39.000Z</time>
      </trkpt>
      <trkpt lat="45.67314" lon="2.84656">
        <ele>983.8</ele>
        <time>2021-08-26T06:19:45.000Z</time>
      </trkpt>
      <trkpt lat="45.67312" lon="2.84646">
        <ele>982.2</ele>
        <time>2021-08-26T06:19:50.000Z</time>
      </trkpt>
      <trkpt lat="45.67311" lon="2.84637">
        <ele>980.8</ele>
        <time>2021-08-26T06:19:55.000Z</time>
      </trkpt>
      <trkpt lat="45.67308" lon="2.84625">
        <ele>978.9</ele>
        <time>2021-08-26T06:20:01.000Z</time>
      </trkpt>
      <trkpt lat="45.67309" lon="2.84615">
        <ele>977.5</ele>
        <time>2021-08-26T06:20:37.000Z</time>
      </trkpt>
      <trkpt lat="45.67314" lon="2.84608">
        <ele>976.7</ele>
        <time>2021-08-26T06:21:48.000Z</time>
      </trkpt>
      <trkpt lat="45.67318" lon="2.846">
        <ele>975.5</ele>
        <time>2021-08-26T06:21:59.000Z</time>
      </trkpt>
      <trkpt lat="45.67325" lon="2.846">
        <ele>975.7</ele>
        <time>2021-08-26T06:22:07.000Z</time>
      </trkpt>
      <trkpt lat="45.67332" lon="2.84604">
        <ele>976.4</ele>
        <time>2021-08-26T06:22:15.000Z</time>
      </trkpt>
      <trkpt lat="45.67338" lon="2.84609">
        <ele>978</ele>
        <time>2021-08-26T06:22:21.000Z</time>
      </trkpt>
      <trkpt lat="45.67345" lon="2.84615">
        <ele>980.2</ele>
        <time>2021-08-26T06:22:30.000Z</time>
      </trkpt>
      <trkpt lat="45.6735" lon="2.84622">
        <ele>982.2</ele>
        <time>2021-08-26T06:22:37.000Z</time>
      </trkpt>
      <trkpt lat="45.67354" lon="2.8463">
        <ele>984.2</ele>
        <time>2021-08-26T06:22:43.000Z</time>
      </trkpt>
      <trkpt lat="45.67358" lon="2.84637">
        <ele>986.1</ele>
        <time>2021-08-26T06:22:50.000Z</time>
      </trkpt>
      <trkpt lat="45.67363" lon="2.84644">
        <ele>988.2</ele>
        <time>2021-08-26T06:22:55.000Z</time>
      </trkpt>
      <trkpt lat="45.67369" lon="2.84649">
        <ele>990.2</ele>
        <time>2021-08-26T06:23:01.000Z</time>
      </trkpt>
      <trkpt lat="45.67376" lon="2.84652">
        <ele>991.9</ele>
        <time>2021-08-26T06:23:07.000Z</time>
      </trkpt>
      <trkpt lat="45.67383" lon="2.84656">
        <ele>993.9</ele>
        <time>2021-08-26T06:23:13.000Z</time>
      </trkpt>
      <trkpt lat="45.6739" lon="2.84661">
        <ele>996.1</ele>
        <time>2021-08-26T06:23:20.000Z</time>
      </trkpt>
      <trkpt lat="45.67398" lon="2.84665">
        <ele>998.3</ele>
        <time>2021-08-26T06:23:26.000Z</time>
      </trkpt>
      <trkpt lat="45.67405" lon="2.84666">
        <ele>999.8</ele>
        <time>2021-08-26T06:23:32.000Z</time>
      </trkpt>
      <trkpt lat="45.67411" lon="2.84668">
        <ele>1001.2</ele>
        <time>2021-08-26T06:23:38.000Z</time>
      </trkpt>
      <trkpt lat="45.67418" lon="2.84668">
        <ele>1002.1</ele>
        <time>2021-08-26T06:23:47.000Z</time>
      </trkpt>
      <trkpt lat="45.67427" lon="2.8467">
        <ele>1001.5</ele>
        <time>2021-08-26T06:23:53.000Z</time>
      </trkpt>
      <trkpt lat="45.67436" lon="2.8467">
        <ele>1000.7</ele>
        <time>2021-08-26T06:23:58.000Z</time>
      </trkpt>
      <trkpt lat="45.67445" lon="2.84668">
        <ele>999.5</ele>
        <time>2021-08-26T06:24:03.000Z</time>
      </trkpt>
      <trkpt lat="45.67449" lon="2.84661">
        <ele>997.4</ele>
        <time>2021-08-26T06:24:17.000Z</time>
      </trkpt>
      <trkpt lat="45.67456" lon="2.84657">
        <ele>995.6</ele>
        <time>2021-08-26T06:24:33.000Z</time>
      </trkpt>
      <trkpt lat="45.67462" lon="2.84651">
        <ele>993.3</ele>
        <time>2021-08-26T06:24:43.000Z</time>
      </trkpt>
      <trkpt lat="45.67469" lon="2.84647">
        <ele>991.3</ele>
        <time>2021-08-26T06:24:50.000Z</time>
      </trkpt>
      <trkpt lat="45.67474" lon="2.84639">
        <ele>988.3</ele>
        <time>2021-08-26T06:24:58.000Z</time>
      </trkpt>
      <trkpt lat="45.67476" lon="2.8463">
        <ele>985.4</ele>
        <time>2021-08-26T06:25:03.000Z</time>
      </trkpt>
      <trkpt lat="45.6748" lon="2.84621">
        <ele>982</ele>
        <time>2021-08-26T06:25:09.000Z</time>
      </trkpt>
      <trkpt lat="45.67484" lon="2.84613">
        <ele>978.9</ele>
        <time>2021-08-26T06:25:14.000Z</time>
      </trkpt>
      <trkpt lat="45.67488" lon="2.846">
        <ele>974</ele>
        <time>2021-08-26T06:25:19.000Z</time>
      </trkpt>
      <trkpt lat="45.67495" lon="2.84591">
        <ele>969.7</ele>
        <time>2021-08-26T06:25:25.000Z</time>
      </trkpt>
      <trkpt lat="45.67498" lon="2.84577">
        <ele>965.4</ele>
        <time>2021-08-26T06:25:30.000Z</time>
      </trkpt>
      <trkpt lat="45.67499" lon="2.84564">
        <ele>963</ele>
        <time>2021-08-26T06:25:35.000Z</time>
      </trkpt>
      <trkpt lat="45.67503" lon="2.84555">
        <ele>961.3</ele>
        <time>2021-08-26T06:25:41.000Z</time>
      </trkpt>
      <trkpt lat="45.67508" lon="2.84547">
        <ele>959.9</ele>
        <time>2021-08-26T06:25:46.000Z</time>
      </trkpt>
      <trkpt lat="45.67513" lon="2.84542">
        <ele>959.1</ele>
        <time>2021-08-26T06:25:51.000Z</time>
      </trkpt>
      <trkpt lat="45.67518" lon="2.84531">
        <ele>957</ele>
        <time>2021-08-26T06:25:57.000Z</time>
      </trkpt>
      <trkpt lat="45.67521" lon="2.84522">
        <ele>955.3</ele>
        <time>2021-08-26T06:26:03.000Z</time>
      </trkpt>
      <trkpt lat="45.67526" lon="2.84511">
        <ele>953.2</ele>
        <time>2021-08-26T06:26:09.000Z</time>
      </trkpt>
      <trkpt lat="45.67529" lon="2.84503">
        <ele>951.5</ele>
        <time>2021-08-26T06:26:36.000Z</time>
      </trkpt>
      <trkpt lat="45.67533" lon="2.84495">
        <ele>950.1</ele>
        <time>2021-08-26T06:26:41.000Z</time>
      </trkpt>
      <trkpt lat="45.67537" lon="2.84486">
        <ele>948.6</ele>
        <time>2021-08-26T06:26:46.000Z</time>
      </trkpt>
      <trkpt lat="45.6754" lon="2.84477">
        <ele>947.1</ele>
        <time>2021-08-26T06:26:51.000Z</time>
      </trkpt>
      <trkpt lat="45.67544" lon="2.84467">
        <ele>945.4</ele>
        <time>2021-08-26T06:26:57.000Z</time>
      </trkpt>
      <trkpt lat="45.67546" lon="2.84458">
        <ele>944</ele>
        <time>2021-08-26T06:27:02.000Z</time>
      </trkpt>
      <trkpt lat="45.67549" lon="2.84448">
        <ele>942.3</ele>
        <time>2021-08-26T06:27:07.000Z</time>
      </trkpt>
      <trkpt lat="45.67552" lon="2.8444">
        <ele>940.9</ele>
        <time>2021-08-26T06:27:15.000Z</time>
      </trkpt>
      <trkpt lat="45.67555" lon="2.8443">
        <ele>939.1</ele>
        <time>2021-08-26T06:27:28.000Z</time>
      </trkpt>
      <trkpt lat="45.67559" lon="2.84422">
        <ele>937.6</ele>
        <time>2021-08-26T06:27:33.000Z</time>
      </trkpt>
      <trkpt lat="45.67564" lon="2.84415">
        <ele>936.2</ele>
        <time>2021-08-26T06:27:39.000Z</time>
      </trkpt>
      <trkpt lat="45.67569" lon="2.84407">
        <ele>934.7</ele>
        <time>2021-08-26T06:27:45.000Z</time>
      </trkpt>
      <trkpt lat="45.67574" lon="2.84398">
        <ele>933.1</ele>
        <time>2021-08-26T06:27:50.000Z</time>
      </trkpt>
      <trkpt lat="45.67578" lon="2.8439">
        <ele>931.8</ele>
        <time>2021-08-26T06:27:55.000Z</time>
      </trkpt>
      <trkpt lat="45.67582" lon="2.8438">
        <ele>930.2</ele>
        <time>2021-08-26T06:28:01.000Z</time>
      </trkpt>
      <trkpt lat="45.67587" lon="2.84372">
        <ele>929.5</ele>
        <time>2021-08-26T06:28:06.000Z</time>
      </trkpt>
      <trkpt lat="45.67592" lon="2.84365">
        <ele>929</ele>
        <time>2021-08-26T06:28:11.000Z</time>
      </trkpt>
      <trkpt lat="45.67597" lon="2.84356">
        <ele>928.2</ele>
        <time>2021-08-26T06:28:17.000Z</time>
      </trkpt>
      <trkpt lat="45.67601" lon="2.84348">
        <ele>927.4</ele>
        <time>2021-08-26T06:28:22.000Z</time>
      </trkpt>
      <trkpt lat="45.67606" lon="2.8434">
        <ele>926.6</ele>
        <time>2021-08-26T06:28:28.000Z</time>
      </trkpt>
      <trkpt lat="45.67612" lon="2.84334">
        <ele>926.2</ele>
        <time>2021-08-26T06:28:34.000Z</time>
      </trkpt>
      <trkpt lat="45.67617" lon="2.84328">
        <ele>925.6</ele>
        <time>2021-08-26T06:28:40.000Z</time>
      </trkpt>
      <trkpt lat="45.67623" lon="2.84323">
        <ele>925.3</ele>
        <time>2021-08-26T06:28:46.000Z</time>
      </trkpt>
      <trkpt lat="45.67629" lon="2.84317">
        <ele>924.8</ele>
        <time>2021-08-26T06:28:51.000Z</time>
      </trkpt>
      <trkpt lat="45.67634" lon="2.8431">
        <ele>924.1</ele>
        <time>2021-08-26T06:28:58.000Z</time>
      </trkpt>
      <trkpt lat="45.67639" lon="2.84301">
        <ele>923</ele>
        <time>2021-08-26T06:29:04.000Z</time>
      </trkpt>
      <trkpt lat="45.67644" lon="2.84296">
        <ele>922.5</ele>
        <time>2021-08-26T06:29:10.000Z</time>
      </trkpt>
      <trkpt lat="45.67649" lon="2.84289">
        <ele>921.6</ele>
        <time>2021-08-26T06:29:16.000Z</time>
      </trkpt>
      <trkpt lat="45.67658" lon="2.84272">
        <ele>919.3</ele>
        <time>2021-08-26T06:29:21.000Z</time>
      </trkpt>
      <trkpt lat="45.67664" lon="2.84263">
        <ele>918.1</ele>
        <time>2021-08-26T06:29:26.000Z</time>
      </trkpt>
      <trkpt lat="45.67671" lon="2.84261">
        <ele>918</ele>
        <time>2021-08-26T06:29:36.000Z</time>
      </trkpt>
      <trkpt lat="45.67677" lon="2.84263">
        <ele>918.7</ele>
        <time>2021-08-26T06:29:43.000Z</time>
      </trkpt>
      <trkpt lat="45.67684" lon="2.84264">
        <ele>919.2</ele>
        <time>2021-08-26T06:29:49.000Z</time>
      </trkpt>
      <trkpt lat="45.67691" lon="2.84261">
        <ele>918.9</ele>
        <time>2021-08-26T06:29:57.000Z</time>
      </trkpt>
      <trkpt lat="45.67697" lon="2.84255">
        <ele>918</ele>
        <time>2021-08-26T06:30:03.000Z</time>
      </trkpt>
      <trkpt lat="45.67705" lon="2.84251">
        <ele>917.6</ele>
        <time>2021-08-26T06:30:10.000Z</time>
      </trkpt>
      <trkpt lat="45.67711" lon="2.84246">
        <ele>917.1</ele>
        <time>2021-08-26T06:30:16.000Z</time>
      </trkpt>
      <trkpt lat="45.67718" lon="2.84243">
        <ele>916.9</ele>
        <time>2021-08-26T06:30:23.000Z</time>
      </trkpt>
      <trkpt lat="45.67725" lon="2.84239">
        <ele>916.5</ele>
        <time>2021-08-26T06:30:29.000Z</time>
      </trkpt>
      <trkpt lat="45.67731" lon="2.84233">
        <ele>915.7</ele>
        <time>2021-08-26T06:30:35.000Z</time>
      </trkpt>
      <trkpt lat="45.67738" lon="2.84226">
        <ele>914.8</ele>
        <time>2021-08-26T06:30:41.000Z</time>
      </trkpt>
      <trkpt lat="45.67746" lon="2.84222">
        <ele>914.2</ele>
        <time>2021-08-26T06:30:46.000Z</time>
      </trkpt>
      <trkpt lat="45.67753" lon="2.8422">
        <ele>913.9</ele>
        <time>2021-08-26T06:30:53.000Z</time>
      </trkpt>
      <trkpt lat="45.6776" lon="2.84221">
        <ele>913.8</ele>
        <time>2021-08-26T06:30:58.000Z</time>
      </trkpt>
      <trkpt lat="45.67768" lon="2.84223">
        <ele>913.8</ele>
        <time>2021-08-26T06:31:03.000Z</time>
      </trkpt>
      <trkpt lat="45.67778" lon="2.84221">
        <ele>913.1</ele>
        <time>2021-08-26T06:31:09.000Z</time>
      </trkpt>
      <trkpt lat="45.67784" lon="2.84221">
        <ele>912.9</ele>
        <time>2021-08-26T06:31:16.000Z</time>
      </trkpt>
      <trkpt lat="45.67791" lon="2.8422">
        <ele>912.5</ele>
        <time>2021-08-26T06:31:21.000Z</time>
      </trkpt>
      <trkpt lat="45.67799" lon="2.84222">
        <ele>912.5</ele>
        <time>2021-08-26T06:31:26.000Z</time>
      </trkpt>
      <trkpt lat="45.67805" lon="2.84222">
        <ele>912.3</ele>
        <time>2021-08-26T06:31:32.000Z</time>
      </trkpt>
      <trkpt lat="45.67813" lon="2.84223">
        <ele>912.2</ele>
        <time>2021-08-26T06:31:38.000Z</time>
      </trkpt>
      <trkpt lat="45.67821" lon="2.84222">
        <ele>911.7</ele>
        <time>2021-08-26T06:31:44.000Z</time>
      </trkpt>
      <trkpt lat="45.67828" lon="2.84221">
        <ele>911.3</ele>
        <time>2021-08-26T06:31:49.000Z</time>
      </trkpt>
      <trkpt lat="45.67834" lon="2.84219">
        <ele>910.7</ele>
        <time>2021-08-26T06:32:03.000Z</time>
      </trkpt>
      <trkpt lat="45.67842" lon="2.84218">
        <ele>910</ele>
        <time>2021-08-26T06:32:12.000Z</time>
      </trkpt>
      <trkpt lat="45.67848" lon="2.84214">
        <ele>908.8</ele>
        <time>2021-08-26T06:32:19.000Z</time>
      </trkpt>
      <trkpt lat="45.67855" lon="2.84212">
        <ele>908</ele>
        <time>2021-08-26T06:32:27.000Z</time>
      </trkpt>
      <trkpt lat="45.67864" lon="2.84212">
        <ele>907.3</ele>
        <time>2021-08-26T06:32:33.000Z</time>
      </trkpt>
      <trkpt lat="45.6787" lon="2.84213">
        <ele>907</ele>
        <time>2021-08-26T06:32:39.000Z</time>
      </trkpt>
      <trkpt lat="45.67877" lon="2.84216">
        <ele>907</ele>
        <time>2021-08-26T06:32:47.000Z</time>
      </trkpt>
      <trkpt lat="45.67884" lon="2.84218">
        <ele>906.7</ele>
        <time>2021-08-26T06:32:53.000Z</time>
      </trkpt>
      <trkpt lat="45.67891" lon="2.84223">
        <ele>906.8</ele>
        <time>2021-08-26T06:32:59.000Z</time>
      </trkpt>
      <trkpt lat="45.67897" lon="2.84224">
        <ele>906.5</ele>
        <time>2021-08-26T06:33:08.000Z</time>
      </trkpt>
      <trkpt lat="45.67903" lon="2.84229">
        <ele>906.6</ele>
        <time>2021-08-26T06:33:16.000Z</time>
      </trkpt>
      <trkpt lat="45.67909" lon="2.84232">
        <ele>906.5</ele>
        <time>2021-08-26T06:33:25.000Z</time>
      </trkpt>
      <trkpt lat="45.67916" lon="2.84236">
        <ele>906.4</ele>
        <time>2021-08-26T06:33:31.000Z</time>
      </trkpt>
      <trkpt lat="45.67928" lon="2.84244">
        <ele>906.5</ele>
        <time>2021-08-26T06:33:37.000Z</time>
      </trkpt>
      <trkpt lat="45.67935" lon="2.84249">
        <ele>906.6</ele>
        <time>2021-08-26T06:33:43.000Z</time>
      </trkpt>
      <trkpt lat="45.67943" lon="2.84255">
        <ele>907.3</ele>
        <time>2021-08-26T06:33:49.000Z</time>
      </trkpt>
      <trkpt lat="45.67952" lon="2.84261">
        <ele>908</ele>
        <time>2021-08-26T06:33:54.000Z</time>
      </trkpt>
      <trkpt lat="45.6796" lon="2.84266">
        <ele>908.5</ele>
        <time>2021-08-26T06:33:59.000Z</time>
      </trkpt>
      <trkpt lat="45.67968" lon="2.84273">
        <ele>909.5</ele>
        <time>2021-08-26T06:34:05.000Z</time>
      </trkpt>
      <trkpt lat="45.67975" lon="2.84273">
        <ele>908.9</ele>
        <time>2021-08-26T06:34:10.000Z</time>
      </trkpt>
      <trkpt lat="45.67982" lon="2.84275">
        <ele>908.8</ele>
        <time>2021-08-26T06:34:17.000Z</time>
      </trkpt>
      <trkpt lat="45.67989" lon="2.84279">
        <ele>909.1</ele>
        <time>2021-08-26T06:34:22.000Z</time>
      </trkpt>
      <trkpt lat="45.67996" lon="2.84282">
        <ele>909.2</ele>
        <time>2021-08-26T06:34:27.000Z</time>
      </trkpt>
      <trkpt lat="45.68003" lon="2.84285">
        <ele>909.3</ele>
        <time>2021-08-26T06:34:33.000Z</time>
      </trkpt>
      <trkpt lat="45.68019" lon="2.84289">
        <ele>909.1</ele>
        <time>2021-08-26T06:34:38.000Z</time>
      </trkpt>
      <trkpt lat="45.68033" lon="2.84289">
        <ele>908.1</ele>
        <time>2021-08-26T06:34:43.000Z</time>
      </trkpt>
      <trkpt lat="45.68049" lon="2.8429">
        <ele>907.1</ele>
        <time>2021-08-26T06:34:49.000Z</time>
      </trkpt>
      <trkpt lat="45.68056" lon="2.84293">
        <ele>907.2</ele>
        <time>2021-08-26T06:34:54.000Z</time>
      </trkpt>
      <trkpt lat="45.68067" lon="2.84293">
        <ele>906.4</ele>
        <time>2021-08-26T06:34:59.000Z</time>
      </trkpt>
      <trkpt lat="45.68075" lon="2.84299">
        <ele>907</ele>
        <time>2021-08-26T06:35:05.000Z</time>
      </trkpt>
      <trkpt lat="45.68087" lon="2.84297">
        <ele>905.5</ele>
        <time>2021-08-26T06:35:10.000Z</time>
      </trkpt>
      <trkpt lat="45.68103" lon="2.84292">
        <ele>902.5</ele>
        <time>2021-08-26T06:35:15.000Z</time>
      </trkpt>
      <trkpt lat="45.68118" lon="2.84282">
        <ele>898.6</ele>
        <time>2021-08-26T06:35:21.000Z</time>
      </trkpt>
      <trkpt lat="45.68131" lon="2.84268">
        <ele>894.2</ele>
        <time>2021-08-26T06:35:26.000Z</time>
      </trkpt>
      <trkpt lat="45.68139" lon="2.84263">
        <ele>892.1</ele>
        <time>2021-08-26T06:35:31.000Z</time>
      </trkpt>
      <trkpt lat="45.68146" lon="2.84262">
        <ele>891</ele>
        <time>2021-08-26T06:35:39.000Z</time>
      </trkpt>
      <trkpt lat="45.68152" lon="2.84254">
        <ele>888.7</ele>
        <time>2021-08-26T06:35:45.000Z</time>
      </trkpt>
      <trkpt lat="45.68157" lon="2.84248">
        <ele>887.3</ele>
        <time>2021-08-26T06:35:50.000Z</time>
      </trkpt>
      <trkpt lat="45.68164" lon="2.84244">
        <ele>886.5</ele>
        <time>2021-08-26T06:35:55.000Z</time>
      </trkpt>
      <trkpt lat="45.6817" lon="2.8424">
        <ele>886.2</ele>
        <time>2021-08-26T06:36:02.000Z</time>
      </trkpt>
      <trkpt lat="45.68177" lon="2.84234">
        <ele>886</ele>
        <time>2021-08-26T06:36:24.000Z</time>
      </trkpt>
      <trkpt lat="45.68183" lon="2.84232">
        <ele>885.7</ele>
        <time>2021-08-26T06:36:30.000Z</time>
      </trkpt>
      <trkpt lat="45.68191" lon="2.84229">
        <ele>885.2</ele>
        <time>2021-08-26T06:36:35.000Z</time>
      </trkpt>
      <trkpt lat="45.68199" lon="2.84227">
        <ele>884.7</ele>
        <time>2021-08-26T06:36:41.000Z</time>
      </trkpt>
      <trkpt lat="45.68206" lon="2.84225">
        <ele>884.3</ele>
        <time>2021-08-26T06:36:46.000Z</time>
      </trkpt>
      <trkpt lat="45.68212" lon="2.84221">
        <ele>883.9</ele>
        <time>2021-08-26T06:36:51.000Z</time>
      </trkpt>
      <trkpt lat="45.6822" lon="2.84221">
        <ele>883.4</ele>
        <time>2021-08-26T06:36:57.000Z</time>
      </trkpt>
      <trkpt lat="45.68227" lon="2.84222">
        <ele>882.9</ele>
        <time>2021-08-26T06:37:04.000Z</time>
      </trkpt>
      <trkpt lat="45.68234" lon="2.8422">
        <ele>882.4</ele>
        <time>2021-08-26T06:37:16.000Z</time>
      </trkpt>
      <trkpt lat="45.68241" lon="2.84216">
        <ele>881.8</ele>
        <time>2021-08-26T06:37:24.000Z</time>
      </trkpt>
      <trkpt lat="45.68245" lon="2.84206">
        <ele>881.3</ele>
        <time>2021-08-26T06:37:31.000Z</time>
      </trkpt>
      <trkpt lat="45.68249" lon="2.84197">
        <ele>880.8</ele>
        <time>2021-08-26T06:37:37.000Z</time>
      </trkpt>
      <trkpt lat="45.68253" lon="2.8419">
        <ele>880.4</ele>
        <time>2021-08-26T06:37:42.000Z</time>
      </trkpt>
      <trkpt lat="45.68257" lon="2.84181">
        <ele>880</ele>
        <time>2021-08-26T06:37:48.000Z</time>
      </trkpt>
      <trkpt lat="45.68254" lon="2.8417">
        <ele>879.9</ele>
        <time>2021-08-26T06:38:05.000Z</time>
      </trkpt>
      <trkpt lat="45.6826" lon="2.84167">
        <ele>879.5</ele>
        <time>2021-08-26T06:38:43.000Z</time>
      </trkpt>
      <trkpt lat="45.68267" lon="2.84171">
        <ele>879.3</ele>
        <time>2021-08-26T06:38:49.000Z</time>
      </trkpt>
      <trkpt lat="45.68272" lon="2.84179">
        <ele>879.2</ele>
        <time>2021-08-26T06:38:56.000Z</time>
      </trkpt>
      <trkpt lat="45.68279" lon="2.84175">
        <ele>878.8</ele>
        <time>2021-08-26T06:39:12.000Z</time>
      </trkpt>
      <trkpt lat="45.68286" lon="2.84183">
        <ele>878.7</ele>
        <time>2021-08-26T06:40:26.000Z</time>
      </trkpt>
      <trkpt lat="45.68281" lon="2.84171">
        <ele>878.6</ele>
        <time>2021-08-26T06:41:01.000Z</time>
      </trkpt>
      <trkpt lat="45.68281" lon="2.84161">
        <ele>879.7</ele>
        <time>2021-08-26T06:41:18.000Z</time>
      </trkpt>
      <trkpt lat="45.68283" lon="2.84152">
        <ele>881.4</ele>
        <time>2021-08-26T06:41:31.000Z</time>
      </trkpt>
      <trkpt lat="45.68286" lon="2.84143">
        <ele>883.1</ele>
        <time>2021-08-26T06:41:40.000Z</time>
      </trkpt>
      <trkpt lat="45.68294" lon="2.84138">
        <ele>883.7</ele>
        <time>2021-08-26T06:41:48.000Z</time>
      </trkpt>
      <trkpt lat="45.683" lon="2.84134">
        <ele>884.3</ele>
        <time>2021-08-26T06:41:54.000Z</time>
      </trkpt>
      <trkpt lat="45.68283" lon="2.84146">
        <ele>882.6</ele>
        <time>2021-08-26T06:49:22.000Z</time>
      </trkpt>
      <trkpt lat="45.68282" lon="2.84161">
        <ele>879.6</ele>
        <time>2021-08-26T06:49:28.000Z</time>
      </trkpt>
      <trkpt lat="45.68289" lon="2.84162">
        <ele>879.1</ele>
        <time>2021-08-26T06:49:36.000Z</time>
      </trkpt>
      <trkpt lat="45.68289" lon="2.84174">
        <ele>878.3</ele>
        <time>2021-08-26T06:49:41.000Z</time>
      </trkpt>
      <trkpt lat="45.68293" lon="2.84183">
        <ele>878.3</ele>
        <time>2021-08-26T06:49:47.000Z</time>
      </trkpt>
      <trkpt lat="45.68286" lon="2.84187">
        <ele>878.8</ele>
        <time>2021-08-26T06:50:15.000Z</time>
      </trkpt>
      <trkpt lat="45.68291" lon="2.84194">
        <ele>878.7</ele>
        <time>2021-08-26T06:50:37.000Z</time>
      </trkpt>
      <trkpt lat="45.6829" lon="2.84204">
        <ele>879</ele>
        <time>2021-08-26T07:04:32.000Z</time>
      </trkpt>
      <trkpt lat="45.68297" lon="2.84207">
        <ele>878.7</ele>
        <time>2021-08-26T07:04:40.000Z</time>
      </trkpt>
      <trkpt lat="45.68304" lon="2.84204">
        <ele>878.3</ele>
        <time>2021-08-26T07:04:46.000Z</time>
      </trkpt>
      <trkpt lat="45.68311" lon="2.84199">
        <ele>877.8</ele>
        <time>2021-08-26T07:05:04.000Z</time>
      </trkpt>
      <trkpt lat="45.68319" lon="2.84203">
        <ele>877.6</ele>
        <time>2021-08-26T07:05:12.000Z</time>
      </trkpt>
      <trkpt lat="45.68331" lon="2.84204">
        <ele>877</ele>
        <time>2021-08-26T07:05:17.000Z</time>
      </trkpt>
      <trkpt lat="45.68338" lon="2.84207">
        <ele>876.8</ele>
        <time>2021-08-26T07:05:23.000Z</time>
      </trkpt>
      <trkpt lat="45.68345" lon="2.84208">
        <ele>876.6</ele>
        <time>2021-08-26T07:05:38.000Z</time>
      </trkpt>
      <trkpt lat="45.68347" lon="2.84218">
        <ele>876.7</ele>
        <time>2021-08-26T07:05:44.000Z</time>
      </trkpt>
      <trkpt lat="45.6835" lon="2.8423">
        <ele>876.8</ele>
        <time>2021-08-26T07:05:49.000Z</time>
      </trkpt>
      <trkpt lat="45.6835" lon="2.84241">
        <ele>877</ele>
        <time>2021-08-26T07:05:55.000Z</time>
      </trkpt>
      <trkpt lat="45.68355" lon="2.8425">
        <ele>877</ele>
        <time>2021-08-26T07:06:00.000Z</time>
      </trkpt>
      <trkpt lat="45.68359" lon="2.84259">
        <ele>878</ele>
        <time>2021-08-26T07:06:05.000Z</time>
      </trkpt>
      <trkpt lat="45.68362" lon="2.84267">
        <ele>879</ele>
        <time>2021-08-26T07:06:10.000Z</time>
      </trkpt>
      <trkpt lat="45.68363" lon="2.84278">
        <ele>880.5</ele>
        <time>2021-08-26T07:06:16.000Z</time>
      </trkpt>
      <trkpt lat="45.68367" lon="2.84285">
        <ele>881.3</ele>
        <time>2021-08-26T07:06:22.000Z</time>
      </trkpt>
      <trkpt lat="45.68361" lon="2.84285">
        <ele>881.6</ele>
        <time>2021-08-26T07:08:27.000Z</time>
      </trkpt>
      <trkpt lat="45.68368" lon="2.84283">
        <ele>880.9</ele>
        <time>2021-08-26T07:09:41.000Z</time>
      </trkpt>
      <trkpt lat="45.68372" lon="2.8429">
        <ele>881.7</ele>
        <time>2021-08-26T07:09:47.000Z</time>
      </trkpt>
      <trkpt lat="45.68379" lon="2.84293">
        <ele>881.7</ele>
        <time>2021-08-26T07:09:52.000Z</time>
      </trkpt>
      <trkpt lat="45.68386" lon="2.843">
        <ele>882.3</ele>
        <time>2021-08-26T07:09:58.000Z</time>
      </trkpt>
      <trkpt lat="45.68394" lon="2.84306">
        <ele>882.7</ele>
        <time>2021-08-26T07:10:04.000Z</time>
      </trkpt>
      <trkpt lat="45.684" lon="2.8431">
        <ele>882.9</ele>
        <time>2021-08-26T07:10:09.000Z</time>
      </trkpt>
      <trkpt lat="45.68406" lon="2.84315">
        <ele>883.2</ele>
        <time>2021-08-26T07:10:18.000Z</time>
      </trkpt>
      <trkpt lat="45.68408" lon="2.84324">
        <ele>884.3</ele>
        <time>2021-08-26T07:10:25.000Z</time>
      </trkpt>
      <trkpt lat="45.6841" lon="2.84333">
        <ele>885.4</ele>
        <time>2021-08-26T07:10:32.000Z</time>
      </trkpt>
      <trkpt lat="45.68415" lon="2.8434">
        <ele>886.2</ele>
        <time>2021-08-26T07:10:38.000Z</time>
      </trkpt>
      <trkpt lat="45.68424" lon="2.84343">
        <ele>886.2</ele>
        <time>2021-08-26T07:10:44.000Z</time>
      </trkpt>
      <trkpt lat="45.68429" lon="2.84349">
        <ele>886.8</ele>
        <time>2021-08-26T07:10:51.000Z</time>
      </trkpt>
      <trkpt lat="45.68438" lon="2.84353">
        <ele>886.9</ele>
        <time>2021-08-26T07:10:57.000Z</time>
      </trkpt>
      <trkpt lat="45.68443" lon="2.8436">
        <ele>887.7</ele>
        <time>2021-08-26T07:11:03.000Z</time>
      </trkpt>
      <trkpt lat="45.6845" lon="2.84368">
        <ele>888.5</ele>
        <time>2021-08-26T07:11:08.000Z</time>
      </trkpt>
      <trkpt lat="45.68456" lon="2.84375">
        <ele>889.2</ele>
        <time>2021-08-26T07:11:13.000Z</time>
      </trkpt>
      <trkpt lat="45.6846" lon="2.84383">
        <ele>890.1</ele>
        <time>2021-08-26T07:11:19.000Z</time>
      </trkpt>
      <trkpt lat="45.68469" lon="2.84389">
        <ele>890.4</ele>
        <time>2021-08-26T07:11:24.000Z</time>
      </trkpt>
      <trkpt lat="45.6847" lon="2.84399">
        <ele>891.8</ele>
        <time>2021-08-26T07:11:37.000Z</time>
      </trkpt>
      <trkpt lat="45.68472" lon="2.84411">
        <ele>893.5</ele>
        <time>2021-08-26T07:11:42.000Z</time>
      </trkpt>
      <trkpt lat="45.68476" lon="2.84423">
        <ele>895.3</ele>
        <time>2021-08-26T07:11:48.000Z</time>
      </trkpt>
      <trkpt lat="45.6848" lon="2.84431">
        <ele>896.5</ele>
        <time>2021-08-26T07:11:55.000Z</time>
      </trkpt>
      <trkpt lat="45.68484" lon="2.8444">
        <ele>898</ele>
        <time>2021-08-26T07:12:01.000Z</time>
      </trkpt>
      <trkpt lat="45.68488" lon="2.84448">
        <ele>899.3</ele>
        <time>2021-08-26T07:12:10.000Z</time>
      </trkpt>
      <trkpt lat="45.68488" lon="2.84438">
        <ele>897.3</ele>
        <time>2021-08-26T07:12:31.000Z</time>
      </trkpt>
      <trkpt lat="45.68493" lon="2.84446">
        <ele>898.5</ele>
        <time>2021-08-26T07:12:50.000Z</time>
      </trkpt>
      <trkpt lat="45.68487" lon="2.8445">
        <ele>899.8</ele>
        <time>2021-08-26T07:13:30.000Z</time>
      </trkpt>
      <trkpt lat="45.68481" lon="2.8445">
        <ele>900.2</ele>
        <time>2021-08-26T07:13:42.000Z</time>
      </trkpt>
      <trkpt lat="45.68479" lon="2.84459">
        <ele>902.1</ele>
        <time>2021-08-26T07:14:16.000Z</time>
      </trkpt>
      <trkpt lat="45.68473" lon="2.84463">
        <ele>903.4</ele>
        <time>2021-08-26T07:14:22.000Z</time>
      </trkpt>
      <trkpt lat="45.68469" lon="2.84471">
        <ele>905.2</ele>
        <time>2021-08-26T07:14:29.000Z</time>
      </trkpt>
      <trkpt lat="45.68468" lon="2.8448">
        <ele>907</ele>
        <time>2021-08-26T07:14:34.000Z</time>
      </trkpt>
      <trkpt lat="45.68465" lon="2.84491">
        <ele>909.4</ele>
        <time>2021-08-26T07:14:40.000Z</time>
      </trkpt>
      <trkpt lat="45.68462" lon="2.845">
        <ele>911.3</ele>
        <time>2021-08-26T07:14:50.000Z</time>
      </trkpt>
      <trkpt lat="45.68459" lon="2.84509">
        <ele>913.2</ele>
        <time>2021-08-26T07:15:03.000Z</time>
      </trkpt>
      <trkpt lat="45.68465" lon="2.84513">
        <ele>913.7</ele>
        <time>2021-08-26T07:15:24.000Z</time>
      </trkpt>
      <trkpt lat="45.68465" lon="2.8453">
        <ele>917</ele>
        <time>2021-08-26T07:16:37.000Z</time>
      </trkpt>
      <trkpt lat="45.68458" lon="2.84527">
        <ele>916.7</ele>
        <time>2021-08-26T07:18:04.000Z</time>
      </trkpt>
      <trkpt lat="45.68468" lon="2.84535">
        <ele>917.9</ele>
        <time>2021-08-26T07:18:34.000Z</time>
      </trkpt>
      <trkpt lat="45.68465" lon="2.84549">
        <ele>920.8</ele>
        <time>2021-08-26T07:18:56.000Z</time>
      </trkpt>
      <trkpt lat="45.68462" lon="2.84559">
        <ele>922.8</ele>
        <time>2021-08-26T07:19:01.000Z</time>
      </trkpt>
      <trkpt lat="45.68462" lon="2.84573">
        <ele>925.5</ele>
        <time>2021-08-26T07:19:06.000Z</time>
      </trkpt>
      <trkpt lat="45.68459" lon="2.84586">
        <ele>928.3</ele>
        <time>2021-08-26T07:19:12.000Z</time>
      </trkpt>
      <trkpt lat="45.68456" lon="2.84595">
        <ele>931</ele>
        <time>2021-08-26T07:19:18.000Z</time>
      </trkpt>
      <trkpt lat="45.68453" lon="2.84585">
        <ele>927.9</ele>
        <time>2021-08-26T07:19:24.000Z</time>
      </trkpt>
      <trkpt lat="45.68453" lon="2.84574">
        <ele>925.7</ele>
        <time>2021-08-26T07:19:30.000Z</time>
      </trkpt>
      <trkpt lat="45.68451" lon="2.84565">
        <ele>924</ele>
        <time>2021-08-26T07:19:36.000Z</time>
      </trkpt>
      <trkpt lat="45.68449" lon="2.84554">
        <ele>922</ele>
        <time>2021-08-26T07:19:41.000Z</time>
      </trkpt>
      <trkpt lat="45.68449" lon="2.84542">
        <ele>919.8</ele>
        <time>2021-08-26T07:19:46.000Z</time>
      </trkpt>
      <trkpt lat="45.68456" lon="2.84547">
        <ele>920.6</ele>
        <time>2021-08-26T07:20:06.000Z</time>
      </trkpt>
      <trkpt lat="45.68464" lon="2.84546">
        <ele>920.2</ele>
        <time>2021-08-26T07:20:12.000Z</time>
      </trkpt>
      <trkpt lat="45.68472" lon="2.84547">
        <ele>920.3</ele>
        <time>2021-08-26T07:20:17.000Z</time>
      </trkpt>
      <trkpt lat="45.68479" lon="2.84548">
        <ele>920.3</ele>
        <time>2021-08-26T07:20:24.000Z</time>
      </trkpt>
      <trkpt lat="45.68486" lon="2.84545">
        <ele>919.6</ele>
        <time>2021-08-26T07:20:32.000Z</time>
      </trkpt>
      <trkpt lat="45.68493" lon="2.84545">
        <ele>919.4</ele>
        <time>2021-08-26T07:20:42.000Z</time>
      </trkpt>
      <trkpt lat="45.68499" lon="2.84542">
        <ele>918.6</ele>
        <time>2021-08-26T07:20:51.000Z</time>
      </trkpt>
      <trkpt lat="45.68506" lon="2.8454">
        <ele>918.4</ele>
        <time>2021-08-26T07:21:03.000Z</time>
      </trkpt>
      <trkpt lat="45.68513" lon="2.8454">
        <ele>918.7</ele>
        <time>2021-08-26T07:21:10.000Z</time>
      </trkpt>
      <trkpt lat="45.68521" lon="2.84549">
        <ele>921.2</ele>
        <time>2021-08-26T07:21:16.000Z</time>
      </trkpt>
      <trkpt lat="45.68528" lon="2.84555">
        <ele>923</ele>
        <time>2021-08-26T07:21:27.000Z</time>
      </trkpt>
      <trkpt lat="45.68535" lon="2.84565">
        <ele>925.9</ele>
        <time>2021-08-26T07:21:32.000Z</time>
      </trkpt>
      <trkpt lat="45.68544" lon="2.84573">
        <ele>928.5</ele>
        <time>2021-08-26T07:21:37.000Z</time>
      </trkpt>
      <trkpt lat="45.6855" lon="2.84573">
        <ele>928.9</ele>
        <time>2021-08-26T07:21:46.000Z</time>
      </trkpt>
      <trkpt lat="45.68557" lon="2.84572">
        <ele>929.1</ele>
        <time>2021-08-26T07:21:53.000Z</time>
      </trkpt>
      <trkpt lat="45.68563" lon="2.84569">
        <ele>928.6</ele>
        <time>2021-08-26T07:22:00.000Z</time>
      </trkpt>
      <trkpt lat="45.68571" lon="2.84571">
        <ele>929.7</ele>
        <time>2021-08-26T07:22:05.000Z</time>
      </trkpt>
      <trkpt lat="45.68578" lon="2.84571">
        <ele>930.1</ele>
        <time>2021-08-26T07:22:14.000Z</time>
      </trkpt>
      <trkpt lat="45.68584" lon="2.84569">
        <ele>929.9</ele>
        <time>2021-08-26T07:22:20.000Z</time>
      </trkpt>
      <trkpt lat="45.6859" lon="2.84565">
        <ele>929.4</ele>
        <time>2021-08-26T07:22:27.000Z</time>
      </trkpt>
      <trkpt lat="45.68597" lon="2.84564">
        <ele>929.9</ele>
        <time>2021-08-26T07:22:34.000Z</time>
      </trkpt>
      <trkpt lat="45.68604" lon="2.84563">
        <ele>930.4</ele>
        <time>2021-08-26T07:22:40.000Z</time>
      </trkpt>
      <trkpt lat="45.6861" lon="2.84564">
        <ele>931.3</ele>
        <time>2021-08-26T07:22:45.000Z</time>
      </trkpt>
      <trkpt lat="45.68618" lon="2.84565">
        <ele>932.5</ele>
        <time>2021-08-26T07:22:50.000Z</time>
      </trkpt>
      <trkpt lat="45.6863" lon="2.84565">
        <ele>933.8</ele>
        <time>2021-08-26T07:22:56.000Z</time>
      </trkpt>
      <trkpt lat="45.68638" lon="2.84564">
        <ele>934.4</ele>
        <time>2021-08-26T07:23:01.000Z</time>
      </trkpt>
      <trkpt lat="45.68645" lon="2.84562">
        <ele>934.5</ele>
        <time>2021-08-26T07:23:06.000Z</time>
      </trkpt>
      <trkpt lat="45.68655" lon="2.84559">
        <ele>934.6</ele>
        <time>2021-08-26T07:23:12.000Z</time>
      </trkpt>
      <trkpt lat="45.68662" lon="2.84554">
        <ele>933.7</ele>
        <time>2021-08-26T07:23:18.000Z</time>
      </trkpt>
      <trkpt lat="45.68668" lon="2.84549">
        <ele>932.6</ele>
        <time>2021-08-26T07:23:24.000Z</time>
      </trkpt>
      <trkpt lat="45.68675" lon="2.8455">
        <ele>933.4</ele>
        <time>2021-08-26T07:23:33.000Z</time>
      </trkpt>
      <trkpt lat="45.68681" lon="2.84549">
        <ele>933.5</ele>
        <time>2021-08-26T07:23:41.000Z</time>
      </trkpt>
      <trkpt lat="45.68687" lon="2.84546">
        <ele>933</ele>
        <time>2021-08-26T07:23:47.000Z</time>
      </trkpt>
      <trkpt lat="45.68694" lon="2.84548">
        <ele>934.1</ele>
        <time>2021-08-26T07:23:52.000Z</time>
      </trkpt>
      <trkpt lat="45.68701" lon="2.84544">
        <ele>933.4</ele>
        <time>2021-08-26T07:23:57.000Z</time>
      </trkpt>
      <trkpt lat="45.68707" lon="2.8454">
        <ele>932.7</ele>
        <time>2021-08-26T07:24:04.000Z</time>
      </trkpt>
      <trkpt lat="45.68714" lon="2.8454">
        <ele>933.2</ele>
        <time>2021-08-26T07:24:10.000Z</time>
      </trkpt>
      <trkpt lat="45.68721" lon="2.84538">
        <ele>933.2</ele>
        <time>2021-08-26T07:24:17.000Z</time>
      </trkpt>
      <trkpt lat="45.68726" lon="2.84531">
        <ele>931.7</ele>
        <time>2021-08-26T07:24:25.000Z</time>
      </trkpt>
      <trkpt lat="45.68731" lon="2.84516">
        <ele>928.1</ele>
        <time>2021-08-26T07:24:30.000Z</time>
      </trkpt>
      <trkpt lat="45.6874" lon="2.84512">
        <ele>927.9</ele>
        <time>2021-08-26T07:24:36.000Z</time>
      </trkpt>
      <trkpt lat="45.68747" lon="2.84511">
        <ele>928.4</ele>
        <time>2021-08-26T07:24:41.000Z</time>
      </trkpt>
      <trkpt lat="45.68752" lon="2.84504">
        <ele>927.1</ele>
        <time>2021-08-26T07:25:02.000Z</time>
      </trkpt>
      <trkpt lat="45.68759" lon="2.84502">
        <ele>927.1</ele>
        <time>2021-08-26T07:25:10.000Z</time>
      </trkpt>
      <trkpt lat="45.68766" lon="2.84502">
        <ele>927.6</ele>
        <time>2021-08-26T07:25:16.000Z</time>
      </trkpt>
      <trkpt lat="45.68776" lon="2.84506">
        <ele>929.3</ele>
        <time>2021-08-26T07:25:27.000Z</time>
      </trkpt>
      <trkpt lat="45.68783" lon="2.84505">
        <ele>929.5</ele>
        <time>2021-08-26T07:25:37.000Z</time>
      </trkpt>
      <trkpt lat="45.6879" lon="2.84505">
        <ele>930</ele>
        <time>2021-08-26T07:25:44.000Z</time>
      </trkpt>
      <trkpt lat="45.68798" lon="2.845">
        <ele>929.5</ele>
        <time>2021-08-26T07:25:49.000Z</time>
      </trkpt>
      <trkpt lat="45.68806" lon="2.84493">
        <ele>928.2</ele>
        <time>2021-08-26T07:25:54.000Z</time>
      </trkpt>
      <trkpt lat="45.68813" lon="2.84486">
        <ele>926.9</ele>
        <time>2021-08-26T07:26:00.000Z</time>
      </trkpt>
      <trkpt lat="45.6882" lon="2.84485">
        <ele>927.2</ele>
        <time>2021-08-26T07:26:05.000Z</time>
      </trkpt>
      <trkpt lat="45.68828" lon="2.84486">
        <ele>928.1</ele>
        <time>2021-08-26T07:26:11.000Z</time>
      </trkpt>
      <trkpt lat="45.68835" lon="2.84488">
        <ele>929</ele>
        <time>2021-08-26T07:26:16.000Z</time>
      </trkpt>
      <trkpt lat="45.68841" lon="2.84492">
        <ele>930</ele>
        <time>2021-08-26T07:26:24.000Z</time>
      </trkpt>
      <trkpt lat="45.68851" lon="2.84492">
        <ele>930</ele>
        <time>2021-08-26T07:26:29.000Z</time>
      </trkpt>
      <trkpt lat="45.68861" lon="2.84492">
        <ele>929.9</ele>
        <time>2021-08-26T07:26:34.000Z</time>
      </trkpt>
      <trkpt lat="45.68869" lon="2.84494">
        <ele>930.3</ele>
        <time>2021-08-26T07:26:40.000Z</time>
      </trkpt>
      <trkpt lat="45.68875" lon="2.84494">
        <ele>930.3</ele>
        <time>2021-08-26T07:26:45.000Z</time>
      </trkpt>
      <trkpt lat="45.68881" lon="2.8449">
        <ele>929.5</ele>
        <time>2021-08-26T07:26:58.000Z</time>
      </trkpt>
      <trkpt lat="45.68887" lon="2.84484">
        <ele>928.4</ele>
        <time>2021-08-26T07:27:07.000Z</time>
      </trkpt>
      <trkpt lat="45.68895" lon="2.84481">
        <ele>928</ele>
        <time>2021-08-26T07:27:14.000Z</time>
      </trkpt>
      <trkpt lat="45.68902" lon="2.84478">
        <ele>927.6</ele>
        <time>2021-08-26T07:27:20.000Z</time>
      </trkpt>
      <trkpt lat="45.68909" lon="2.84473">
        <ele>926.9</ele>
        <time>2021-08-26T07:27:27.000Z</time>
      </trkpt>
      <trkpt lat="45.68916" lon="2.84469">
        <ele>926.5</ele>
        <time>2021-08-26T07:27:32.000Z</time>
      </trkpt>
      <trkpt lat="45.68922" lon="2.84464">
        <ele>926</ele>
        <time>2021-08-26T07:27:37.000Z</time>
      </trkpt>
      <trkpt lat="45.68931" lon="2.8446">
        <ele>925.7</ele>
        <time>2021-08-26T07:27:42.000Z</time>
      </trkpt>
      <trkpt lat="45.68939" lon="2.84456">
        <ele>925.3</ele>
        <time>2021-08-26T07:27:48.000Z</time>
      </trkpt>
      <trkpt lat="45.68946" lon="2.84452">
        <ele>925</ele>
        <time>2021-08-26T07:27:54.000Z</time>
      </trkpt>
      <trkpt lat="45.68952" lon="2.84448">
        <ele>924.6</ele>
        <time>2021-08-26T07:28:00.000Z</time>
      </trkpt>
      <trkpt lat="45.68959" lon="2.84445">
        <ele>924.4</ele>
        <time>2021-08-26T07:28:05.000Z</time>
      </trkpt>
      <trkpt lat="45.68966" lon="2.8444">
        <ele>924</ele>
        <time>2021-08-26T07:28:11.000Z</time>
      </trkpt>
      <trkpt lat="45.6897" lon="2.84431">
        <ele>922.9</ele>
        <time>2021-08-26T07:28:18.000Z</time>
      </trkpt>
      <trkpt lat="45.6898" lon="2.84421">
        <ele>921.9</ele>
        <time>2021-08-26T07:28:24.000Z</time>
      </trkpt>
      <trkpt lat="45.68987" lon="2.84415">
        <ele>921.2</ele>
        <time>2021-08-26T07:28:29.000Z</time>
      </trkpt>
      <trkpt lat="45.68992" lon="2.84409">
        <ele>920.3</ele>
        <time>2021-08-26T07:28:34.000Z</time>
      </trkpt>
      <trkpt lat="45.68997" lon="2.844">
        <ele>918.9</ele>
        <time>2021-08-26T07:28:40.000Z</time>
      </trkpt>
      <trkpt lat="45.69002" lon="2.84391">
        <ele>917.4</ele>
        <time>2021-08-26T07:28:48.000Z</time>
      </trkpt>
      <trkpt lat="45.69007" lon="2.84384">
        <ele>916.3</ele>
        <time>2021-08-26T07:28:57.000Z</time>
      </trkpt>
      <trkpt lat="45.69014" lon="2.84381">
        <ele>916</ele>
        <time>2021-08-26T07:29:03.000Z</time>
      </trkpt>
      <trkpt lat="45.69021" lon="2.84379">
        <ele>915.8</ele>
        <time>2021-08-26T07:29:12.000Z</time>
      </trkpt>
      <trkpt lat="45.69028" lon="2.84378">
        <ele>915.8</ele>
        <time>2021-08-26T07:29:23.000Z</time>
      </trkpt>
      <trkpt lat="45.69041" lon="2.84375">
        <ele>915.7</ele>
        <time>2021-08-26T07:29:28.000Z</time>
      </trkpt>
      <trkpt lat="45.69049" lon="2.8437">
        <ele>915.2</ele>
        <time>2021-08-26T07:29:33.000Z</time>
      </trkpt>
      <trkpt lat="45.69058" lon="2.84368">
        <ele>915.2</ele>
        <time>2021-08-26T07:29:38.000Z</time>
      </trkpt>
      <trkpt lat="45.69068" lon="2.84369">
        <ele>915.6</ele>
        <time>2021-08-26T07:29:44.000Z</time>
      </trkpt>
      <trkpt lat="45.69075" lon="2.84371">
        <ele>916.2</ele>
        <time>2021-08-26T07:29:49.000Z</time>
      </trkpt>
      <trkpt lat="45.69084" lon="2.84375">
        <ele>917</ele>
        <time>2021-08-26T07:29:54.000Z</time>
      </trkpt>
      <trkpt lat="45.6909" lon="2.8438">
        <ele>917.8</ele>
        <time>2021-08-26T07:30:00.000Z</time>
      </trkpt>
      <trkpt lat="45.69103" lon="2.84386">
        <ele>919</ele>
        <time>2021-08-26T07:30:05.000Z</time>
      </trkpt>
      <trkpt lat="45.69115" lon="2.8439">
        <ele>919.8</ele>
        <time>2021-08-26T07:30:10.000Z</time>
      </trkpt>
      <trkpt lat="45.69132" lon="2.84391">
        <ele>920.3</ele>
        <time>2021-08-26T07:30:16.000Z</time>
      </trkpt>
      <trkpt lat="45.69141" lon="2.8439">
        <ele>920.3</ele>
        <time>2021-08-26T07:30:21.000Z</time>
      </trkpt>
      <trkpt lat="45.69148" lon="2.8439">
        <ele>920.5</ele>
        <time>2021-08-26T07:30:26.000Z</time>
      </trkpt>
      <trkpt lat="45.69155" lon="2.84393">
        <ele>921.1</ele>
        <time>2021-08-26T07:30:33.000Z</time>
      </trkpt>
      <trkpt lat="45.69161" lon="2.84401">
        <ele>922.4</ele>
        <time>2021-08-26T07:31:14.000Z</time>
      </trkpt>
      <trkpt lat="45.69168" lon="2.84405">
        <ele>923</ele>
        <time>2021-08-26T07:31:20.000Z</time>
      </trkpt>
      <trkpt lat="45.69174" lon="2.84409">
        <ele>922.9</ele>
        <time>2021-08-26T07:31:26.000Z</time>
      </trkpt>
      <trkpt lat="45.69181" lon="2.84413">
        <ele>922.7</ele>
        <time>2021-08-26T07:31:32.000Z</time>
      </trkpt>
      <trkpt lat="45.69189" lon="2.84417">
        <ele>922.4</ele>
        <time>2021-08-26T07:31:37.000Z</time>
      </trkpt>
      <trkpt lat="45.69195" lon="2.8442">
        <ele>922.2</ele>
        <time>2021-08-26T07:31:42.000Z</time>
      </trkpt>
      <trkpt lat="45.69206" lon="2.84423">
        <ele>921.3</ele>
        <time>2021-08-26T07:31:48.000Z</time>
      </trkpt>
      <trkpt lat="45.69215" lon="2.84427">
        <ele>920.9</ele>
        <time>2021-08-26T07:31:53.000Z</time>
      </trkpt>
      <trkpt lat="45.69227" lon="2.84434">
        <ele>920.7</ele>
        <time>2021-08-26T07:31:58.000Z</time>
      </trkpt>
      <trkpt lat="45.69238" lon="2.84436">
        <ele>919.7</ele>
        <time>2021-08-26T07:32:04.000Z</time>
      </trkpt>
      <trkpt lat="45.69248" lon="2.84439">
        <ele>919</ele>
        <time>2021-08-26T07:32:09.000Z</time>
      </trkpt>
      <trkpt lat="45.69255" lon="2.84441">
        <ele>918.2</ele>
        <time>2021-08-26T07:32:14.000Z</time>
      </trkpt>
      <trkpt lat="45.69262" lon="2.84447">
        <ele>918</ele>
        <time>2021-08-26T07:32:20.000Z</time>
      </trkpt>
      <trkpt lat="45.69269" lon="2.84449">
        <ele>917.2</ele>
        <time>2021-08-26T07:32:25.000Z</time>
      </trkpt>
      <trkpt lat="45.69276" lon="2.84449">
        <ele>915.9</ele>
        <time>2021-08-26T07:32:30.000Z</time>
      </trkpt>
      <trkpt lat="45.69283" lon="2.8445">
        <ele>914.9</ele>
        <time>2021-08-26T07:32:37.000Z</time>
      </trkpt>
      <trkpt lat="45.6929" lon="2.84451">
        <ele>913.9</ele>
        <time>2021-08-26T07:32:43.000Z</time>
      </trkpt>
      <trkpt lat="45.69297" lon="2.8445">
        <ele>912.5</ele>
        <time>2021-08-26T07:32:48.000Z</time>
      </trkpt>
      <trkpt lat="45.69304" lon="2.84449">
        <ele>911.1</ele>
        <time>2021-08-26T07:32:54.000Z</time>
      </trkpt>
      <trkpt lat="45.69312" lon="2.84446">
        <ele>909.3</ele>
        <time>2021-08-26T07:33:00.000Z</time>
      </trkpt>
      <trkpt lat="45.69319" lon="2.84443">
        <ele>907.6</ele>
        <time>2021-08-26T07:33:05.000Z</time>
      </trkpt>
      <trkpt lat="45.69326" lon="2.8444">
        <ele>905.9</ele>
        <time>2021-08-26T07:33:10.000Z</time>
      </trkpt>
      <trkpt lat="45.69333" lon="2.84433">
        <ele>903.6</ele>
        <time>2021-08-26T07:33:16.000Z</time>
      </trkpt>
      <trkpt lat="45.69341" lon="2.84431">
        <ele>902.7</ele>
        <time>2021-08-26T07:33:22.000Z</time>
      </trkpt>
      <trkpt lat="45.69348" lon="2.84428">
        <ele>901.8</ele>
        <time>2021-08-26T07:33:28.000Z</time>
      </trkpt>
      <trkpt lat="45.69356" lon="2.84425">
        <ele>900.8</ele>
        <time>2021-08-26T07:33:33.000Z</time>
      </trkpt>
      <trkpt lat="45.69363" lon="2.84422">
        <ele>900</ele>
        <time>2021-08-26T07:33:38.000Z</time>
      </trkpt>
      <trkpt lat="45.69372" lon="2.84419">
        <ele>899</ele>
        <time>2021-08-26T07:33:44.000Z</time>
      </trkpt>
      <trkpt lat="45.6938" lon="2.84418">
        <ele>898.4</ele>
        <time>2021-08-26T07:33:49.000Z</time>
      </trkpt>
      <trkpt lat="45.69387" lon="2.84417">
        <ele>897.8</ele>
        <time>2021-08-26T07:33:54.000Z</time>
      </trkpt>
      <trkpt lat="45.69397" lon="2.84416">
        <ele>897</ele>
        <time>2021-08-26T07:34:00.000Z</time>
      </trkpt>
      <trkpt lat="45.69404" lon="2.84415">
        <ele>896.4</ele>
        <time>2021-08-26T07:34:05.000Z</time>
      </trkpt>
      <trkpt lat="45.69412" lon="2.84414">
        <ele>895.7</ele>
        <time>2021-08-26T07:34:10.000Z</time>
      </trkpt>
      <trkpt lat="45.69423" lon="2.84414">
        <ele>895.7</ele>
        <time>2021-08-26T07:34:16.000Z</time>
      </trkpt>
      <trkpt lat="45.69432" lon="2.84413">
        <ele>895.8</ele>
        <time>2021-08-26T07:34:21.000Z</time>
      </trkpt>
      <trkpt lat="45.69441" lon="2.84415">
        <ele>896.5</ele>
        <time>2021-08-26T07:34:26.000Z</time>
      </trkpt>
      <trkpt lat="45.69451" lon="2.84416">
        <ele>897.1</ele>
        <time>2021-08-26T07:34:32.000Z</time>
      </trkpt>
      <trkpt lat="45.6946" lon="2.84418">
        <ele>897.7</ele>
        <time>2021-08-26T07:34:37.000Z</time>
      </trkpt>
      <trkpt lat="45.69468" lon="2.84422">
        <ele>898.3</ele>
        <time>2021-08-26T07:34:42.000Z</time>
      </trkpt>
      <trkpt lat="45.69478" lon="2.84426">
        <ele>899</ele>
        <time>2021-08-26T07:34:48.000Z</time>
      </trkpt>
      <trkpt lat="45.69492" lon="2.8443">
        <ele>899.7</ele>
        <time>2021-08-26T07:34:53.000Z</time>
      </trkpt>
      <trkpt lat="45.69504" lon="2.84434">
        <ele>900.1</ele>
        <time>2021-08-26T07:34:58.000Z</time>
      </trkpt>
      <trkpt lat="45.69524" lon="2.84438">
        <ele>899.5</ele>
        <time>2021-08-26T07:35:04.000Z</time>
      </trkpt>
      <trkpt lat="45.6953" lon="2.84444">
        <ele>899.6</ele>
        <time>2021-08-26T07:35:11.000Z</time>
      </trkpt>
      <trkpt lat="45.69535" lon="2.8445">
        <ele>899.9</ele>
        <time>2021-08-26T07:35:16.000Z</time>
      </trkpt>
      <trkpt lat="45.69539" lon="2.84457">
        <ele>900.3</ele>
        <time>2021-08-26T07:35:22.000Z</time>
      </trkpt>
      <trkpt lat="45.69547" lon="2.84463">
        <ele>900.4</ele>
        <time>2021-08-26T07:35:28.000Z</time>
      </trkpt>
      <trkpt lat="45.69555" lon="2.84467">
        <ele>900.4</ele>
        <time>2021-08-26T07:35:33.000Z</time>
      </trkpt>
      <trkpt lat="45.69563" lon="2.84473">
        <ele>900.5</ele>
        <time>2021-08-26T07:35:38.000Z</time>
      </trkpt>
      <trkpt lat="45.69573" lon="2.84479">
        <ele>900.6</ele>
        <time>2021-08-26T07:35:44.000Z</time>
      </trkpt>
      <trkpt lat="45.69581" lon="2.84486">
        <ele>900.9</ele>
        <time>2021-08-26T07:35:49.000Z</time>
      </trkpt>
      <trkpt lat="45.6959" lon="2.84492">
        <ele>900.8</ele>
        <time>2021-08-26T07:35:54.000Z</time>
      </trkpt>
      <trkpt lat="45.69597" lon="2.84498">
        <ele>900.7</ele>
        <time>2021-08-26T07:36:00.000Z</time>
      </trkpt>
      <trkpt lat="45.69604" lon="2.84504">
        <ele>900.4</ele>
        <time>2021-08-26T07:36:05.000Z</time>
      </trkpt>
      <trkpt lat="45.69609" lon="2.84511">
        <ele>900.1</ele>
        <time>2021-08-26T07:36:10.000Z</time>
      </trkpt>
      <trkpt lat="45.69615" lon="2.84519">
        <ele>899.8</ele>
        <time>2021-08-26T07:36:16.000Z</time>
      </trkpt>
      <trkpt lat="45.69619" lon="2.84526">
        <ele>899.6</ele>
        <time>2021-08-26T07:36:23.000Z</time>
      </trkpt>
      <trkpt lat="45.69621" lon="2.84516">
        <ele>899.2</ele>
        <time>2021-08-26T07:36:43.000Z</time>
      </trkpt>
      <trkpt lat="45.69622" lon="2.84506">
        <ele>898.9</ele>
        <time>2021-08-26T07:36:49.000Z</time>
      </trkpt>
      <trkpt lat="45.69624" lon="2.84496">
        <ele>898.3</ele>
        <time>2021-08-26T07:36:55.000Z</time>
      </trkpt>
      <trkpt lat="45.69626" lon="2.84486">
        <ele>897.5</ele>
        <time>2021-08-26T07:37:16.000Z</time>
      </trkpt>
      <trkpt lat="45.69625" lon="2.84476">
        <ele>896.9</ele>
        <time>2021-08-26T07:37:25.000Z</time>
      </trkpt>
      <trkpt lat="45.69624" lon="2.84465">
        <ele>896.3</ele>
        <time>2021-08-26T07:37:34.000Z</time>
      </trkpt>
      <trkpt lat="45.69621" lon="2.84446">
        <ele>895.2</ele>
        <time>2021-08-26T07:37:40.000Z</time>
      </trkpt>
      <trkpt lat="45.69618" lon="2.84436">
        <ele>894.7</ele>
        <time>2021-08-26T07:37:45.000Z</time>
      </trkpt>
      <trkpt lat="45.69619" lon="2.84426">
        <ele>893.9</ele>
        <time>2021-08-26T07:37:50.000Z</time>
      </trkpt>
      <trkpt lat="45.69619" lon="2.84415">
        <ele>893.1</ele>
        <time>2021-08-26T07:37:56.000Z</time>
      </trkpt>
      <trkpt lat="45.6962" lon="2.84405">
        <ele>891.9</ele>
        <time>2021-08-26T07:38:01.000Z</time>
      </trkpt>
      <trkpt lat="45.69623" lon="2.84396">
        <ele>890.8</ele>
        <time>2021-08-26T07:38:06.000Z</time>
      </trkpt>
      <trkpt lat="45.69626" lon="2.84385">
        <ele>889.6</ele>
        <time>2021-08-26T07:38:12.000Z</time>
      </trkpt>
      <trkpt lat="45.69632" lon="2.8438">
        <ele>888.9</ele>
        <time>2021-08-26T07:38:18.000Z</time>
      </trkpt>
      <trkpt lat="45.69639" lon="2.84368">
        <ele>887.5</ele>
        <time>2021-08-26T07:38:24.000Z</time>
      </trkpt>
      <trkpt lat="45.69645" lon="2.84361">
        <ele>886.7</ele>
        <time>2021-08-26T07:38:29.000Z</time>
      </trkpt>
      <trkpt lat="45.69652" lon="2.84356">
        <ele>886.1</ele>
        <time>2021-08-26T07:38:34.000Z</time>
      </trkpt>
      <trkpt lat="45.69659" lon="2.84352">
        <ele>885.7</ele>
        <time>2021-08-26T07:38:40.000Z</time>
      </trkpt>
      <trkpt lat="45.69666" lon="2.84347">
        <ele>885.2</ele>
        <time>2021-08-26T07:38:45.000Z</time>
      </trkpt>
      <trkpt lat="45.69672" lon="2.84342">
        <ele>884.6</ele>
        <time>2021-08-26T07:38:50.000Z</time>
      </trkpt>
      <trkpt lat="45.69676" lon="2.84332">
        <ele>883.6</ele>
        <time>2021-08-26T07:38:56.000Z</time>
      </trkpt>
      <trkpt lat="45.69681" lon="2.84324">
        <ele>882.6</ele>
        <time>2021-08-26T07:39:01.000Z</time>
      </trkpt>
      <trkpt lat="45.69684" lon="2.84315">
        <ele>881.5</ele>
        <time>2021-08-26T07:39:07.000Z</time>
      </trkpt>
      <trkpt lat="45.69682" lon="2.84306">
        <ele>880.4</ele>
        <time>2021-08-26T07:39:17.000Z</time>
      </trkpt>
      <trkpt lat="45.69683" lon="2.84296">
        <ele>879.3</ele>
        <time>2021-08-26T07:39:31.000Z</time>
      </trkpt>
      <trkpt lat="45.69683" lon="2.84286">
        <ele>878.1</ele>
        <time>2021-08-26T07:39:46.000Z</time>
      </trkpt>
      <trkpt lat="45.69681" lon="2.84276">
        <ele>876.9</ele>
        <time>2021-08-26T07:39:52.000Z</time>
      </trkpt>
      <trkpt lat="45.69681" lon="2.84266">
        <ele>875.7</ele>
        <time>2021-08-26T07:39:58.000Z</time>
      </trkpt>
      <trkpt lat="45.6968" lon="2.84254">
        <ele>874.3</ele>
        <time>2021-08-26T07:40:04.000Z</time>
      </trkpt>
      <trkpt lat="45.69677" lon="2.84245">
        <ele>872.9</ele>
        <time>2021-08-26T07:40:09.000Z</time>
      </trkpt>
      <trkpt lat="45.69674" lon="2.84237">
        <ele>871.7</ele>
        <time>2021-08-26T07:40:14.000Z</time>
      </trkpt>
      <trkpt lat="45.69669" lon="2.8423">
        <ele>870.3</ele>
        <time>2021-08-26T07:40:20.000Z</time>
      </trkpt>
      <trkpt lat="45.69667" lon="2.84221">
        <ele>868.9</ele>
        <time>2021-08-26T07:40:29.000Z</time>
      </trkpt>
      <trkpt lat="45.69668" lon="2.84212">
        <ele>867.7</ele>
        <time>2021-08-26T07:40:35.000Z</time>
      </trkpt>
      <trkpt lat="45.69669" lon="2.84202">
        <ele>866.3</ele>
        <time>2021-08-26T07:40:52.000Z</time>
      </trkpt>
      <trkpt lat="45.69671" lon="2.84192">
        <ele>865.1</ele>
        <time>2021-08-26T07:40:58.000Z</time>
      </trkpt>
      <trkpt lat="45.69675" lon="2.84184">
        <ele>864.5</ele>
        <time>2021-08-26T07:41:04.000Z</time>
      </trkpt>
      <trkpt lat="45.69679" lon="2.84176">
        <ele>863.9</ele>
        <time>2021-08-26T07:41:10.000Z</time>
      </trkpt>
      <trkpt lat="45.69684" lon="2.84166">
        <ele>863.2</ele>
        <time>2021-08-26T07:41:17.000Z</time>
      </trkpt>
      <trkpt lat="45.69685" lon="2.84156">
        <ele>861.7</ele>
        <time>2021-08-26T07:41:26.000Z</time>
      </trkpt>
      <trkpt lat="45.69688" lon="2.84147">
        <ele>860.7</ele>
        <time>2021-08-26T07:41:38.000Z</time>
      </trkpt>
      <trkpt lat="45.69694" lon="2.84139">
        <ele>860.4</ele>
        <time>2021-08-26T07:41:45.000Z</time>
      </trkpt>
      <trkpt lat="45.697" lon="2.84136">
        <ele>860.9</ele>
        <time>2021-08-26T07:41:50.000Z</time>
      </trkpt>
      <trkpt lat="45.69706" lon="2.84129">
        <ele>860.9</ele>
        <time>2021-08-26T07:41:56.000Z</time>
      </trkpt>
      <trkpt lat="45.69712" lon="2.84123">
        <ele>861.1</ele>
        <time>2021-08-26T07:42:01.000Z</time>
      </trkpt>
      <trkpt lat="45.69716" lon="2.84115">
        <ele>860.8</ele>
        <time>2021-08-26T07:42:12.000Z</time>
      </trkpt>
      <trkpt lat="45.69721" lon="2.84109">
        <ele>861</ele>
        <time>2021-08-26T07:42:21.000Z</time>
      </trkpt>
      <trkpt lat="45.69723" lon="2.84096">
        <ele>859.7</ele>
        <time>2021-08-26T07:42:46.000Z</time>
      </trkpt>
      <trkpt lat="45.69728" lon="2.84088">
        <ele>859.8</ele>
        <time>2021-08-26T07:42:55.000Z</time>
      </trkpt>
      <trkpt lat="45.69734" lon="2.84083">
        <ele>860.5</ele>
        <time>2021-08-26T07:43:00.000Z</time>
      </trkpt>
      <trkpt lat="45.69741" lon="2.8408">
        <ele>861.4</ele>
        <time>2021-08-26T07:43:07.000Z</time>
      </trkpt>
      <trkpt lat="45.69752" lon="2.84081">
        <ele>863.6</ele>
        <time>2021-08-26T07:43:12.000Z</time>
      </trkpt>
      <trkpt lat="45.69765" lon="2.84079">
        <ele>864.1</ele>
        <time>2021-08-26T07:43:17.000Z</time>
      </trkpt>
      <trkpt lat="45.6977" lon="2.84073">
        <ele>863.2</ele>
        <time>2021-08-26T07:43:23.000Z</time>
      </trkpt>
      <trkpt lat="45.6978" lon="2.84066">
        <ele>862.6</ele>
        <time>2021-08-26T07:43:28.000Z</time>
      </trkpt>
      <trkpt lat="45.69794" lon="2.84058">
        <ele>862.3</ele>
        <time>2021-08-26T07:43:33.000Z</time>
      </trkpt>
      <trkpt lat="45.69805" lon="2.84052">
        <ele>862.1</ele>
        <time>2021-08-26T07:43:38.000Z</time>
      </trkpt>
      <trkpt lat="45.69811" lon="2.84046">
        <ele>861.7</ele>
        <time>2021-08-26T07:43:44.000Z</time>
      </trkpt>
      <trkpt lat="45.69815" lon="2.84038">
        <ele>860.8</ele>
        <time>2021-08-26T07:43:52.000Z</time>
      </trkpt>
      <trkpt lat="45.69821" lon="2.8403">
        <ele>860.1</ele>
        <time>2021-08-26T07:44:00.000Z</time>
      </trkpt>
      <trkpt lat="45.69826" lon="2.84024">
        <ele>859.7</ele>
        <time>2021-08-26T07:44:09.000Z</time>
      </trkpt>
      <trkpt lat="45.69833" lon="2.84017">
        <ele>859.4</ele>
        <time>2021-08-26T07:44:15.000Z</time>
      </trkpt>
      <trkpt lat="45.69842" lon="2.84011">
        <ele>859.2</ele>
        <time>2021-08-26T07:44:20.000Z</time>
      </trkpt>
      <trkpt lat="45.69849" lon="2.84006">
        <ele>859.1</ele>
        <time>2021-08-26T07:44:25.000Z</time>
      </trkpt>
      <trkpt lat="45.69858" lon="2.84001">
        <ele>859.2</ele>
        <time>2021-08-26T07:44:30.000Z</time>
      </trkpt>
      <trkpt lat="45.69866" lon="2.83996">
        <ele>858.7</ele>
        <time>2021-08-26T07:44:36.000Z</time>
      </trkpt>
      <trkpt lat="45.69871" lon="2.8399">
        <ele>857.7</ele>
        <time>2021-08-26T07:44:43.000Z</time>
      </trkpt>
      <trkpt lat="45.69877" lon="2.83984">
        <ele>856.7</ele>
        <time>2021-08-26T07:44:51.000Z</time>
      </trkpt>
      <trkpt lat="45.69886" lon="2.83979">
        <ele>856.4</ele>
        <time>2021-08-26T07:44:56.000Z</time>
      </trkpt>
      <trkpt lat="45.69893" lon="2.83975">
        <ele>856.1</ele>
        <time>2021-08-26T07:45:01.000Z</time>
      </trkpt>
      <trkpt lat="45.69903" lon="2.8397">
        <ele>855.8</ele>
        <time>2021-08-26T07:45:06.000Z</time>
      </trkpt>
      <trkpt lat="45.69914" lon="2.83963">
        <ele>855.3</ele>
        <time>2021-08-26T07:45:12.000Z</time>
      </trkpt>
      <trkpt lat="45.69928" lon="2.83956">
        <ele>854.9</ele>
        <time>2021-08-26T07:45:17.000Z</time>
      </trkpt>
      <trkpt lat="45.69939" lon="2.8395">
        <ele>854.7</ele>
        <time>2021-08-26T07:45:22.000Z</time>
      </trkpt>
      <trkpt lat="45.69946" lon="2.83947">
        <ele>854.8</ele>
        <time>2021-08-26T07:45:28.000Z</time>
      </trkpt>
      <trkpt lat="45.69952" lon="2.83944">
        <ele>854.9</ele>
        <time>2021-08-26T07:45:33.000Z</time>
      </trkpt>
      <trkpt lat="45.69961" lon="2.8394">
        <ele>855.3</ele>
        <time>2021-08-26T07:45:38.000Z</time>
      </trkpt>
      <trkpt lat="45.69968" lon="2.83938">
        <ele>855.8</ele>
        <time>2021-08-26T07:45:44.000Z</time>
      </trkpt>
      <trkpt lat="45.69975" lon="2.83937">
        <ele>856.5</ele>
        <time>2021-08-26T07:45:49.000Z</time>
      </trkpt>
      <trkpt lat="45.69982" lon="2.83934">
        <ele>857</ele>
        <time>2021-08-26T07:45:54.000Z</time>
      </trkpt>
      <trkpt lat="45.69989" lon="2.83926">
        <ele>857.1</ele>
        <time>2021-08-26T07:46:00.000Z</time>
      </trkpt>
      <trkpt lat="45.69995" lon="2.83915">
        <ele>856.9</ele>
        <time>2021-08-26T07:46:05.000Z</time>
      </trkpt>
      <trkpt lat="45.7" lon="2.83907">
        <ele>856</ele>
        <time>2021-08-26T07:46:10.000Z</time>
      </trkpt>
      <trkpt lat="45.70007" lon="2.83899">
        <ele>854.8</ele>
        <time>2021-08-26T07:46:16.000Z</time>
      </trkpt>
      <trkpt lat="45.70011" lon="2.83891">
        <ele>853.4</ele>
        <time>2021-08-26T07:46:21.000Z</time>
      </trkpt>
      <trkpt lat="45.70016" lon="2.83883">
        <ele>852.3</ele>
        <time>2021-08-26T07:46:27.000Z</time>
      </trkpt>
      <trkpt lat="45.70023" lon="2.83876">
        <ele>851.5</ele>
        <time>2021-08-26T07:46:32.000Z</time>
      </trkpt>
      <trkpt lat="45.70029" lon="2.83871">
        <ele>851.1</ele>
        <time>2021-08-26T07:46:37.000Z</time>
      </trkpt>
      <trkpt lat="45.70037" lon="2.83868">
        <ele>851.2</ele>
        <time>2021-08-26T07:46:42.000Z</time>
      </trkpt>
      <trkpt lat="45.70043" lon="2.83862">
        <ele>850.8</ele>
        <time>2021-08-26T07:46:48.000Z</time>
      </trkpt>
      <trkpt lat="45.7005" lon="2.83855">
        <ele>850.3</ele>
        <time>2021-08-26T07:46:54.000Z</time>
      </trkpt>
      <trkpt lat="45.70057" lon="2.83851">
        <ele>850.4</ele>
        <time>2021-08-26T07:47:00.000Z</time>
      </trkpt>
      <trkpt lat="45.70064" lon="2.83847">
        <ele>850.6</ele>
        <time>2021-08-26T07:47:05.000Z</time>
      </trkpt>
      <trkpt lat="45.70069" lon="2.83841">
        <ele>850.3</ele>
        <time>2021-08-26T07:47:10.000Z</time>
      </trkpt>
      <trkpt lat="45.70076" lon="2.83834">
        <ele>850.2</ele>
        <time>2021-08-26T07:47:16.000Z</time>
      </trkpt>
      <trkpt lat="45.70081" lon="2.83827">
        <ele>849.4</ele>
        <time>2021-08-26T07:47:22.000Z</time>
      </trkpt>
      <trkpt lat="45.70088" lon="2.83824">
        <ele>849.5</ele>
        <time>2021-08-26T07:47:28.000Z</time>
      </trkpt>
      <trkpt lat="45.70095" lon="2.83822">
        <ele>849.8</ele>
        <time>2021-08-26T07:47:34.000Z</time>
      </trkpt>
      <trkpt lat="45.70102" lon="2.83817">
        <ele>849.5</ele>
        <time>2021-08-26T07:47:40.000Z</time>
      </trkpt>
      <trkpt lat="45.7011" lon="2.83814">
        <ele>849.8</ele>
        <time>2021-08-26T07:47:47.000Z</time>
      </trkpt>
      <trkpt lat="45.70117" lon="2.83813">
        <ele>850.3</ele>
        <time>2021-08-26T07:47:55.000Z</time>
      </trkpt>
      <trkpt lat="45.70121" lon="2.83805">
        <ele>849.3</ele>
        <time>2021-08-26T07:48:03.000Z</time>
      </trkpt>
      <trkpt lat="45.70127" lon="2.83811">
        <ele>851.1</ele>
        <time>2021-08-26T07:48:25.000Z</time>
      </trkpt>
      <trkpt lat="45.70135" lon="2.83806">
        <ele>851.1</ele>
        <time>2021-08-26T07:48:31.000Z</time>
      </trkpt>
      <trkpt lat="45.70142" lon="2.83807">
        <ele>852.1</ele>
        <time>2021-08-26T07:48:38.000Z</time>
      </trkpt>
      <trkpt lat="45.70149" lon="2.83811">
        <ele>853.5</ele>
        <time>2021-08-26T07:48:44.000Z</time>
      </trkpt>
      <trkpt lat="45.70147" lon="2.83801">
        <ele>851.6</ele>
        <time>2021-08-26T07:49:01.000Z</time>
      </trkpt>
      <trkpt lat="45.70141" lon="2.83797">
        <ele>850.2</ele>
        <time>2021-08-26T07:49:07.000Z</time>
      </trkpt>
      <trkpt lat="45.70133" lon="2.83793">
        <ele>848.5</ele>
        <time>2021-08-26T07:49:12.000Z</time>
      </trkpt>
      <trkpt lat="45.70125" lon="2.83795">
        <ele>847.9</ele>
        <time>2021-08-26T07:49:18.000Z</time>
      </trkpt>
      <trkpt lat="45.70117" lon="2.83793">
        <ele>846.5</ele>
        <time>2021-08-26T07:49:24.000Z</time>
      </trkpt>
      <trkpt lat="45.70111" lon="2.83795">
        <ele>846.1</ele>
        <time>2021-08-26T07:49:31.000Z</time>
      </trkpt>
      <trkpt lat="45.70104" lon="2.838">
        <ele>846.3</ele>
        <time>2021-08-26T07:49:38.000Z</time>
      </trkpt>
      <trkpt lat="45.70098" lon="2.83804">
        <ele>846.4</ele>
        <time>2021-08-26T07:49:44.000Z</time>
      </trkpt>
      <trkpt lat="45.70091" lon="2.83809">
        <ele>846.6</ele>
        <time>2021-08-26T07:49:53.000Z</time>
      </trkpt>
      <trkpt lat="45.70098" lon="2.83805">
        <ele>846.6</ele>
        <time>2021-08-26T07:50:18.000Z</time>
      </trkpt>
      <trkpt lat="45.70103" lon="2.838">
        <ele>846.2</ele>
        <time>2021-08-26T07:50:34.000Z</time>
      </trkpt>
      <trkpt lat="45.70109" lon="2.83795">
        <ele>845.9</ele>
        <time>2021-08-26T07:50:41.000Z</time>
      </trkpt>
      <trkpt lat="45.70117" lon="2.8379">
        <ele>845.9</ele>
        <time>2021-08-26T07:50:48.000Z</time>
      </trkpt>
      <trkpt lat="45.70124" lon="2.83786">
        <ele>846.1</ele>
        <time>2021-08-26T07:50:58.000Z</time>
      </trkpt>
      <trkpt lat="45.70132" lon="2.8378">
        <ele>846</ele>
        <time>2021-08-26T07:51:04.000Z</time>
      </trkpt>
      <trkpt lat="45.70138" lon="2.83776">
        <ele>846.1</ele>
        <time>2021-08-26T07:51:09.000Z</time>
      </trkpt>
      <trkpt lat="45.70146" lon="2.83773">
        <ele>846.7</ele>
        <time>2021-08-26T07:51:14.000Z</time>
      </trkpt>
      <trkpt lat="45.70155" lon="2.83768">
        <ele>847.1</ele>
        <time>2021-08-26T07:51:20.000Z</time>
      </trkpt>
      <trkpt lat="45.70161" lon="2.83766">
        <ele>847.7</ele>
        <time>2021-08-26T07:51:25.000Z</time>
      </trkpt>
      <trkpt lat="45.70168" lon="2.83766">
        <ele>848.6</ele>
        <time>2021-08-26T07:51:30.000Z</time>
      </trkpt>
      <trkpt lat="45.70178" lon="2.83767">
        <ele>849.3</ele>
        <time>2021-08-26T07:51:36.000Z</time>
      </trkpt>
      <trkpt lat="45.70187" lon="2.83765">
        <ele>849.5</ele>
        <time>2021-08-26T07:51:41.000Z</time>
      </trkpt>
      <trkpt lat="45.70194" lon="2.83764">
        <ele>849.8</ele>
        <time>2021-08-26T07:51:48.000Z</time>
      </trkpt>
      <trkpt lat="45.702" lon="2.83757">
        <ele>849.3</ele>
        <time>2021-08-26T07:51:55.000Z</time>
      </trkpt>
      <trkpt lat="45.70209" lon="2.83744">
        <ele>847.5</ele>
        <time>2021-08-26T07:52:00.000Z</time>
      </trkpt>
      <trkpt lat="45.70216" lon="2.83744">
        <ele>848</ele>
        <time>2021-08-26T07:52:18.000Z</time>
      </trkpt>
      <trkpt lat="45.70224" lon="2.83741">
        <ele>847.9</ele>
        <time>2021-08-26T07:52:24.000Z</time>
      </trkpt>
      <trkpt lat="45.70231" lon="2.83739">
        <ele>848</ele>
        <time>2021-08-26T07:52:33.000Z</time>
      </trkpt>
      <trkpt lat="45.70236" lon="2.83731">
        <ele>846.6</ele>
        <time>2021-08-26T07:52:41.000Z</time>
      </trkpt>
      <trkpt lat="45.70237" lon="2.83722">
        <ele>844.6</ele>
        <time>2021-08-26T07:52:47.000Z</time>
      </trkpt>
      <trkpt lat="45.7024" lon="2.83713">
        <ele>842.9</ele>
        <time>2021-08-26T07:52:53.000Z</time>
      </trkpt>
      <trkpt lat="45.70244" lon="2.83706">
        <ele>841.8</ele>
        <time>2021-08-26T07:52:58.000Z</time>
      </trkpt>
      <trkpt lat="45.70252" lon="2.83702">
        <ele>841.7</ele>
        <time>2021-08-26T07:53:04.000Z</time>
      </trkpt>
      <trkpt lat="45.70257" lon="2.83696">
        <ele>840.6</ele>
        <time>2021-08-26T07:54:01.000Z</time>
      </trkpt>
      <trkpt lat="45.70264" lon="2.83694">
        <ele>840.5</ele>
        <time>2021-08-26T07:54:07.000Z</time>
      </trkpt>
      <trkpt lat="45.70271" lon="2.83694">
        <ele>840.8</ele>
        <time>2021-08-26T07:54:12.000Z</time>
      </trkpt>
      <trkpt lat="45.70278" lon="2.83695">
        <ele>841.2</ele>
        <time>2021-08-26T07:54:21.000Z</time>
      </trkpt>
      <trkpt lat="45.70284" lon="2.837">
        <ele>842.3</ele>
        <time>2021-08-26T07:54:27.000Z</time>
      </trkpt>
      <trkpt lat="45.70291" lon="2.83701">
        <ele>842.7</ele>
        <time>2021-08-26T07:54:32.000Z</time>
      </trkpt>
      <trkpt lat="45.70297" lon="2.83704">
        <ele>843.4</ele>
        <time>2021-08-26T07:54:41.000Z</time>
      </trkpt>
      <trkpt lat="45.70303" lon="2.83711">
        <ele>844.7</ele>
        <time>2021-08-26T07:54:52.000Z</time>
      </trkpt>
      <trkpt lat="45.7031" lon="2.83712">
        <ele>845</ele>
        <time>2021-08-26T07:55:02.000Z</time>
      </trkpt>
      <trkpt lat="45.70316" lon="2.83715">
        <ele>845.5</ele>
        <time>2021-08-26T07:55:09.000Z</time>
      </trkpt>
      <trkpt lat="45.70322" lon="2.8372">
        <ele>846.3</ele>
        <time>2021-08-26T07:55:17.000Z</time>
      </trkpt>
      <trkpt lat="45.70329" lon="2.8372">
        <ele>846.4</ele>
        <time>2021-08-26T07:55:22.000Z</time>
      </trkpt>
      <trkpt lat="45.70343" lon="2.83724">
        <ele>845.8</ele>
        <time>2021-08-26T07:55:28.000Z</time>
      </trkpt>
      <trkpt lat="45.70353" lon="2.83725">
        <ele>844.8</ele>
        <time>2021-08-26T07:55:33.000Z</time>
      </trkpt>
      <trkpt lat="45.7036" lon="2.83725">
        <ele>844</ele>
        <time>2021-08-26T07:55:39.000Z</time>
      </trkpt>
      <trkpt lat="45.70367" lon="2.83725">
        <ele>843.2</ele>
        <time>2021-08-26T07:55:47.000Z</time>
      </trkpt>
      <trkpt lat="45.70374" lon="2.83726">
        <ele>842.5</ele>
        <time>2021-08-26T07:55:53.000Z</time>
      </trkpt>
      <trkpt lat="45.70382" lon="2.83727">
        <ele>841.7</ele>
        <time>2021-08-26T07:56:00.000Z</time>
      </trkpt>
      <trkpt lat="45.70388" lon="2.83732">
        <ele>841.6</ele>
        <time>2021-08-26T07:56:09.000Z</time>
      </trkpt>
      <trkpt lat="45.70395" lon="2.83734">
        <ele>841</ele>
        <time>2021-08-26T07:56:14.000Z</time>
      </trkpt>
      <trkpt lat="45.70403" lon="2.83738">
        <ele>840.4</ele>
        <time>2021-08-26T07:56:20.000Z</time>
      </trkpt>
      <trkpt lat="45.70413" lon="2.83741">
        <ele>839.6</ele>
        <time>2021-08-26T07:56:25.000Z</time>
      </trkpt>
      <trkpt lat="45.7042" lon="2.83743">
        <ele>838.7</ele>
        <time>2021-08-26T07:56:31.000Z</time>
      </trkpt>
      <trkpt lat="45.7043" lon="2.83739">
        <ele>836.4</ele>
        <time>2021-08-26T07:56:51.000Z</time>
      </trkpt>
      <trkpt lat="45.70437" lon="2.83735">
        <ele>834.8</ele>
        <time>2021-08-26T07:57:11.000Z</time>
      </trkpt>
      <trkpt lat="45.70444" lon="2.83734">
        <ele>833.5</ele>
        <time>2021-08-26T07:57:19.000Z</time>
      </trkpt>
      <trkpt lat="45.7045" lon="2.83736">
        <ele>832.5</ele>
        <time>2021-08-26T07:57:27.000Z</time>
      </trkpt>
      <trkpt lat="45.70458" lon="2.83742">
        <ele>831.2</ele>
        <time>2021-08-26T07:57:32.000Z</time>
      </trkpt>
      <trkpt lat="45.70464" lon="2.83746">
        <ele>830.2</ele>
        <time>2021-08-26T07:57:37.000Z</time>
      </trkpt>
      <trkpt lat="45.70471" lon="2.83749">
        <ele>828.9</ele>
        <time>2021-08-26T07:57:44.000Z</time>
      </trkpt>
      <trkpt lat="45.70475" lon="2.83756">
        <ele>828.2</ele>
        <time>2021-08-26T07:57:54.000Z</time>
      </trkpt>
      <trkpt lat="45.70481" lon="2.83763">
        <ele>827</ele>
        <time>2021-08-26T07:58:02.000Z</time>
      </trkpt>
      <trkpt lat="45.70486" lon="2.8377">
        <ele>826</ele>
        <time>2021-08-26T07:58:09.000Z</time>
      </trkpt>
      <trkpt lat="45.70491" lon="2.83776">
        <ele>825</ele>
        <time>2021-08-26T07:58:14.000Z</time>
      </trkpt>
      <trkpt lat="45.70501" lon="2.83778">
        <ele>822.9</ele>
        <time>2021-08-26T07:58:20.000Z</time>
      </trkpt>
      <trkpt lat="45.7051" lon="2.83775">
        <ele>822.1</ele>
        <time>2021-08-26T07:58:25.000Z</time>
      </trkpt>
      <trkpt lat="45.70517" lon="2.83773">
        <ele>821.5</ele>
        <time>2021-08-26T07:58:32.000Z</time>
      </trkpt>
      <trkpt lat="45.70522" lon="2.83768">
        <ele>820.8</ele>
        <time>2021-08-26T07:58:39.000Z</time>
      </trkpt>
      <trkpt lat="45.70528" lon="2.83763">
        <ele>820</ele>
        <time>2021-08-26T07:58:48.000Z</time>
      </trkpt>
      <trkpt lat="45.70531" lon="2.83754">
        <ele>819.1</ele>
        <time>2021-08-26T07:59:01.000Z</time>
      </trkpt>
      <trkpt lat="45.70534" lon="2.83745">
        <ele>818.6</ele>
        <time>2021-08-26T07:59:07.000Z</time>
      </trkpt>
      <trkpt lat="45.70539" lon="2.83738">
        <ele>818</ele>
        <time>2021-08-26T07:59:13.000Z</time>
      </trkpt>
      <trkpt lat="45.70547" lon="2.83733">
        <ele>817</ele>
        <time>2021-08-26T07:59:18.000Z</time>
      </trkpt>
      <trkpt lat="45.70559" lon="2.83725">
        <ele>815.5</ele>
        <time>2021-08-26T07:59:24.000Z</time>
      </trkpt>
      <trkpt lat="45.70565" lon="2.8372">
        <ele>814.8</ele>
        <time>2021-08-26T07:59:31.000Z</time>
      </trkpt>
      <trkpt lat="45.70571" lon="2.83716">
        <ele>814</ele>
        <time>2021-08-26T07:59:36.000Z</time>
      </trkpt>
      <trkpt lat="45.70578" lon="2.83713">
        <ele>813.1</ele>
        <time>2021-08-26T07:59:41.000Z</time>
      </trkpt>
      <trkpt lat="45.70585" lon="2.83715">
        <ele>812.6</ele>
        <time>2021-08-26T07:59:47.000Z</time>
      </trkpt>
      <trkpt lat="45.70591" lon="2.83717">
        <ele>813</ele>
        <time>2021-08-26T07:59:52.000Z</time>
      </trkpt>
      <trkpt lat="45.70598" lon="2.83717">
        <ele>813.6</ele>
        <time>2021-08-26T07:59:59.000Z</time>
      </trkpt>
      <trkpt lat="45.70605" lon="2.83717">
        <ele>814.2</ele>
        <time>2021-08-26T08:00:10.000Z</time>
      </trkpt>
      <trkpt lat="45.70609" lon="2.83725">
        <ele>814.6</ele>
        <time>2021-08-26T08:00:19.000Z</time>
      </trkpt>
      <trkpt lat="45.70614" lon="2.83731">
        <ele>815.2</ele>
        <time>2021-08-26T08:00:27.000Z</time>
      </trkpt>
      <trkpt lat="45.70619" lon="2.83738">
        <ele>815.9</ele>
        <time>2021-08-26T08:00:36.000Z</time>
      </trkpt>
      <trkpt lat="45.70621" lon="2.83748">
        <ele>816.5</ele>
        <time>2021-08-26T08:00:42.000Z</time>
      </trkpt>
      <trkpt lat="45.70624" lon="2.83757">
        <ele>817.5</ele>
        <time>2021-08-26T08:00:51.000Z</time>
      </trkpt>
      <trkpt lat="45.70623" lon="2.83767">
        <ele>818.2</ele>
        <time>2021-08-26T08:00:58.000Z</time>
      </trkpt>
      <trkpt lat="45.70625" lon="2.83777">
        <ele>819.3</ele>
        <time>2021-08-26T08:01:05.000Z</time>
      </trkpt>
      <trkpt lat="45.7063" lon="2.83785">
        <ele>820.2</ele>
        <time>2021-08-26T08:01:15.000Z</time>
      </trkpt>
      <trkpt lat="45.7063" lon="2.83798">
        <ele>821.2</ele>
        <time>2021-08-26T08:01:20.000Z</time>
      </trkpt>
      <trkpt lat="45.7063" lon="2.83808">
        <ele>822</ele>
        <time>2021-08-26T08:01:51.000Z</time>
      </trkpt>
      <trkpt lat="45.70628" lon="2.83817">
        <ele>822.6</ele>
        <time>2021-08-26T08:01:57.000Z</time>
      </trkpt>
      <trkpt lat="45.70628" lon="2.83829">
        <ele>823.6</ele>
        <time>2021-08-26T08:02:02.000Z</time>
      </trkpt>
      <trkpt lat="45.70629" lon="2.83839">
        <ele>824.5</ele>
        <time>2021-08-26T08:02:08.000Z</time>
      </trkpt>
      <trkpt lat="45.70629" lon="2.8385">
        <ele>825.8</ele>
        <time>2021-08-26T08:02:16.000Z</time>
      </trkpt>
      <trkpt lat="45.70631" lon="2.8386">
        <ele>826.8</ele>
        <time>2021-08-26T08:02:21.000Z</time>
      </trkpt>
      <trkpt lat="45.70632" lon="2.8387">
        <ele>827.8</ele>
        <time>2021-08-26T08:02:26.000Z</time>
      </trkpt>
      <trkpt lat="45.70635" lon="2.8388">
        <ele>828.6</ele>
        <time>2021-08-26T08:02:32.000Z</time>
      </trkpt>
      <trkpt lat="45.70639" lon="2.83888">
        <ele>828.9</ele>
        <time>2021-08-26T08:02:38.000Z</time>
      </trkpt>
      <trkpt lat="45.70643" lon="2.83896">
        <ele>829.1</ele>
        <time>2021-08-26T08:02:45.000Z</time>
      </trkpt>
      <trkpt lat="45.70646" lon="2.83904">
        <ele>829.4</ele>
        <time>2021-08-26T08:02:54.000Z</time>
      </trkpt>
      <trkpt lat="45.7065" lon="2.83913">
        <ele>829.5</ele>
        <time>2021-08-26T08:03:00.000Z</time>
      </trkpt>
      <trkpt lat="45.70655" lon="2.8392">
        <ele>829.1</ele>
        <time>2021-08-26T08:03:07.000Z</time>
      </trkpt>
      <trkpt lat="45.7066" lon="2.83926">
        <ele>828.5</ele>
        <time>2021-08-26T08:03:13.000Z</time>
      </trkpt>
      <trkpt lat="45.70665" lon="2.83933">
        <ele>827.9</ele>
        <time>2021-08-26T08:03:18.000Z</time>
      </trkpt>
      <trkpt lat="45.70671" lon="2.83944">
        <ele>827.7</ele>
        <time>2021-08-26T08:03:24.000Z</time>
      </trkpt>
      <trkpt lat="45.70677" lon="2.83955">
        <ele>827.7</ele>
        <time>2021-08-26T08:03:29.000Z</time>
      </trkpt>
      <trkpt lat="45.70682" lon="2.83962">
        <ele>827.6</ele>
        <time>2021-08-26T08:03:34.000Z</time>
      </trkpt>
      <trkpt lat="45.70686" lon="2.83971">
        <ele>827.6</ele>
        <time>2021-08-26T08:03:40.000Z</time>
      </trkpt>
      <trkpt lat="45.70692" lon="2.83974">
        <ele>827.2</ele>
        <time>2021-08-26T08:03:46.000Z</time>
      </trkpt>
      <trkpt lat="45.70699" lon="2.83978">
        <ele>826.8</ele>
        <time>2021-08-26T08:03:52.000Z</time>
      </trkpt>
      <trkpt lat="45.70706" lon="2.8398">
        <ele>826.3</ele>
        <time>2021-08-26T08:03:57.000Z</time>
      </trkpt>
      <trkpt lat="45.70715" lon="2.83981">
        <ele>825.7</ele>
        <time>2021-08-26T08:04:02.000Z</time>
      </trkpt>
      <trkpt lat="45.70725" lon="2.83982">
        <ele>824.9</ele>
        <time>2021-08-26T08:04:08.000Z</time>
      </trkpt>
      <trkpt lat="45.70734" lon="2.83981">
        <ele>824.2</ele>
        <time>2021-08-26T08:04:46.000Z</time>
      </trkpt>
      <trkpt lat="45.70741" lon="2.83984">
        <ele>823.7</ele>
        <time>2021-08-26T08:04:52.000Z</time>
      </trkpt>
      <trkpt lat="45.70747" lon="2.83986">
        <ele>823.2</ele>
        <time>2021-08-26T08:04:57.000Z</time>
      </trkpt>
      <trkpt lat="45.70755" lon="2.83988">
        <ele>822.7</ele>
        <time>2021-08-26T08:05:02.000Z</time>
      </trkpt>
      <trkpt lat="45.70764" lon="2.8399">
        <ele>822</ele>
        <time>2021-08-26T08:05:08.000Z</time>
      </trkpt>
      <trkpt lat="45.70771" lon="2.83992">
        <ele>821.5</ele>
        <time>2021-08-26T08:05:13.000Z</time>
      </trkpt>
      <trkpt lat="45.70778" lon="2.83994">
        <ele>821</ele>
        <time>2021-08-26T08:05:19.000Z</time>
      </trkpt>
      <trkpt lat="45.70785" lon="2.83997">
        <ele>820.5</ele>
        <time>2021-08-26T08:05:24.000Z</time>
      </trkpt>
      <trkpt lat="45.70793" lon="2.84001">
        <ele>819.9</ele>
        <time>2021-08-26T08:05:30.000Z</time>
      </trkpt>
      <trkpt lat="45.70802" lon="2.84002">
        <ele>819.2</ele>
        <time>2021-08-26T08:05:36.000Z</time>
      </trkpt>
      <trkpt lat="45.70808" lon="2.84008">
        <ele>818.6</ele>
        <time>2021-08-26T08:05:45.000Z</time>
      </trkpt>
      <trkpt lat="45.70814" lon="2.84011">
        <ele>818.1</ele>
        <time>2021-08-26T08:05:50.000Z</time>
      </trkpt>
      <trkpt lat="45.7082" lon="2.84016">
        <ele>817.6</ele>
        <time>2021-08-26T08:05:56.000Z</time>
      </trkpt>
      <trkpt lat="45.70827" lon="2.8402">
        <ele>817</ele>
        <time>2021-08-26T08:06:01.000Z</time>
      </trkpt>
      <trkpt lat="45.70832" lon="2.84025">
        <ele>816.5</ele>
        <time>2021-08-26T08:06:07.000Z</time>
      </trkpt>
      <trkpt lat="45.70839" lon="2.8403">
        <ele>816</ele>
        <time>2021-08-26T08:06:13.000Z</time>
      </trkpt>
      <trkpt lat="45.70846" lon="2.84034">
        <ele>815.5</ele>
        <time>2021-08-26T08:06:19.000Z</time>
      </trkpt>
      <trkpt lat="45.70852" lon="2.84039">
        <ele>815</ele>
        <time>2021-08-26T08:06:26.000Z</time>
      </trkpt>
      <trkpt lat="45.70859" lon="2.84046">
        <ele>814.3</ele>
        <time>2021-08-26T08:06:32.000Z</time>
      </trkpt>
      <trkpt lat="45.70866" lon="2.84052">
        <ele>813.7</ele>
        <time>2021-08-26T08:06:37.000Z</time>
      </trkpt>
      <trkpt lat="45.70872" lon="2.84056">
        <ele>813.2</ele>
        <time>2021-08-26T08:06:42.000Z</time>
      </trkpt>
      <trkpt lat="45.70877" lon="2.84063">
        <ele>812.6</ele>
        <time>2021-08-26T08:06:49.000Z</time>
      </trkpt>
      <trkpt lat="45.70884" lon="2.84067">
        <ele>812</ele>
        <time>2021-08-26T08:06:54.000Z</time>
      </trkpt>
      <trkpt lat="45.70894" lon="2.8407">
        <ele>811.2</ele>
        <time>2021-08-26T08:07:00.000Z</time>
      </trkpt>
      <trkpt lat="45.70904" lon="2.84073">
        <ele>810.4</ele>
        <time>2021-08-26T08:07:05.000Z</time>
      </trkpt>
      <trkpt lat="45.70912" lon="2.84076">
        <ele>809.7</ele>
        <time>2021-08-26T08:07:10.000Z</time>
      </trkpt>
      <trkpt lat="45.70922" lon="2.84079">
        <ele>809.5</ele>
        <time>2021-08-26T08:07:16.000Z</time>
      </trkpt>
      <trkpt lat="45.7093" lon="2.8408">
        <ele>809.8</ele>
        <time>2021-08-26T08:07:21.000Z</time>
      </trkpt>
      <trkpt lat="45.70938" lon="2.84082">
        <ele>810.1</ele>
        <time>2021-08-26T08:07:26.000Z</time>
      </trkpt>
      <trkpt lat="45.70948" lon="2.84085">
        <ele>810.4</ele>
        <time>2021-08-26T08:07:32.000Z</time>
      </trkpt>
      <trkpt lat="45.70956" lon="2.84086">
        <ele>810.7</ele>
        <time>2021-08-26T08:07:37.000Z</time>
      </trkpt>
      <trkpt lat="45.70964" lon="2.84088">
        <ele>811</ele>
        <time>2021-08-26T08:07:42.000Z</time>
      </trkpt>
      <trkpt lat="45.70971" lon="2.84089">
        <ele>811.3</ele>
        <time>2021-08-26T08:07:48.000Z</time>
      </trkpt>
      <trkpt lat="45.70978" lon="2.84091">
        <ele>811.5</ele>
        <time>2021-08-26T08:07:53.000Z</time>
      </trkpt>
      <trkpt lat="45.70985" lon="2.84093">
        <ele>811.7</ele>
        <time>2021-08-26T08:07:59.000Z</time>
      </trkpt>
      <trkpt lat="45.70992" lon="2.84094">
        <ele>812</ele>
        <time>2021-08-26T08:08:05.000Z</time>
      </trkpt>
      <trkpt lat="45.70999" lon="2.84096">
        <ele>812.2</ele>
        <time>2021-08-26T08:08:10.000Z</time>
      </trkpt>
      <trkpt lat="45.71007" lon="2.84099">
        <ele>812</ele>
        <time>2021-08-26T08:08:16.000Z</time>
      </trkpt>
      <trkpt lat="45.71013" lon="2.84101">
        <ele>811.9</ele>
        <time>2021-08-26T08:08:22.000Z</time>
      </trkpt>
      <trkpt lat="45.71021" lon="2.84105">
        <ele>811.7</ele>
        <time>2021-08-26T08:08:28.000Z</time>
      </trkpt>
      <trkpt lat="45.71029" lon="2.84106">
        <ele>811.7</ele>
        <time>2021-08-26T08:08:33.000Z</time>
      </trkpt>
      <trkpt lat="45.71039" lon="2.84107">
        <ele>811.6</ele>
        <time>2021-08-26T08:08:38.000Z</time>
      </trkpt>
      <trkpt lat="45.7105" lon="2.84108">
        <ele>811.6</ele>
        <time>2021-08-26T08:08:44.000Z</time>
      </trkpt>
      <trkpt lat="45.71057" lon="2.8411">
        <ele>811.6</ele>
        <time>2021-08-26T08:08:49.000Z</time>
      </trkpt>
      <trkpt lat="45.71065" lon="2.84112">
        <ele>811.6</ele>
        <time>2021-08-26T08:08:55.000Z</time>
      </trkpt>
      <trkpt lat="45.71073" lon="2.84112">
        <ele>811.6</ele>
        <time>2021-08-26T08:09:00.000Z</time>
      </trkpt>
      <trkpt lat="45.71079" lon="2.84112">
        <ele>811.6</ele>
        <time>2021-08-26T08:09:05.000Z</time>
      </trkpt>
      <trkpt lat="45.71086" lon="2.84114">
        <ele>811.5</ele>
        <time>2021-08-26T08:09:10.000Z</time>
      </trkpt>
      <trkpt lat="45.71094" lon="2.84115">
        <ele>811</ele>
        <time>2021-08-26T08:09:16.000Z</time>
      </trkpt>
      <trkpt lat="45.71101" lon="2.84117">
        <ele>810.6</ele>
        <time>2021-08-26T08:09:25.000Z</time>
      </trkpt>
      <trkpt lat="45.71108" lon="2.84116">
        <ele>810.2</ele>
        <time>2021-08-26T08:09:33.000Z</time>
      </trkpt>
      <trkpt lat="45.71116" lon="2.84114">
        <ele>809.8</ele>
        <time>2021-08-26T08:09:38.000Z</time>
      </trkpt>
      <trkpt lat="45.71125" lon="2.84115">
        <ele>809.3</ele>
        <time>2021-08-26T08:09:44.000Z</time>
      </trkpt>
      <trkpt lat="45.71132" lon="2.84116">
        <ele>808.9</ele>
        <time>2021-08-26T08:09:50.000Z</time>
      </trkpt>
      <trkpt lat="45.71142" lon="2.84119">
        <ele>808.4</ele>
        <time>2021-08-26T08:09:56.000Z</time>
      </trkpt>
      <trkpt lat="45.7115" lon="2.84121">
        <ele>807.9</ele>
        <time>2021-08-26T08:10:02.000Z</time>
      </trkpt>
      <trkpt lat="45.71158" lon="2.84123">
        <ele>807.5</ele>
        <time>2021-08-26T08:10:08.000Z</time>
      </trkpt>
      <trkpt lat="45.71165" lon="2.84124">
        <ele>807.1</ele>
        <time>2021-08-26T08:10:13.000Z</time>
      </trkpt>
      <trkpt lat="45.71172" lon="2.84127">
        <ele>806.6</ele>
        <time>2021-08-26T08:10:18.000Z</time>
      </trkpt>
      <trkpt lat="45.71181" lon="2.8413">
        <ele>805.9</ele>
        <time>2021-08-26T08:10:24.000Z</time>
      </trkpt>
      <trkpt lat="45.71187" lon="2.84133">
        <ele>805.3</ele>
        <time>2021-08-26T08:10:30.000Z</time>
      </trkpt>
      <trkpt lat="45.71193" lon="2.84134">
        <ele>804.8</ele>
        <time>2021-08-26T08:10:37.000Z</time>
      </trkpt>
      <trkpt lat="45.71201" lon="2.84135">
        <ele>804.2</ele>
        <time>2021-08-26T08:10:44.000Z</time>
      </trkpt>
      <trkpt lat="45.71207" lon="2.84138">
        <ele>803.6</ele>
        <time>2021-08-26T08:10:51.000Z</time>
      </trkpt>
      <trkpt lat="45.71213" lon="2.84142">
        <ele>803</ele>
        <time>2021-08-26T08:10:57.000Z</time>
      </trkpt>
      <trkpt lat="45.7122" lon="2.84148">
        <ele>802.3</ele>
        <time>2021-08-26T08:11:02.000Z</time>
      </trkpt>
      <trkpt lat="45.71222" lon="2.84157">
        <ele>801.9</ele>
        <time>2021-08-26T08:11:13.000Z</time>
      </trkpt>
      <trkpt lat="45.71217" lon="2.84165">
        <ele>802.2</ele>
        <time>2021-08-26T08:11:21.000Z</time>
      </trkpt>
      <trkpt lat="45.71212" lon="2.84171">
        <ele>802.6</ele>
        <time>2021-08-26T08:11:28.000Z</time>
      </trkpt>
      <trkpt lat="45.71218" lon="2.84175">
        <ele>802</ele>
        <time>2021-08-26T08:11:33.000Z</time>
      </trkpt>
      <trkpt lat="45.71226" lon="2.8418">
        <ele>801.1</ele>
        <time>2021-08-26T08:11:38.000Z</time>
      </trkpt>
      <trkpt lat="45.71234" lon="2.84188">
        <ele>800.3</ele>
        <time>2021-08-26T08:11:44.000Z</time>
      </trkpt>
      <trkpt lat="45.71239" lon="2.84196">
        <ele>799.7</ele>
        <time>2021-08-26T08:11:49.000Z</time>
      </trkpt>
      <trkpt lat="45.71244" lon="2.84203">
        <ele>799.1</ele>
        <time>2021-08-26T08:11:54.000Z</time>
      </trkpt>
      <trkpt lat="45.71254" lon="2.84209">
        <ele>798.2</ele>
        <time>2021-08-26T08:12:00.000Z</time>
      </trkpt>
      <trkpt lat="45.71262" lon="2.84215">
        <ele>797.5</ele>
        <time>2021-08-26T08:12:05.000Z</time>
      </trkpt>
      <trkpt lat="45.71269" lon="2.84219">
        <ele>796.9</ele>
        <time>2021-08-26T08:12:10.000Z</time>
      </trkpt>
      <trkpt lat="45.71278" lon="2.84223">
        <ele>796.1</ele>
        <time>2021-08-26T08:12:16.000Z</time>
      </trkpt>
      <trkpt lat="45.71287" lon="2.84225">
        <ele>795.3</ele>
        <time>2021-08-26T08:12:21.000Z</time>
      </trkpt>
      <trkpt lat="45.71297" lon="2.84227">
        <ele>794.5</ele>
        <time>2021-08-26T08:12:26.000Z</time>
      </trkpt>
      <trkpt lat="45.71307" lon="2.84229">
        <ele>793.6</ele>
        <time>2021-08-26T08:12:32.000Z</time>
      </trkpt>
      <trkpt lat="45.71314" lon="2.84235">
        <ele>792.9</ele>
        <time>2021-08-26T08:12:37.000Z</time>
      </trkpt>
      <trkpt lat="45.71323" lon="2.84239">
        <ele>792.1</ele>
        <time>2021-08-26T08:12:42.000Z</time>
      </trkpt>
      <trkpt lat="45.71335" lon="2.84242">
        <ele>791.1</ele>
        <time>2021-08-26T08:12:48.000Z</time>
      </trkpt>
      <trkpt lat="45.71346" lon="2.84243">
        <ele>790.7</ele>
        <time>2021-08-26T08:12:53.000Z</time>
      </trkpt>
      <trkpt lat="45.71361" lon="2.84246">
        <ele>790.1</ele>
        <time>2021-08-26T08:12:58.000Z</time>
      </trkpt>
      <trkpt lat="45.71369" lon="2.8425">
        <ele>789.7</ele>
        <time>2021-08-26T08:13:04.000Z</time>
      </trkpt>
      <trkpt lat="45.71376" lon="2.84255">
        <ele>789.3</ele>
        <time>2021-08-26T08:13:10.000Z</time>
      </trkpt>
      <trkpt lat="45.71383" lon="2.84257">
        <ele>789.1</ele>
        <time>2021-08-26T08:13:16.000Z</time>
      </trkpt>
      <trkpt lat="45.7139" lon="2.84256">
        <ele>788.8</ele>
        <time>2021-08-26T08:13:21.000Z</time>
      </trkpt>
      <trkpt lat="45.71397" lon="2.84258">
        <ele>788.6</ele>
        <time>2021-08-26T08:13:28.000Z</time>
      </trkpt>
      <trkpt lat="45.71401" lon="2.84266">
        <ele>788.3</ele>
        <time>2021-08-26T08:13:53.000Z</time>
      </trkpt>
      <trkpt lat="45.71408" lon="2.84269">
        <ele>788</ele>
        <time>2021-08-26T08:14:12.000Z</time>
      </trkpt>
      <trkpt lat="45.71411" lon="2.8426">
        <ele>788.1</ele>
        <time>2021-08-26T08:14:25.000Z</time>
      </trkpt>
      <trkpt lat="45.71416" lon="2.84253">
        <ele>788</ele>
        <time>2021-08-26T08:14:38.000Z</time>
      </trkpt>
      <trkpt lat="45.7142" lon="2.84245">
        <ele>787.9</ele>
        <time>2021-08-26T08:14:46.000Z</time>
      </trkpt>
      <trkpt lat="45.71424" lon="2.84235">
        <ele>787.8</ele>
        <time>2021-08-26T08:14:52.000Z</time>
      </trkpt>
      <trkpt lat="45.71427" lon="2.84225">
        <ele>787.6</ele>
        <time>2021-08-26T08:14:57.000Z</time>
      </trkpt>
      <trkpt lat="45.7143" lon="2.84216">
        <ele>787.5</ele>
        <time>2021-08-26T08:15:02.000Z</time>
      </trkpt>
      <trkpt lat="45.71433" lon="2.84206">
        <ele>787.3</ele>
        <time>2021-08-26T08:15:08.000Z</time>
      </trkpt>
      <trkpt lat="45.71434" lon="2.84197">
        <ele>787.1</ele>
        <time>2021-08-26T08:15:13.000Z</time>
      </trkpt>
      <trkpt lat="45.71437" lon="2.84188">
        <ele>786.9</ele>
        <time>2021-08-26T08:15:19.000Z</time>
      </trkpt>
      <trkpt lat="45.7144" lon="2.84179">
        <ele>786.7</ele>
        <time>2021-08-26T08:15:24.000Z</time>
      </trkpt>
      <trkpt lat="45.71444" lon="2.84171">
        <ele>786.4</ele>
        <time>2021-08-26T08:15:29.000Z</time>
      </trkpt>
      <trkpt lat="45.71445" lon="2.84162">
        <ele>786.3</ele>
        <time>2021-08-26T08:15:38.000Z</time>
      </trkpt>
      <trkpt lat="45.7145" lon="2.84153">
        <ele>786</ele>
        <time>2021-08-26T08:15:57.000Z</time>
      </trkpt>
      <trkpt lat="45.71455" lon="2.84146">
        <ele>785.8</ele>
        <time>2021-08-26T08:16:02.000Z</time>
      </trkpt>
      <trkpt lat="45.71462" lon="2.84139">
        <ele>785.3</ele>
        <time>2021-08-26T08:16:08.000Z</time>
      </trkpt>
      <trkpt lat="45.71468" lon="2.84133">
        <ele>784.9</ele>
        <time>2021-08-26T08:16:13.000Z</time>
      </trkpt>
      <trkpt lat="45.71476" lon="2.84131">
        <ele>784.5</ele>
        <time>2021-08-26T08:16:19.000Z</time>
      </trkpt>
      <trkpt lat="45.71482" lon="2.84131">
        <ele>784.2</ele>
        <time>2021-08-26T08:16:25.000Z</time>
      </trkpt>
      <trkpt lat="45.7149" lon="2.84124">
        <ele>783.5</ele>
        <time>2021-08-26T08:16:30.000Z</time>
      </trkpt>
      <trkpt lat="45.71497" lon="2.84118">
        <ele>782.8</ele>
        <time>2021-08-26T08:16:37.000Z</time>
      </trkpt>
      <trkpt lat="45.71503" lon="2.84115">
        <ele>782.2</ele>
        <time>2021-08-26T08:16:48.000Z</time>
      </trkpt>
      <trkpt lat="45.7151" lon="2.84116">
        <ele>781.7</ele>
        <time>2021-08-26T08:17:06.000Z</time>
      </trkpt>
      <trkpt lat="45.71516" lon="2.84121">
        <ele>781.4</ele>
        <time>2021-08-26T08:17:13.000Z</time>
      </trkpt>
      <trkpt lat="45.71523" lon="2.84126">
        <ele>781.1</ele>
        <time>2021-08-26T08:17:19.000Z</time>
      </trkpt>
      <trkpt lat="45.7153" lon="2.84132">
        <ele>781</ele>
        <time>2021-08-26T08:17:24.000Z</time>
      </trkpt>
      <trkpt lat="45.71535" lon="2.84138">
        <ele>781.1</ele>
        <time>2021-08-26T08:17:30.000Z</time>
      </trkpt>
      <trkpt lat="45.71542" lon="2.84145">
        <ele>781.2</ele>
        <time>2021-08-26T08:17:36.000Z</time>
      </trkpt>
      <trkpt lat="45.71547" lon="2.84151">
        <ele>781.4</ele>
        <time>2021-08-26T08:17:41.000Z</time>
      </trkpt>
      <trkpt lat="45.71552" lon="2.84158">
        <ele>781.7</ele>
        <time>2021-08-26T08:17:46.000Z</time>
      </trkpt>
      <trkpt lat="45.71556" lon="2.84166">
        <ele>782.2</ele>
        <time>2021-08-26T08:17:56.000Z</time>
      </trkpt>
      <trkpt lat="45.71563" lon="2.8417">
        <ele>782.1</ele>
        <time>2021-08-26T08:18:02.000Z</time>
      </trkpt>
      <trkpt lat="45.71569" lon="2.84172">
        <ele>781.9</ele>
        <time>2021-08-26T08:18:08.000Z</time>
      </trkpt>
      <trkpt lat="45.71577" lon="2.84171">
        <ele>781.5</ele>
        <time>2021-08-26T08:18:15.000Z</time>
      </trkpt>
      <trkpt lat="45.71583" lon="2.84167">
        <ele>781</ele>
        <time>2021-08-26T08:18:21.000Z</time>
      </trkpt>
      <trkpt lat="45.71588" lon="2.84175">
        <ele>780.6</ele>
        <time>2021-08-26T08:18:28.000Z</time>
      </trkpt>
      <trkpt lat="45.71595" lon="2.84178">
        <ele>779.6</ele>
        <time>2021-08-26T08:18:33.000Z</time>
      </trkpt>
      <trkpt lat="45.716" lon="2.84185">
        <ele>779.2</ele>
        <time>2021-08-26T08:18:40.000Z</time>
      </trkpt>
      <trkpt lat="45.71605" lon="2.84192">
        <ele>778.7</ele>
        <time>2021-08-26T08:18:47.000Z</time>
      </trkpt>
      <trkpt lat="45.7161" lon="2.842">
        <ele>778.4</ele>
        <time>2021-08-26T08:18:52.000Z</time>
      </trkpt>
      <trkpt lat="45.71616" lon="2.84209">
        <ele>777.9</ele>
        <time>2021-08-26T08:18:57.000Z</time>
      </trkpt>
      <trkpt lat="45.71622" lon="2.84215">
        <ele>777.4</ele>
        <time>2021-08-26T08:19:02.000Z</time>
      </trkpt>
      <trkpt lat="45.71625" lon="2.84224">
        <ele>777.4</ele>
        <time>2021-08-26T08:19:08.000Z</time>
      </trkpt>
      <trkpt lat="45.71629" lon="2.84231">
        <ele>777.3</ele>
        <time>2021-08-26T08:19:15.000Z</time>
      </trkpt>
      <trkpt lat="45.71633" lon="2.8424">
        <ele>777.2</ele>
        <time>2021-08-26T08:19:21.000Z</time>
      </trkpt>
      <trkpt lat="45.71635" lon="2.84249">
        <ele>777.5</ele>
        <time>2021-08-26T08:19:29.000Z</time>
      </trkpt>
      <trkpt lat="45.71638" lon="2.84261">
        <ele>777.5</ele>
        <time>2021-08-26T08:19:35.000Z</time>
      </trkpt>
      <trkpt lat="45.7164" lon="2.84274">
        <ele>777.6</ele>
        <time>2021-08-26T08:19:40.000Z</time>
      </trkpt>
      <trkpt lat="45.71644" lon="2.84289">
        <ele>777.6</ele>
        <time>2021-08-26T08:19:45.000Z</time>
      </trkpt>
      <trkpt lat="45.71649" lon="2.84297">
        <ele>777.3</ele>
        <time>2021-08-26T08:19:50.000Z</time>
      </trkpt>
      <trkpt lat="45.71653" lon="2.84307">
        <ele>777.3</ele>
        <time>2021-08-26T08:19:56.000Z</time>
      </trkpt>
      <trkpt lat="45.71658" lon="2.84317">
        <ele>777.1</ele>
        <time>2021-08-26T08:20:01.000Z</time>
      </trkpt>
      <trkpt lat="45.71661" lon="2.84325">
        <ele>777.2</ele>
        <time>2021-08-26T08:20:06.000Z</time>
      </trkpt>
      <trkpt lat="45.71665" lon="2.84334">
        <ele>777.1</ele>
        <time>2021-08-26T08:20:12.000Z</time>
      </trkpt>
      <trkpt lat="45.71669" lon="2.84342">
        <ele>776.2</ele>
        <time>2021-08-26T08:20:18.000Z</time>
      </trkpt>
      <trkpt lat="45.71674" lon="2.8435">
        <ele>774.9</ele>
        <time>2021-08-26T08:21:06.000Z</time>
      </trkpt>
      <trkpt lat="45.7168" lon="2.84361">
        <ele>773.4</ele>
        <time>2021-08-26T08:21:12.000Z</time>
      </trkpt>
      <trkpt lat="45.71685" lon="2.8437">
        <ele>772.2</ele>
        <time>2021-08-26T08:21:17.000Z</time>
      </trkpt>
      <trkpt lat="45.71689" lon="2.84382">
        <ele>771.1</ele>
        <time>2021-08-26T08:21:22.000Z</time>
      </trkpt>
      <trkpt lat="45.71693" lon="2.84397">
        <ele>769.9</ele>
        <time>2021-08-26T08:21:28.000Z</time>
      </trkpt>
      <trkpt lat="45.71698" lon="2.84405">
        <ele>768.9</ele>
        <time>2021-08-26T08:21:33.000Z</time>
      </trkpt>
      <trkpt lat="45.71703" lon="2.84413">
        <ele>767.9</ele>
        <time>2021-08-26T08:21:38.000Z</time>
      </trkpt>
      <trkpt lat="45.7171" lon="2.84423">
        <ele>766.8</ele>
        <time>2021-08-26T08:21:44.000Z</time>
      </trkpt>
      <trkpt lat="45.71714" lon="2.84433">
        <ele>766.2</ele>
        <time>2021-08-26T08:21:50.000Z</time>
      </trkpt>
      <trkpt lat="45.71722" lon="2.8444">
        <ele>765.2</ele>
        <time>2021-08-26T08:21:56.000Z</time>
      </trkpt>
      <trkpt lat="45.71727" lon="2.84447">
        <ele>764.6</ele>
        <time>2021-08-26T08:22:01.000Z</time>
      </trkpt>
      <trkpt lat="45.71733" lon="2.84453">
        <ele>764</ele>
        <time>2021-08-26T08:22:06.000Z</time>
      </trkpt>
      <trkpt lat="45.7174" lon="2.84464">
        <ele>763.3</ele>
        <time>2021-08-26T08:22:12.000Z</time>
      </trkpt>
      <trkpt lat="45.71744" lon="2.84472">
        <ele>763</ele>
        <time>2021-08-26T08:22:17.000Z</time>
      </trkpt>
      <trkpt lat="45.71746" lon="2.84481">
        <ele>763</ele>
        <time>2021-08-26T08:22:43.000Z</time>
      </trkpt>
      <trkpt lat="45.71752" lon="2.84487">
        <ele>762.5</ele>
        <time>2021-08-26T08:22:49.000Z</time>
      </trkpt>
      <trkpt lat="45.71759" lon="2.84492">
        <ele>762.1</ele>
        <time>2021-08-26T08:22:54.000Z</time>
      </trkpt>
      <trkpt lat="45.71767" lon="2.84499">
        <ele>761.5</ele>
        <time>2021-08-26T08:23:00.000Z</time>
      </trkpt>
      <trkpt lat="45.71774" lon="2.84503">
        <ele>761</ele>
        <time>2021-08-26T08:23:05.000Z</time>
      </trkpt>
      <trkpt lat="45.7178" lon="2.84508">
        <ele>760.6</ele>
        <time>2021-08-26T08:23:10.000Z</time>
      </trkpt>
      <trkpt lat="45.71787" lon="2.84516">
        <ele>760.2</ele>
        <time>2021-08-26T08:23:16.000Z</time>
      </trkpt>
      <trkpt lat="45.71791" lon="2.84523">
        <ele>760</ele>
        <time>2021-08-26T08:23:22.000Z</time>
      </trkpt>
      <trkpt lat="45.71798" lon="2.84531">
        <ele>759.5</ele>
        <time>2021-08-26T08:23:28.000Z</time>
      </trkpt>
      <trkpt lat="45.71803" lon="2.84537">
        <ele>759.2</ele>
        <time>2021-08-26T08:23:33.000Z</time>
      </trkpt>
      <trkpt lat="45.7181" lon="2.84543">
        <ele>758.6</ele>
        <time>2021-08-26T08:23:38.000Z</time>
      </trkpt>
      <trkpt lat="45.71817" lon="2.84549">
        <ele>758.1</ele>
        <time>2021-08-26T08:23:44.000Z</time>
      </trkpt>
      <trkpt lat="45.71823" lon="2.84552">
        <ele>757.6</ele>
        <time>2021-08-26T08:23:49.000Z</time>
      </trkpt>
      <trkpt lat="45.71831" lon="2.84555">
        <ele>756.9</ele>
        <time>2021-08-26T08:23:54.000Z</time>
      </trkpt>
      <trkpt lat="45.71839" lon="2.84556">
        <ele>756.5</ele>
        <time>2021-08-26T08:24:00.000Z</time>
      </trkpt>
      <trkpt lat="45.71846" lon="2.84558">
        <ele>756.2</ele>
        <time>2021-08-26T08:24:05.000Z</time>
      </trkpt>
      <trkpt lat="45.71853" lon="2.8456">
        <ele>756</ele>
        <time>2021-08-26T08:24:10.000Z</time>
      </trkpt>
      <trkpt lat="45.71862" lon="2.84562">
        <ele>755.7</ele>
        <time>2021-08-26T08:24:16.000Z</time>
      </trkpt>
      <trkpt lat="45.71869" lon="2.84564">
        <ele>755.5</ele>
        <time>2021-08-26T08:24:21.000Z</time>
      </trkpt>
      <trkpt lat="45.71877" lon="2.84566">
        <ele>755.2</ele>
        <time>2021-08-26T08:24:26.000Z</time>
      </trkpt>
      <trkpt lat="45.71887" lon="2.84569">
        <ele>754.9</ele>
        <time>2021-08-26T08:24:32.000Z</time>
      </trkpt>
      <trkpt lat="45.71893" lon="2.84571">
        <ele>754.7</ele>
        <time>2021-08-26T08:24:38.000Z</time>
      </trkpt>
      <trkpt lat="45.719" lon="2.84572">
        <ele>754.5</ele>
        <time>2021-08-26T08:24:46.000Z</time>
      </trkpt>
      <trkpt lat="45.71906" lon="2.84577">
        <ele>754.3</ele>
        <time>2021-08-26T08:24:54.000Z</time>
      </trkpt>
      <trkpt lat="45.71911" lon="2.84585">
        <ele>754.2</ele>
        <time>2021-08-26T08:25:03.000Z</time>
      </trkpt>
      <trkpt lat="45.71917" lon="2.8459">
        <ele>754.1</ele>
        <time>2021-08-26T08:25:09.000Z</time>
      </trkpt>
      <trkpt lat="45.71921" lon="2.84599">
        <ele>754.1</ele>
        <time>2021-08-26T08:25:17.000Z</time>
      </trkpt>
      <trkpt lat="45.71924" lon="2.84609">
        <ele>754.2</ele>
        <time>2021-08-26T08:25:24.000Z</time>
      </trkpt>
      <trkpt lat="45.71929" lon="2.84616">
        <ele>754.2</ele>
        <time>2021-08-26T08:25:29.000Z</time>
      </trkpt>
      <trkpt lat="45.71931" lon="2.84625">
        <ele>754.2</ele>
        <time>2021-08-26T08:25:37.000Z</time>
      </trkpt>
      <trkpt lat="45.71936" lon="2.84633">
        <ele>754.3</ele>
        <time>2021-08-26T08:25:46.000Z</time>
      </trkpt>
      <trkpt lat="45.71939" lon="2.84642">
        <ele>754.4</ele>
        <time>2021-08-26T08:25:53.000Z</time>
      </trkpt>
      <trkpt lat="45.71943" lon="2.8465">
        <ele>754.4</ele>
        <time>2021-08-26T08:25:58.000Z</time>
      </trkpt>
      <trkpt lat="45.71948" lon="2.84658">
        <ele>754.5</ele>
        <time>2021-08-26T08:26:04.000Z</time>
      </trkpt>
      <trkpt lat="45.71952" lon="2.84665">
        <ele>754.5</ele>
        <time>2021-08-26T08:26:11.000Z</time>
      </trkpt>
      <trkpt lat="45.71956" lon="2.84674">
        <ele>754.8</ele>
        <time>2021-08-26T08:26:18.000Z</time>
      </trkpt>
      <trkpt lat="45.71961" lon="2.84681">
        <ele>755</ele>
        <time>2021-08-26T08:26:29.000Z</time>
      </trkpt>
      <trkpt lat="45.71965" lon="2.84692">
        <ele>755.4</ele>
        <time>2021-08-26T08:26:35.000Z</time>
      </trkpt>
      <trkpt lat="45.71965" lon="2.84702">
        <ele>755.8</ele>
        <time>2021-08-26T08:26:42.000Z</time>
      </trkpt>
      <trkpt lat="45.7197" lon="2.84708">
        <ele>756</ele>
        <time>2021-08-26T08:26:48.000Z</time>
      </trkpt>
      <trkpt lat="45.71974" lon="2.84717">
        <ele>756.4</ele>
        <time>2021-08-26T08:26:55.000Z</time>
      </trkpt>
      <trkpt lat="45.71977" lon="2.84725">
        <ele>756.7</ele>
        <time>2021-08-26T08:27:00.000Z</time>
      </trkpt>
      <trkpt lat="45.71981" lon="2.84733">
        <ele>757</ele>
        <time>2021-08-26T08:27:07.000Z</time>
      </trkpt>
      <trkpt lat="45.71985" lon="2.84741">
        <ele>757.4</ele>
        <time>2021-08-26T08:27:14.000Z</time>
      </trkpt>
      <trkpt lat="45.71986" lon="2.84751">
        <ele>757.9</ele>
        <time>2021-08-26T08:27:21.000Z</time>
      </trkpt>
      <trkpt lat="45.71991" lon="2.84759">
        <ele>758.3</ele>
        <time>2021-08-26T08:27:27.000Z</time>
      </trkpt>
      <trkpt lat="45.71992" lon="2.84769">
        <ele>758.8</ele>
        <time>2021-08-26T08:27:35.000Z</time>
      </trkpt>
      <trkpt lat="45.71993" lon="2.84778">
        <ele>759.2</ele>
        <time>2021-08-26T08:27:40.000Z</time>
      </trkpt>
      <trkpt lat="45.71993" lon="2.84788">
        <ele>759.7</ele>
        <time>2021-08-26T08:27:47.000Z</time>
      </trkpt>
      <trkpt lat="45.71994" lon="2.84797">
        <ele>760.1</ele>
        <time>2021-08-26T08:27:53.000Z</time>
      </trkpt>
      <trkpt lat="45.71993" lon="2.84811">
        <ele>760.7</ele>
        <time>2021-08-26T08:27:58.000Z</time>
      </trkpt>
      <trkpt lat="45.71999" lon="2.84817">
        <ele>761.2</ele>
        <time>2021-08-26T08:28:11.000Z</time>
      </trkpt>
      <trkpt lat="45.72005" lon="2.84826">
        <ele>761.8</ele>
        <time>2021-08-26T08:28:16.000Z</time>
      </trkpt>
      <trkpt lat="45.72008" lon="2.84835">
        <ele>762.4</ele>
        <time>2021-08-26T08:28:21.000Z</time>
      </trkpt>
      <trkpt lat="45.72012" lon="2.84843">
        <ele>762.9</ele>
        <time>2021-08-26T08:28:27.000Z</time>
      </trkpt>
      <trkpt lat="45.72021" lon="2.84842">
        <ele>763.3</ele>
        <time>2021-08-26T08:28:32.000Z</time>
      </trkpt>
      <trkpt lat="45.72028" lon="2.84832">
        <ele>762.9</ele>
        <time>2021-08-26T08:28:37.000Z</time>
      </trkpt>
      <trkpt lat="45.72036" lon="2.8483">
        <ele>763.1</ele>
        <time>2021-08-26T08:28:54.000Z</time>
      </trkpt>
      <trkpt lat="45.72043" lon="2.84833">
        <ele>763.5</ele>
        <time>2021-08-26T08:29:00.000Z</time>
      </trkpt>
      <trkpt lat="45.7205" lon="2.84834">
        <ele>763.8</ele>
        <time>2021-08-26T08:29:09.000Z</time>
      </trkpt>
      <trkpt lat="45.72057" lon="2.84838">
        <ele>764.4</ele>
        <time>2021-08-26T08:29:32.000Z</time>
      </trkpt>
      <trkpt lat="45.72064" lon="2.84839">
        <ele>764.7</ele>
        <time>2021-08-26T08:29:38.000Z</time>
      </trkpt>
      <trkpt lat="45.72075" lon="2.84841">
        <ele>765.3</ele>
        <time>2021-08-26T08:29:44.000Z</time>
      </trkpt>
      <trkpt lat="45.72083" lon="2.84839">
        <ele>765.5</ele>
        <time>2021-08-26T08:29:49.000Z</time>
      </trkpt>
      <trkpt lat="45.72091" lon="2.84837">
        <ele>765</ele>
        <time>2021-08-26T08:29:56.000Z</time>
      </trkpt>
      <trkpt lat="45.72095" lon="2.8483">
        <ele>764.2</ele>
        <time>2021-08-26T08:30:04.000Z</time>
      </trkpt>
      <trkpt lat="45.72097" lon="2.84821">
        <ele>763.4</ele>
        <time>2021-08-26T08:30:13.000Z</time>
      </trkpt>
      <trkpt lat="45.72101" lon="2.84813">
        <ele>762.5</ele>
        <time>2021-08-26T08:30:24.000Z</time>
      </trkpt>
      <trkpt lat="45.72097" lon="2.84819">
        <ele>763.2</ele>
        <time>2021-08-26T08:30:48.000Z</time>
      </trkpt>
      <trkpt lat="45.72103" lon="2.84825">
        <ele>763.4</ele>
        <time>2021-08-26T08:30:57.000Z</time>
      </trkpt>
      <trkpt lat="45.7211" lon="2.84832">
        <ele>763.6</ele>
        <time>2021-08-26T08:31:02.000Z</time>
      </trkpt>
      <trkpt lat="45.72116" lon="2.84838">
        <ele>763.9</ele>
        <time>2021-08-26T08:31:08.000Z</time>
      </trkpt>
      <trkpt lat="45.72121" lon="2.84843">
        <ele>764.2</ele>
        <time>2021-08-26T08:31:17.000Z</time>
      </trkpt>
      <trkpt lat="45.72128" lon="2.84846">
        <ele>764.2</ele>
        <time>2021-08-26T08:31:24.000Z</time>
      </trkpt>
      <trkpt lat="45.72135" lon="2.84846">
        <ele>763.9</ele>
        <time>2021-08-26T08:31:30.000Z</time>
      </trkpt>
      <trkpt lat="45.72142" lon="2.84847">
        <ele>763.7</ele>
        <time>2021-08-26T08:31:37.000Z</time>
      </trkpt>
      <trkpt lat="45.7215" lon="2.84847">
        <ele>763.3</ele>
        <time>2021-08-26T08:31:42.000Z</time>
      </trkpt>
      <trkpt lat="45.72158" lon="2.84847">
        <ele>763</ele>
        <time>2021-08-26T08:31:48.000Z</time>
      </trkpt>
      <trkpt lat="45.72164" lon="2.84848">
        <ele>762.9</ele>
        <time>2021-08-26T08:31:55.000Z</time>
      </trkpt>
      <trkpt lat="45.72171" lon="2.84849">
        <ele>763.1</ele>
        <time>2021-08-26T08:32:03.000Z</time>
      </trkpt>
      <trkpt lat="45.72178" lon="2.84846">
        <ele>763</ele>
        <time>2021-08-26T08:32:24.000Z</time>
      </trkpt>
      <trkpt lat="45.72186" lon="2.84844">
        <ele>763.1</ele>
        <time>2021-08-26T08:32:29.000Z</time>
      </trkpt>
      <trkpt lat="45.72192" lon="2.84844">
        <ele>763.3</ele>
        <time>2021-08-26T08:32:34.000Z</time>
      </trkpt>
      <trkpt lat="45.722" lon="2.84846">
        <ele>763.9</ele>
        <time>2021-08-26T08:32:40.000Z</time>
      </trkpt>
      <trkpt lat="45.72207" lon="2.84846">
        <ele>764.2</ele>
        <time>2021-08-26T08:32:48.000Z</time>
      </trkpt>
      <trkpt lat="45.72214" lon="2.84847">
        <ele>764.6</ele>
        <time>2021-08-26T08:32:56.000Z</time>
      </trkpt>
      <trkpt lat="45.72221" lon="2.84848">
        <ele>765.1</ele>
        <time>2021-08-26T08:33:03.000Z</time>
      </trkpt>
      <trkpt lat="45.72228" lon="2.84848">
        <ele>765.4</ele>
        <time>2021-08-26T08:33:11.000Z</time>
      </trkpt>
      <trkpt lat="45.72233" lon="2.84855">
        <ele>766.6</ele>
        <time>2021-08-26T08:33:22.000Z</time>
      </trkpt>
      <trkpt lat="45.72238" lon="2.84861">
        <ele>767.7</ele>
        <time>2021-08-26T08:33:31.000Z</time>
      </trkpt>
      <trkpt lat="45.72245" lon="2.84867">
        <ele>769</ele>
        <time>2021-08-26T08:33:42.000Z</time>
      </trkpt>
      <trkpt lat="45.72253" lon="2.84875">
        <ele>770.7</ele>
        <time>2021-08-26T08:33:48.000Z</time>
      </trkpt>
      <trkpt lat="45.72261" lon="2.84878">
        <ele>771.8</ele>
        <time>2021-08-26T08:33:53.000Z</time>
      </trkpt>
      <trkpt lat="45.72267" lon="2.84885">
        <ele>773.4</ele>
        <time>2021-08-26T08:34:00.000Z</time>
      </trkpt>
      <trkpt lat="45.72273" lon="2.84887">
        <ele>774.1</ele>
        <time>2021-08-26T08:34:06.000Z</time>
      </trkpt>
      <trkpt lat="45.72281" lon="2.84889">
        <ele>775</ele>
        <time>2021-08-26T08:34:12.000Z</time>
      </trkpt>
      <trkpt lat="45.72288" lon="2.84888">
        <ele>775.4</ele>
        <time>2021-08-26T08:34:17.000Z</time>
      </trkpt>
      <trkpt lat="45.72294" lon="2.84887">
        <ele>775.7</ele>
        <time>2021-08-26T08:34:23.000Z</time>
      </trkpt>
      <trkpt lat="45.72312" lon="2.8488">
        <ele>776.1</ele>
        <time>2021-08-26T08:34:28.000Z</time>
      </trkpt>
      <trkpt lat="45.72318" lon="2.84874">
        <ele>775.7</ele>
        <time>2021-08-26T08:34:51.000Z</time>
      </trkpt>
      <trkpt lat="45.72326" lon="2.84879">
        <ele>777</ele>
        <time>2021-08-26T08:34:56.000Z</time>
      </trkpt>
      <trkpt lat="45.72333" lon="2.84879">
        <ele>777.6</ele>
        <time>2021-08-26T08:35:01.000Z</time>
      </trkpt>
      <trkpt lat="45.7234" lon="2.84878">
        <ele>777.6</ele>
        <time>2021-08-26T08:35:16.000Z</time>
      </trkpt>
      <trkpt lat="45.72346" lon="2.84884">
        <ele>778.7</ele>
        <time>2021-08-26T08:35:22.000Z</time>
      </trkpt>
      <trkpt lat="45.72352" lon="2.84888">
        <ele>779.4</ele>
        <time>2021-08-26T08:35:29.000Z</time>
      </trkpt>
      <trkpt lat="45.72359" lon="2.84891">
        <ele>780</ele>
        <time>2021-08-26T08:35:39.000Z</time>
      </trkpt>
      <trkpt lat="45.72365" lon="2.84898">
        <ele>781.2</ele>
        <time>2021-08-26T08:35:48.000Z</time>
      </trkpt>
      <trkpt lat="45.72372" lon="2.84902">
        <ele>781.9</ele>
        <time>2021-08-26T08:35:55.000Z</time>
      </trkpt>
      <trkpt lat="45.72379" lon="2.84905">
        <ele>782.5</ele>
        <time>2021-08-26T08:36:01.000Z</time>
      </trkpt>
      <trkpt lat="45.72386" lon="2.84909">
        <ele>783.2</ele>
        <time>2021-08-26T08:36:08.000Z</time>
      </trkpt>
      <trkpt lat="45.72392" lon="2.84912">
        <ele>783.8</ele>
        <time>2021-08-26T08:36:14.000Z</time>
      </trkpt>
      <trkpt lat="45.72399" lon="2.84917">
        <ele>784.6</ele>
        <time>2021-08-26T08:36:21.000Z</time>
      </trkpt>
      <trkpt lat="45.72406" lon="2.8492">
        <ele>785.3</ele>
        <time>2021-08-26T08:36:29.000Z</time>
      </trkpt>
      <trkpt lat="45.72414" lon="2.84922">
        <ele>785.8</ele>
        <time>2021-08-26T08:36:35.000Z</time>
      </trkpt>
      <trkpt lat="45.72421" lon="2.84923">
        <ele>786.1</ele>
        <time>2021-08-26T08:36:40.000Z</time>
      </trkpt>
      <trkpt lat="45.72428" lon="2.84927">
        <ele>786.9</ele>
        <time>2021-08-26T08:36:47.000Z</time>
      </trkpt>
      <trkpt lat="45.72434" lon="2.84932">
        <ele>787.8</ele>
        <time>2021-08-26T08:36:54.000Z</time>
      </trkpt>
      <trkpt lat="45.72441" lon="2.84934">
        <ele>788.2</ele>
        <time>2021-08-26T08:37:00.000Z</time>
      </trkpt>
      <trkpt lat="45.72448" lon="2.84935">
        <ele>788.5</ele>
        <time>2021-08-26T08:37:05.000Z</time>
      </trkpt>
      <trkpt lat="45.72455" lon="2.84935">
        <ele>788.5</ele>
        <time>2021-08-26T08:37:13.000Z</time>
      </trkpt>
      <trkpt lat="45.72463" lon="2.84938">
        <ele>789.1</ele>
        <time>2021-08-26T08:37:18.000Z</time>
      </trkpt>
      <trkpt lat="45.7247" lon="2.84938">
        <ele>789.2</ele>
        <time>2021-08-26T08:37:24.000Z</time>
      </trkpt>
      <trkpt lat="45.72477" lon="2.84939">
        <ele>789.5</ele>
        <time>2021-08-26T08:37:30.000Z</time>
      </trkpt>
      <trkpt lat="45.72484" lon="2.84938">
        <ele>789.4</ele>
        <time>2021-08-26T08:37:37.000Z</time>
      </trkpt>
      <trkpt lat="45.72482" lon="2.84947">
        <ele>790.9</ele>
        <time>2021-08-26T08:38:09.000Z</time>
      </trkpt>
      <trkpt lat="45.72481" lon="2.84956">
        <ele>792.4</ele>
        <time>2021-08-26T08:38:19.000Z</time>
      </trkpt>
      <trkpt lat="45.72481" lon="2.84966">
        <ele>794.1</ele>
        <time>2021-08-26T08:38:26.000Z</time>
      </trkpt>
      <trkpt lat="45.72485" lon="2.84974">
        <ele>795.5</ele>
        <time>2021-08-26T08:38:32.000Z</time>
      </trkpt>
      <trkpt lat="45.72486" lon="2.84984">
        <ele>797.1</ele>
        <time>2021-08-26T08:38:39.000Z</time>
      </trkpt>
      <trkpt lat="45.7249" lon="2.84993">
        <ele>798.7</ele>
        <time>2021-08-26T08:38:51.000Z</time>
      </trkpt>
      <trkpt lat="45.72493" lon="2.85002">
        <ele>800.4</ele>
        <time>2021-08-26T08:38:59.000Z</time>
      </trkpt>
      <trkpt lat="45.72492" lon="2.85012">
        <ele>802.7</ele>
        <time>2021-08-26T08:39:09.000Z</time>
      </trkpt>
      <trkpt lat="45.72489" lon="2.8502">
        <ele>804.5</ele>
        <time>2021-08-26T08:39:15.000Z</time>
      </trkpt>
      <trkpt lat="45.72492" lon="2.8503">
        <ele>806.8</ele>
        <time>2021-08-26T08:39:22.000Z</time>
      </trkpt>
      <trkpt lat="45.725" lon="2.8503">
        <ele>806.8</ele>
        <time>2021-08-26T08:39:28.000Z</time>
      </trkpt>
      <trkpt lat="45.72492" lon="2.85036">
        <ele>808.2</ele>
        <time>2021-08-26T08:39:41.000Z</time>
      </trkpt>
      <trkpt lat="45.72487" lon="2.85043">
        <ele>809.9</ele>
        <time>2021-08-26T08:39:46.000Z</time>
      </trkpt>
      <trkpt lat="45.72488" lon="2.85053">
        <ele>812.2</ele>
        <time>2021-08-26T08:39:53.000Z</time>
      </trkpt>
      <trkpt lat="45.72485" lon="2.85061">
        <ele>814.1</ele>
        <time>2021-08-26T08:40:01.000Z</time>
      </trkpt>
      <trkpt lat="45.72479" lon="2.85073">
        <ele>817.1</ele>
        <time>2021-08-26T08:40:08.000Z</time>
      </trkpt>
      <trkpt lat="45.72478" lon="2.85089">
        <ele>821.1</ele>
        <time>2021-08-26T08:40:13.000Z</time>
      </trkpt>
      <trkpt lat="45.72482" lon="2.85096">
        <ele>823</ele>
        <time>2021-08-26T08:40:24.000Z</time>
      </trkpt>
      <trkpt lat="45.72488" lon="2.85101">
        <ele>824.2</ele>
        <time>2021-08-26T08:40:33.000Z</time>
      </trkpt>
      <trkpt lat="45.72495" lon="2.85104">
        <ele>824.8</ele>
        <time>2021-08-26T08:40:42.000Z</time>
      </trkpt>
      <trkpt lat="45.72501" lon="2.85109">
        <ele>826</ele>
        <time>2021-08-26T08:40:49.000Z</time>
      </trkpt>
      <trkpt lat="45.72506" lon="2.85115">
        <ele>827</ele>
        <time>2021-08-26T08:40:54.000Z</time>
      </trkpt>
      <trkpt lat="45.72512" lon="2.8512">
        <ele>827.6</ele>
        <time>2021-08-26T08:41:01.000Z</time>
      </trkpt>
      <trkpt lat="45.72517" lon="2.85127">
        <ele>828.9</ele>
        <time>2021-08-26T08:41:09.000Z</time>
      </trkpt>
      <trkpt lat="45.7252" lon="2.85137">
        <ele>831.3</ele>
        <time>2021-08-26T08:41:16.000Z</time>
      </trkpt>
      <trkpt lat="45.72525" lon="2.85144">
        <ele>832.5</ele>
        <time>2021-08-26T08:41:24.000Z</time>
      </trkpt>
      <trkpt lat="45.72531" lon="2.85149">
        <ele>833.1</ele>
        <time>2021-08-26T08:41:31.000Z</time>
      </trkpt>
      <trkpt lat="45.72541" lon="2.85151">
        <ele>832.4</ele>
        <time>2021-08-26T08:41:36.000Z</time>
      </trkpt>
      <trkpt lat="45.72544" lon="2.85159">
        <ele>834.1</ele>
        <time>2021-08-26T08:41:41.000Z</time>
      </trkpt>
      <trkpt lat="45.72549" lon="2.85166">
        <ele>835.4</ele>
        <time>2021-08-26T08:42:01.000Z</time>
      </trkpt>
      <trkpt lat="45.72555" lon="2.8517">
        <ele>835.9</ele>
        <time>2021-08-26T08:42:09.000Z</time>
      </trkpt>
      <trkpt lat="45.72562" lon="2.85178">
        <ele>837.9</ele>
        <time>2021-08-26T08:42:17.000Z</time>
      </trkpt>
      <trkpt lat="45.72568" lon="2.85184">
        <ele>839.4</ele>
        <time>2021-08-26T08:42:23.000Z</time>
      </trkpt>
      <trkpt lat="45.72573" lon="2.85189">
        <ele>840.7</ele>
        <time>2021-08-26T08:42:28.000Z</time>
      </trkpt>
      <trkpt lat="45.72578" lon="2.85195">
        <ele>842.4</ele>
        <time>2021-08-26T08:42:37.000Z</time>
      </trkpt>
      <trkpt lat="45.72584" lon="2.852">
        <ele>843.7</ele>
        <time>2021-08-26T08:42:43.000Z</time>
      </trkpt>
      <trkpt lat="45.72589" lon="2.85206">
        <ele>844.9</ele>
        <time>2021-08-26T08:42:48.000Z</time>
      </trkpt>
      <trkpt lat="45.72595" lon="2.85213">
        <ele>846.2</ele>
        <time>2021-08-26T08:42:53.000Z</time>
      </trkpt>
      <trkpt lat="45.72603" lon="2.85219">
        <ele>846.7</ele>
        <time>2021-08-26T08:42:58.000Z</time>
      </trkpt>
      <trkpt lat="45.72614" lon="2.85226">
        <ele>846.8</ele>
        <time>2021-08-26T08:43:04.000Z</time>
      </trkpt>
      <trkpt lat="45.72625" lon="2.85229">
        <ele>845.4</ele>
        <time>2021-08-26T08:43:09.000Z</time>
      </trkpt>
      <trkpt lat="45.72632" lon="2.85231">
        <ele>844.6</ele>
        <time>2021-08-26T08:43:14.000Z</time>
      </trkpt>
      <trkpt lat="45.72639" lon="2.85234">
        <ele>844</ele>
        <time>2021-08-26T08:43:25.000Z</time>
      </trkpt>
      <trkpt lat="45.72647" lon="2.85235">
        <ele>842.5</ele>
        <time>2021-08-26T08:43:32.000Z</time>
      </trkpt>
      <trkpt lat="45.72653" lon="2.8524">
        <ele>842.8</ele>
        <time>2021-08-26T08:43:39.000Z</time>
      </trkpt>
      <trkpt lat="45.72659" lon="2.85242">
        <ele>842.1</ele>
        <time>2021-08-26T08:43:45.000Z</time>
      </trkpt>
      <trkpt lat="45.72666" lon="2.85245">
        <ele>841.5</ele>
        <time>2021-08-26T08:43:51.000Z</time>
      </trkpt>
      <trkpt lat="45.72673" lon="2.85245">
        <ele>839.2</ele>
        <time>2021-08-26T08:43:56.000Z</time>
      </trkpt>
      <trkpt lat="45.72682" lon="2.85242">
        <ele>835.3</ele>
        <time>2021-08-26T08:44:02.000Z</time>
      </trkpt>
      <trkpt lat="45.72691" lon="2.85244">
        <ele>832.9</ele>
        <time>2021-08-26T08:44:08.000Z</time>
      </trkpt>
      <trkpt lat="45.72698" lon="2.85243">
        <ele>830.4</ele>
        <time>2021-08-26T08:44:13.000Z</time>
      </trkpt>
      <trkpt lat="45.72708" lon="2.85244">
        <ele>827.3</ele>
        <time>2021-08-26T08:44:18.000Z</time>
      </trkpt>
      <trkpt lat="45.72715" lon="2.85244">
        <ele>825</ele>
        <time>2021-08-26T08:44:25.000Z</time>
      </trkpt>
      <trkpt lat="45.72723" lon="2.85243">
        <ele>822.2</ele>
        <time>2021-08-26T08:44:31.000Z</time>
      </trkpt>
      <trkpt lat="45.7273" lon="2.85244">
        <ele>820</ele>
        <time>2021-08-26T08:44:36.000Z</time>
      </trkpt>
      <trkpt lat="45.72737" lon="2.85243">
        <ele>817.6</ele>
        <time>2021-08-26T08:44:42.000Z</time>
      </trkpt>
      <trkpt lat="45.72743" lon="2.85243">
        <ele>815.6</ele>
        <time>2021-08-26T08:44:48.000Z</time>
      </trkpt>
      <trkpt lat="45.7275" lon="2.85243">
        <ele>813.3</ele>
        <time>2021-08-26T08:44:54.000Z</time>
      </trkpt>
      <trkpt lat="45.72756" lon="2.85248">
        <ele>813.2</ele>
        <time>2021-08-26T08:45:06.000Z</time>
      </trkpt>
      <trkpt lat="45.72769" lon="2.85258">
        <ele>812.8</ele>
        <time>2021-08-26T08:45:12.000Z</time>
      </trkpt>
      <trkpt lat="45.72777" lon="2.85261">
        <ele>812.2</ele>
        <time>2021-08-26T08:45:17.000Z</time>
      </trkpt>
      <trkpt lat="45.72785" lon="2.85265">
        <ele>811.5</ele>
        <time>2021-08-26T08:45:22.000Z</time>
      </trkpt>
      <trkpt lat="45.72792" lon="2.85268">
        <ele>810.7</ele>
        <time>2021-08-26T08:45:28.000Z</time>
      </trkpt>
      <trkpt lat="45.72798" lon="2.85271">
        <ele>810.1</ele>
        <time>2021-08-26T08:45:34.000Z</time>
      </trkpt>
      <trkpt lat="45.72805" lon="2.85276">
        <ele>809.3</ele>
        <time>2021-08-26T08:45:40.000Z</time>
      </trkpt>
      <trkpt lat="45.72811" lon="2.85279">
        <ele>808.5</ele>
        <time>2021-08-26T08:45:45.000Z</time>
      </trkpt>
      <trkpt lat="45.72818" lon="2.85282">
        <ele>807.5</ele>
        <time>2021-08-26T08:45:51.000Z</time>
      </trkpt>
      <trkpt lat="45.72825" lon="2.85287">
        <ele>806.4</ele>
        <time>2021-08-26T08:45:57.000Z</time>
      </trkpt>
      <trkpt lat="45.72832" lon="2.85289">
        <ele>805.2</ele>
        <time>2021-08-26T08:46:04.000Z</time>
      </trkpt>
      <trkpt lat="45.72837" lon="2.85295">
        <ele>804.5</ele>
        <time>2021-08-26T08:46:10.000Z</time>
      </trkpt>
      <trkpt lat="45.72845" lon="2.85296">
        <ele>803.5</ele>
        <time>2021-08-26T08:46:16.000Z</time>
      </trkpt>
      <trkpt lat="45.72852" lon="2.85297">
        <ele>802.6</ele>
        <time>2021-08-26T08:46:21.000Z</time>
      </trkpt>
      <trkpt lat="45.72859" lon="2.85302">
        <ele>801.7</ele>
        <time>2021-08-26T08:46:29.000Z</time>
      </trkpt>
      <trkpt lat="45.72864" lon="2.85309">
        <ele>801.1</ele>
        <time>2021-08-26T08:46:34.000Z</time>
      </trkpt>
      <trkpt lat="45.72872" lon="2.85318">
        <ele>800.2</ele>
        <time>2021-08-26T08:46:40.000Z</time>
      </trkpt>
      <trkpt lat="45.72876" lon="2.85326">
        <ele>799.8</ele>
        <time>2021-08-26T08:46:47.000Z</time>
      </trkpt>
      <trkpt lat="45.72877" lon="2.85336">
        <ele>799.9</ele>
        <time>2021-08-26T08:46:54.000Z</time>
      </trkpt>
      <trkpt lat="45.72877" lon="2.85347">
        <ele>800.7</ele>
        <time>2021-08-26T08:47:03.000Z</time>
      </trkpt>
      <trkpt lat="45.72879" lon="2.8536">
        <ele>801.3</ele>
        <time>2021-08-26T08:47:08.000Z</time>
      </trkpt>
      <trkpt lat="45.72888" lon="2.85373">
        <ele>801</ele>
        <time>2021-08-26T08:47:13.000Z</time>
      </trkpt>
      <trkpt lat="45.72898" lon="2.85382">
        <ele>800.3</ele>
        <time>2021-08-26T08:47:18.000Z</time>
      </trkpt>
      <trkpt lat="45.72907" lon="2.85389">
        <ele>799.6</ele>
        <time>2021-08-26T08:47:24.000Z</time>
      </trkpt>
      <trkpt lat="45.7291" lon="2.85398">
        <ele>799.7</ele>
        <time>2021-08-26T08:47:40.000Z</time>
      </trkpt>
      <trkpt lat="45.72915" lon="2.85405">
        <ele>799.5</ele>
        <time>2021-08-26T08:47:45.000Z</time>
      </trkpt>
      <trkpt lat="45.72921" lon="2.85411">
        <ele>799.3</ele>
        <time>2021-08-26T08:47:51.000Z</time>
      </trkpt>
      <trkpt lat="45.72932" lon="2.85416">
        <ele>798.9</ele>
        <time>2021-08-26T08:47:56.000Z</time>
      </trkpt>
      <trkpt lat="45.72942" lon="2.85422">
        <ele>798.8</ele>
        <time>2021-08-26T08:48:01.000Z</time>
      </trkpt>
      <trkpt lat="45.72947" lon="2.85427">
        <ele>799.1</ele>
        <time>2021-08-26T08:48:06.000Z</time>
      </trkpt>
      <trkpt lat="45.72959" lon="2.85433">
        <ele>798.9</ele>
        <time>2021-08-26T08:48:12.000Z</time>
      </trkpt>
      <trkpt lat="45.72967" lon="2.85437">
        <ele>798.8</ele>
        <time>2021-08-26T08:48:17.000Z</time>
      </trkpt>
      <trkpt lat="45.72974" lon="2.85442">
        <ele>798.9</ele>
        <time>2021-08-26T08:48:22.000Z</time>
      </trkpt>
      <trkpt lat="45.7298" lon="2.85446">
        <ele>799</ele>
        <time>2021-08-26T08:48:28.000Z</time>
      </trkpt>
      <trkpt lat="45.72987" lon="2.85452">
        <ele>799.2</ele>
        <time>2021-08-26T08:48:34.000Z</time>
      </trkpt>
      <trkpt lat="45.72995" lon="2.85456">
        <ele>799.1</ele>
        <time>2021-08-26T08:48:40.000Z</time>
      </trkpt>
      <trkpt lat="45.73001" lon="2.85463">
        <ele>799.5</ele>
        <time>2021-08-26T08:48:45.000Z</time>
      </trkpt>
      <trkpt lat="45.73005" lon="2.85471">
        <ele>800.2</ele>
        <time>2021-08-26T08:48:52.000Z</time>
      </trkpt>
      <trkpt lat="45.73011" lon="2.85476">
        <ele>800.5</ele>
        <time>2021-08-26T08:48:59.000Z</time>
      </trkpt>
      <trkpt lat="45.73019" lon="2.85478">
        <ele>800.3</ele>
        <time>2021-08-26T08:49:05.000Z</time>
      </trkpt>
      <trkpt lat="45.73026" lon="2.85478">
        <ele>799.9</ele>
        <time>2021-08-26T08:49:10.000Z</time>
      </trkpt>
      <trkpt lat="45.73033" lon="2.8548">
        <ele>799.8</ele>
        <time>2021-08-26T08:49:16.000Z</time>
      </trkpt>
      <trkpt lat="45.7304" lon="2.85482">
        <ele>799.7</ele>
        <time>2021-08-26T08:49:22.000Z</time>
      </trkpt>
      <trkpt lat="45.73047" lon="2.85485">
        <ele>799.7</ele>
        <time>2021-08-26T08:49:29.000Z</time>
      </trkpt>
      <trkpt lat="45.73054" lon="2.85488">
        <ele>799.8</ele>
        <time>2021-08-26T08:49:36.000Z</time>
      </trkpt>
      <trkpt lat="45.73061" lon="2.85492">
        <ele>800</ele>
        <time>2021-08-26T08:49:42.000Z</time>
      </trkpt>
      <trkpt lat="45.73066" lon="2.85497">
        <ele>800.4</ele>
        <time>2021-08-26T08:49:48.000Z</time>
      </trkpt>
      <trkpt lat="45.73072" lon="2.85503">
        <ele>800.7</ele>
        <time>2021-08-26T08:49:54.000Z</time>
      </trkpt>
      <trkpt lat="45.73078" lon="2.85508">
        <ele>800.7</ele>
        <time>2021-08-26T08:50:00.000Z</time>
      </trkpt>
      <trkpt lat="45.73084" lon="2.85512">
        <ele>800.7</ele>
        <time>2021-08-26T08:50:05.000Z</time>
      </trkpt>
      <trkpt lat="45.73091" lon="2.85516">
        <ele>800.2</ele>
        <time>2021-08-26T08:50:11.000Z</time>
      </trkpt>
      <trkpt lat="45.73098" lon="2.8552">
        <ele>799.8</ele>
        <time>2021-08-26T08:50:16.000Z</time>
      </trkpt>
      <trkpt lat="45.73104" lon="2.85527">
        <ele>799.7</ele>
        <time>2021-08-26T08:50:22.000Z</time>
      </trkpt>
      <trkpt lat="45.73112" lon="2.85536">
        <ele>799.6</ele>
        <time>2021-08-26T08:50:28.000Z</time>
      </trkpt>
      <trkpt lat="45.73117" lon="2.8554">
        <ele>799.4</ele>
        <time>2021-08-26T08:50:33.000Z</time>
      </trkpt>
      <trkpt lat="45.73123" lon="2.85545">
        <ele>799.1</ele>
        <time>2021-08-26T08:50:39.000Z</time>
      </trkpt>
      <trkpt lat="45.73132" lon="2.85549">
        <ele>798.6</ele>
        <time>2021-08-26T08:50:44.000Z</time>
      </trkpt>
      <trkpt lat="45.73142" lon="2.85551">
        <ele>797.9</ele>
        <time>2021-08-26T08:50:49.000Z</time>
      </trkpt>
      <trkpt lat="45.73148" lon="2.8556">
        <ele>798</ele>
        <time>2021-08-26T08:50:54.000Z</time>
      </trkpt>
      <trkpt lat="45.73158" lon="2.85568">
        <ele>797.6</ele>
        <time>2021-08-26T08:51:00.000Z</time>
      </trkpt>
      <trkpt lat="45.73165" lon="2.85575">
        <ele>797.5</ele>
        <time>2021-08-26T08:51:05.000Z</time>
      </trkpt>
      <trkpt lat="45.7317" lon="2.85581">
        <ele>797.7</ele>
        <time>2021-08-26T08:51:10.000Z</time>
      </trkpt>
      <trkpt lat="45.73175" lon="2.85586">
        <ele>797.8</ele>
        <time>2021-08-26T08:51:17.000Z</time>
      </trkpt>
      <trkpt lat="45.73183" lon="2.8559">
        <ele>797.8</ele>
        <time>2021-08-26T08:51:22.000Z</time>
      </trkpt>
      <trkpt lat="45.73194" lon="2.85593">
        <ele>797.5</ele>
        <time>2021-08-26T08:51:28.000Z</time>
      </trkpt>
      <trkpt lat="45.73199" lon="2.85598">
        <ele>797.6</ele>
        <time>2021-08-26T08:51:34.000Z</time>
      </trkpt>
      <trkpt lat="45.73204" lon="2.85606">
        <ele>797.9</ele>
        <time>2021-08-26T08:51:41.000Z</time>
      </trkpt>
      <trkpt lat="45.73209" lon="2.85611">
        <ele>797.9</ele>
        <time>2021-08-26T08:51:47.000Z</time>
      </trkpt>
      <trkpt lat="45.73217" lon="2.85614">
        <ele>797.6</ele>
        <time>2021-08-26T08:51:52.000Z</time>
      </trkpt>
      <trkpt lat="45.73224" lon="2.85616">
        <ele>797.3</ele>
        <time>2021-08-26T08:51:57.000Z</time>
      </trkpt>
      <trkpt lat="45.73233" lon="2.8562">
        <ele>796.9</ele>
        <time>2021-08-26T08:52:02.000Z</time>
      </trkpt>
      <trkpt lat="45.7324" lon="2.85625">
        <ele>796.7</ele>
        <time>2021-08-26T08:52:08.000Z</time>
      </trkpt>
      <trkpt lat="45.73248" lon="2.85628">
        <ele>796.3</ele>
        <time>2021-08-26T08:52:13.000Z</time>
      </trkpt>
      <trkpt lat="45.73255" lon="2.85632">
        <ele>796</ele>
        <time>2021-08-26T08:52:19.000Z</time>
      </trkpt>
      <trkpt lat="45.73262" lon="2.85634">
        <ele>795.5</ele>
        <time>2021-08-26T08:52:24.000Z</time>
      </trkpt>
      <trkpt lat="45.73272" lon="2.85635">
        <ele>794.8</ele>
        <time>2021-08-26T08:52:29.000Z</time>
      </trkpt>
      <trkpt lat="45.73278" lon="2.85639">
        <ele>794.5</ele>
        <time>2021-08-26T08:52:34.000Z</time>
      </trkpt>
      <trkpt lat="45.73285" lon="2.85645">
        <ele>794.3</ele>
        <time>2021-08-26T08:52:40.000Z</time>
      </trkpt>
      <trkpt lat="45.73292" lon="2.8565">
        <ele>794.1</ele>
        <time>2021-08-26T08:52:45.000Z</time>
      </trkpt>
      <trkpt lat="45.73298" lon="2.85657">
        <ele>794</ele>
        <time>2021-08-26T08:52:51.000Z</time>
      </trkpt>
      <trkpt lat="45.73305" lon="2.85663">
        <ele>793.8</ele>
        <time>2021-08-26T08:52:57.000Z</time>
      </trkpt>
      <trkpt lat="45.73311" lon="2.85669">
        <ele>793.6</ele>
        <time>2021-08-26T08:53:02.000Z</time>
      </trkpt>
      <trkpt lat="45.73317" lon="2.85675">
        <ele>793.2</ele>
        <time>2021-08-26T08:53:08.000Z</time>
      </trkpt>
      <trkpt lat="45.73323" lon="2.8568">
        <ele>792.7</ele>
        <time>2021-08-26T08:53:14.000Z</time>
      </trkpt>
      <trkpt lat="45.7333" lon="2.85686">
        <ele>792</ele>
        <time>2021-08-26T08:53:20.000Z</time>
      </trkpt>
      <trkpt lat="45.73338" lon="2.85691">
        <ele>791.4</ele>
        <time>2021-08-26T08:53:25.000Z</time>
      </trkpt>
      <trkpt lat="45.73347" lon="2.85694">
        <ele>790.7</ele>
        <time>2021-08-26T08:53:30.000Z</time>
      </trkpt>
      <trkpt lat="45.73356" lon="2.85698">
        <ele>790</ele>
        <time>2021-08-26T08:53:36.000Z</time>
      </trkpt>
      <trkpt lat="45.73364" lon="2.85703">
        <ele>789.4</ele>
        <time>2021-08-26T08:53:41.000Z</time>
      </trkpt>
      <trkpt lat="45.73375" lon="2.85704">
        <ele>788.6</ele>
        <time>2021-08-26T08:53:46.000Z</time>
      </trkpt>
      <trkpt lat="45.7338" lon="2.85709">
        <ele>788.1</ele>
        <time>2021-08-26T08:53:53.000Z</time>
      </trkpt>
      <trkpt lat="45.73387" lon="2.85709">
        <ele>787.6</ele>
        <time>2021-08-26T08:54:02.000Z</time>
      </trkpt>
      <trkpt lat="45.73395" lon="2.85703">
        <ele>787.1</ele>
        <time>2021-08-26T08:54:08.000Z</time>
      </trkpt>
      <trkpt lat="45.73401" lon="2.85699">
        <ele>786.7</ele>
        <time>2021-08-26T08:54:14.000Z</time>
      </trkpt>
      <trkpt lat="45.73395" lon="2.85703">
        <ele>787.1</ele>
        <time>2021-08-26T08:54:26.000Z</time>
      </trkpt>
      <trkpt lat="45.73401" lon="2.85701">
        <ele>786.7</ele>
        <time>2021-08-26T08:55:03.000Z</time>
      </trkpt>
      <trkpt lat="45.73407" lon="2.85693">
        <ele>786.4</ele>
        <time>2021-08-26T08:55:09.000Z</time>
      </trkpt>
      <trkpt lat="45.73411" lon="2.85685">
        <ele>786.2</ele>
        <time>2021-08-26T08:55:15.000Z</time>
      </trkpt>
      <trkpt lat="45.73417" lon="2.85679">
        <ele>785.8</ele>
        <time>2021-08-26T08:55:20.000Z</time>
      </trkpt>
      <trkpt lat="45.73421" lon="2.85672">
        <ele>785.9</ele>
        <time>2021-08-26T08:55:25.000Z</time>
      </trkpt>
      <trkpt lat="45.73424" lon="2.85664">
        <ele>785.9</ele>
        <time>2021-08-26T08:55:31.000Z</time>
      </trkpt>
      <trkpt lat="45.73429" lon="2.85655">
        <ele>785.6</ele>
        <time>2021-08-26T08:55:37.000Z</time>
      </trkpt>
      <trkpt lat="45.73433" lon="2.85648">
        <ele>785.4</ele>
        <time>2021-08-26T08:55:42.000Z</time>
      </trkpt>
      <trkpt lat="45.73437" lon="2.8564">
        <ele>785.2</ele>
        <time>2021-08-26T08:55:48.000Z</time>
      </trkpt>
      <trkpt lat="45.73442" lon="2.85633">
        <ele>785</ele>
        <time>2021-08-26T08:55:53.000Z</time>
      </trkpt>
      <trkpt lat="45.73446" lon="2.85624">
        <ele>784.8</ele>
        <time>2021-08-26T08:55:58.000Z</time>
      </trkpt>
      <trkpt lat="45.73452" lon="2.85615">
        <ele>784.6</ele>
        <time>2021-08-26T08:56:04.000Z</time>
      </trkpt>
      <trkpt lat="45.73456" lon="2.85608">
        <ele>784.5</ele>
        <time>2021-08-26T08:56:09.000Z</time>
      </trkpt>
      <trkpt lat="45.73461" lon="2.856">
        <ele>784.3</ele>
        <time>2021-08-26T08:56:15.000Z</time>
      </trkpt>
      <trkpt lat="45.73466" lon="2.85591">
        <ele>784.1</ele>
        <time>2021-08-26T08:56:22.000Z</time>
      </trkpt>
      <trkpt lat="45.73473" lon="2.85581">
        <ele>783.8</ele>
        <time>2021-08-26T08:56:28.000Z</time>
      </trkpt>
      <trkpt lat="45.73479" lon="2.85574">
        <ele>783.3</ele>
        <time>2021-08-26T08:56:33.000Z</time>
      </trkpt>
      <trkpt lat="45.73483" lon="2.85567">
        <ele>782.7</ele>
        <time>2021-08-26T08:56:38.000Z</time>
      </trkpt>
      <trkpt lat="45.7349" lon="2.85561">
        <ele>782.2</ele>
        <time>2021-08-26T08:56:44.000Z</time>
      </trkpt>
      <trkpt lat="45.73496" lon="2.85563">
        <ele>782.3</ele>
        <time>2021-08-26T08:56:53.000Z</time>
      </trkpt>
      <trkpt lat="45.73502" lon="2.85567">
        <ele>782.6</ele>
        <time>2021-08-26T08:57:06.000Z</time>
      </trkpt>
      <trkpt lat="45.73511" lon="2.85572">
        <ele>782.8</ele>
        <time>2021-08-26T08:57:12.000Z</time>
      </trkpt>
      <trkpt lat="45.73517" lon="2.85577">
        <ele>783.1</ele>
        <time>2021-08-26T08:58:08.000Z</time>
      </trkpt>
      <trkpt lat="45.7352" lon="2.85587">
        <ele>783.5</ele>
        <time>2021-08-26T08:58:14.000Z</time>
      </trkpt>
      <trkpt lat="45.73523" lon="2.85598">
        <ele>783.5</ele>
        <time>2021-08-26T08:58:20.000Z</time>
      </trkpt>
      <trkpt lat="45.73527" lon="2.85606">
        <ele>783.4</ele>
        <time>2021-08-26T08:58:25.000Z</time>
      </trkpt>
      <trkpt lat="45.73531" lon="2.85615">
        <ele>783.4</ele>
        <time>2021-08-26T08:58:31.000Z</time>
      </trkpt>
      <trkpt lat="45.73535" lon="2.85622">
        <ele>783.2</ele>
        <time>2021-08-26T08:58:36.000Z</time>
      </trkpt>
      <trkpt lat="45.73538" lon="2.85633">
        <ele>783.1</ele>
        <time>2021-08-26T08:58:41.000Z</time>
      </trkpt>
      <trkpt lat="45.73541" lon="2.85644">
        <ele>783</ele>
        <time>2021-08-26T08:58:46.000Z</time>
      </trkpt>
      <trkpt lat="45.73546" lon="2.85653">
        <ele>782.8</ele>
        <time>2021-08-26T08:58:52.000Z</time>
      </trkpt>
      <trkpt lat="45.73549" lon="2.85662">
        <ele>782.7</ele>
        <time>2021-08-26T08:58:57.000Z</time>
      </trkpt>
      <trkpt lat="45.73552" lon="2.85672">
        <ele>782.4</ele>
        <time>2021-08-26T08:59:03.000Z</time>
      </trkpt>
      <trkpt lat="45.73555" lon="2.85682">
        <ele>782.1</ele>
        <time>2021-08-26T08:59:08.000Z</time>
      </trkpt>
      <trkpt lat="45.73558" lon="2.8569">
        <ele>781.9</ele>
        <time>2021-08-26T08:59:13.000Z</time>
      </trkpt>
      <trkpt lat="45.73561" lon="2.85702">
        <ele>781.5</ele>
        <time>2021-08-26T08:59:18.000Z</time>
      </trkpt>
      <trkpt lat="45.73563" lon="2.85711">
        <ele>781.3</ele>
        <time>2021-08-26T08:59:24.000Z</time>
      </trkpt>
      <trkpt lat="45.73568" lon="2.85718">
        <ele>781</ele>
        <time>2021-08-26T08:59:32.000Z</time>
      </trkpt>
      <trkpt lat="45.73573" lon="2.85726">
        <ele>780.7</ele>
        <time>2021-08-26T08:59:38.000Z</time>
      </trkpt>
      <trkpt lat="45.73581" lon="2.85735">
        <ele>780.3</ele>
        <time>2021-08-26T08:59:44.000Z</time>
      </trkpt>
      <trkpt lat="45.73589" lon="2.8574">
        <ele>780</ele>
        <time>2021-08-26T08:59:49.000Z</time>
      </trkpt>
      <trkpt lat="45.73595" lon="2.85743">
        <ele>779.8</ele>
        <time>2021-08-26T08:59:54.000Z</time>
      </trkpt>
      <trkpt lat="45.73603" lon="2.85746">
        <ele>779.6</ele>
        <time>2021-08-26T09:00:00.000Z</time>
      </trkpt>
      <trkpt lat="45.73611" lon="2.85748">
        <ele>779.4</ele>
        <time>2021-08-26T09:00:06.000Z</time>
      </trkpt>
      <trkpt lat="45.73618" lon="2.85751">
        <ele>779.1</ele>
        <time>2021-08-26T09:00:12.000Z</time>
      </trkpt>
      <trkpt lat="45.73626" lon="2.85753">
        <ele>778.9</ele>
        <time>2021-08-26T09:00:18.000Z</time>
      </trkpt>
      <trkpt lat="45.73634" lon="2.85758">
        <ele>778.5</ele>
        <time>2021-08-26T09:00:24.000Z</time>
      </trkpt>
      <trkpt lat="45.73641" lon="2.85761">
        <ele>778.2</ele>
        <time>2021-08-26T09:00:29.000Z</time>
      </trkpt>
      <trkpt lat="45.73648" lon="2.85761">
        <ele>778</ele>
        <time>2021-08-26T09:00:53.000Z</time>
      </trkpt>
      <trkpt lat="45.73655" lon="2.85762">
        <ele>777.8</ele>
        <time>2021-08-26T09:00:59.000Z</time>
      </trkpt>
      <trkpt lat="45.73663" lon="2.85764">
        <ele>777.4</ele>
        <time>2021-08-26T09:01:05.000Z</time>
      </trkpt>
      <trkpt lat="45.7367" lon="2.85767">
        <ele>777.1</ele>
        <time>2021-08-26T09:01:12.000Z</time>
      </trkpt>
      <trkpt lat="45.73675" lon="2.85772">
        <ele>776.7</ele>
        <time>2021-08-26T09:01:17.000Z</time>
      </trkpt>
      <trkpt lat="45.73681" lon="2.8578">
        <ele>776.1</ele>
        <time>2021-08-26T09:01:23.000Z</time>
      </trkpt>
      <trkpt lat="45.73683" lon="2.85789">
        <ele>775.6</ele>
        <time>2021-08-26T09:01:30.000Z</time>
      </trkpt>
      <trkpt lat="45.73688" lon="2.858">
        <ele>775</ele>
        <time>2021-08-26T09:01:36.000Z</time>
      </trkpt>
      <trkpt lat="45.73691" lon="2.8581">
        <ele>774.5</ele>
        <time>2021-08-26T09:01:41.000Z</time>
      </trkpt>
      <trkpt lat="45.73694" lon="2.8582">
        <ele>773.9</ele>
        <time>2021-08-26T09:01:46.000Z</time>
      </trkpt>
      <trkpt lat="45.73697" lon="2.85832">
        <ele>773.3</ele>
        <time>2021-08-26T09:01:52.000Z</time>
      </trkpt>
      <trkpt lat="45.737" lon="2.85841">
        <ele>772.9</ele>
        <time>2021-08-26T09:01:57.000Z</time>
      </trkpt>
      <trkpt lat="45.73704" lon="2.85849">
        <ele>772.6</ele>
        <time>2021-08-26T09:02:02.000Z</time>
      </trkpt>
      <trkpt lat="45.73707" lon="2.85857">
        <ele>772.2</ele>
        <time>2021-08-26T09:02:08.000Z</time>
      </trkpt>
      <trkpt lat="45.73709" lon="2.85867">
        <ele>771.8</ele>
        <time>2021-08-26T09:02:14.000Z</time>
      </trkpt>
      <trkpt lat="45.7371" lon="2.85878">
        <ele>771.3</ele>
        <time>2021-08-26T09:02:20.000Z</time>
      </trkpt>
      <trkpt lat="45.73712" lon="2.85887">
        <ele>770.9</ele>
        <time>2021-08-26T09:02:26.000Z</time>
      </trkpt>
      <trkpt lat="45.73716" lon="2.85897">
        <ele>770.4</ele>
        <time>2021-08-26T09:02:32.000Z</time>
      </trkpt>
      <trkpt lat="45.73718" lon="2.85907">
        <ele>769.9</ele>
        <time>2021-08-26T09:02:38.000Z</time>
      </trkpt>
      <trkpt lat="45.73721" lon="2.8592">
        <ele>769.4</ele>
        <time>2021-08-26T09:02:44.000Z</time>
      </trkpt>
      <trkpt lat="45.73723" lon="2.85929">
        <ele>769.2</ele>
        <time>2021-08-26T09:02:49.000Z</time>
      </trkpt>
      <trkpt lat="45.73727" lon="2.85939">
        <ele>768.8</ele>
        <time>2021-08-26T09:02:54.000Z</time>
      </trkpt>
      <trkpt lat="45.73732" lon="2.85949">
        <ele>768.3</ele>
        <time>2021-08-26T09:03:00.000Z</time>
      </trkpt>
      <trkpt lat="45.73738" lon="2.85958">
        <ele>767.6</ele>
        <time>2021-08-26T09:03:05.000Z</time>
      </trkpt>
      <trkpt lat="45.73744" lon="2.85964">
        <ele>766.9</ele>
        <time>2021-08-26T09:03:10.000Z</time>
      </trkpt>
      <trkpt lat="45.7375" lon="2.85967">
        <ele>766.2</ele>
        <time>2021-08-26T09:03:19.000Z</time>
      </trkpt>
      <trkpt lat="45.73756" lon="2.85975">
        <ele>765.7</ele>
        <time>2021-08-26T09:03:26.000Z</time>
      </trkpt>
      <trkpt lat="45.73763" lon="2.8598">
        <ele>765.4</ele>
        <time>2021-08-26T09:03:32.000Z</time>
      </trkpt>
      <trkpt lat="45.7377" lon="2.85983">
        <ele>765</ele>
        <time>2021-08-26T09:03:37.000Z</time>
      </trkpt>
      <trkpt lat="45.73776" lon="2.85987">
        <ele>764.7</ele>
        <time>2021-08-26T09:03:42.000Z</time>
      </trkpt>
      <trkpt lat="45.73785" lon="2.85993">
        <ele>764.1</ele>
        <time>2021-08-26T09:03:48.000Z</time>
      </trkpt>
      <trkpt lat="45.73792" lon="2.85999">
        <ele>763.5</ele>
        <time>2021-08-26T09:03:53.000Z</time>
      </trkpt>
      <trkpt lat="45.73799" lon="2.86005">
        <ele>763.3</ele>
        <time>2021-08-26T09:03:58.000Z</time>
      </trkpt>
      <trkpt lat="45.73807" lon="2.86011">
        <ele>762.9</ele>
        <time>2021-08-26T09:04:04.000Z</time>
      </trkpt>
      <trkpt lat="45.73813" lon="2.86015">
        <ele>762.6</ele>
        <time>2021-08-26T09:04:09.000Z</time>
      </trkpt>
      <trkpt lat="45.7382" lon="2.86015">
        <ele>762.3</ele>
        <time>2021-08-26T09:04:14.000Z</time>
      </trkpt>
      <trkpt lat="45.73827" lon="2.86021">
        <ele>761.8</ele>
        <time>2021-08-26T09:04:24.000Z</time>
      </trkpt>
      <trkpt lat="45.73833" lon="2.8603">
        <ele>761.3</ele>
        <time>2021-08-26T09:04:29.000Z</time>
      </trkpt>
      <trkpt lat="45.73836" lon="2.86048">
        <ele>760.8</ele>
        <time>2021-08-26T09:04:34.000Z</time>
      </trkpt>
      <trkpt lat="45.73846" lon="2.86053">
        <ele>760.2</ele>
        <time>2021-08-26T09:04:40.000Z</time>
      </trkpt>
      <trkpt lat="45.73852" lon="2.8606">
        <ele>759.8</ele>
        <time>2021-08-26T09:04:45.000Z</time>
      </trkpt>
      <trkpt lat="45.73858" lon="2.86066">
        <ele>759.2</ele>
        <time>2021-08-26T09:04:52.000Z</time>
      </trkpt>
      <trkpt lat="45.73864" lon="2.86072">
        <ele>758.7</ele>
        <time>2021-08-26T09:04:59.000Z</time>
      </trkpt>
      <trkpt lat="45.7387" lon="2.86077">
        <ele>758.1</ele>
        <time>2021-08-26T09:05:07.000Z</time>
      </trkpt>
      <trkpt lat="45.73874" lon="2.86084">
        <ele>757.5</ele>
        <time>2021-08-26T09:05:14.000Z</time>
      </trkpt>
      <trkpt lat="45.73875" lon="2.86095">
        <ele>756.7</ele>
        <time>2021-08-26T09:05:22.000Z</time>
      </trkpt>
      <trkpt lat="45.73876" lon="2.86104">
        <ele>756</ele>
        <time>2021-08-26T09:05:28.000Z</time>
      </trkpt>
      <trkpt lat="45.73878" lon="2.86114">
        <ele>755.1</ele>
        <time>2021-08-26T09:05:35.000Z</time>
      </trkpt>
      <trkpt lat="45.73878" lon="2.86125">
        <ele>754.3</ele>
        <time>2021-08-26T09:05:42.000Z</time>
      </trkpt>
      <trkpt lat="45.73877" lon="2.86135">
        <ele>753.7</ele>
        <time>2021-08-26T09:05:48.000Z</time>
      </trkpt>
      <trkpt lat="45.73875" lon="2.86144">
        <ele>753.1</ele>
        <time>2021-08-26T09:05:53.000Z</time>
      </trkpt>
      <trkpt lat="45.73874" lon="2.86154">
        <ele>752.5</ele>
        <time>2021-08-26T09:06:00.000Z</time>
      </trkpt>
      <trkpt lat="45.73875" lon="2.86165">
        <ele>751.6</ele>
        <time>2021-08-26T09:06:05.000Z</time>
      </trkpt>
      <trkpt lat="45.73876" lon="2.86175">
        <ele>751.1</ele>
        <time>2021-08-26T09:06:11.000Z</time>
      </trkpt>
      <trkpt lat="45.73878" lon="2.86184">
        <ele>750.6</ele>
        <time>2021-08-26T09:06:17.000Z</time>
      </trkpt>
      <trkpt lat="45.73881" lon="2.86194">
        <ele>750.1</ele>
        <time>2021-08-26T09:06:23.000Z</time>
      </trkpt>
      <trkpt lat="45.73886" lon="2.86205">
        <ele>749.4</ele>
        <time>2021-08-26T09:06:28.000Z</time>
      </trkpt>
      <trkpt lat="45.7389" lon="2.86215">
        <ele>748.9</ele>
        <time>2021-08-26T09:06:33.000Z</time>
      </trkpt>
      <trkpt lat="45.73898" lon="2.86225">
        <ele>748.2</ele>
        <time>2021-08-26T09:06:38.000Z</time>
      </trkpt>
      <trkpt lat="45.73904" lon="2.86243">
        <ele>747.5</ele>
        <time>2021-08-26T09:06:44.000Z</time>
      </trkpt>
      <trkpt lat="45.73909" lon="2.8625">
        <ele>747.2</ele>
        <time>2021-08-26T09:06:49.000Z</time>
      </trkpt>
      <trkpt lat="45.73914" lon="2.86258">
        <ele>746.9</ele>
        <time>2021-08-26T09:06:55.000Z</time>
      </trkpt>
      <trkpt lat="45.7392" lon="2.86261">
        <ele>746.6</ele>
        <time>2021-08-26T09:07:03.000Z</time>
      </trkpt>
      <trkpt lat="45.73923" lon="2.8627">
        <ele>746.2</ele>
        <time>2021-08-26T09:07:13.000Z</time>
      </trkpt>
      <trkpt lat="45.73923" lon="2.86281">
        <ele>746</ele>
        <time>2021-08-26T09:07:19.000Z</time>
      </trkpt>
      <trkpt lat="45.73923" lon="2.86291">
        <ele>745.7</ele>
        <time>2021-08-26T09:07:26.000Z</time>
      </trkpt>
      <trkpt lat="45.73924" lon="2.86302">
        <ele>745.4</ele>
        <time>2021-08-26T09:07:34.000Z</time>
      </trkpt>
      <trkpt lat="45.73925" lon="2.86312">
        <ele>745.1</ele>
        <time>2021-08-26T09:07:40.000Z</time>
      </trkpt>
      <trkpt lat="45.73928" lon="2.86323">
        <ele>744.7</ele>
        <time>2021-08-26T09:07:47.000Z</time>
      </trkpt>
      <trkpt lat="45.73932" lon="2.86334">
        <ele>744.2</ele>
        <time>2021-08-26T09:07:52.000Z</time>
      </trkpt>
      <trkpt lat="45.73934" lon="2.86343">
        <ele>743.8</ele>
        <time>2021-08-26T09:07:57.000Z</time>
      </trkpt>
      <trkpt lat="45.73942" lon="2.86349">
        <ele>743.3</ele>
        <time>2021-08-26T09:08:02.000Z</time>
      </trkpt>
      <trkpt lat="45.73946" lon="2.86356">
        <ele>742.9</ele>
        <time>2021-08-26T09:08:25.000Z</time>
      </trkpt>
      <trkpt lat="45.73952" lon="2.86363">
        <ele>742.5</ele>
        <time>2021-08-26T09:08:31.000Z</time>
      </trkpt>
      <trkpt lat="45.73958" lon="2.86367">
        <ele>742.2</ele>
        <time>2021-08-26T09:08:36.000Z</time>
      </trkpt>
      <trkpt lat="45.73965" lon="2.86371">
        <ele>741.9</ele>
        <time>2021-08-26T09:08:41.000Z</time>
      </trkpt>
      <trkpt lat="45.73972" lon="2.86375">
        <ele>741.7</ele>
        <time>2021-08-26T09:08:47.000Z</time>
      </trkpt>
      <trkpt lat="45.73979" lon="2.86379">
        <ele>741.5</ele>
        <time>2021-08-26T09:08:52.000Z</time>
      </trkpt>
      <trkpt lat="45.73984" lon="2.86386">
        <ele>741.3</ele>
        <time>2021-08-26T09:09:00.000Z</time>
      </trkpt>
      <trkpt lat="45.7399" lon="2.86393">
        <ele>741.1</ele>
        <time>2021-08-26T09:09:07.000Z</time>
      </trkpt>
      <trkpt lat="45.73994" lon="2.86401">
        <ele>741.1</ele>
        <time>2021-08-26T09:09:12.000Z</time>
      </trkpt>
      <trkpt lat="45.74002" lon="2.86407">
        <ele>741</ele>
        <time>2021-08-26T09:09:17.000Z</time>
      </trkpt>
      <trkpt lat="45.74009" lon="2.8641">
        <ele>741.2</ele>
        <time>2021-08-26T09:09:22.000Z</time>
      </trkpt>
      <trkpt lat="45.74017" lon="2.86416">
        <ele>741.4</ele>
        <time>2021-08-26T09:09:28.000Z</time>
      </trkpt>
      <trkpt lat="45.74023" lon="2.86422">
        <ele>741.7</ele>
        <time>2021-08-26T09:09:33.000Z</time>
      </trkpt>
      <trkpt lat="45.74028" lon="2.86428">
        <ele>742</ele>
        <time>2021-08-26T09:09:38.000Z</time>
      </trkpt>
      <trkpt lat="45.74034" lon="2.86435">
        <ele>742.4</ele>
        <time>2021-08-26T09:09:45.000Z</time>
      </trkpt>
      <trkpt lat="45.74039" lon="2.86442">
        <ele>742.7</ele>
        <time>2021-08-26T09:09:50.000Z</time>
      </trkpt>
      <trkpt lat="45.74045" lon="2.86451">
        <ele>743.1</ele>
        <time>2021-08-26T09:09:56.000Z</time>
      </trkpt>
      <trkpt lat="45.74049" lon="2.86458">
        <ele>743.4</ele>
        <time>2021-08-26T09:10:01.000Z</time>
      </trkpt>
      <trkpt lat="45.74054" lon="2.86465">
        <ele>743.7</ele>
        <time>2021-08-26T09:10:06.000Z</time>
      </trkpt>
      <trkpt lat="45.74058" lon="2.86475">
        <ele>744</ele>
        <time>2021-08-26T09:10:12.000Z</time>
      </trkpt>
      <trkpt lat="45.74062" lon="2.86482">
        <ele>744.3</ele>
        <time>2021-08-26T09:10:17.000Z</time>
      </trkpt>
      <trkpt lat="45.7407" lon="2.86487">
        <ele>744.5</ele>
        <time>2021-08-26T09:10:22.000Z</time>
      </trkpt>
      <trkpt lat="45.74078" lon="2.86495">
        <ele>744.8</ele>
        <time>2021-08-26T09:10:28.000Z</time>
      </trkpt>
      <trkpt lat="45.74084" lon="2.86501">
        <ele>745</ele>
        <time>2021-08-26T09:10:33.000Z</time>
      </trkpt>
      <trkpt lat="45.74092" lon="2.86506">
        <ele>745.2</ele>
        <time>2021-08-26T09:10:38.000Z</time>
      </trkpt>
      <trkpt lat="45.74099" lon="2.86512">
        <ele>745.4</ele>
        <time>2021-08-26T09:10:44.000Z</time>
      </trkpt>
      <trkpt lat="45.74105" lon="2.86518">
        <ele>745.6</ele>
        <time>2021-08-26T09:10:50.000Z</time>
      </trkpt>
      <trkpt lat="45.74112" lon="2.86524">
        <ele>745.8</ele>
        <time>2021-08-26T09:10:56.000Z</time>
      </trkpt>
      <trkpt lat="45.74118" lon="2.8653">
        <ele>746</ele>
        <time>2021-08-26T09:11:01.000Z</time>
      </trkpt>
      <trkpt lat="45.74125" lon="2.86536">
        <ele>746.1</ele>
        <time>2021-08-26T09:11:06.000Z</time>
      </trkpt>
      <trkpt lat="45.74131" lon="2.86544">
        <ele>746.3</ele>
        <time>2021-08-26T09:11:12.000Z</time>
      </trkpt>
      <trkpt lat="45.74138" lon="2.86547">
        <ele>746.4</ele>
        <time>2021-08-26T09:11:18.000Z</time>
      </trkpt>
      <trkpt lat="45.74143" lon="2.86554">
        <ele>746.5</ele>
        <time>2021-08-26T09:11:24.000Z</time>
      </trkpt>
      <trkpt lat="45.7415" lon="2.86558">
        <ele>746.6</ele>
        <time>2021-08-26T09:11:29.000Z</time>
      </trkpt>
      <trkpt lat="45.7416" lon="2.86563">
        <ele>746.7</ele>
        <time>2021-08-26T09:11:34.000Z</time>
      </trkpt>
      <trkpt lat="45.7417" lon="2.86566">
        <ele>746.8</ele>
        <time>2021-08-26T09:11:40.000Z</time>
      </trkpt>
      <trkpt lat="45.74178" lon="2.8657">
        <ele>746.8</ele>
        <time>2021-08-26T09:11:45.000Z</time>
      </trkpt>
      <trkpt lat="45.74184" lon="2.86572">
        <ele>746.8</ele>
        <time>2021-08-26T09:11:50.000Z</time>
      </trkpt>
      <trkpt lat="45.74191" lon="2.86577">
        <ele>746.8</ele>
        <time>2021-08-26T09:11:56.000Z</time>
      </trkpt>
      <trkpt lat="45.74197" lon="2.8658">
        <ele>746.9</ele>
        <time>2021-08-26T09:12:01.000Z</time>
      </trkpt>
      <trkpt lat="45.74205" lon="2.86586">
        <ele>747.1</ele>
        <time>2021-08-26T09:12:06.000Z</time>
      </trkpt>
      <trkpt lat="45.74213" lon="2.86589">
        <ele>747.2</ele>
        <time>2021-08-26T09:12:12.000Z</time>
      </trkpt>
      <trkpt lat="45.7422" lon="2.86593">
        <ele>747.4</ele>
        <time>2021-08-26T09:12:17.000Z</time>
      </trkpt>
      <trkpt lat="45.74226" lon="2.86596">
        <ele>747.5</ele>
        <time>2021-08-26T09:12:23.000Z</time>
      </trkpt>
      <trkpt lat="45.74233" lon="2.86601">
        <ele>747.8</ele>
        <time>2021-08-26T09:12:28.000Z</time>
      </trkpt>
      <trkpt lat="45.7424" lon="2.86604">
        <ele>747.9</ele>
        <time>2021-08-26T09:12:35.000Z</time>
      </trkpt>
      <trkpt lat="45.74247" lon="2.86609">
        <ele>748.2</ele>
        <time>2021-08-26T09:12:43.000Z</time>
      </trkpt>
      <trkpt lat="45.74254" lon="2.86615">
        <ele>748.5</ele>
        <time>2021-08-26T09:12:53.000Z</time>
      </trkpt>
      <trkpt lat="45.7426" lon="2.8662">
        <ele>748.7</ele>
        <time>2021-08-26T09:13:01.000Z</time>
      </trkpt>
      <trkpt lat="45.74268" lon="2.86619">
        <ele>748.5</ele>
        <time>2021-08-26T09:13:06.000Z</time>
      </trkpt>
      <trkpt lat="45.74279" lon="2.86618">
        <ele>748.3</ele>
        <time>2021-08-26T09:13:12.000Z</time>
      </trkpt>
      <trkpt lat="45.74286" lon="2.86622">
        <ele>748.6</ele>
        <time>2021-08-26T09:13:17.000Z</time>
      </trkpt>
      <trkpt lat="45.74292" lon="2.86627">
        <ele>748.9</ele>
        <time>2021-08-26T09:13:22.000Z</time>
      </trkpt>
      <trkpt lat="45.74299" lon="2.86633">
        <ele>749.4</ele>
        <time>2021-08-26T09:13:28.000Z</time>
      </trkpt>
      <trkpt lat="45.74305" lon="2.86636">
        <ele>749.6</ele>
        <time>2021-08-26T09:13:35.000Z</time>
      </trkpt>
      <trkpt lat="45.74311" lon="2.86638">
        <ele>749.8</ele>
        <time>2021-08-26T09:13:42.000Z</time>
      </trkpt>
      <trkpt lat="45.74318" lon="2.86642">
        <ele>750.2</ele>
        <time>2021-08-26T09:13:52.000Z</time>
      </trkpt>
      <trkpt lat="45.74325" lon="2.86642">
        <ele>750.3</ele>
        <time>2021-08-26T09:14:01.000Z</time>
      </trkpt>
      <trkpt lat="45.74332" lon="2.86646">
        <ele>750.8</ele>
        <time>2021-08-26T09:14:08.000Z</time>
      </trkpt>
      <trkpt lat="45.74339" lon="2.86647">
        <ele>751.1</ele>
        <time>2021-08-26T09:14:13.000Z</time>
      </trkpt>
      <trkpt lat="45.74346" lon="2.86642">
        <ele>750.8</ele>
        <time>2021-08-26T09:14:23.000Z</time>
      </trkpt>
      <trkpt lat="45.74353" lon="2.86638">
        <ele>750.6</ele>
        <time>2021-08-26T09:14:33.000Z</time>
      </trkpt>
      <trkpt lat="45.74359" lon="2.86643">
        <ele>751.4</ele>
        <time>2021-08-26T09:14:42.000Z</time>
      </trkpt>
      <trkpt lat="45.74369" lon="2.86645">
        <ele>752</ele>
        <time>2021-08-26T09:14:48.000Z</time>
      </trkpt>
      <trkpt lat="45.74374" lon="2.86641">
        <ele>751.7</ele>
        <time>2021-08-26T09:14:58.000Z</time>
      </trkpt>
      <trkpt lat="45.74382" lon="2.86638">
        <ele>751.6</ele>
        <time>2021-08-26T09:15:06.000Z</time>
      </trkpt>
      <trkpt lat="45.7439" lon="2.86634">
        <ele>751.4</ele>
        <time>2021-08-26T09:15:12.000Z</time>
      </trkpt>
      <trkpt lat="45.74396" lon="2.86629">
        <ele>750.9</ele>
        <time>2021-08-26T09:15:24.000Z</time>
      </trkpt>
      <trkpt lat="45.74402" lon="2.86627">
        <ele>750.8</ele>
        <time>2021-08-26T09:15:29.000Z</time>
      </trkpt>
      <trkpt lat="45.74414" lon="2.86626">
        <ele>751.1</ele>
        <time>2021-08-26T09:15:34.000Z</time>
      </trkpt>
      <trkpt lat="45.74426" lon="2.86626">
        <ele>751.9</ele>
        <time>2021-08-26T09:15:40.000Z</time>
      </trkpt>
      <trkpt lat="45.74433" lon="2.8662">
        <ele>751.7</ele>
        <time>2021-08-26T09:15:45.000Z</time>
      </trkpt>
      <trkpt lat="45.74438" lon="2.8661">
        <ele>750.8</ele>
        <time>2021-08-26T09:15:50.000Z</time>
      </trkpt>
      <trkpt lat="45.74445" lon="2.86602">
        <ele>750.4</ele>
        <time>2021-08-26T09:15:56.000Z</time>
      </trkpt>
      <trkpt lat="45.7445" lon="2.86596">
        <ele>750.2</ele>
        <time>2021-08-26T09:16:02.000Z</time>
      </trkpt>
      <trkpt lat="45.74458" lon="2.86598">
        <ele>751.2</ele>
        <time>2021-08-26T09:16:10.000Z</time>
      </trkpt>
      <trkpt lat="45.74464" lon="2.86601">
        <ele>752.2</ele>
        <time>2021-08-26T09:16:18.000Z</time>
      </trkpt>
      <trkpt lat="45.74469" lon="2.86608">
        <ele>753.5</ele>
        <time>2021-08-26T09:16:28.000Z</time>
      </trkpt>
      <trkpt lat="45.74471" lon="2.86617">
        <ele>754.7</ele>
        <time>2021-08-26T09:16:42.000Z</time>
      </trkpt>
      <trkpt lat="45.74476" lon="2.86624">
        <ele>755.9</ele>
        <time>2021-08-26T09:16:51.000Z</time>
      </trkpt>
      <trkpt lat="45.74484" lon="2.86629">
        <ele>757.1</ele>
        <time>2021-08-26T09:16:58.000Z</time>
      </trkpt>
      <trkpt lat="45.74492" lon="2.86632">
        <ele>758</ele>
        <time>2021-08-26T09:17:04.000Z</time>
      </trkpt>
      <trkpt lat="45.74498" lon="2.86637">
        <ele>759</ele>
        <time>2021-08-26T09:17:33.000Z</time>
      </trkpt>
      <trkpt lat="45.74504" lon="2.86641">
        <ele>759.5</ele>
        <time>2021-08-26T09:17:50.000Z</time>
      </trkpt>
      <trkpt lat="45.74511" lon="2.86641">
        <ele>759.5</ele>
        <time>2021-08-26T09:17:58.000Z</time>
      </trkpt>
      <trkpt lat="45.74518" lon="2.86643">
        <ele>759.7</ele>
        <time>2021-08-26T09:18:32.000Z</time>
      </trkpt>
      <trkpt lat="45.74525" lon="2.86647">
        <ele>760.1</ele>
        <time>2021-08-26T09:18:38.000Z</time>
      </trkpt>
      <trkpt lat="45.74532" lon="2.86648">
        <ele>760.2</ele>
        <time>2021-08-26T09:18:59.000Z</time>
      </trkpt>
      <trkpt lat="45.74539" lon="2.86646">
        <ele>760</ele>
        <time>2021-08-26T09:19:09.000Z</time>
      </trkpt>
      <trkpt lat="45.74546" lon="2.86639">
        <ele>759.3</ele>
        <time>2021-08-26T09:19:14.000Z</time>
      </trkpt>
      <trkpt lat="45.7455" lon="2.86627">
        <ele>758.2</ele>
        <time>2021-08-26T09:19:20.000Z</time>
      </trkpt>
      <trkpt lat="45.74558" lon="2.86627">
        <ele>758.2</ele>
        <time>2021-08-26T09:19:25.000Z</time>
      </trkpt>
      <trkpt lat="45.74567" lon="2.86628">
        <ele>758.3</ele>
        <time>2021-08-26T09:19:30.000Z</time>
      </trkpt>
      <trkpt lat="45.74578" lon="2.86628">
        <ele>758.3</ele>
        <time>2021-08-26T09:19:36.000Z</time>
      </trkpt>
      <trkpt lat="45.74584" lon="2.86623">
        <ele>757.8</ele>
        <time>2021-08-26T09:19:45.000Z</time>
      </trkpt>
      <trkpt lat="45.7459" lon="2.86619">
        <ele>757.4</ele>
        <time>2021-08-26T09:20:00.000Z</time>
      </trkpt>
      <trkpt lat="45.74597" lon="2.86617">
        <ele>757.2</ele>
        <time>2021-08-26T09:20:09.000Z</time>
      </trkpt>
      <trkpt lat="45.74604" lon="2.86619">
        <ele>757.4</ele>
        <time>2021-08-26T09:20:14.000Z</time>
      </trkpt>
      <trkpt lat="45.7461" lon="2.86621">
        <ele>757.5</ele>
        <time>2021-08-26T09:20:20.000Z</time>
      </trkpt>
      <trkpt lat="45.74617" lon="2.86624">
        <ele>757.7</ele>
        <time>2021-08-26T09:20:26.000Z</time>
      </trkpt>
      <trkpt lat="45.74624" lon="2.86622">
        <ele>757.5</ele>
        <time>2021-08-26T09:20:35.000Z</time>
      </trkpt>
      <trkpt lat="45.74631" lon="2.86619">
        <ele>757.3</ele>
        <time>2021-08-26T09:20:45.000Z</time>
      </trkpt>
      <trkpt lat="45.74638" lon="2.86618">
        <ele>757.2</ele>
        <time>2021-08-26T09:20:56.000Z</time>
      </trkpt>
      <trkpt lat="45.74646" lon="2.86614">
        <ele>756.9</ele>
        <time>2021-08-26T09:21:01.000Z</time>
      </trkpt>
      <trkpt lat="45.74653" lon="2.86617">
        <ele>757.1</ele>
        <time>2021-08-26T09:21:06.000Z</time>
      </trkpt>
      <trkpt lat="45.74662" lon="2.8662">
        <ele>757.2</ele>
        <time>2021-08-26T09:21:12.000Z</time>
      </trkpt>
      <trkpt lat="45.74669" lon="2.86622">
        <ele>757.3</ele>
        <time>2021-08-26T09:21:19.000Z</time>
      </trkpt>
      <trkpt lat="45.74676" lon="2.86622">
        <ele>757.1</ele>
        <time>2021-08-26T09:21:25.000Z</time>
      </trkpt>
      <trkpt lat="45.74682" lon="2.86624">
        <ele>757.1</ele>
        <time>2021-08-26T09:21:34.000Z</time>
      </trkpt>
      <trkpt lat="45.74689" lon="2.86626">
        <ele>757</ele>
        <time>2021-08-26T09:21:41.000Z</time>
      </trkpt>
      <trkpt lat="45.74696" lon="2.86627">
        <ele>756.9</ele>
        <time>2021-08-26T09:21:46.000Z</time>
      </trkpt>
      <trkpt lat="45.74704" lon="2.86629">
        <ele>756.8</ele>
        <time>2021-08-26T09:21:57.000Z</time>
      </trkpt>
      <trkpt lat="45.74714" lon="2.86633">
        <ele>756.7</ele>
        <time>2021-08-26T09:22:02.000Z</time>
      </trkpt>
      <trkpt lat="45.74723" lon="2.86643">
        <ele>756.9</ele>
        <time>2021-08-26T09:22:08.000Z</time>
      </trkpt>
      <trkpt lat="45.74733" lon="2.86643">
        <ele>756.6</ele>
        <time>2021-08-26T09:22:13.000Z</time>
      </trkpt>
      <trkpt lat="45.7474" lon="2.86638">
        <ele>756.2</ele>
        <time>2021-08-26T09:22:18.000Z</time>
      </trkpt>
      <trkpt lat="45.74739" lon="2.86649">
        <ele>756.7</ele>
        <time>2021-08-26T09:23:37.000Z</time>
      </trkpt>
      <trkpt lat="45.74743" lon="2.86656">
        <ele>756.8</ele>
        <time>2021-08-26T09:23:47.000Z</time>
      </trkpt>
      <trkpt lat="45.74747" lon="2.86665">
        <ele>757</ele>
        <time>2021-08-26T09:23:52.000Z</time>
      </trkpt>
      <trkpt lat="45.7475" lon="2.86672">
        <ele>757.1</ele>
        <time>2021-08-26T09:23:58.000Z</time>
      </trkpt>
      <trkpt lat="45.74756" lon="2.86678">
        <ele>757.2</ele>
        <time>2021-08-26T09:24:06.000Z</time>
      </trkpt>
      <trkpt lat="45.7476" lon="2.86687">
        <ele>757.3</ele>
        <time>2021-08-26T09:24:13.000Z</time>
      </trkpt>
      <trkpt lat="45.74765" lon="2.86696">
        <ele>757.4</ele>
        <time>2021-08-26T09:24:20.000Z</time>
      </trkpt>
      <trkpt lat="45.74771" lon="2.86703">
        <ele>757.5</ele>
        <time>2021-08-26T09:24:26.000Z</time>
      </trkpt>
      <trkpt lat="45.74778" lon="2.86711">
        <ele>757.5</ele>
        <time>2021-08-26T09:24:32.000Z</time>
      </trkpt>
      <trkpt lat="45.7478" lon="2.8672">
        <ele>757.5</ele>
        <time>2021-08-26T09:24:38.000Z</time>
      </trkpt>
      <trkpt lat="45.74785" lon="2.86727">
        <ele>757.5</ele>
        <time>2021-08-26T09:24:45.000Z</time>
      </trkpt>
      <trkpt lat="45.74789" lon="2.86735">
        <ele>757.5</ele>
        <time>2021-08-26T09:24:51.000Z</time>
      </trkpt>
      <trkpt lat="45.74795" lon="2.86741">
        <ele>757.5</ele>
        <time>2021-08-26T09:24:56.000Z</time>
      </trkpt>
      <trkpt lat="45.74799" lon="2.86748">
        <ele>757.4</ele>
        <time>2021-08-26T09:25:01.000Z</time>
      </trkpt>
      <trkpt lat="45.74803" lon="2.86757">
        <ele>757.4</ele>
        <time>2021-08-26T09:25:07.000Z</time>
      </trkpt>
      <trkpt lat="45.74808" lon="2.86765">
        <ele>757.3</ele>
        <time>2021-08-26T09:25:12.000Z</time>
      </trkpt>
      <trkpt lat="45.74816" lon="2.86774">
        <ele>757.1</ele>
        <time>2021-08-26T09:25:17.000Z</time>
      </trkpt>
      <trkpt lat="45.74823" lon="2.86778">
        <ele>756.9</ele>
        <time>2021-08-26T09:25:22.000Z</time>
      </trkpt>
      <trkpt lat="45.74832" lon="2.86783">
        <ele>756.6</ele>
        <time>2021-08-26T09:25:28.000Z</time>
      </trkpt>
      <trkpt lat="45.74839" lon="2.86786">
        <ele>756.4</ele>
        <time>2021-08-26T09:25:33.000Z</time>
      </trkpt>
      <trkpt lat="45.74844" lon="2.86794">
        <ele>756.2</ele>
        <time>2021-08-26T09:25:39.000Z</time>
      </trkpt>
      <trkpt lat="45.74849" lon="2.86803">
        <ele>756</ele>
        <time>2021-08-26T09:25:45.000Z</time>
      </trkpt>
      <trkpt lat="45.74855" lon="2.86814">
        <ele>755.7</ele>
        <time>2021-08-26T09:25:50.000Z</time>
      </trkpt>
      <trkpt lat="45.74863" lon="2.86822">
        <ele>755.4</ele>
        <time>2021-08-26T09:25:56.000Z</time>
      </trkpt>
      <trkpt lat="45.7487" lon="2.86825">
        <ele>755.2</ele>
        <time>2021-08-26T09:26:02.000Z</time>
      </trkpt>
      <trkpt lat="45.74877" lon="2.8683">
        <ele>755</ele>
        <time>2021-08-26T09:26:08.000Z</time>
      </trkpt>
      <trkpt lat="45.74885" lon="2.86833">
        <ele>754.8</ele>
        <time>2021-08-26T09:26:13.000Z</time>
      </trkpt>
      <trkpt lat="45.74893" lon="2.86835">
        <ele>754.5</ele>
        <time>2021-08-26T09:26:18.000Z</time>
      </trkpt>
      <trkpt lat="45.749" lon="2.86839">
        <ele>754.3</ele>
        <time>2021-08-26T09:26:24.000Z</time>
      </trkpt>
      <trkpt lat="45.74908" lon="2.86841">
        <ele>754</ele>
        <time>2021-08-26T09:26:29.000Z</time>
      </trkpt>
      <trkpt lat="45.74916" lon="2.86844">
        <ele>753.8</ele>
        <time>2021-08-26T09:26:34.000Z</time>
      </trkpt>
      <trkpt lat="45.74924" lon="2.86848">
        <ele>753.6</ele>
        <time>2021-08-26T09:26:40.000Z</time>
      </trkpt>
      <trkpt lat="45.74931" lon="2.86852">
        <ele>753.5</ele>
        <time>2021-08-26T09:26:46.000Z</time>
      </trkpt>
      <trkpt lat="45.74939" lon="2.86856">
        <ele>753.4</ele>
        <time>2021-08-26T09:26:52.000Z</time>
      </trkpt>
      <trkpt lat="45.74946" lon="2.86859">
        <ele>753.3</ele>
        <time>2021-08-26T09:26:57.000Z</time>
      </trkpt>
      <trkpt lat="45.74953" lon="2.86861">
        <ele>753.2</ele>
        <time>2021-08-26T09:27:02.000Z</time>
      </trkpt>
      <trkpt lat="45.74963" lon="2.86864">
        <ele>753.1</ele>
        <time>2021-08-26T09:27:08.000Z</time>
      </trkpt>
      <trkpt lat="45.7497" lon="2.86866">
        <ele>753</ele>
        <time>2021-08-26T09:27:13.000Z</time>
      </trkpt>
      <trkpt lat="45.74977" lon="2.8687">
        <ele>752.8</ele>
        <time>2021-08-26T09:27:18.000Z</time>
      </trkpt>
      <trkpt lat="45.74986" lon="2.86873">
        <ele>752.7</ele>
        <time>2021-08-26T09:27:24.000Z</time>
      </trkpt>
      <trkpt lat="45.74993" lon="2.86876">
        <ele>752.5</ele>
        <time>2021-08-26T09:27:29.000Z</time>
      </trkpt>
      <trkpt lat="45.75" lon="2.86878">
        <ele>752.4</ele>
        <time>2021-08-26T09:27:34.000Z</time>
      </trkpt>
      <trkpt lat="45.75009" lon="2.86878">
        <ele>752</ele>
        <time>2021-08-26T09:27:40.000Z</time>
      </trkpt>
      <trkpt lat="45.75016" lon="2.86878">
        <ele>751.7</ele>
        <time>2021-08-26T09:27:45.000Z</time>
      </trkpt>
      <trkpt lat="45.75025" lon="2.86881">
        <ele>751.3</ele>
        <time>2021-08-26T09:27:50.000Z</time>
      </trkpt>
      <trkpt lat="45.75034" lon="2.86883">
        <ele>750.8</ele>
        <time>2021-08-26T09:27:56.000Z</time>
      </trkpt>
      <trkpt lat="45.75042" lon="2.86885">
        <ele>750.4</ele>
        <time>2021-08-26T09:28:01.000Z</time>
      </trkpt>
      <trkpt lat="45.75049" lon="2.86887">
        <ele>750.1</ele>
        <time>2021-08-26T09:28:06.000Z</time>
      </trkpt>
      <trkpt lat="45.75058" lon="2.86887">
        <ele>749.7</ele>
        <time>2021-08-26T09:28:12.000Z</time>
      </trkpt>
      <trkpt lat="45.75064" lon="2.86888">
        <ele>749.5</ele>
        <time>2021-08-26T09:28:17.000Z</time>
      </trkpt>
      <trkpt lat="45.75072" lon="2.86889">
        <ele>749.1</ele>
        <time>2021-08-26T09:28:22.000Z</time>
      </trkpt>
      <trkpt lat="45.7508" lon="2.8689">
        <ele>748.8</ele>
        <time>2021-08-26T09:28:28.000Z</time>
      </trkpt>
      <trkpt lat="45.75087" lon="2.86893">
        <ele>748.5</ele>
        <time>2021-08-26T09:28:34.000Z</time>
      </trkpt>
      <trkpt lat="45.75095" lon="2.86894">
        <ele>748.2</ele>
        <time>2021-08-26T09:28:40.000Z</time>
      </trkpt>
      <trkpt lat="45.75102" lon="2.86895">
        <ele>748</ele>
        <time>2021-08-26T09:28:46.000Z</time>
      </trkpt>
      <trkpt lat="45.75111" lon="2.86895">
        <ele>747.7</ele>
        <time>2021-08-26T09:28:52.000Z</time>
      </trkpt>
      <trkpt lat="45.75118" lon="2.86897">
        <ele>747.4</ele>
        <time>2021-08-26T09:28:57.000Z</time>
      </trkpt>
      <trkpt lat="45.75125" lon="2.86899">
        <ele>747.2</ele>
        <time>2021-08-26T09:29:02.000Z</time>
      </trkpt>
      <trkpt lat="45.75133" lon="2.86901">
        <ele>747</ele>
        <time>2021-08-26T09:29:08.000Z</time>
      </trkpt>
      <trkpt lat="45.7514" lon="2.86903">
        <ele>746.7</ele>
        <time>2021-08-26T09:29:13.000Z</time>
      </trkpt>
      <trkpt lat="45.75146" lon="2.86905">
        <ele>746.6</ele>
        <time>2021-08-26T09:29:18.000Z</time>
      </trkpt>
      <trkpt lat="45.75154" lon="2.86908">
        <ele>746.3</ele>
        <time>2021-08-26T09:29:24.000Z</time>
      </trkpt>
      <trkpt lat="45.75161" lon="2.8691">
        <ele>746.1</ele>
        <time>2021-08-26T09:29:30.000Z</time>
      </trkpt>
      <trkpt lat="45.75168" lon="2.86913">
        <ele>746</ele>
        <time>2021-08-26T09:29:37.000Z</time>
      </trkpt>
      <trkpt lat="45.75175" lon="2.86916">
        <ele>745.7</ele>
        <time>2021-08-26T09:29:43.000Z</time>
      </trkpt>
      <trkpt lat="45.75181" lon="2.86919">
        <ele>745.4</ele>
        <time>2021-08-26T09:29:48.000Z</time>
      </trkpt>
      <trkpt lat="45.75188" lon="2.86922">
        <ele>745.1</ele>
        <time>2021-08-26T09:29:53.000Z</time>
      </trkpt>
      <trkpt lat="45.75197" lon="2.86926">
        <ele>744.8</ele>
        <time>2021-08-26T09:29:58.000Z</time>
      </trkpt>
      <trkpt lat="45.75207" lon="2.8693">
        <ele>744.4</ele>
        <time>2021-08-26T09:30:04.000Z</time>
      </trkpt>
      <trkpt lat="45.75214" lon="2.86934">
        <ele>744.1</ele>
        <time>2021-08-26T09:30:09.000Z</time>
      </trkpt>
      <trkpt lat="45.75221" lon="2.86936">
        <ele>743.9</ele>
        <time>2021-08-26T09:30:14.000Z</time>
      </trkpt>
      <trkpt lat="45.75229" lon="2.86937">
        <ele>743.6</ele>
        <time>2021-08-26T09:30:20.000Z</time>
      </trkpt>
      <trkpt lat="45.75236" lon="2.86938">
        <ele>743.4</ele>
        <time>2021-08-26T09:30:26.000Z</time>
      </trkpt>
      <trkpt lat="45.75245" lon="2.86939">
        <ele>743.1</ele>
        <time>2021-08-26T09:30:32.000Z</time>
      </trkpt>
      <trkpt lat="45.75253" lon="2.8694">
        <ele>742.9</ele>
        <time>2021-08-26T09:30:37.000Z</time>
      </trkpt>
      <trkpt lat="45.75259" lon="2.86941">
        <ele>742.8</ele>
        <time>2021-08-26T09:30:44.000Z</time>
      </trkpt>
      <trkpt lat="45.75266" lon="2.86943">
        <ele>742.6</ele>
        <time>2021-08-26T09:30:50.000Z</time>
      </trkpt>
      <trkpt lat="45.75274" lon="2.86947">
        <ele>742.4</ele>
        <time>2021-08-26T09:30:56.000Z</time>
      </trkpt>
      <trkpt lat="45.75283" lon="2.86949">
        <ele>742.2</ele>
        <time>2021-08-26T09:31:01.000Z</time>
      </trkpt>
      <trkpt lat="45.7529" lon="2.86953">
        <ele>742</ele>
        <time>2021-08-26T09:31:06.000Z</time>
      </trkpt>
      <trkpt lat="45.75297" lon="2.86955">
        <ele>741.9</ele>
        <time>2021-08-26T09:31:12.000Z</time>
      </trkpt>
      <trkpt lat="45.75306" lon="2.86959">
        <ele>741.7</ele>
        <time>2021-08-26T09:31:17.000Z</time>
      </trkpt>
      <trkpt lat="45.75313" lon="2.86961">
        <ele>741.5</ele>
        <time>2021-08-26T09:31:22.000Z</time>
      </trkpt>
      <trkpt lat="45.75321" lon="2.86965">
        <ele>741.3</ele>
        <time>2021-08-26T09:31:28.000Z</time>
      </trkpt>
      <trkpt lat="45.75328" lon="2.86967">
        <ele>741.1</ele>
        <time>2021-08-26T09:31:33.000Z</time>
      </trkpt>
      <trkpt lat="45.75334" lon="2.86969">
        <ele>741</ele>
        <time>2021-08-26T09:31:38.000Z</time>
      </trkpt>
      <trkpt lat="45.75342" lon="2.86973">
        <ele>741.2</ele>
        <time>2021-08-26T09:31:44.000Z</time>
      </trkpt>
      <trkpt lat="45.75349" lon="2.86977">
        <ele>741.3</ele>
        <time>2021-08-26T09:31:49.000Z</time>
      </trkpt>
      <trkpt lat="45.75356" lon="2.86979">
        <ele>741.5</ele>
        <time>2021-08-26T09:31:55.000Z</time>
      </trkpt>
      <trkpt lat="45.75363" lon="2.86981">
        <ele>741.6</ele>
        <time>2021-08-26T09:32:01.000Z</time>
      </trkpt>
      <trkpt lat="45.7537" lon="2.86985">
        <ele>741.8</ele>
        <time>2021-08-26T09:32:07.000Z</time>
      </trkpt>
      <trkpt lat="45.75377" lon="2.86988">
        <ele>742</ele>
        <time>2021-08-26T09:32:13.000Z</time>
      </trkpt>
      <trkpt lat="45.75383" lon="2.86991">
        <ele>742.1</ele>
        <time>2021-08-26T09:32:23.000Z</time>
      </trkpt>
      <trkpt lat="45.75388" lon="2.86999">
        <ele>742.3</ele>
        <time>2021-08-26T09:34:38.000Z</time>
      </trkpt>
      <trkpt lat="45.75394" lon="2.87003">
        <ele>742.6</ele>
        <time>2021-08-26T09:34:48.000Z</time>
      </trkpt>
      <trkpt lat="45.75401" lon="2.87005">
        <ele>742.8</ele>
        <time>2021-08-26T09:35:09.000Z</time>
      </trkpt>
      <trkpt lat="45.75407" lon="2.87009">
        <ele>743</ele>
        <time>2021-08-26T09:35:17.000Z</time>
      </trkpt>
      <trkpt lat="45.75413" lon="2.87014">
        <ele>743.3</ele>
        <time>2021-08-26T09:35:23.000Z</time>
      </trkpt>
      <trkpt lat="45.75419" lon="2.87019">
        <ele>743.5</ele>
        <time>2021-08-26T09:35:29.000Z</time>
      </trkpt>
      <trkpt lat="45.75424" lon="2.87025">
        <ele>743.6</ele>
        <time>2021-08-26T09:35:36.000Z</time>
      </trkpt>
      <trkpt lat="45.7543" lon="2.87029">
        <ele>743.7</ele>
        <time>2021-08-26T09:35:41.000Z</time>
      </trkpt>
      <trkpt lat="45.75437" lon="2.87033">
        <ele>743.8</ele>
        <time>2021-08-26T09:35:47.000Z</time>
      </trkpt>
      <trkpt lat="45.75444" lon="2.87037">
        <ele>743.9</ele>
        <time>2021-08-26T09:35:52.000Z</time>
      </trkpt>
      <trkpt lat="45.75451" lon="2.87041">
        <ele>744</ele>
        <time>2021-08-26T09:35:58.000Z</time>
      </trkpt>
      <trkpt lat="45.75457" lon="2.87045">
        <ele>744.1</ele>
        <time>2021-08-26T09:36:04.000Z</time>
      </trkpt>
      <trkpt lat="45.75463" lon="2.87049">
        <ele>744.2</ele>
        <time>2021-08-26T09:36:42.000Z</time>
      </trkpt>
      <trkpt lat="45.7547" lon="2.8705">
        <ele>744.2</ele>
        <time>2021-08-26T09:36:48.000Z</time>
      </trkpt>
      <trkpt lat="45.75477" lon="2.87053">
        <ele>744.3</ele>
        <time>2021-08-26T09:36:54.000Z</time>
      </trkpt>
      <trkpt lat="45.75483" lon="2.87059">
        <ele>744.4</ele>
        <time>2021-08-26T09:37:00.000Z</time>
      </trkpt>
      <trkpt lat="45.75489" lon="2.87063">
        <ele>744.5</ele>
        <time>2021-08-26T09:37:07.000Z</time>
      </trkpt>
      <trkpt lat="45.75497" lon="2.87066">
        <ele>744.6</ele>
        <time>2021-08-26T09:37:12.000Z</time>
      </trkpt>
      <trkpt lat="45.75503" lon="2.87072">
        <ele>744.7</ele>
        <time>2021-08-26T09:37:17.000Z</time>
      </trkpt>
      <trkpt lat="45.75509" lon="2.87075">
        <ele>744.6</ele>
        <time>2021-08-26T09:37:22.000Z</time>
      </trkpt>
      <trkpt lat="45.75517" lon="2.87081">
        <ele>744.6</ele>
        <time>2021-08-26T09:37:28.000Z</time>
      </trkpt>
      <trkpt lat="45.75524" lon="2.87086">
        <ele>744.5</ele>
        <time>2021-08-26T09:37:33.000Z</time>
      </trkpt>
      <trkpt lat="45.7553" lon="2.87089">
        <ele>744.5</ele>
        <time>2021-08-26T09:37:38.000Z</time>
      </trkpt>
      <trkpt lat="45.75538" lon="2.87095">
        <ele>744.5</ele>
        <time>2021-08-26T09:37:44.000Z</time>
      </trkpt>
      <trkpt lat="45.75545" lon="2.87099">
        <ele>744.5</ele>
        <time>2021-08-26T09:37:50.000Z</time>
      </trkpt>
      <trkpt lat="45.75553" lon="2.87103">
        <ele>744.4</ele>
        <time>2021-08-26T09:37:56.000Z</time>
      </trkpt>
      <trkpt lat="45.75561" lon="2.87106">
        <ele>744.2</ele>
        <time>2021-08-26T09:38:02.000Z</time>
      </trkpt>
      <trkpt lat="45.75568" lon="2.87109">
        <ele>744.1</ele>
        <time>2021-08-26T09:38:08.000Z</time>
      </trkpt>
      <trkpt lat="45.75575" lon="2.8711">
        <ele>743.9</ele>
        <time>2021-08-26T09:38:13.000Z</time>
      </trkpt>
      <trkpt lat="45.75582" lon="2.8711">
        <ele>743.7</ele>
        <time>2021-08-26T09:38:18.000Z</time>
      </trkpt>
      <trkpt lat="45.7559" lon="2.8711">
        <ele>744.2</ele>
        <time>2021-08-26T09:38:25.000Z</time>
      </trkpt>
      <trkpt lat="45.75597" lon="2.87109">
        <ele>744.8</ele>
        <time>2021-08-26T09:38:30.000Z</time>
      </trkpt>
      <trkpt lat="45.75607" lon="2.87109">
        <ele>745.7</ele>
        <time>2021-08-26T09:38:36.000Z</time>
      </trkpt>
      <trkpt lat="45.75615" lon="2.87109">
        <ele>746.4</ele>
        <time>2021-08-26T09:38:41.000Z</time>
      </trkpt>
      <trkpt lat="45.75623" lon="2.87111">
        <ele>747.2</ele>
        <time>2021-08-26T09:38:46.000Z</time>
      </trkpt>
      <trkpt lat="45.75631" lon="2.87111">
        <ele>747.9</ele>
        <time>2021-08-26T09:38:52.000Z</time>
      </trkpt>
      <trkpt lat="45.75638" lon="2.87112">
        <ele>748.5</ele>
        <time>2021-08-26T09:38:58.000Z</time>
      </trkpt>
      <trkpt lat="45.75645" lon="2.87113">
        <ele>749.2</ele>
        <time>2021-08-26T09:39:05.000Z</time>
      </trkpt>
      <trkpt lat="45.75651" lon="2.87118">
        <ele>750.1</ele>
        <time>2021-08-26T09:39:14.000Z</time>
      </trkpt>
      <trkpt lat="45.75657" lon="2.87124">
        <ele>751</ele>
        <time>2021-08-26T09:39:20.000Z</time>
      </trkpt>
      <trkpt lat="45.75664" lon="2.87126">
        <ele>751.8</ele>
        <time>2021-08-26T09:39:26.000Z</time>
      </trkpt>
      <trkpt lat="45.75671" lon="2.87127">
        <ele>752.4</ele>
        <time>2021-08-26T09:39:33.000Z</time>
      </trkpt>
      <trkpt lat="45.75677" lon="2.87122">
        <ele>752.4</ele>
        <time>2021-08-26T09:39:39.000Z</time>
      </trkpt>
      <trkpt lat="45.75684" lon="2.87118">
        <ele>752.6</ele>
        <time>2021-08-26T09:39:44.000Z</time>
      </trkpt>
      <trkpt lat="45.75692" lon="2.87116">
        <ele>752.9</ele>
        <time>2021-08-26T09:39:49.000Z</time>
      </trkpt>
      <trkpt lat="45.757" lon="2.87112">
        <ele>753</ele>
        <time>2021-08-26T09:39:54.000Z</time>
      </trkpt>
      <trkpt lat="45.75709" lon="2.87107">
        <ele>752.9</ele>
        <time>2021-08-26T09:40:00.000Z</time>
      </trkpt>
      <trkpt lat="45.75716" lon="2.87106">
        <ele>753.2</ele>
        <time>2021-08-26T09:40:05.000Z</time>
      </trkpt>
      <trkpt lat="45.75723" lon="2.87103">
        <ele>753.2</ele>
        <time>2021-08-26T09:40:11.000Z</time>
      </trkpt>
      <trkpt lat="45.7573" lon="2.871">
        <ele>753.2</ele>
        <time>2021-08-26T09:40:17.000Z</time>
      </trkpt>
      <trkpt lat="45.75736" lon="2.87097">
        <ele>753.2</ele>
        <time>2021-08-26T09:40:23.000Z</time>
      </trkpt>
      <trkpt lat="45.75743" lon="2.87095">
        <ele>753.2</ele>
        <time>2021-08-26T09:40:29.000Z</time>
      </trkpt>
      <trkpt lat="45.75751" lon="2.87095">
        <ele>753.6</ele>
        <time>2021-08-26T09:40:35.000Z</time>
      </trkpt>
      <trkpt lat="45.75759" lon="2.87095">
        <ele>753.9</ele>
        <time>2021-08-26T09:40:40.000Z</time>
      </trkpt>
      <trkpt lat="45.75767" lon="2.87094">
        <ele>754</ele>
        <time>2021-08-26T09:40:45.000Z</time>
      </trkpt>
      <trkpt lat="45.75775" lon="2.87093">
        <ele>754.2</ele>
        <time>2021-08-26T09:40:50.000Z</time>
      </trkpt>
      <trkpt lat="45.75783" lon="2.87092">
        <ele>754.3</ele>
        <time>2021-08-26T09:40:56.000Z</time>
      </trkpt>
      <trkpt lat="45.7579" lon="2.87091">
        <ele>754.5</ele>
        <time>2021-08-26T09:41:01.000Z</time>
      </trkpt>
      <trkpt lat="45.75797" lon="2.87091">
        <ele>754.7</ele>
        <time>2021-08-26T09:41:06.000Z</time>
      </trkpt>
      <trkpt lat="45.75806" lon="2.87092">
        <ele>755.2</ele>
        <time>2021-08-26T09:41:12.000Z</time>
      </trkpt>
      <trkpt lat="45.75813" lon="2.87092">
        <ele>755.4</ele>
        <time>2021-08-26T09:41:18.000Z</time>
      </trkpt>
      <trkpt lat="45.75821" lon="2.87088">
        <ele>755.2</ele>
        <time>2021-08-26T09:41:24.000Z</time>
      </trkpt>
      <trkpt lat="45.7583" lon="2.87088">
        <ele>755.5</ele>
        <time>2021-08-26T09:41:29.000Z</time>
      </trkpt>
      <trkpt lat="45.75838" lon="2.87087">
        <ele>755.8</ele>
        <time>2021-08-26T09:41:34.000Z</time>
      </trkpt>
      <trkpt lat="45.75848" lon="2.87085">
        <ele>756.3</ele>
        <time>2021-08-26T09:41:40.000Z</time>
      </trkpt>
      <trkpt lat="45.75856" lon="2.87081">
        <ele>756.3</ele>
        <time>2021-08-26T09:41:45.000Z</time>
      </trkpt>
      <trkpt lat="45.75863" lon="2.87073">
        <ele>755.8</ele>
        <time>2021-08-26T09:41:50.000Z</time>
      </trkpt>
      <trkpt lat="45.75872" lon="2.87069">
        <ele>755.8</ele>
        <time>2021-08-26T09:41:56.000Z</time>
      </trkpt>
      <trkpt lat="45.75878" lon="2.87065">
        <ele>755.6</ele>
        <time>2021-08-26T09:42:01.000Z</time>
      </trkpt>
      <trkpt lat="45.75884" lon="2.87058">
        <ele>755</ele>
        <time>2021-08-26T09:42:06.000Z</time>
      </trkpt>
      <trkpt lat="45.75891" lon="2.87049">
        <ele>754</ele>
        <time>2021-08-26T09:42:12.000Z</time>
      </trkpt>
      <trkpt lat="45.75898" lon="2.87043">
        <ele>753.4</ele>
        <time>2021-08-26T09:42:18.000Z</time>
      </trkpt>
      <trkpt lat="45.75904" lon="2.87039">
        <ele>753</ele>
        <time>2021-08-26T09:42:24.000Z</time>
      </trkpt>
      <trkpt lat="45.75911" lon="2.87034">
        <ele>752.5</ele>
        <time>2021-08-26T09:42:29.000Z</time>
      </trkpt>
      <trkpt lat="45.75915" lon="2.87028">
        <ele>751.7</ele>
        <time>2021-08-26T09:42:34.000Z</time>
      </trkpt>
      <trkpt lat="45.75921" lon="2.87019">
        <ele>750.6</ele>
        <time>2021-08-26T09:42:40.000Z</time>
      </trkpt>
      <trkpt lat="45.75925" lon="2.87011">
        <ele>749.6</ele>
        <time>2021-08-26T09:42:46.000Z</time>
      </trkpt>
      <trkpt lat="45.75928" lon="2.87001">
        <ele>748.1</ele>
        <time>2021-08-26T09:42:52.000Z</time>
      </trkpt>
      <trkpt lat="45.75934" lon="2.86994">
        <ele>748.7</ele>
        <time>2021-08-26T09:42:59.000Z</time>
      </trkpt>
      <trkpt lat="45.7594" lon="2.86988">
        <ele>749.4</ele>
        <time>2021-08-26T09:43:04.000Z</time>
      </trkpt>
      <trkpt lat="45.75945" lon="2.8698">
        <ele>749.8</ele>
        <time>2021-08-26T09:43:09.000Z</time>
      </trkpt>
      <trkpt lat="45.75949" lon="2.86972">
        <ele>750.1</ele>
        <time>2021-08-26T09:43:18.000Z</time>
      </trkpt>
      <trkpt lat="45.75958" lon="2.86968">
        <ele>750.3</ele>
        <time>2021-08-26T09:43:30.000Z</time>
      </trkpt>
      <trkpt lat="45.75967" lon="2.86954">
        <ele>750.1</ele>
        <time>2021-08-26T09:45:08.000Z</time>
      </trkpt>
      <trkpt lat="45.75973" lon="2.86963">
        <ele>750.3</ele>
        <time>2021-08-26T09:45:43.000Z</time>
      </trkpt>
      <trkpt lat="45.7598" lon="2.86959">
        <ele>750.2</ele>
        <time>2021-08-26T09:46:05.000Z</time>
      </trkpt>
      <trkpt lat="45.75986" lon="2.86955">
        <ele>749.9</ele>
        <time>2021-08-26T09:46:15.000Z</time>
      </trkpt>
      <trkpt lat="45.7599" lon="2.86947">
        <ele>749.2</ele>
        <time>2021-08-26T09:46:24.000Z</time>
      </trkpt>
      <trkpt lat="45.75993" lon="2.86937">
        <ele>748.3</ele>
        <time>2021-08-26T09:46:33.000Z</time>
      </trkpt>
      <trkpt lat="45.75998" lon="2.8693">
        <ele>747.4</ele>
        <time>2021-08-26T09:46:41.000Z</time>
      </trkpt>
      <trkpt lat="45.76005" lon="2.86926">
        <ele>747.2</ele>
        <time>2021-08-26T09:46:51.000Z</time>
      </trkpt>
      <trkpt lat="45.76012" lon="2.86928">
        <ele>747.8</ele>
        <time>2021-08-26T09:46:59.000Z</time>
      </trkpt>
      <trkpt lat="45.76019" lon="2.86928">
        <ele>748.2</ele>
        <time>2021-08-26T09:47:04.000Z</time>
      </trkpt>
      <trkpt lat="45.76025" lon="2.86931">
        <ele>748.9</ele>
        <time>2021-08-26T09:47:10.000Z</time>
      </trkpt>
      <trkpt lat="45.76033" lon="2.86933">
        <ele>749.8</ele>
        <time>2021-08-26T09:47:16.000Z</time>
      </trkpt>
      <trkpt lat="45.76039" lon="2.86937">
        <ele>750.8</ele>
        <time>2021-08-26T09:47:21.000Z</time>
      </trkpt>
      <trkpt lat="45.76045" lon="2.86942">
        <ele>752.2</ele>
        <time>2021-08-26T09:47:26.000Z</time>
      </trkpt>
      <trkpt lat="45.76051" lon="2.8695">
        <ele>754.2</ele>
        <time>2021-08-26T09:47:32.000Z</time>
      </trkpt>
      <trkpt lat="45.76055" lon="2.86958">
        <ele>756.2</ele>
        <time>2021-08-26T09:47:39.000Z</time>
      </trkpt>
      <trkpt lat="45.7606" lon="2.86963">
        <ele>757.8</ele>
        <time>2021-08-26T09:47:44.000Z</time>
      </trkpt>
      <trkpt lat="45.76066" lon="2.86969">
        <ele>759.9</ele>
        <time>2021-08-26T09:47:49.000Z</time>
      </trkpt>
      <trkpt lat="45.76072" lon="2.86976">
        <ele>762.3</ele>
        <time>2021-08-26T09:47:54.000Z</time>
      </trkpt>
      <trkpt lat="45.76077" lon="2.86983">
        <ele>764.7</ele>
        <time>2021-08-26T09:48:01.000Z</time>
      </trkpt>
      <trkpt lat="45.76083" lon="2.8699">
        <ele>767.4</ele>
        <time>2021-08-26T09:48:06.000Z</time>
      </trkpt>
      <trkpt lat="45.76089" lon="2.86997">
        <ele>768.8</ele>
        <time>2021-08-26T09:48:12.000Z</time>
      </trkpt>
      <trkpt lat="45.76095" lon="2.87003">
        <ele>769.7</ele>
        <time>2021-08-26T09:48:17.000Z</time>
      </trkpt>
      <trkpt lat="45.761" lon="2.8701">
        <ele>770.6</ele>
        <time>2021-08-26T09:48:23.000Z</time>
      </trkpt>
      <trkpt lat="45.76106" lon="2.87016">
        <ele>771.2</ele>
        <time>2021-08-26T09:48:29.000Z</time>
      </trkpt>
      <trkpt lat="45.76111" lon="2.87022">
        <ele>772</ele>
        <time>2021-08-26T09:48:35.000Z</time>
      </trkpt>
      <trkpt lat="45.76117" lon="2.87028">
        <ele>772.7</ele>
        <time>2021-08-26T09:48:40.000Z</time>
      </trkpt>
      <trkpt lat="45.76124" lon="2.87034">
        <ele>773.4</ele>
        <time>2021-08-26T09:48:46.000Z</time>
      </trkpt>
      <trkpt lat="45.76134" lon="2.87039">
        <ele>773.8</ele>
        <time>2021-08-26T09:48:52.000Z</time>
      </trkpt>
      <trkpt lat="45.7614" lon="2.87044">
        <ele>774.4</ele>
        <time>2021-08-26T09:48:57.000Z</time>
      </trkpt>
      <trkpt lat="45.76146" lon="2.87049">
        <ele>775</ele>
        <time>2021-08-26T09:49:02.000Z</time>
      </trkpt>
      <trkpt lat="45.76154" lon="2.87056">
        <ele>776</ele>
        <time>2021-08-26T09:49:08.000Z</time>
      </trkpt>
      <trkpt lat="45.7616" lon="2.87062">
        <ele>776.9</ele>
        <time>2021-08-26T09:49:13.000Z</time>
      </trkpt>
      <trkpt lat="45.76168" lon="2.87067">
        <ele>777.5</ele>
        <time>2021-08-26T09:49:18.000Z</time>
      </trkpt>
      <trkpt lat="45.76176" lon="2.87071">
        <ele>777.2</ele>
        <time>2021-08-26T09:49:24.000Z</time>
      </trkpt>
      <trkpt lat="45.76184" lon="2.87072">
        <ele>776.3</ele>
        <time>2021-08-26T09:49:29.000Z</time>
      </trkpt>
      <trkpt lat="45.76191" lon="2.87072">
        <ele>775.3</ele>
        <time>2021-08-26T09:49:34.000Z</time>
      </trkpt>
      <trkpt lat="45.762" lon="2.87074">
        <ele>774.5</ele>
        <time>2021-08-26T09:49:40.000Z</time>
      </trkpt>
      <trkpt lat="45.76208" lon="2.87077">
        <ele>774.1</ele>
        <time>2021-08-26T09:49:45.000Z</time>
      </trkpt>
      <trkpt lat="45.76216" lon="2.87082">
        <ele>774.2</ele>
        <time>2021-08-26T09:49:50.000Z</time>
      </trkpt>
      <trkpt lat="45.76227" lon="2.87086">
        <ele>773.2</ele>
        <time>2021-08-26T09:49:56.000Z</time>
      </trkpt>
      <trkpt lat="45.76235" lon="2.87088">
        <ele>772.4</ele>
        <time>2021-08-26T09:50:01.000Z</time>
      </trkpt>
      <trkpt lat="45.76243" lon="2.87091">
        <ele>771.6</ele>
        <time>2021-08-26T09:50:06.000Z</time>
      </trkpt>
      <trkpt lat="45.76251" lon="2.87095">
        <ele>770.9</ele>
        <time>2021-08-26T09:50:12.000Z</time>
      </trkpt>
      <trkpt lat="45.76258" lon="2.871">
        <ele>770</ele>
        <time>2021-08-26T09:50:20.000Z</time>
      </trkpt>
      <trkpt lat="45.76263" lon="2.87106">
        <ele>769.6</ele>
        <time>2021-08-26T09:50:28.000Z</time>
      </trkpt>
      <trkpt lat="45.7627" lon="2.87111">
        <ele>768.8</ele>
        <time>2021-08-26T09:50:35.000Z</time>
      </trkpt>
      <trkpt lat="45.76279" lon="2.87117">
        <ele>767.8</ele>
        <time>2021-08-26T09:50:40.000Z</time>
      </trkpt>
      <trkpt lat="45.76286" lon="2.87122">
        <ele>767.1</ele>
        <time>2021-08-26T09:50:45.000Z</time>
      </trkpt>
      <trkpt lat="45.76293" lon="2.87122">
        <ele>765.9</ele>
        <time>2021-08-26T09:50:50.000Z</time>
      </trkpt>
      <trkpt lat="45.76303" lon="2.87122">
        <ele>764</ele>
        <time>2021-08-26T09:50:56.000Z</time>
      </trkpt>
      <trkpt lat="45.7631" lon="2.87121">
        <ele>762.6</ele>
        <time>2021-08-26T09:51:01.000Z</time>
      </trkpt>
      <trkpt lat="45.76318" lon="2.87118">
        <ele>760.7</ele>
        <time>2021-08-26T09:51:07.000Z</time>
      </trkpt>
      <trkpt lat="45.76323" lon="2.87112">
        <ele>758.8</ele>
        <time>2021-08-26T09:51:13.000Z</time>
      </trkpt>
      <trkpt lat="45.7633" lon="2.87109">
        <ele>757</ele>
        <time>2021-08-26T09:51:19.000Z</time>
      </trkpt>
      <trkpt lat="45.76337" lon="2.87107">
        <ele>755.7</ele>
        <time>2021-08-26T09:51:24.000Z</time>
      </trkpt>
      <trkpt lat="45.76343" lon="2.87101">
        <ele>754.2</ele>
        <time>2021-08-26T09:51:30.000Z</time>
      </trkpt>
      <trkpt lat="45.76349" lon="2.871">
        <ele>753.6</ele>
        <time>2021-08-26T09:51:38.000Z</time>
      </trkpt>
      <trkpt lat="45.76355" lon="2.87095">
        <ele>752.4</ele>
        <time>2021-08-26T09:51:47.000Z</time>
      </trkpt>
      <trkpt lat="45.76363" lon="2.87091">
        <ele>751.3</ele>
        <time>2021-08-26T09:51:54.000Z</time>
      </trkpt>
      <trkpt lat="45.76367" lon="2.87083">
        <ele>749.9</ele>
        <time>2021-08-26T09:52:15.000Z</time>
      </trkpt>
      <trkpt lat="45.76372" lon="2.87076">
        <ele>749</ele>
        <time>2021-08-26T09:52:20.000Z</time>
      </trkpt>
      <trkpt lat="45.76378" lon="2.87076">
        <ele>748.7</ele>
        <time>2021-08-26T09:52:25.000Z</time>
      </trkpt>
      <trkpt lat="45.7638" lon="2.87085">
        <ele>749.4</ele>
        <time>2021-08-26T09:52:33.000Z</time>
      </trkpt>
      <trkpt lat="45.76385" lon="2.8709">
        <ele>749.7</ele>
        <time>2021-08-26T09:52:41.000Z</time>
      </trkpt>
      <trkpt lat="45.76392" lon="2.87091">
        <ele>749.4</ele>
        <time>2021-08-26T09:52:48.000Z</time>
      </trkpt>
      <trkpt lat="45.764" lon="2.87092">
        <ele>749</ele>
        <time>2021-08-26T09:52:59.000Z</time>
      </trkpt>
      <trkpt lat="45.76406" lon="2.8709">
        <ele>748.3</ele>
        <time>2021-08-26T09:53:06.000Z</time>
      </trkpt>
      <trkpt lat="45.76413" lon="2.87086">
        <ele>747.5</ele>
        <time>2021-08-26T09:53:14.000Z</time>
      </trkpt>
      <trkpt lat="45.7642" lon="2.87081">
        <ele>747.3</ele>
        <time>2021-08-26T09:53:20.000Z</time>
      </trkpt>
      <trkpt lat="45.76426" lon="2.87076">
        <ele>747.7</ele>
        <time>2021-08-26T09:53:28.000Z</time>
      </trkpt>
      <trkpt lat="45.76433" lon="2.87075">
        <ele>748.5</ele>
        <time>2021-08-26T09:53:46.000Z</time>
      </trkpt>
      <trkpt lat="45.7644" lon="2.87071">
        <ele>749.1</ele>
        <time>2021-08-26T09:53:58.000Z</time>
      </trkpt>
      <trkpt lat="45.76446" lon="2.87068">
        <ele>749.6</ele>
        <time>2021-08-26T09:54:06.000Z</time>
      </trkpt>
      <trkpt lat="45.76453" lon="2.87068">
        <ele>750.4</ele>
        <time>2021-08-26T09:54:13.000Z</time>
      </trkpt>
      <trkpt lat="45.7646" lon="2.87068">
        <ele>751.2</ele>
        <time>2021-08-26T09:54:20.000Z</time>
      </trkpt>
      <trkpt lat="45.76468" lon="2.87068">
        <ele>752.2</ele>
        <time>2021-08-26T09:54:26.000Z</time>
      </trkpt>
      <trkpt lat="45.76475" lon="2.87067">
        <ele>752.9</ele>
        <time>2021-08-26T09:54:36.000Z</time>
      </trkpt>
      <trkpt lat="45.76481" lon="2.87065">
        <ele>753.4</ele>
        <time>2021-08-26T09:54:46.000Z</time>
      </trkpt>
      <trkpt lat="45.76486" lon="2.87057">
        <ele>753</ele>
        <time>2021-08-26T09:54:54.000Z</time>
      </trkpt>
      <trkpt lat="45.7649" lon="2.87049">
        <ele>752.4</ele>
        <time>2021-08-26T09:55:00.000Z</time>
      </trkpt>
      <trkpt lat="45.76495" lon="2.87042">
        <ele>752.1</ele>
        <time>2021-08-26T09:55:09.000Z</time>
      </trkpt>
      <trkpt lat="45.76498" lon="2.87033">
        <ele>751.2</ele>
        <time>2021-08-26T09:55:15.000Z</time>
      </trkpt>
      <trkpt lat="45.76502" lon="2.87025">
        <ele>750.7</ele>
        <time>2021-08-26T09:55:24.000Z</time>
      </trkpt>
      <trkpt lat="45.76509" lon="2.87024">
        <ele>751.9</ele>
        <time>2021-08-26T09:56:07.000Z</time>
      </trkpt>
      <trkpt lat="45.76516" lon="2.87023">
        <ele>753.1</ele>
        <time>2021-08-26T09:56:18.000Z</time>
      </trkpt>
      <trkpt lat="45.76523" lon="2.87022">
        <ele>754.3</ele>
        <time>2021-08-26T09:56:26.000Z</time>
      </trkpt>
      <trkpt lat="45.7653" lon="2.87024">
        <ele>755.9</ele>
        <time>2021-08-26T09:56:34.000Z</time>
      </trkpt>
      <trkpt lat="45.76536" lon="2.87022">
        <ele>756.8</ele>
        <time>2021-08-26T09:56:46.000Z</time>
      </trkpt>
      <trkpt lat="45.76544" lon="2.87025">
        <ele>758.6</ele>
        <time>2021-08-26T09:56:55.000Z</time>
      </trkpt>
      <trkpt lat="45.76551" lon="2.87029">
        <ele>760.4</ele>
        <time>2021-08-26T09:57:06.000Z</time>
      </trkpt>
      <trkpt lat="45.76558" lon="2.87029">
        <ele>761.7</ele>
        <time>2021-08-26T09:57:14.000Z</time>
      </trkpt>
      <trkpt lat="45.76564" lon="2.87026">
        <ele>762.5</ele>
        <time>2021-08-26T09:57:20.000Z</time>
      </trkpt>
      <trkpt lat="45.76574" lon="2.87025">
        <ele>764.3</ele>
        <time>2021-08-26T09:57:25.000Z</time>
      </trkpt>
      <trkpt lat="45.76583" lon="2.87026">
        <ele>766.1</ele>
        <time>2021-08-26T09:57:30.000Z</time>
      </trkpt>
      <trkpt lat="45.76592" lon="2.87027">
        <ele>767.2</ele>
        <time>2021-08-26T09:57:36.000Z</time>
      </trkpt>
      <trkpt lat="45.76599" lon="2.8703">
        <ele>768.2</ele>
        <time>2021-08-26T09:57:41.000Z</time>
      </trkpt>
      <trkpt lat="45.76607" lon="2.87033">
        <ele>769.3</ele>
        <time>2021-08-26T09:57:46.000Z</time>
      </trkpt>
      <trkpt lat="45.76615" lon="2.87041">
        <ele>770.7</ele>
        <time>2021-08-26T09:57:52.000Z</time>
      </trkpt>
      <trkpt lat="45.76619" lon="2.87049">
        <ele>771.6</ele>
        <time>2021-08-26T09:57:57.000Z</time>
      </trkpt>
      <trkpt lat="45.76627" lon="2.87055">
        <ele>772.8</ele>
        <time>2021-08-26T09:58:02.000Z</time>
      </trkpt>
      <trkpt lat="45.76635" lon="2.87062">
        <ele>774</ele>
        <time>2021-08-26T09:58:08.000Z</time>
      </trkpt>
      <trkpt lat="45.76642" lon="2.87067">
        <ele>775</ele>
        <time>2021-08-26T09:58:13.000Z</time>
      </trkpt>
      <trkpt lat="45.76649" lon="2.8707">
        <ele>775.8</ele>
        <time>2021-08-26T09:58:18.000Z</time>
      </trkpt>
      <trkpt lat="45.76655" lon="2.87074">
        <ele>776.5</ele>
        <time>2021-08-26T09:58:25.000Z</time>
      </trkpt>
      <trkpt lat="45.76661" lon="2.87078">
        <ele>777.3</ele>
        <time>2021-08-26T09:58:32.000Z</time>
      </trkpt>
      <trkpt lat="45.76667" lon="2.87082">
        <ele>777.9</ele>
        <time>2021-08-26T09:58:39.000Z</time>
      </trkpt>
      <trkpt lat="45.76675" lon="2.87085">
        <ele>777.8</ele>
        <time>2021-08-26T09:58:46.000Z</time>
      </trkpt>
      <trkpt lat="45.76682" lon="2.87088">
        <ele>777.6</ele>
        <time>2021-08-26T09:58:52.000Z</time>
      </trkpt>
      <trkpt lat="45.76689" lon="2.87088">
        <ele>777.4</ele>
        <time>2021-08-26T09:58:58.000Z</time>
      </trkpt>
      <trkpt lat="45.76696" lon="2.87091">
        <ele>777.3</ele>
        <time>2021-08-26T09:59:04.000Z</time>
      </trkpt>
      <trkpt lat="45.76702" lon="2.87095">
        <ele>777.3</ele>
        <time>2021-08-26T09:59:10.000Z</time>
      </trkpt>
      <trkpt lat="45.76707" lon="2.87102">
        <ele>777.5</ele>
        <time>2021-08-26T09:59:18.000Z</time>
      </trkpt>
      <trkpt lat="45.76709" lon="2.87111">
        <ele>778</ele>
        <time>2021-08-26T09:59:26.000Z</time>
      </trkpt>
      <trkpt lat="45.76712" lon="2.87121">
        <ele>778.5</ele>
        <time>2021-08-26T09:59:32.000Z</time>
      </trkpt>
      <trkpt lat="45.76715" lon="2.8713">
        <ele>778.9</ele>
        <time>2021-08-26T09:59:38.000Z</time>
      </trkpt>
      <trkpt lat="45.76716" lon="2.87141">
        <ele>779.5</ele>
        <time>2021-08-26T09:59:44.000Z</time>
      </trkpt>
      <trkpt lat="45.76716" lon="2.87151">
        <ele>780.1</ele>
        <time>2021-08-26T09:59:49.000Z</time>
      </trkpt>
      <trkpt lat="45.76717" lon="2.87162">
        <ele>780.7</ele>
        <time>2021-08-26T09:59:55.000Z</time>
      </trkpt>
      <trkpt lat="45.7672" lon="2.87171">
        <ele>781.1</ele>
        <time>2021-08-26T10:00:03.000Z</time>
      </trkpt>
      <trkpt lat="45.76722" lon="2.87182">
        <ele>781.3</ele>
        <time>2021-08-26T10:00:11.000Z</time>
      </trkpt>
      <trkpt lat="45.76723" lon="2.87192">
        <ele>781.5</ele>
        <time>2021-08-26T10:00:16.000Z</time>
      </trkpt>
      <trkpt lat="45.76726" lon="2.87201">
        <ele>781.6</ele>
        <time>2021-08-26T10:00:22.000Z</time>
      </trkpt>
      <trkpt lat="45.7673" lon="2.87209">
        <ele>781.8</ele>
        <time>2021-08-26T10:00:28.000Z</time>
      </trkpt>
      <trkpt lat="45.76736" lon="2.87214">
        <ele>781.8</ele>
        <time>2021-08-26T10:00:36.000Z</time>
      </trkpt>
      <trkpt lat="45.76744" lon="2.87215">
        <ele>781.7</ele>
        <time>2021-08-26T10:00:41.000Z</time>
      </trkpt>
      <trkpt lat="45.76752" lon="2.87219">
        <ele>781.7</ele>
        <time>2021-08-26T10:00:46.000Z</time>
      </trkpt>
      <trkpt lat="45.76759" lon="2.87227">
        <ele>781.9</ele>
        <time>2021-08-26T10:00:52.000Z</time>
      </trkpt>
      <trkpt lat="45.76764" lon="2.87235">
        <ele>782.1</ele>
        <time>2021-08-26T10:00:57.000Z</time>
      </trkpt>
      <trkpt lat="45.76769" lon="2.87242">
        <ele>782.3</ele>
        <time>2021-08-26T10:01:02.000Z</time>
      </trkpt>
      <trkpt lat="45.76773" lon="2.87251">
        <ele>782.6</ele>
        <time>2021-08-26T10:01:09.000Z</time>
      </trkpt>
      <trkpt lat="45.76775" lon="2.8726">
        <ele>782.7</ele>
        <time>2021-08-26T10:01:15.000Z</time>
      </trkpt>
      <trkpt lat="45.76779" lon="2.87269">
        <ele>782.9</ele>
        <time>2021-08-26T10:01:23.000Z</time>
      </trkpt>
      <trkpt lat="45.76779" lon="2.87279">
        <ele>782.9</ele>
        <time>2021-08-26T10:01:28.000Z</time>
      </trkpt>
      <trkpt lat="45.76786" lon="2.87293">
        <ele>783.3</ele>
        <time>2021-08-26T10:04:45.000Z</time>
      </trkpt>
      <trkpt lat="45.76792" lon="2.87294">
        <ele>783.5</ele>
        <time>2021-08-26T10:04:54.000Z</time>
      </trkpt>
      <trkpt lat="45.76799" lon="2.87295">
        <ele>783.8</ele>
        <time>2021-08-26T10:05:06.000Z</time>
      </trkpt>
      <trkpt lat="45.76805" lon="2.87291">
        <ele>784</ele>
        <time>2021-08-26T10:05:12.000Z</time>
      </trkpt>
      <trkpt lat="45.76812" lon="2.87287">
        <ele>784.1</ele>
        <time>2021-08-26T10:05:19.000Z</time>
      </trkpt>
      <trkpt lat="45.76819" lon="2.87287">
        <ele>784.4</ele>
        <time>2021-08-26T10:05:24.000Z</time>
      </trkpt>
      <trkpt lat="45.76826" lon="2.87286">
        <ele>784.6</ele>
        <time>2021-08-26T10:05:33.000Z</time>
      </trkpt>
      <trkpt lat="45.76833" lon="2.87288">
        <ele>784.9</ele>
        <time>2021-08-26T10:05:39.000Z</time>
      </trkpt>
      <trkpt lat="45.7684" lon="2.87293">
        <ele>785.3</ele>
        <time>2021-08-26T10:05:45.000Z</time>
      </trkpt>
      <trkpt lat="45.76845" lon="2.87298">
        <ele>785.7</ele>
        <time>2021-08-26T10:05:51.000Z</time>
      </trkpt>
      <trkpt lat="45.76852" lon="2.873">
        <ele>786.1</ele>
        <time>2021-08-26T10:05:56.000Z</time>
      </trkpt>
      <trkpt lat="45.76859" lon="2.87296">
        <ele>786.3</ele>
        <time>2021-08-26T10:06:03.000Z</time>
      </trkpt>
      <trkpt lat="45.76865" lon="2.87299">
        <ele>786.6</ele>
        <time>2021-08-26T10:06:09.000Z</time>
      </trkpt>
      <trkpt lat="45.76872" lon="2.87302">
        <ele>787</ele>
        <time>2021-08-26T10:06:14.000Z</time>
      </trkpt>
      <trkpt lat="45.76879" lon="2.87306">
        <ele>787.3</ele>
        <time>2021-08-26T10:06:20.000Z</time>
      </trkpt>
      <trkpt lat="45.76886" lon="2.87307">
        <ele>787.7</ele>
        <time>2021-08-26T10:06:26.000Z</time>
      </trkpt>
      <trkpt lat="45.76893" lon="2.87309">
        <ele>788</ele>
        <time>2021-08-26T10:06:32.000Z</time>
      </trkpt>
      <trkpt lat="45.76901" lon="2.87305">
        <ele>788.3</ele>
        <time>2021-08-26T10:06:39.000Z</time>
      </trkpt>
      <trkpt lat="45.76908" lon="2.87305">
        <ele>788.6</ele>
        <time>2021-08-26T10:06:46.000Z</time>
      </trkpt>
      <trkpt lat="45.76915" lon="2.87307">
        <ele>788.9</ele>
        <time>2021-08-26T10:06:53.000Z</time>
      </trkpt>
      <trkpt lat="45.76922" lon="2.87309">
        <ele>789.1</ele>
        <time>2021-08-26T10:06:59.000Z</time>
      </trkpt>
      <trkpt lat="45.76928" lon="2.87313">
        <ele>789.2</ele>
        <time>2021-08-26T10:07:04.000Z</time>
      </trkpt>
      <trkpt lat="45.76935" lon="2.87317">
        <ele>789.4</ele>
        <time>2021-08-26T10:07:12.000Z</time>
      </trkpt>
      <trkpt lat="45.76942" lon="2.8732">
        <ele>789.5</ele>
        <time>2021-08-26T10:07:18.000Z</time>
      </trkpt>
      <trkpt lat="45.76947" lon="2.87326">
        <ele>789.7</ele>
        <time>2021-08-26T10:07:24.000Z</time>
      </trkpt>
      <trkpt lat="45.76954" lon="2.87332">
        <ele>789.9</ele>
        <time>2021-08-26T10:07:30.000Z</time>
      </trkpt>
      <trkpt lat="45.76958" lon="2.87339">
        <ele>789.9</ele>
        <time>2021-08-26T10:07:40.000Z</time>
      </trkpt>
      <trkpt lat="45.76963" lon="2.87346">
        <ele>790</ele>
        <time>2021-08-26T10:07:46.000Z</time>
      </trkpt>
      <trkpt lat="45.76969" lon="2.87352">
        <ele>790</ele>
        <time>2021-08-26T10:07:52.000Z</time>
      </trkpt>
      <trkpt lat="45.76974" lon="2.87358">
        <ele>790.1</ele>
        <time>2021-08-26T10:08:00.000Z</time>
      </trkpt>
      <trkpt lat="45.76981" lon="2.8736">
        <ele>790.2</ele>
        <time>2021-08-26T10:08:18.000Z</time>
      </trkpt>
      <trkpt lat="45.76989" lon="2.87362">
        <ele>790.4</ele>
        <time>2021-08-26T10:08:24.000Z</time>
      </trkpt>
      <trkpt lat="45.76995" lon="2.87359">
        <ele>790.6</ele>
        <time>2021-08-26T10:08:29.000Z</time>
      </trkpt>
      <trkpt lat="45.77002" lon="2.87357">
        <ele>790.7</ele>
        <time>2021-08-26T10:08:34.000Z</time>
      </trkpt>
      <trkpt lat="45.7701" lon="2.87351">
        <ele>790.6</ele>
        <time>2021-08-26T10:08:40.000Z</time>
      </trkpt>
      <trkpt lat="45.77014" lon="2.87344">
        <ele>790.6</ele>
        <time>2021-08-26T10:08:45.000Z</time>
      </trkpt>
      <trkpt lat="45.77018" lon="2.87336">
        <ele>790.6</ele>
        <time>2021-08-26T10:08:52.000Z</time>
      </trkpt>
      <trkpt lat="45.77023" lon="2.87327">
        <ele>790.3</ele>
        <time>2021-08-26T10:08:58.000Z</time>
      </trkpt>
      <trkpt lat="45.77028" lon="2.87318">
        <ele>789.9</ele>
        <time>2021-08-26T10:09:04.000Z</time>
      </trkpt>
      <trkpt lat="45.77031" lon="2.87309">
        <ele>789.6</ele>
        <time>2021-08-26T10:09:09.000Z</time>
      </trkpt>
      <trkpt lat="45.77034" lon="2.873">
        <ele>789.2</ele>
        <time>2021-08-26T10:09:15.000Z</time>
      </trkpt>
      <trkpt lat="45.77038" lon="2.87291">
        <ele>788.8</ele>
        <time>2021-08-26T10:09:21.000Z</time>
      </trkpt>
      <trkpt lat="45.77042" lon="2.87282">
        <ele>788.4</ele>
        <time>2021-08-26T10:09:27.000Z</time>
      </trkpt>
      <trkpt lat="45.77048" lon="2.87278">
        <ele>788.1</ele>
        <time>2021-08-26T10:09:35.000Z</time>
      </trkpt>
      <trkpt lat="45.77053" lon="2.87271">
        <ele>787.8</ele>
        <time>2021-08-26T10:09:42.000Z</time>
      </trkpt>
      <trkpt lat="45.77058" lon="2.87263">
        <ele>787.3</ele>
        <time>2021-08-26T10:09:49.000Z</time>
      </trkpt>
      <trkpt lat="45.77065" lon="2.87259">
        <ele>787</ele>
        <time>2021-08-26T10:10:04.000Z</time>
      </trkpt>
      <trkpt lat="45.7707" lon="2.87251">
        <ele>786.5</ele>
        <time>2021-08-26T10:10:10.000Z</time>
      </trkpt>
      <trkpt lat="45.77076" lon="2.87243">
        <ele>785.5</ele>
        <time>2021-08-26T10:10:16.000Z</time>
      </trkpt>
      <trkpt lat="45.77082" lon="2.87234">
        <ele>784.3</ele>
        <time>2021-08-26T10:10:21.000Z</time>
      </trkpt>
      <trkpt lat="45.77088" lon="2.87229">
        <ele>783.6</ele>
        <time>2021-08-26T10:10:27.000Z</time>
      </trkpt>
      <trkpt lat="45.77093" lon="2.87223">
        <ele>782.8</ele>
        <time>2021-08-26T10:10:33.000Z</time>
      </trkpt>
      <trkpt lat="45.77099" lon="2.87217">
        <ele>782</ele>
        <time>2021-08-26T10:10:40.000Z</time>
      </trkpt>
      <trkpt lat="45.77104" lon="2.87211">
        <ele>781.3</ele>
        <time>2021-08-26T10:10:45.000Z</time>
      </trkpt>
      <trkpt lat="45.7711" lon="2.87206">
        <ele>780.6</ele>
        <time>2021-08-26T10:10:50.000Z</time>
      </trkpt>
      <trkpt lat="45.77118" lon="2.87198">
        <ele>779.8</ele>
        <time>2021-08-26T10:10:56.000Z</time>
      </trkpt>
      <trkpt lat="45.77125" lon="2.87192">
        <ele>779.1</ele>
        <time>2021-08-26T10:11:02.000Z</time>
      </trkpt>
      <trkpt lat="45.77132" lon="2.8718">
        <ele>778.1</ele>
        <time>2021-08-26T10:11:08.000Z</time>
      </trkpt>
      <trkpt lat="45.77137" lon="2.87173">
        <ele>777.5</ele>
        <time>2021-08-26T10:11:13.000Z</time>
      </trkpt>
      <trkpt lat="45.77138" lon="2.87163">
        <ele>776.5</ele>
        <time>2021-08-26T10:11:21.000Z</time>
      </trkpt>
      <trkpt lat="45.7714" lon="2.87151">
        <ele>774.7</ele>
        <time>2021-08-26T10:11:26.000Z</time>
      </trkpt>
      <trkpt lat="45.77143" lon="2.87138">
        <ele>772.9</ele>
        <time>2021-08-26T10:11:32.000Z</time>
      </trkpt>
      <trkpt lat="45.77149" lon="2.87134">
        <ele>772.5</ele>
        <time>2021-08-26T10:11:40.000Z</time>
      </trkpt>
      <trkpt lat="45.77155" lon="2.87132">
        <ele>772.4</ele>
        <time>2021-08-26T10:11:49.000Z</time>
      </trkpt>
      <trkpt lat="45.77161" lon="2.87126">
        <ele>771.9</ele>
        <time>2021-08-26T10:11:59.000Z</time>
      </trkpt>
      <trkpt lat="45.77164" lon="2.87117">
        <ele>770.9</ele>
        <time>2021-08-26T10:12:04.000Z</time>
      </trkpt>
      <trkpt lat="45.77167" lon="2.87107">
        <ele>769.8</ele>
        <time>2021-08-26T10:12:09.000Z</time>
      </trkpt>
      <trkpt lat="45.77168" lon="2.87096">
        <ele>768.6</ele>
        <time>2021-08-26T10:12:14.000Z</time>
      </trkpt>
      <trkpt lat="45.77172" lon="2.87085">
        <ele>767.4</ele>
        <time>2021-08-26T10:12:20.000Z</time>
      </trkpt>
      <trkpt lat="45.77176" lon="2.87077">
        <ele>766.4</ele>
        <time>2021-08-26T10:12:25.000Z</time>
      </trkpt>
      <trkpt lat="45.7718" lon="2.87068">
        <ele>765.3</ele>
        <time>2021-08-26T10:12:31.000Z</time>
      </trkpt>
      <trkpt lat="45.77185" lon="2.8706">
        <ele>764.4</ele>
        <time>2021-08-26T10:12:37.000Z</time>
      </trkpt>
      <trkpt lat="45.7719" lon="2.87054">
        <ele>763.9</ele>
        <time>2021-08-26T10:12:44.000Z</time>
      </trkpt>
      <trkpt lat="45.77196" lon="2.87049">
        <ele>763.7</ele>
        <time>2021-08-26T10:12:50.000Z</time>
      </trkpt>
      <trkpt lat="45.77204" lon="2.87038">
        <ele>762.9</ele>
        <time>2021-08-26T10:12:56.000Z</time>
      </trkpt>
      <trkpt lat="45.77208" lon="2.87031">
        <ele>762.4</ele>
        <time>2021-08-26T10:13:02.000Z</time>
      </trkpt>
      <trkpt lat="45.7721" lon="2.87021">
        <ele>761.3</ele>
        <time>2021-08-26T10:13:08.000Z</time>
      </trkpt>
      <trkpt lat="45.77213" lon="2.87012">
        <ele>760.6</ele>
        <time>2021-08-26T10:13:13.000Z</time>
      </trkpt>
      <trkpt lat="45.77217" lon="2.86998">
        <ele>759.4</ele>
        <time>2021-08-26T10:13:18.000Z</time>
      </trkpt>
      <trkpt lat="45.77223" lon="2.86989">
        <ele>759.1</ele>
        <time>2021-08-26T10:13:24.000Z</time>
      </trkpt>
      <trkpt lat="45.77229" lon="2.86983">
        <ele>759.1</ele>
        <time>2021-08-26T10:13:29.000Z</time>
      </trkpt>
      <trkpt lat="45.77234" lon="2.86974">
        <ele>758.6</ele>
        <time>2021-08-26T10:13:34.000Z</time>
      </trkpt>
      <trkpt lat="45.7724" lon="2.86953">
        <ele>756.6</ele>
        <time>2021-08-26T10:13:40.000Z</time>
      </trkpt>
      <trkpt lat="45.77243" lon="2.86937">
        <ele>754.9</ele>
        <time>2021-08-26T10:13:45.000Z</time>
      </trkpt>
      <trkpt lat="45.77247" lon="2.86929">
        <ele>754.3</ele>
        <time>2021-08-26T10:13:51.000Z</time>
      </trkpt>
      <trkpt lat="45.77248" lon="2.86917">
        <ele>752.8</ele>
        <time>2021-08-26T10:13:56.000Z</time>
      </trkpt>
      <trkpt lat="45.77248" lon="2.86904">
        <ele>751.4</ele>
        <time>2021-08-26T10:14:01.000Z</time>
      </trkpt>
      <trkpt lat="45.77248" lon="2.86892">
        <ele>750.2</ele>
        <time>2021-08-26T10:14:06.000Z</time>
      </trkpt>
      <trkpt lat="45.77249" lon="2.8688">
        <ele>749</ele>
        <time>2021-08-26T10:14:12.000Z</time>
      </trkpt>
      <trkpt lat="45.77252" lon="2.86871">
        <ele>748.2</ele>
        <time>2021-08-26T10:14:18.000Z</time>
      </trkpt>
      <trkpt lat="45.77251" lon="2.86862">
        <ele>747.2</ele>
        <time>2021-08-26T10:14:39.000Z</time>
      </trkpt>
      <trkpt lat="45.77253" lon="2.86853">
        <ele>746.3</ele>
        <time>2021-08-26T10:15:11.000Z</time>
      </trkpt>
      <trkpt lat="45.77255" lon="2.86843">
        <ele>745.3</ele>
        <time>2021-08-26T10:15:20.000Z</time>
      </trkpt>
      <trkpt lat="45.7726" lon="2.86836">
        <ele>744.9</ele>
        <time>2021-08-26T10:15:25.000Z</time>
      </trkpt>
      <trkpt lat="45.77263" lon="2.86827">
        <ele>744.6</ele>
        <time>2021-08-26T10:15:31.000Z</time>
      </trkpt>
      <trkpt lat="45.77264" lon="2.86817">
        <ele>744.4</ele>
        <time>2021-08-26T10:15:36.000Z</time>
      </trkpt>
      <trkpt lat="45.77266" lon="2.86808">
        <ele>744.4</ele>
        <time>2021-08-26T10:15:41.000Z</time>
      </trkpt>
      <trkpt lat="45.77267" lon="2.86798">
        <ele>744.2</ele>
        <time>2021-08-26T10:15:49.000Z</time>
      </trkpt>
      <trkpt lat="45.77273" lon="2.86791">
        <ele>744.4</ele>
        <time>2021-08-26T10:15:56.000Z</time>
      </trkpt>
      <trkpt lat="45.77277" lon="2.86782">
        <ele>744.4</ele>
        <time>2021-08-26T10:16:03.000Z</time>
      </trkpt>
      <trkpt lat="45.7728" lon="2.86771">
        <ele>744.3</ele>
        <time>2021-08-26T10:16:08.000Z</time>
      </trkpt>
      <trkpt lat="45.77281" lon="2.86761">
        <ele>744.1</ele>
        <time>2021-08-26T10:16:13.000Z</time>
      </trkpt>
      <trkpt lat="45.77282" lon="2.8675">
        <ele>743.9</ele>
        <time>2021-08-26T10:16:18.000Z</time>
      </trkpt>
      <trkpt lat="45.77284" lon="2.86737">
        <ele>744</ele>
        <time>2021-08-26T10:16:24.000Z</time>
      </trkpt>
      <trkpt lat="45.77282" lon="2.86726">
        <ele>743.8</ele>
        <time>2021-08-26T10:16:29.000Z</time>
      </trkpt>
      <trkpt lat="45.77285" lon="2.86717">
        <ele>743.9</ele>
        <time>2021-08-26T10:16:35.000Z</time>
      </trkpt>
      <trkpt lat="45.77286" lon="2.86706">
        <ele>743.9</ele>
        <time>2021-08-26T10:16:41.000Z</time>
      </trkpt>
      <trkpt lat="45.77289" lon="2.86697">
        <ele>744</ele>
        <time>2021-08-26T10:16:48.000Z</time>
      </trkpt>
      <trkpt lat="45.7729" lon="2.86686">
        <ele>744</ele>
        <time>2021-08-26T10:16:54.000Z</time>
      </trkpt>
      <trkpt lat="45.77291" lon="2.86677">
        <ele>744</ele>
        <time>2021-08-26T10:17:00.000Z</time>
      </trkpt>
      <trkpt lat="45.77292" lon="2.86664">
        <ele>744</ele>
        <time>2021-08-26T10:17:05.000Z</time>
      </trkpt>
      <trkpt lat="45.7729" lon="2.86649">
        <ele>743.8</ele>
        <time>2021-08-26T10:17:10.000Z</time>
      </trkpt>
      <trkpt lat="45.77289" lon="2.86638">
        <ele>743.7</ele>
        <time>2021-08-26T10:17:45.000Z</time>
      </trkpt>
      <trkpt lat="45.77289" lon="2.86628">
        <ele>743.7</ele>
        <time>2021-08-26T10:17:52.000Z</time>
      </trkpt>
      <trkpt lat="45.77286" lon="2.86616">
        <ele>743.5</ele>
        <time>2021-08-26T10:17:57.000Z</time>
      </trkpt>
      <trkpt lat="45.77285" lon="2.86606">
        <ele>743.4</ele>
        <time>2021-08-26T10:18:02.000Z</time>
      </trkpt>
      <trkpt lat="45.77284" lon="2.86594">
        <ele>743.3</ele>
        <time>2021-08-26T10:18:08.000Z</time>
      </trkpt>
      <trkpt lat="45.77284" lon="2.86583">
        <ele>743.2</ele>
        <time>2021-08-26T10:18:14.000Z</time>
      </trkpt>
      <trkpt lat="45.77285" lon="2.8657">
        <ele>743.9</ele>
        <time>2021-08-26T10:18:20.000Z</time>
      </trkpt>
      <trkpt lat="45.77283" lon="2.86561">
        <ele>744.3</ele>
        <time>2021-08-26T10:18:25.000Z</time>
      </trkpt>
      <trkpt lat="45.77282" lon="2.86551">
        <ele>744.7</ele>
        <time>2021-08-26T10:18:32.000Z</time>
      </trkpt>
      <trkpt lat="45.77285" lon="2.86543">
        <ele>745.1</ele>
        <time>2021-08-26T10:18:41.000Z</time>
      </trkpt>
      <trkpt lat="45.7729" lon="2.86535">
        <ele>745.5</ele>
        <time>2021-08-26T10:18:47.000Z</time>
      </trkpt>
      <trkpt lat="45.77294" lon="2.86528">
        <ele>745.8</ele>
        <time>2021-08-26T10:18:52.000Z</time>
      </trkpt>
      <trkpt lat="45.77299" lon="2.8652">
        <ele>746.1</ele>
        <time>2021-08-26T10:18:58.000Z</time>
      </trkpt>
      <trkpt lat="45.77304" lon="2.86511">
        <ele>746.3</ele>
        <time>2021-08-26T10:19:05.000Z</time>
      </trkpt>
      <trkpt lat="45.77308" lon="2.86501">
        <ele>746.6</ele>
        <time>2021-08-26T10:19:11.000Z</time>
      </trkpt>
      <trkpt lat="45.77311" lon="2.86491">
        <ele>747.2</ele>
        <time>2021-08-26T10:19:16.000Z</time>
      </trkpt>
      <trkpt lat="45.77317" lon="2.86487">
        <ele>747.3</ele>
        <time>2021-08-26T10:19:48.000Z</time>
      </trkpt>
      <trkpt lat="45.77321" lon="2.86478">
        <ele>747.7</ele>
        <time>2021-08-26T10:20:03.000Z</time>
      </trkpt>
      <trkpt lat="45.77322" lon="2.86467">
        <ele>748.4</ele>
        <time>2021-08-26T10:20:12.000Z</time>
      </trkpt>
      <trkpt lat="45.77324" lon="2.86459">
        <ele>748.8</ele>
        <time>2021-08-26T10:20:19.000Z</time>
      </trkpt>
      <trkpt lat="45.77328" lon="2.86449">
        <ele>749.3</ele>
        <time>2021-08-26T10:20:26.000Z</time>
      </trkpt>
      <trkpt lat="45.77332" lon="2.86442">
        <ele>749.5</ele>
        <time>2021-08-26T10:20:33.000Z</time>
      </trkpt>
      <trkpt lat="45.77338" lon="2.86435">
        <ele>750</ele>
        <time>2021-08-26T10:20:41.000Z</time>
      </trkpt>
      <trkpt lat="45.77343" lon="2.86429">
        <ele>750.5</ele>
        <time>2021-08-26T10:20:48.000Z</time>
      </trkpt>
      <trkpt lat="45.7735" lon="2.86425">
        <ele>751</ele>
        <time>2021-08-26T10:20:56.000Z</time>
      </trkpt>
      <trkpt lat="45.77357" lon="2.86424">
        <ele>751.2</ele>
        <time>2021-08-26T10:21:04.000Z</time>
      </trkpt>
      <trkpt lat="45.77364" lon="2.86426">
        <ele>751.3</ele>
        <time>2021-08-26T10:21:11.000Z</time>
      </trkpt>
      <trkpt lat="45.7737" lon="2.86421">
        <ele>751.7</ele>
        <time>2021-08-26T10:21:17.000Z</time>
      </trkpt>
      <trkpt lat="45.77377" lon="2.8642">
        <ele>751.9</ele>
        <time>2021-08-26T10:21:24.000Z</time>
      </trkpt>
      <trkpt lat="45.77384" lon="2.86421">
        <ele>752.1</ele>
        <time>2021-08-26T10:21:31.000Z</time>
      </trkpt>
      <trkpt lat="45.77391" lon="2.86421">
        <ele>752.2</ele>
        <time>2021-08-26T10:21:38.000Z</time>
      </trkpt>
      <trkpt lat="45.77399" lon="2.86423">
        <ele>752.4</ele>
        <time>2021-08-26T10:21:44.000Z</time>
      </trkpt>
      <trkpt lat="45.77406" lon="2.86421">
        <ele>752.6</ele>
        <time>2021-08-26T10:21:51.000Z</time>
      </trkpt>
      <trkpt lat="45.77413" lon="2.86419">
        <ele>752.9</ele>
        <time>2021-08-26T10:21:59.000Z</time>
      </trkpt>
      <trkpt lat="45.77419" lon="2.86419">
        <ele>753.2</ele>
        <time>2021-08-26T10:22:07.000Z</time>
      </trkpt>
      <trkpt lat="45.77426" lon="2.86419">
        <ele>754</ele>
        <time>2021-08-26T10:22:17.000Z</time>
      </trkpt>
      <trkpt lat="45.77433" lon="2.8642">
        <ele>754.7</ele>
        <time>2021-08-26T10:22:23.000Z</time>
      </trkpt>
      <trkpt lat="45.7744" lon="2.86419">
        <ele>755.5</ele>
        <time>2021-08-26T10:22:28.000Z</time>
      </trkpt>
      <trkpt lat="45.77447" lon="2.86419">
        <ele>756.3</ele>
        <time>2021-08-26T10:22:33.000Z</time>
      </trkpt>
      <trkpt lat="45.77454" lon="2.86417">
        <ele>757</ele>
        <time>2021-08-26T10:22:39.000Z</time>
      </trkpt>
      <trkpt lat="45.77461" lon="2.86415">
        <ele>757.7</ele>
        <time>2021-08-26T10:22:46.000Z</time>
      </trkpt>
      <trkpt lat="45.77468" lon="2.86412">
        <ele>758.4</ele>
        <time>2021-08-26T10:22:52.000Z</time>
      </trkpt>
      <trkpt lat="45.77474" lon="2.86406">
        <ele>758.8</ele>
        <time>2021-08-26T10:22:58.000Z</time>
      </trkpt>
      <trkpt lat="45.7748" lon="2.86401">
        <ele>759.2</ele>
        <time>2021-08-26T10:23:04.000Z</time>
      </trkpt>
      <trkpt lat="45.77486" lon="2.86397">
        <ele>759.7</ele>
        <time>2021-08-26T10:23:10.000Z</time>
      </trkpt>
      <trkpt lat="45.77492" lon="2.86393">
        <ele>760.1</ele>
        <time>2021-08-26T10:23:16.000Z</time>
      </trkpt>
      <trkpt lat="45.77498" lon="2.86387">
        <ele>760.4</ele>
        <time>2021-08-26T10:23:22.000Z</time>
      </trkpt>
      <trkpt lat="45.77504" lon="2.86377">
        <ele>760.4</ele>
        <time>2021-08-26T10:23:28.000Z</time>
      </trkpt>
      <trkpt lat="45.7751" lon="2.8637">
        <ele>760.5</ele>
        <time>2021-08-26T10:23:33.000Z</time>
      </trkpt>
      <trkpt lat="45.77516" lon="2.8636">
        <ele>760.4</ele>
        <time>2021-08-26T10:23:38.000Z</time>
      </trkpt>
      <trkpt lat="45.77524" lon="2.86347">
        <ele>760.2</ele>
        <time>2021-08-26T10:23:44.000Z</time>
      </trkpt>
      <trkpt lat="45.77531" lon="2.8634">
        <ele>760.2</ele>
        <time>2021-08-26T10:23:49.000Z</time>
      </trkpt>
      <trkpt lat="45.77536" lon="2.86333">
        <ele>760.2</ele>
        <time>2021-08-26T10:23:54.000Z</time>
      </trkpt>
      <trkpt lat="45.77543" lon="2.86322">
        <ele>761.2</ele>
        <time>2021-08-26T10:24:00.000Z</time>
      </trkpt>
      <trkpt lat="45.77548" lon="2.86316">
        <ele>761.8</ele>
        <time>2021-08-26T10:24:05.000Z</time>
      </trkpt>
      <trkpt lat="45.77554" lon="2.86307">
        <ele>762.6</ele>
        <time>2021-08-26T10:24:11.000Z</time>
      </trkpt>
      <trkpt lat="45.77561" lon="2.86299">
        <ele>763.4</ele>
        <time>2021-08-26T10:24:16.000Z</time>
      </trkpt>
      <trkpt lat="45.77562" lon="2.86289">
        <ele>764</ele>
        <time>2021-08-26T10:24:49.000Z</time>
      </trkpt>
      <trkpt lat="45.77566" lon="2.86279">
        <ele>764.7</ele>
        <time>2021-08-26T10:24:55.000Z</time>
      </trkpt>
      <trkpt lat="45.77572" lon="2.86272">
        <ele>765.4</ele>
        <time>2021-08-26T10:25:00.000Z</time>
      </trkpt>
      <trkpt lat="45.77578" lon="2.86267">
        <ele>765.9</ele>
        <time>2021-08-26T10:25:06.000Z</time>
      </trkpt>
      <trkpt lat="45.77585" lon="2.86266">
        <ele>766.3</ele>
        <time>2021-08-26T10:25:13.000Z</time>
      </trkpt>
      <trkpt lat="45.77591" lon="2.86263">
        <ele>766.5</ele>
        <time>2021-08-26T10:25:19.000Z</time>
      </trkpt>
      <trkpt lat="45.77601" lon="2.86261">
        <ele>766.9</ele>
        <time>2021-08-26T10:25:24.000Z</time>
      </trkpt>
      <trkpt lat="45.7761" lon="2.86258">
        <ele>767.2</ele>
        <time>2021-08-26T10:25:29.000Z</time>
      </trkpt>
      <trkpt lat="45.7762" lon="2.86256">
        <ele>767.6</ele>
        <time>2021-08-26T10:25:34.000Z</time>
      </trkpt>
      <trkpt lat="45.77629" lon="2.86251">
        <ele>768</ele>
        <time>2021-08-26T10:25:40.000Z</time>
      </trkpt>
      <trkpt lat="45.77636" lon="2.86249">
        <ele>768.3</ele>
        <time>2021-08-26T10:25:45.000Z</time>
      </trkpt>
      <trkpt lat="45.77644" lon="2.86248">
        <ele>768.5</ele>
        <time>2021-08-26T10:25:50.000Z</time>
      </trkpt>
      <trkpt lat="45.77651" lon="2.86243">
        <ele>768.7</ele>
        <time>2021-08-26T10:25:56.000Z</time>
      </trkpt>
      <trkpt lat="45.77657" lon="2.86236">
        <ele>768.7</ele>
        <time>2021-08-26T10:26:01.000Z</time>
      </trkpt>
      <trkpt lat="45.77663" lon="2.86231">
        <ele>768.8</ele>
        <time>2021-08-26T10:26:07.000Z</time>
      </trkpt>
      <trkpt lat="45.77669" lon="2.86225">
        <ele>768.7</ele>
        <time>2021-08-26T10:26:13.000Z</time>
      </trkpt>
      <trkpt lat="45.77676" lon="2.86219">
        <ele>768.6</ele>
        <time>2021-08-26T10:26:19.000Z</time>
      </trkpt>
      <trkpt lat="45.77679" lon="2.86208">
        <ele>768.4</ele>
        <time>2021-08-26T10:26:24.000Z</time>
      </trkpt>
      <trkpt lat="45.77685" lon="2.86201">
        <ele>768.2</ele>
        <time>2021-08-26T10:26:29.000Z</time>
      </trkpt>
      <trkpt lat="45.77692" lon="2.86198">
        <ele>768.1</ele>
        <time>2021-08-26T10:26:36.000Z</time>
      </trkpt>
      <trkpt lat="45.77699" lon="2.86194">
        <ele>767.9</ele>
        <time>2021-08-26T10:26:41.000Z</time>
      </trkpt>
      <trkpt lat="45.77706" lon="2.86192">
        <ele>767.8</ele>
        <time>2021-08-26T10:26:47.000Z</time>
      </trkpt>
      <trkpt lat="45.77714" lon="2.86193">
        <ele>767.7</ele>
        <time>2021-08-26T10:26:53.000Z</time>
      </trkpt>
      <trkpt lat="45.7772" lon="2.86187">
        <ele>767.4</ele>
        <time>2021-08-26T10:26:59.000Z</time>
      </trkpt>
      <trkpt lat="45.77725" lon="2.86178">
        <ele>767</ele>
        <time>2021-08-26T10:27:04.000Z</time>
      </trkpt>
      <trkpt lat="45.77731" lon="2.86171">
        <ele>766.6</ele>
        <time>2021-08-26T10:27:09.000Z</time>
      </trkpt>
      <trkpt lat="45.7774" lon="2.86167">
        <ele>766.3</ele>
        <time>2021-08-26T10:27:14.000Z</time>
      </trkpt>
      <trkpt lat="45.77749" lon="2.86161">
        <ele>766</ele>
        <time>2021-08-26T10:27:20.000Z</time>
      </trkpt>
      <trkpt lat="45.77755" lon="2.86156">
        <ele>765.8</ele>
        <time>2021-08-26T10:27:25.000Z</time>
      </trkpt>
      <trkpt lat="45.77761" lon="2.86149">
        <ele>765.6</ele>
        <time>2021-08-26T10:27:30.000Z</time>
      </trkpt>
      <trkpt lat="45.77767" lon="2.86145">
        <ele>765.5</ele>
        <time>2021-08-26T10:27:36.000Z</time>
      </trkpt>
      <trkpt lat="45.77774" lon="2.86142">
        <ele>765.4</ele>
        <time>2021-08-26T10:27:41.000Z</time>
      </trkpt>
      <trkpt lat="45.7778" lon="2.86138">
        <ele>765.3</ele>
        <time>2021-08-26T10:27:46.000Z</time>
      </trkpt>
      <trkpt lat="45.77788" lon="2.86131">
        <ele>765.2</ele>
        <time>2021-08-26T10:27:52.000Z</time>
      </trkpt>
      <trkpt lat="45.77795" lon="2.86126">
        <ele>765.2</ele>
        <time>2021-08-26T10:27:57.000Z</time>
      </trkpt>
      <trkpt lat="45.778" lon="2.86118">
        <ele>765.3</ele>
        <time>2021-08-26T10:28:02.000Z</time>
      </trkpt>
      <trkpt lat="45.77806" lon="2.86112">
        <ele>765.3</ele>
        <time>2021-08-26T10:28:08.000Z</time>
      </trkpt>
      <trkpt lat="45.7781" lon="2.86102">
        <ele>765.5</ele>
        <time>2021-08-26T10:28:13.000Z</time>
      </trkpt>
      <trkpt lat="45.77818" lon="2.86098">
        <ele>765.6</ele>
        <time>2021-08-26T10:28:18.000Z</time>
      </trkpt>
      <trkpt lat="45.77825" lon="2.86093">
        <ele>765.7</ele>
        <time>2021-08-26T10:28:24.000Z</time>
      </trkpt>
      <trkpt lat="45.77832" lon="2.8609">
        <ele>765.8</ele>
        <time>2021-08-26T10:28:30.000Z</time>
      </trkpt>
      <trkpt lat="45.77839" lon="2.86086">
        <ele>765.9</ele>
        <time>2021-08-26T10:28:36.000Z</time>
      </trkpt>
      <trkpt lat="45.77846" lon="2.86081">
        <ele>765.9</ele>
        <time>2021-08-26T10:28:41.000Z</time>
      </trkpt>
      <trkpt lat="45.77852" lon="2.86078">
        <ele>765.8</ele>
        <time>2021-08-26T10:28:46.000Z</time>
      </trkpt>
      <trkpt lat="45.7786" lon="2.86076">
        <ele>765.7</ele>
        <time>2021-08-26T10:28:52.000Z</time>
      </trkpt>
      <trkpt lat="45.77869" lon="2.86074">
        <ele>765.5</ele>
        <time>2021-08-26T10:28:57.000Z</time>
      </trkpt>
      <trkpt lat="45.77877" lon="2.86075">
        <ele>765.4</ele>
        <time>2021-08-26T10:29:03.000Z</time>
      </trkpt>
      <trkpt lat="45.77885" lon="2.86076">
        <ele>765.2</ele>
        <time>2021-08-26T10:29:08.000Z</time>
      </trkpt>
      <trkpt lat="45.77891" lon="2.86075">
        <ele>765.1</ele>
        <time>2021-08-26T10:29:15.000Z</time>
      </trkpt>
      <trkpt lat="45.77897" lon="2.8607">
        <ele>764.8</ele>
        <time>2021-08-26T10:29:21.000Z</time>
      </trkpt>
      <trkpt lat="45.77904" lon="2.86068">
        <ele>764.6</ele>
        <time>2021-08-26T10:29:27.000Z</time>
      </trkpt>
      <trkpt lat="45.7791" lon="2.86065">
        <ele>764.3</ele>
        <time>2021-08-26T10:29:33.000Z</time>
      </trkpt>
      <trkpt lat="45.77918" lon="2.86058">
        <ele>763.7</ele>
        <time>2021-08-26T10:29:38.000Z</time>
      </trkpt>
      <trkpt lat="45.77927" lon="2.86052">
        <ele>763</ele>
        <time>2021-08-26T10:29:44.000Z</time>
      </trkpt>
      <trkpt lat="45.77934" lon="2.8605">
        <ele>762.6</ele>
        <time>2021-08-26T10:29:49.000Z</time>
      </trkpt>
      <trkpt lat="45.77941" lon="2.86048">
        <ele>762.2</ele>
        <time>2021-08-26T10:29:54.000Z</time>
      </trkpt>
      <trkpt lat="45.77951" lon="2.86046">
        <ele>761.6</ele>
        <time>2021-08-26T10:30:00.000Z</time>
      </trkpt>
      <trkpt lat="45.77957" lon="2.86043">
        <ele>761.1</ele>
        <time>2021-08-26T10:30:06.000Z</time>
      </trkpt>
      <trkpt lat="45.77964" lon="2.86039">
        <ele>760.6</ele>
        <time>2021-08-26T10:30:12.000Z</time>
      </trkpt>
      <trkpt lat="45.77971" lon="2.86035">
        <ele>760</ele>
        <time>2021-08-26T10:30:18.000Z</time>
      </trkpt>
      <trkpt lat="45.77979" lon="2.86031">
        <ele>759.3</ele>
        <time>2021-08-26T10:30:24.000Z</time>
      </trkpt>
      <trkpt lat="45.77985" lon="2.86027">
        <ele>758.7</ele>
        <time>2021-08-26T10:30:30.000Z</time>
      </trkpt>
      <trkpt lat="45.77995" lon="2.86022">
        <ele>757.9</ele>
        <time>2021-08-26T10:30:36.000Z</time>
      </trkpt>
      <trkpt lat="45.78001" lon="2.86019">
        <ele>757.3</ele>
        <time>2021-08-26T10:30:42.000Z</time>
      </trkpt>
      <trkpt lat="45.78009" lon="2.86017">
        <ele>756.9</ele>
        <time>2021-08-26T10:30:48.000Z</time>
      </trkpt>
      <trkpt lat="45.78015" lon="2.86013">
        <ele>756.4</ele>
        <time>2021-08-26T10:30:53.000Z</time>
      </trkpt>
      <trkpt lat="45.78022" lon="2.86009">
        <ele>755.8</ele>
        <time>2021-08-26T10:30:59.000Z</time>
      </trkpt>
      <trkpt lat="45.78028" lon="2.86005">
        <ele>755.3</ele>
        <time>2021-08-26T10:31:04.000Z</time>
      </trkpt>
      <trkpt lat="45.78034" lon="2.86">
        <ele>754.8</ele>
        <time>2021-08-26T10:31:09.000Z</time>
      </trkpt>
      <trkpt lat="45.78039" lon="2.85994">
        <ele>754.9</ele>
        <time>2021-08-26T10:31:15.000Z</time>
      </trkpt>
      <trkpt lat="45.78048" lon="2.8599">
        <ele>754.8</ele>
        <time>2021-08-26T10:31:20.000Z</time>
      </trkpt>
      <trkpt lat="45.78055" lon="2.85987">
        <ele>754.7</ele>
        <time>2021-08-26T10:31:25.000Z</time>
      </trkpt>
      <trkpt lat="45.78061" lon="2.85984">
        <ele>754.6</ele>
        <time>2021-08-26T10:31:30.000Z</time>
      </trkpt>
      <trkpt lat="45.78072" lon="2.85981">
        <ele>754.4</ele>
        <time>2021-08-26T10:31:36.000Z</time>
      </trkpt>
      <trkpt lat="45.78078" lon="2.85977">
        <ele>754.3</ele>
        <time>2021-08-26T10:31:41.000Z</time>
      </trkpt>
      <trkpt lat="45.78084" lon="2.8597">
        <ele>754.4</ele>
        <time>2021-08-26T10:31:46.000Z</time>
      </trkpt>
      <trkpt lat="45.7809" lon="2.8596">
        <ele>754.8</ele>
        <time>2021-08-26T10:31:52.000Z</time>
      </trkpt>
      <trkpt lat="45.78095" lon="2.85953">
        <ele>755</ele>
        <time>2021-08-26T10:31:57.000Z</time>
      </trkpt>
      <trkpt lat="45.781" lon="2.85947">
        <ele>755.1</ele>
        <time>2021-08-26T10:32:02.000Z</time>
      </trkpt>
      <trkpt lat="45.78105" lon="2.85939">
        <ele>755.2</ele>
        <time>2021-08-26T10:32:08.000Z</time>
      </trkpt>
      <trkpt lat="45.78111" lon="2.85933">
        <ele>755.2</ele>
        <time>2021-08-26T10:32:17.000Z</time>
      </trkpt>
      <trkpt lat="45.78116" lon="2.85926">
        <ele>755.2</ele>
        <time>2021-08-26T10:33:17.000Z</time>
      </trkpt>
      <trkpt lat="45.78122" lon="2.85924">
        <ele>755</ele>
        <time>2021-08-26T10:33:24.000Z</time>
      </trkpt>
      <trkpt lat="45.7813" lon="2.8592">
        <ele>754.7</ele>
        <time>2021-08-26T10:33:29.000Z</time>
      </trkpt>
      <trkpt lat="45.78136" lon="2.85918">
        <ele>754.5</ele>
        <time>2021-08-26T10:33:34.000Z</time>
      </trkpt>
      <trkpt lat="45.78143" lon="2.85916">
        <ele>754.2</ele>
        <time>2021-08-26T10:33:40.000Z</time>
      </trkpt>
      <trkpt lat="45.78151" lon="2.85914">
        <ele>753.8</ele>
        <time>2021-08-26T10:33:45.000Z</time>
      </trkpt>
      <trkpt lat="45.78158" lon="2.85913">
        <ele>753.5</ele>
        <time>2021-08-26T10:33:50.000Z</time>
      </trkpt>
      <trkpt lat="45.78167" lon="2.8591">
        <ele>753.2</ele>
        <time>2021-08-26T10:33:56.000Z</time>
      </trkpt>
      <trkpt lat="45.78173" lon="2.85905">
        <ele>753.2</ele>
        <time>2021-08-26T10:34:01.000Z</time>
      </trkpt>
      <trkpt lat="45.7818" lon="2.859">
        <ele>753.1</ele>
        <time>2021-08-26T10:34:07.000Z</time>
      </trkpt>
      <trkpt lat="45.78185" lon="2.85895">
        <ele>753.1</ele>
        <time>2021-08-26T10:34:13.000Z</time>
      </trkpt>
      <trkpt lat="45.78191" lon="2.85891">
        <ele>753</ele>
        <time>2021-08-26T10:34:19.000Z</time>
      </trkpt>
      <trkpt lat="45.78199" lon="2.85889">
        <ele>752.8</ele>
        <time>2021-08-26T10:34:25.000Z</time>
      </trkpt>
      <trkpt lat="45.78206" lon="2.85888">
        <ele>752.6</ele>
        <time>2021-08-26T10:34:31.000Z</time>
      </trkpt>
      <trkpt lat="45.78213" lon="2.85889">
        <ele>752.4</ele>
        <time>2021-08-26T10:34:37.000Z</time>
      </trkpt>
      <trkpt lat="45.78221" lon="2.85888">
        <ele>752.1</ele>
        <time>2021-08-26T10:34:42.000Z</time>
      </trkpt>
      <trkpt lat="45.78228" lon="2.8589">
        <ele>752</ele>
        <time>2021-08-26T10:34:48.000Z</time>
      </trkpt>
      <trkpt lat="45.78234" lon="2.85894">
        <ele>751.9</ele>
        <time>2021-08-26T10:34:54.000Z</time>
      </trkpt>
      <trkpt lat="45.7824" lon="2.85899">
        <ele>751.8</ele>
        <time>2021-08-26T10:35:01.000Z</time>
      </trkpt>
      <trkpt lat="45.78247" lon="2.85902">
        <ele>751.7</ele>
        <time>2021-08-26T10:35:06.000Z</time>
      </trkpt>
      <trkpt lat="45.78255" lon="2.85909">
        <ele>751.6</ele>
        <time>2021-08-26T10:35:12.000Z</time>
      </trkpt>
      <trkpt lat="45.78262" lon="2.85914">
        <ele>751.5</ele>
        <time>2021-08-26T10:35:17.000Z</time>
      </trkpt>
      <trkpt lat="45.78268" lon="2.85916">
        <ele>751.3</ele>
        <time>2021-08-26T10:35:22.000Z</time>
      </trkpt>
      <trkpt lat="45.78278" lon="2.85922">
        <ele>751.2</ele>
        <time>2021-08-26T10:35:28.000Z</time>
      </trkpt>
      <trkpt lat="45.78287" lon="2.85926">
        <ele>751.2</ele>
        <time>2021-08-26T10:35:33.000Z</time>
      </trkpt>
      <trkpt lat="45.78297" lon="2.85929">
        <ele>751.1</ele>
        <time>2021-08-26T10:35:38.000Z</time>
      </trkpt>
      <trkpt lat="45.78306" lon="2.8593">
        <ele>750.9</ele>
        <time>2021-08-26T10:35:44.000Z</time>
      </trkpt>
      <trkpt lat="45.78313" lon="2.8593">
        <ele>750.8</ele>
        <time>2021-08-26T10:35:49.000Z</time>
      </trkpt>
      <trkpt lat="45.7832" lon="2.8593">
        <ele>750.6</ele>
        <time>2021-08-26T10:35:54.000Z</time>
      </trkpt>
      <trkpt lat="45.78328" lon="2.85929">
        <ele>750.3</ele>
        <time>2021-08-26T10:36:00.000Z</time>
      </trkpt>
      <trkpt lat="45.78335" lon="2.85929">
        <ele>750.1</ele>
        <time>2021-08-26T10:36:05.000Z</time>
      </trkpt>
      <trkpt lat="45.78342" lon="2.85928">
        <ele>749.8</ele>
        <time>2021-08-26T10:36:10.000Z</time>
      </trkpt>
      <trkpt lat="45.78351" lon="2.85927">
        <ele>749.5</ele>
        <time>2021-08-26T10:36:16.000Z</time>
      </trkpt>
      <trkpt lat="45.78357" lon="2.85924">
        <ele>749</ele>
        <time>2021-08-26T10:36:21.000Z</time>
      </trkpt>
      <trkpt lat="45.78365" lon="2.85921">
        <ele>748.4</ele>
        <time>2021-08-26T10:36:26.000Z</time>
      </trkpt>
      <trkpt lat="45.78374" lon="2.85919">
        <ele>747.8</ele>
        <time>2021-08-26T10:36:32.000Z</time>
      </trkpt>
      <trkpt lat="45.78381" lon="2.85918">
        <ele>747.4</ele>
        <time>2021-08-26T10:36:37.000Z</time>
      </trkpt>
      <trkpt lat="45.78389" lon="2.85917">
        <ele>747</ele>
        <time>2021-08-26T10:36:42.000Z</time>
      </trkpt>
      <trkpt lat="45.78397" lon="2.85916">
        <ele>746.7</ele>
        <time>2021-08-26T10:36:48.000Z</time>
      </trkpt>
      <trkpt lat="45.78404" lon="2.85916">
        <ele>746.4</ele>
        <time>2021-08-26T10:36:54.000Z</time>
      </trkpt>
      <trkpt lat="45.78412" lon="2.85916">
        <ele>746.2</ele>
        <time>2021-08-26T10:37:00.000Z</time>
      </trkpt>
      <trkpt lat="45.78418" lon="2.85923">
        <ele>746.9</ele>
        <time>2021-08-26T10:37:08.000Z</time>
      </trkpt>
      <trkpt lat="45.78424" lon="2.8593">
        <ele>747.9</ele>
        <time>2021-08-26T10:37:13.000Z</time>
      </trkpt>
      <trkpt lat="45.7843" lon="2.85935">
        <ele>748.6</ele>
        <time>2021-08-26T10:37:18.000Z</time>
      </trkpt>
      <trkpt lat="45.78438" lon="2.85941">
        <ele>749.3</ele>
        <time>2021-08-26T10:37:24.000Z</time>
      </trkpt>
      <trkpt lat="45.78445" lon="2.85944">
        <ele>749.6</ele>
        <time>2021-08-26T10:37:31.000Z</time>
      </trkpt>
      <trkpt lat="45.78452" lon="2.85946">
        <ele>749.8</ele>
        <time>2021-08-26T10:37:36.000Z</time>
      </trkpt>
      <trkpt lat="45.78458" lon="2.85947">
        <ele>749.8</ele>
        <time>2021-08-26T10:37:42.000Z</time>
      </trkpt>
      <trkpt lat="45.78466" lon="2.85947">
        <ele>749.7</ele>
        <time>2021-08-26T10:37:51.000Z</time>
      </trkpt>
      <trkpt lat="45.78473" lon="2.85947">
        <ele>749.6</ele>
        <time>2021-08-26T10:38:01.000Z</time>
      </trkpt>
      <trkpt lat="45.78469" lon="2.85934">
        <ele>748.3</ele>
        <time>2021-08-26T10:38:07.000Z</time>
      </trkpt>
      <trkpt lat="45.78474" lon="2.85925">
        <ele>747.5</ele>
        <time>2021-08-26T10:38:30.000Z</time>
      </trkpt>
      <trkpt lat="45.78483" lon="2.85913">
        <ele>746.6</ele>
        <time>2021-08-26T10:38:36.000Z</time>
      </trkpt>
      <trkpt lat="45.78488" lon="2.85907">
        <ele>746.3</ele>
        <time>2021-08-26T10:38:41.000Z</time>
      </trkpt>
      <trkpt lat="45.78492" lon="2.85916">
        <ele>746.9</ele>
        <time>2021-08-26T10:39:38.000Z</time>
      </trkpt>
      <trkpt lat="45.78492" lon="2.85928">
        <ele>747.8</ele>
        <time>2021-08-26T10:39:44.000Z</time>
      </trkpt>
      <trkpt lat="45.78495" lon="2.85939">
        <ele>748.6</ele>
        <time>2021-08-26T10:39:51.000Z</time>
      </trkpt>
      <trkpt lat="45.78498" lon="2.85949">
        <ele>749.4</ele>
        <time>2021-08-26T10:39:56.000Z</time>
      </trkpt>
      <trkpt lat="45.78501" lon="2.85958">
        <ele>749.9</ele>
        <time>2021-08-26T10:40:01.000Z</time>
      </trkpt>
      <trkpt lat="45.78506" lon="2.85965">
        <ele>750.3</ele>
        <time>2021-08-26T10:40:06.000Z</time>
      </trkpt>
      <trkpt lat="45.78512" lon="2.85972">
        <ele>750.5</ele>
        <time>2021-08-26T10:40:12.000Z</time>
      </trkpt>
      <trkpt lat="45.78515" lon="2.85982">
        <ele>751.1</ele>
        <time>2021-08-26T10:40:18.000Z</time>
      </trkpt>
      <trkpt lat="45.7852" lon="2.8599">
        <ele>751.4</ele>
        <time>2021-08-26T10:40:24.000Z</time>
      </trkpt>
      <trkpt lat="45.78525" lon="2.85997">
        <ele>751.6</ele>
        <time>2021-08-26T10:40:29.000Z</time>
      </trkpt>
      <trkpt lat="45.78528" lon="2.86006">
        <ele>751.9</ele>
        <time>2021-08-26T10:40:34.000Z</time>
      </trkpt>
      <trkpt lat="45.78532" lon="2.86017">
        <ele>752.1</ele>
        <time>2021-08-26T10:40:40.000Z</time>
      </trkpt>
      <trkpt lat="45.78535" lon="2.86027">
        <ele>752.3</ele>
        <time>2021-08-26T10:40:45.000Z</time>
      </trkpt>
      <trkpt lat="45.78538" lon="2.86037">
        <ele>752.5</ele>
        <time>2021-08-26T10:40:51.000Z</time>
      </trkpt>
      <trkpt lat="45.78542" lon="2.86045">
        <ele>752.6</ele>
        <time>2021-08-26T10:40:58.000Z</time>
      </trkpt>
      <trkpt lat="45.7855" lon="2.86046">
        <ele>752.1</ele>
        <time>2021-08-26T10:41:06.000Z</time>
      </trkpt>
      <trkpt lat="45.78557" lon="2.86047">
        <ele>751.7</ele>
        <time>2021-08-26T10:41:17.000Z</time>
      </trkpt>
      <trkpt lat="45.78563" lon="2.86051">
        <ele>751.5</ele>
        <time>2021-08-26T10:41:25.000Z</time>
      </trkpt>
      <trkpt lat="45.78569" lon="2.86052">
        <ele>751.2</ele>
        <time>2021-08-26T10:41:42.000Z</time>
      </trkpt>
      <trkpt lat="45.78576" lon="2.86056">
        <ele>750.8</ele>
        <time>2021-08-26T10:41:49.000Z</time>
      </trkpt>
      <trkpt lat="45.78582" lon="2.86062">
        <ele>750.6</ele>
        <time>2021-08-26T10:41:55.000Z</time>
      </trkpt>
      <trkpt lat="45.78585" lon="2.86072">
        <ele>750.7</ele>
        <time>2021-08-26T10:42:02.000Z</time>
      </trkpt>
      <trkpt lat="45.78591" lon="2.86077">
        <ele>750.6</ele>
        <time>2021-08-26T10:42:08.000Z</time>
      </trkpt>
      <trkpt lat="45.78598" lon="2.86078">
        <ele>750.4</ele>
        <time>2021-08-26T10:42:34.000Z</time>
      </trkpt>
      <trkpt lat="45.78606" lon="2.86081">
        <ele>750.2</ele>
        <time>2021-08-26T10:42:40.000Z</time>
      </trkpt>
      <trkpt lat="45.78612" lon="2.86085">
        <ele>750</ele>
        <time>2021-08-26T10:42:46.000Z</time>
      </trkpt>
      <trkpt lat="45.78619" lon="2.86088">
        <ele>749.7</ele>
        <time>2021-08-26T10:42:52.000Z</time>
      </trkpt>
      <trkpt lat="45.78626" lon="2.86092">
        <ele>749.5</ele>
        <time>2021-08-26T10:42:58.000Z</time>
      </trkpt>
      <trkpt lat="45.78632" lon="2.86097">
        <ele>749.3</ele>
        <time>2021-08-26T10:43:04.000Z</time>
      </trkpt>
      <trkpt lat="45.78639" lon="2.86103">
        <ele>749.1</ele>
        <time>2021-08-26T10:43:10.000Z</time>
      </trkpt>
      <trkpt lat="45.78645" lon="2.86108">
        <ele>748.9</ele>
        <time>2021-08-26T10:43:17.000Z</time>
      </trkpt>
      <trkpt lat="45.78651" lon="2.86113">
        <ele>748.6</ele>
        <time>2021-08-26T10:43:23.000Z</time>
      </trkpt>
      <trkpt lat="45.78657" lon="2.86119">
        <ele>748.4</ele>
        <time>2021-08-26T10:43:30.000Z</time>
      </trkpt>
      <trkpt lat="45.78662" lon="2.86129">
        <ele>748.2</ele>
        <time>2021-08-26T10:43:36.000Z</time>
      </trkpt>
      <trkpt lat="45.78666" lon="2.86137">
        <ele>748</ele>
        <time>2021-08-26T10:43:43.000Z</time>
      </trkpt>
      <trkpt lat="45.78671" lon="2.86144">
        <ele>747.9</ele>
        <time>2021-08-26T10:43:49.000Z</time>
      </trkpt>
      <trkpt lat="45.78678" lon="2.86149">
        <ele>747.8</ele>
        <time>2021-08-26T10:43:56.000Z</time>
      </trkpt>
      <trkpt lat="45.78682" lon="2.86155">
        <ele>747.7</ele>
        <time>2021-08-26T10:44:02.000Z</time>
      </trkpt>
      <trkpt lat="45.78686" lon="2.86163">
        <ele>747.5</ele>
        <time>2021-08-26T10:44:12.000Z</time>
      </trkpt>
      <trkpt lat="45.78693" lon="2.86166">
        <ele>747.4</ele>
        <time>2021-08-26T10:44:29.000Z</time>
      </trkpt>
      <trkpt lat="45.787" lon="2.86167">
        <ele>747.2</ele>
        <time>2021-08-26T10:44:35.000Z</time>
      </trkpt>
      <trkpt lat="45.78707" lon="2.86166">
        <ele>747</ele>
        <time>2021-08-26T10:44:42.000Z</time>
      </trkpt>
      <trkpt lat="45.78715" lon="2.86167">
        <ele>746.9</ele>
        <time>2021-08-26T10:44:48.000Z</time>
      </trkpt>
      <trkpt lat="45.78726" lon="2.86163">
        <ele>746.6</ele>
        <time>2021-08-26T10:44:53.000Z</time>
      </trkpt>
      <trkpt lat="45.78733" lon="2.8616">
        <ele>746.5</ele>
        <time>2021-08-26T10:44:58.000Z</time>
      </trkpt>
      <trkpt lat="45.78741" lon="2.86157">
        <ele>746.3</ele>
        <time>2021-08-26T10:45:04.000Z</time>
      </trkpt>
      <trkpt lat="45.78747" lon="2.86154">
        <ele>746.2</ele>
        <time>2021-08-26T10:45:11.000Z</time>
      </trkpt>
      <trkpt lat="45.78753" lon="2.86149">
        <ele>746.2</ele>
        <time>2021-08-26T10:45:17.000Z</time>
      </trkpt>
      <trkpt lat="45.7876" lon="2.86144">
        <ele>746.1</ele>
        <time>2021-08-26T10:45:23.000Z</time>
      </trkpt>
      <trkpt lat="45.78764" lon="2.86137">
        <ele>746.1</ele>
        <time>2021-08-26T10:45:33.000Z</time>
      </trkpt>
      <trkpt lat="45.7877" lon="2.86132">
        <ele>745.9</ele>
        <time>2021-08-26T10:45:54.000Z</time>
      </trkpt>
      <trkpt lat="45.78771" lon="2.86122">
        <ele>745.9</ele>
        <time>2021-08-26T10:46:01.000Z</time>
      </trkpt>
      <trkpt lat="45.78766" lon="2.86115">
        <ele>746</ele>
        <time>2021-08-26T10:46:11.000Z</time>
      </trkpt>
      <trkpt lat="45.78771" lon="2.86123">
        <ele>745.9</ele>
        <time>2021-08-26T10:46:43.000Z</time>
      </trkpt>
      <trkpt lat="45.78778" lon="2.86128">
        <ele>745.7</ele>
        <time>2021-08-26T10:46:49.000Z</time>
      </trkpt>
      <trkpt lat="45.78784" lon="2.86129">
        <ele>745.5</ele>
        <time>2021-08-26T10:46:54.000Z</time>
      </trkpt>
      <trkpt lat="45.78792" lon="2.86128">
        <ele>745.3</ele>
        <time>2021-08-26T10:47:00.000Z</time>
      </trkpt>
      <trkpt lat="45.78799" lon="2.86126">
        <ele>745.1</ele>
        <time>2021-08-26T10:47:05.000Z</time>
      </trkpt>
      <trkpt lat="45.78805" lon="2.86125">
        <ele>744.9</ele>
        <time>2021-08-26T10:47:10.000Z</time>
      </trkpt>
      <trkpt lat="45.78813" lon="2.86126">
        <ele>744.6</ele>
        <time>2021-08-26T10:47:16.000Z</time>
      </trkpt>
      <trkpt lat="45.7882" lon="2.86124">
        <ele>744.4</ele>
        <time>2021-08-26T10:47:22.000Z</time>
      </trkpt>
      <trkpt lat="45.78828" lon="2.86124">
        <ele>744.1</ele>
        <time>2021-08-26T10:47:28.000Z</time>
      </trkpt>
      <trkpt lat="45.78834" lon="2.8612">
        <ele>743.7</ele>
        <time>2021-08-26T10:47:34.000Z</time>
      </trkpt>
      <trkpt lat="45.7884" lon="2.86115">
        <ele>742.5</ele>
        <time>2021-08-26T10:47:41.000Z</time>
      </trkpt>
      <trkpt lat="45.7884" lon="2.86105">
        <ele>742</ele>
        <time>2021-08-26T10:48:05.000Z</time>
      </trkpt>
      <trkpt lat="45.78834" lon="2.86099">
        <ele>742.7</ele>
        <time>2021-08-26T10:48:13.000Z</time>
      </trkpt>
      <trkpt lat="45.78829" lon="2.86091">
        <ele>742.6</ele>
        <time>2021-08-26T10:48:20.000Z</time>
      </trkpt>
      <trkpt lat="45.78823" lon="2.86085">
        <ele>742.7</ele>
        <time>2021-08-26T10:48:26.000Z</time>
      </trkpt>
      <trkpt lat="45.78828" lon="2.86077">
        <ele>742.2</ele>
        <time>2021-08-26T10:48:45.000Z</time>
      </trkpt>
      <trkpt lat="45.78832" lon="2.86069">
        <ele>741.7</ele>
        <time>2021-08-26T10:48:56.000Z</time>
      </trkpt>
      <trkpt lat="45.78838" lon="2.86065">
        <ele>740.8</ele>
        <time>2021-08-26T10:49:03.000Z</time>
      </trkpt>
      <trkpt lat="45.78843" lon="2.86058">
        <ele>739.9</ele>
        <time>2021-08-26T10:49:09.000Z</time>
      </trkpt>
      <trkpt lat="45.78849" lon="2.86053">
        <ele>738.7</ele>
        <time>2021-08-26T10:49:17.000Z</time>
      </trkpt>
      <trkpt lat="45.78855" lon="2.8605">
        <ele>737.7</ele>
        <time>2021-08-26T10:49:23.000Z</time>
      </trkpt>
      <trkpt lat="45.78862" lon="2.86048">
        <ele>736.4</ele>
        <time>2021-08-26T10:49:31.000Z</time>
      </trkpt>
      <trkpt lat="45.78867" lon="2.86042">
        <ele>735.4</ele>
        <time>2021-08-26T10:49:36.000Z</time>
      </trkpt>
      <trkpt lat="45.78874" lon="2.86038">
        <ele>734</ele>
        <time>2021-08-26T10:49:42.000Z</time>
      </trkpt>
      <trkpt lat="45.78881" lon="2.86036">
        <ele>732.7</ele>
        <time>2021-08-26T10:49:48.000Z</time>
      </trkpt>
      <trkpt lat="45.78888" lon="2.86033">
        <ele>731.3</ele>
        <time>2021-08-26T10:49:54.000Z</time>
      </trkpt>
      <trkpt lat="45.78898" lon="2.86029">
        <ele>729.4</ele>
        <time>2021-08-26T10:50:00.000Z</time>
      </trkpt>
      <trkpt lat="45.78904" lon="2.86025">
        <ele>728</ele>
        <time>2021-08-26T10:50:06.000Z</time>
      </trkpt>
      <trkpt lat="45.78912" lon="2.86022">
        <ele>726.4</ele>
        <time>2021-08-26T10:50:13.000Z</time>
      </trkpt>
      <trkpt lat="45.78918" lon="2.8602">
        <ele>725.3</ele>
        <time>2021-08-26T10:50:18.000Z</time>
      </trkpt>
      <trkpt lat="45.78926" lon="2.86019">
        <ele>724.2</ele>
        <time>2021-08-26T10:50:24.000Z</time>
      </trkpt>
      <trkpt lat="45.78932" lon="2.86015">
        <ele>723.1</ele>
        <time>2021-08-26T10:50:33.000Z</time>
      </trkpt>
      <trkpt lat="45.78939" lon="2.86012">
        <ele>722.1</ele>
        <time>2021-08-26T10:50:41.000Z</time>
      </trkpt>
      <trkpt lat="45.78946" lon="2.8601">
        <ele>721.1</ele>
        <time>2021-08-26T10:50:46.000Z</time>
      </trkpt>
      <trkpt lat="45.78955" lon="2.86006">
        <ele>719.7</ele>
        <time>2021-08-26T10:50:52.000Z</time>
      </trkpt>
      <trkpt lat="45.78963" lon="2.86001">
        <ele>718.5</ele>
        <time>2021-08-26T10:50:57.000Z</time>
      </trkpt>
      <trkpt lat="45.78972" lon="2.85997">
        <ele>717.2</ele>
        <time>2021-08-26T10:51:02.000Z</time>
      </trkpt>
      <trkpt lat="45.7898" lon="2.85997">
        <ele>716.3</ele>
        <time>2021-08-26T10:51:08.000Z</time>
      </trkpt>
      <trkpt lat="45.78987" lon="2.85997">
        <ele>715.4</ele>
        <time>2021-08-26T10:51:13.000Z</time>
      </trkpt>
      <trkpt lat="45.78994" lon="2.85998">
        <ele>714.6</ele>
        <time>2021-08-26T10:51:18.000Z</time>
      </trkpt>
      <trkpt lat="45.79002" lon="2.86002">
        <ele>713.9</ele>
        <time>2021-08-26T10:51:24.000Z</time>
      </trkpt>
      <trkpt lat="45.79008" lon="2.86004">
        <ele>713.6</ele>
        <time>2021-08-26T10:51:29.000Z</time>
      </trkpt>
      <trkpt lat="45.79015" lon="2.86003">
        <ele>713</ele>
        <time>2021-08-26T10:51:34.000Z</time>
      </trkpt>
      <trkpt lat="45.7902" lon="2.85996">
        <ele>712.5</ele>
        <time>2021-08-26T10:51:53.000Z</time>
      </trkpt>
      <trkpt lat="45.79024" lon="2.85987">
        <ele>711.9</ele>
        <time>2021-08-26T10:52:33.000Z</time>
      </trkpt>
      <trkpt lat="45.79024" lon="2.85996">
        <ele>712.2</ele>
        <time>2021-08-26T10:52:59.000Z</time>
      </trkpt>
      <trkpt lat="45.79029" lon="2.86002">
        <ele>712</ele>
        <time>2021-08-26T10:53:08.000Z</time>
      </trkpt>
      <trkpt lat="45.79033" lon="2.86009">
        <ele>712</ele>
        <time>2021-08-26T10:53:13.000Z</time>
      </trkpt>
      <trkpt lat="45.7904" lon="2.86015">
        <ele>711.8</ele>
        <time>2021-08-26T10:53:20.000Z</time>
      </trkpt>
      <trkpt lat="45.79047" lon="2.86018">
        <ele>711.5</ele>
        <time>2021-08-26T10:53:26.000Z</time>
      </trkpt>
      <trkpt lat="45.79054" lon="2.86021">
        <ele>711.2</ele>
        <time>2021-08-26T10:53:32.000Z</time>
      </trkpt>
      <trkpt lat="45.79061" lon="2.86024">
        <ele>710.9</ele>
        <time>2021-08-26T10:53:37.000Z</time>
      </trkpt>
      <trkpt lat="45.79067" lon="2.86028">
        <ele>710.7</ele>
        <time>2021-08-26T10:53:48.000Z</time>
      </trkpt>
      <trkpt lat="45.79074" lon="2.86031">
        <ele>710.4</ele>
        <time>2021-08-26T10:54:10.000Z</time>
      </trkpt>
      <trkpt lat="45.79081" lon="2.86027">
        <ele>709.8</ele>
        <time>2021-08-26T10:54:16.000Z</time>
      </trkpt>
      <trkpt lat="45.79088" lon="2.86026">
        <ele>709.6</ele>
        <time>2021-08-26T10:54:21.000Z</time>
      </trkpt>
      <trkpt lat="45.79095" lon="2.8602">
        <ele>709.2</ele>
        <time>2021-08-26T10:54:27.000Z</time>
      </trkpt>
      <trkpt lat="45.79101" lon="2.86015">
        <ele>708.9</ele>
        <time>2021-08-26T10:54:32.000Z</time>
      </trkpt>
      <trkpt lat="45.79105" lon="2.86008">
        <ele>708.5</ele>
        <time>2021-08-26T10:54:37.000Z</time>
      </trkpt>
      <trkpt lat="45.79108" lon="2.85999">
        <ele>708</ele>
        <time>2021-08-26T10:54:43.000Z</time>
      </trkpt>
      <trkpt lat="45.79114" lon="2.85994">
        <ele>708</ele>
        <time>2021-08-26T10:54:49.000Z</time>
      </trkpt>
      <trkpt lat="45.79117" lon="2.85985">
        <ele>708.1</ele>
        <time>2021-08-26T10:54:54.000Z</time>
      </trkpt>
      <trkpt lat="45.79123" lon="2.85978">
        <ele>708.1</ele>
        <time>2021-08-26T10:55:01.000Z</time>
      </trkpt>
      <trkpt lat="45.79128" lon="2.85972">
        <ele>708.2</ele>
        <time>2021-08-26T10:55:07.000Z</time>
      </trkpt>
      <trkpt lat="45.79133" lon="2.85966">
        <ele>708.2</ele>
        <time>2021-08-26T10:55:13.000Z</time>
      </trkpt>
      <trkpt lat="45.79138" lon="2.85958">
        <ele>708.3</ele>
        <time>2021-08-26T10:55:18.000Z</time>
      </trkpt>
      <trkpt lat="45.79142" lon="2.8595">
        <ele>708.4</ele>
        <time>2021-08-26T10:55:26.000Z</time>
      </trkpt>
      <trkpt lat="45.79147" lon="2.85943">
        <ele>708.5</ele>
        <time>2021-08-26T10:55:32.000Z</time>
      </trkpt>
      <trkpt lat="45.79154" lon="2.8594">
        <ele>708.6</ele>
        <time>2021-08-26T10:55:39.000Z</time>
      </trkpt>
      <trkpt lat="45.7916" lon="2.85934">
        <ele>708.7</ele>
        <time>2021-08-26T10:55:52.000Z</time>
      </trkpt>
      <trkpt lat="45.79162" lon="2.85925">
        <ele>708.8</ele>
        <time>2021-08-26T10:56:01.000Z</time>
      </trkpt>
      <trkpt lat="45.79169" lon="2.85921">
        <ele>709</ele>
        <time>2021-08-26T10:56:15.000Z</time>
      </trkpt>
      <trkpt lat="45.79176" lon="2.8592">
        <ele>709.1</ele>
        <time>2021-08-26T10:56:20.000Z</time>
      </trkpt>
      <trkpt lat="45.79181" lon="2.85911">
        <ele>709.6</ele>
        <time>2021-08-26T10:56:45.000Z</time>
      </trkpt>
      <trkpt lat="45.79182" lon="2.859">
        <ele>710.3</ele>
        <time>2021-08-26T10:56:54.000Z</time>
      </trkpt>
      <trkpt lat="45.79185" lon="2.85892">
        <ele>710.9</ele>
        <time>2021-08-26T10:57:03.000Z</time>
      </trkpt>
      <trkpt lat="45.79184" lon="2.85882">
        <ele>711.6</ele>
        <time>2021-08-26T10:57:12.000Z</time>
      </trkpt>
      <trkpt lat="45.79183" lon="2.85873">
        <ele>712.2</ele>
        <time>2021-08-26T10:57:18.000Z</time>
      </trkpt>
      <trkpt lat="45.7918" lon="2.85864">
        <ele>712.9</ele>
        <time>2021-08-26T10:57:25.000Z</time>
      </trkpt>
      <trkpt lat="45.79176" lon="2.85854">
        <ele>713.5</ele>
        <time>2021-08-26T10:57:31.000Z</time>
      </trkpt>
      <trkpt lat="45.79172" lon="2.85845">
        <ele>714.2</ele>
        <time>2021-08-26T10:57:36.000Z</time>
      </trkpt>
      <trkpt lat="45.79172" lon="2.85834">
        <ele>715</ele>
        <time>2021-08-26T10:57:41.000Z</time>
      </trkpt>
      <trkpt lat="45.79173" lon="2.85825">
        <ele>716.8</ele>
        <time>2021-08-26T10:57:47.000Z</time>
      </trkpt>
      <trkpt lat="45.79172" lon="2.85814">
        <ele>719.2</ele>
        <time>2021-08-26T10:57:53.000Z</time>
      </trkpt>
      <trkpt lat="45.7917" lon="2.85804">
        <ele>721.5</ele>
        <time>2021-08-26T10:58:00.000Z</time>
      </trkpt>
      <trkpt lat="45.79169" lon="2.85795">
        <ele>723.6</ele>
        <time>2021-08-26T10:58:07.000Z</time>
      </trkpt>
      <trkpt lat="45.79166" lon="2.85785">
        <ele>726</ele>
        <time>2021-08-26T10:58:12.000Z</time>
      </trkpt>
      <trkpt lat="45.7916" lon="2.85771">
        <ele>728.8</ele>
        <time>2021-08-26T10:58:45.000Z</time>
      </trkpt>
      <trkpt lat="45.79161" lon="2.85757">
        <ele>732.1</ele>
        <time>2021-08-26T10:59:09.000Z</time>
      </trkpt>
      <trkpt lat="45.79162" lon="2.85748">
        <ele>733.9</ele>
        <time>2021-08-26T10:59:15.000Z</time>
      </trkpt>
      <trkpt lat="45.79162" lon="2.85738">
        <ele>734.8</ele>
        <time>2021-08-26T10:59:21.000Z</time>
      </trkpt>
      <trkpt lat="45.79162" lon="2.85727">
        <ele>735.9</ele>
        <time>2021-08-26T10:59:28.000Z</time>
      </trkpt>
      <trkpt lat="45.79162" lon="2.85717">
        <ele>736.8</ele>
        <time>2021-08-26T10:59:36.000Z</time>
      </trkpt>
      <trkpt lat="45.79161" lon="2.85707">
        <ele>737.7</ele>
        <time>2021-08-26T10:59:43.000Z</time>
      </trkpt>
      <trkpt lat="45.79163" lon="2.85697">
        <ele>738.6</ele>
        <time>2021-08-26T10:59:49.000Z</time>
      </trkpt>
      <trkpt lat="45.79163" lon="2.85688">
        <ele>739.4</ele>
        <time>2021-08-26T10:59:55.000Z</time>
      </trkpt>
      <trkpt lat="45.79165" lon="2.85679">
        <ele>740.1</ele>
        <time>2021-08-26T11:00:03.000Z</time>
      </trkpt>
      <trkpt lat="45.79167" lon="2.85669">
        <ele>740.7</ele>
        <time>2021-08-26T11:00:10.000Z</time>
      </trkpt>
      <trkpt lat="45.7917" lon="2.85658">
        <ele>740.5</ele>
        <time>2021-08-26T11:00:16.000Z</time>
      </trkpt>
      <trkpt lat="45.79171" lon="2.85649">
        <ele>740.4</ele>
        <time>2021-08-26T11:00:23.000Z</time>
      </trkpt>
      <trkpt lat="45.79175" lon="2.8564">
        <ele>739.9</ele>
        <time>2021-08-26T11:00:30.000Z</time>
      </trkpt>
      <trkpt lat="45.79176" lon="2.85629">
        <ele>740</ele>
        <time>2021-08-26T11:00:36.000Z</time>
      </trkpt>
      <trkpt lat="45.79177" lon="2.8562">
        <ele>740</ele>
        <time>2021-08-26T11:00:41.000Z</time>
      </trkpt>
      <trkpt lat="45.79177" lon="2.8561">
        <ele>740.2</ele>
        <time>2021-08-26T11:00:46.000Z</time>
      </trkpt>
      <trkpt lat="45.79175" lon="2.85597">
        <ele>740.8</ele>
        <time>2021-08-26T11:00:52.000Z</time>
      </trkpt>
      <trkpt lat="45.79179" lon="2.85589">
        <ele>740.5</ele>
        <time>2021-08-26T11:01:00.000Z</time>
      </trkpt>
      <trkpt lat="45.79181" lon="2.8558">
        <ele>740.5</ele>
        <time>2021-08-26T11:01:07.000Z</time>
      </trkpt>
      <trkpt lat="45.79184" lon="2.85569">
        <ele>740.3</ele>
        <time>2021-08-26T11:01:14.000Z</time>
      </trkpt>
      <trkpt lat="45.79185" lon="2.85557">
        <ele>740.4</ele>
        <time>2021-08-26T11:01:20.000Z</time>
      </trkpt>
      <trkpt lat="45.79188" lon="2.85548">
        <ele>740.2</ele>
        <time>2021-08-26T11:01:25.000Z</time>
      </trkpt>
      <trkpt lat="45.79191" lon="2.85539">
        <ele>740.1</ele>
        <time>2021-08-26T11:01:30.000Z</time>
      </trkpt>
      <trkpt lat="45.79193" lon="2.85528">
        <ele>740.2</ele>
        <time>2021-08-26T11:01:36.000Z</time>
      </trkpt>
      <trkpt lat="45.79196" lon="2.85516">
        <ele>740.3</ele>
        <time>2021-08-26T11:01:41.000Z</time>
      </trkpt>
      <trkpt lat="45.79195" lon="2.85507">
        <ele>740.5</ele>
        <time>2021-08-26T11:01:46.000Z</time>
      </trkpt>
      <trkpt lat="45.79189" lon="2.85494">
        <ele>741.1</ele>
        <time>2021-08-26T11:01:52.000Z</time>
      </trkpt>
      <trkpt lat="45.79188" lon="2.85485">
        <ele>741.3</ele>
        <time>2021-08-26T11:01:59.000Z</time>
      </trkpt>
      <trkpt lat="45.79187" lon="2.85475">
        <ele>741.6</ele>
        <time>2021-08-26T11:02:04.000Z</time>
      </trkpt>
      <trkpt lat="45.79188" lon="2.85462">
        <ele>741.9</ele>
        <time>2021-08-26T11:02:09.000Z</time>
      </trkpt>
      <trkpt lat="45.79187" lon="2.85447">
        <ele>742.3</ele>
        <time>2021-08-26T11:02:14.000Z</time>
      </trkpt>
      <trkpt lat="45.79185" lon="2.85427">
        <ele>742.9</ele>
        <time>2021-08-26T11:02:20.000Z</time>
      </trkpt>
      <trkpt lat="45.79183" lon="2.85416">
        <ele>743.2</ele>
        <time>2021-08-26T11:02:25.000Z</time>
      </trkpt>
      <trkpt lat="45.79181" lon="2.85402">
        <ele>743.4</ele>
        <time>2021-08-26T11:02:30.000Z</time>
      </trkpt>
      <trkpt lat="45.79175" lon="2.85384">
        <ele>743.8</ele>
        <time>2021-08-26T11:02:36.000Z</time>
      </trkpt>
      <trkpt lat="45.79173" lon="2.8537">
        <ele>744.1</ele>
        <time>2021-08-26T11:02:41.000Z</time>
      </trkpt>
      <trkpt lat="45.79171" lon="2.85358">
        <ele>744.3</ele>
        <time>2021-08-26T11:02:46.000Z</time>
      </trkpt>
      <trkpt lat="45.79169" lon="2.85343">
        <ele>744.7</ele>
        <time>2021-08-26T11:02:52.000Z</time>
      </trkpt>
      <trkpt lat="45.79166" lon="2.85331">
        <ele>745</ele>
        <time>2021-08-26T11:02:57.000Z</time>
      </trkpt>
      <trkpt lat="45.79159" lon="2.85315">
        <ele>745</ele>
        <time>2021-08-26T11:03:02.000Z</time>
      </trkpt>
      <trkpt lat="45.79154" lon="2.85305">
        <ele>745.1</ele>
        <time>2021-08-26T11:03:08.000Z</time>
      </trkpt>
      <trkpt lat="45.79148" lon="2.85294">
        <ele>745.2</ele>
        <time>2021-08-26T11:03:13.000Z</time>
      </trkpt>
      <trkpt lat="45.79146" lon="2.8528">
        <ele>744.7</ele>
        <time>2021-08-26T11:03:18.000Z</time>
      </trkpt>
      <trkpt lat="45.79142" lon="2.85263">
        <ele>744.3</ele>
        <time>2021-08-26T11:03:24.000Z</time>
      </trkpt>
      <trkpt lat="45.79138" lon="2.85253">
        <ele>744.2</ele>
        <time>2021-08-26T11:03:29.000Z</time>
      </trkpt>
      <trkpt lat="45.79136" lon="2.85243">
        <ele>743.9</ele>
        <time>2021-08-26T11:03:34.000Z</time>
      </trkpt>
      <trkpt lat="45.79132" lon="2.85231">
        <ele>743.8</ele>
        <time>2021-08-26T11:03:40.000Z</time>
      </trkpt>
      <trkpt lat="45.79128" lon="2.85222">
        <ele>743.8</ele>
        <time>2021-08-26T11:03:45.000Z</time>
      </trkpt>
      <trkpt lat="45.79125" lon="2.85214">
        <ele>743.7</ele>
        <time>2021-08-26T11:03:51.000Z</time>
      </trkpt>
      <trkpt lat="45.7912" lon="2.85207">
        <ele>743.9</ele>
        <time>2021-08-26T11:03:58.000Z</time>
      </trkpt>
      <trkpt lat="45.79115" lon="2.85198">
        <ele>744</ele>
        <time>2021-08-26T11:04:04.000Z</time>
      </trkpt>
      <trkpt lat="45.7911" lon="2.8519">
        <ele>744.2</ele>
        <time>2021-08-26T11:04:11.000Z</time>
      </trkpt>
      <trkpt lat="45.79106" lon="2.85181">
        <ele>744.3</ele>
        <time>2021-08-26T11:04:17.000Z</time>
      </trkpt>
      <trkpt lat="45.791" lon="2.85173">
        <ele>744.6</ele>
        <time>2021-08-26T11:04:22.000Z</time>
      </trkpt>
      <trkpt lat="45.79094" lon="2.85164">
        <ele>744.9</ele>
        <time>2021-08-26T11:04:28.000Z</time>
      </trkpt>
      <trkpt lat="45.79091" lon="2.85155">
        <ele>745</ele>
        <time>2021-08-26T11:04:35.000Z</time>
      </trkpt>
      <trkpt lat="45.79086" lon="2.85147">
        <ele>745.3</ele>
        <time>2021-08-26T11:04:41.000Z</time>
      </trkpt>
      <trkpt lat="45.79079" lon="2.85142">
        <ele>745.7</ele>
        <time>2021-08-26T11:04:47.000Z</time>
      </trkpt>
      <trkpt lat="45.79073" lon="2.85141">
        <ele>746</ele>
        <time>2021-08-26T11:04:53.000Z</time>
      </trkpt>
      <trkpt lat="45.79068" lon="2.85133">
        <ele>746</ele>
        <time>2021-08-26T11:05:01.000Z</time>
      </trkpt>
      <trkpt lat="45.79063" lon="2.85127">
        <ele>746.2</ele>
        <time>2021-08-26T11:05:07.000Z</time>
      </trkpt>
      <trkpt lat="45.79058" lon="2.85119">
        <ele>746.2</ele>
        <time>2021-08-26T11:05:13.000Z</time>
      </trkpt>
      <trkpt lat="45.79052" lon="2.85113">
        <ele>746.3</ele>
        <time>2021-08-26T11:05:19.000Z</time>
      </trkpt>
      <trkpt lat="45.79047" lon="2.85106">
        <ele>746.4</ele>
        <time>2021-08-26T11:05:24.000Z</time>
      </trkpt>
      <trkpt lat="45.79043" lon="2.85098">
        <ele>746.4</ele>
        <time>2021-08-26T11:05:29.000Z</time>
      </trkpt>
      <trkpt lat="45.79039" lon="2.8509">
        <ele>746.3</ele>
        <time>2021-08-26T11:05:35.000Z</time>
      </trkpt>
      <trkpt lat="45.79034" lon="2.85083">
        <ele>746.4</ele>
        <time>2021-08-26T11:05:40.000Z</time>
      </trkpt>
      <trkpt lat="45.79033" lon="2.85072">
        <ele>746.1</ele>
        <time>2021-08-26T11:05:48.000Z</time>
      </trkpt>
      <trkpt lat="45.7903" lon="2.85061">
        <ele>745.9</ele>
        <time>2021-08-26T11:05:54.000Z</time>
      </trkpt>
      <trkpt lat="45.79024" lon="2.85053">
        <ele>745.9</ele>
        <time>2021-08-26T11:06:00.000Z</time>
      </trkpt>
      <trkpt lat="45.79019" lon="2.85045">
        <ele>745.8</ele>
        <time>2021-08-26T11:06:05.000Z</time>
      </trkpt>
      <trkpt lat="45.79015" lon="2.85037">
        <ele>745.7</ele>
        <time>2021-08-26T11:06:10.000Z</time>
      </trkpt>
      <trkpt lat="45.7901" lon="2.8503">
        <ele>745.7</ele>
        <time>2021-08-26T11:06:16.000Z</time>
      </trkpt>
      <trkpt lat="45.79005" lon="2.85023">
        <ele>745.6</ele>
        <time>2021-08-26T11:06:24.000Z</time>
      </trkpt>
      <trkpt lat="45.79002" lon="2.85013">
        <ele>745.4</ele>
        <time>2021-08-26T11:06:32.000Z</time>
      </trkpt>
      <trkpt lat="45.78998" lon="2.85005">
        <ele>745.2</ele>
        <time>2021-08-26T11:06:38.000Z</time>
      </trkpt>
      <trkpt lat="45.78994" lon="2.84996">
        <ele>745</ele>
        <time>2021-08-26T11:06:44.000Z</time>
      </trkpt>
      <trkpt lat="45.78991" lon="2.84988">
        <ele>744.9</ele>
        <time>2021-08-26T11:06:50.000Z</time>
      </trkpt>
      <trkpt lat="45.78989" lon="2.84979">
        <ele>744.7</ele>
        <time>2021-08-26T11:06:56.000Z</time>
      </trkpt>
      <trkpt lat="45.78986" lon="2.8497">
        <ele>744.6</ele>
        <time>2021-08-26T11:07:02.000Z</time>
      </trkpt>
      <trkpt lat="45.78982" lon="2.84961">
        <ele>744.4</ele>
        <time>2021-08-26T11:07:08.000Z</time>
      </trkpt>
      <trkpt lat="45.78977" lon="2.84953">
        <ele>744.3</ele>
        <time>2021-08-26T11:07:13.000Z</time>
      </trkpt>
      <trkpt lat="45.78973" lon="2.84945">
        <ele>744.1</ele>
        <time>2021-08-26T11:07:18.000Z</time>
      </trkpt>
      <trkpt lat="45.78968" lon="2.84936">
        <ele>743.9</ele>
        <time>2021-08-26T11:07:24.000Z</time>
      </trkpt>
      <trkpt lat="45.78964" lon="2.84928">
        <ele>743.8</ele>
        <time>2021-08-26T11:07:29.000Z</time>
      </trkpt>
      <trkpt lat="45.78958" lon="2.8492">
        <ele>743.6</ele>
        <time>2021-08-26T11:07:34.000Z</time>
      </trkpt>
      <trkpt lat="45.78953" lon="2.8491">
        <ele>743.3</ele>
        <time>2021-08-26T11:07:40.000Z</time>
      </trkpt>
      <trkpt lat="45.78948" lon="2.84901">
        <ele>743</ele>
        <time>2021-08-26T11:07:45.000Z</time>
      </trkpt>
      <trkpt lat="45.78941" lon="2.84898">
        <ele>742.8</ele>
        <time>2021-08-26T11:07:53.000Z</time>
      </trkpt>
      <trkpt lat="45.78932" lon="2.8489">
        <ele>742.5</ele>
        <time>2021-08-26T11:07:58.000Z</time>
      </trkpt>
      <trkpt lat="45.78924" lon="2.8488">
        <ele>741.9</ele>
        <time>2021-08-26T11:08:04.000Z</time>
      </trkpt>
      <trkpt lat="45.78916" lon="2.84872">
        <ele>741.3</ele>
        <time>2021-08-26T11:08:09.000Z</time>
      </trkpt>
      <trkpt lat="45.78908" lon="2.84864">
        <ele>740.4</ele>
        <time>2021-08-26T11:08:14.000Z</time>
      </trkpt>
      <trkpt lat="45.78901" lon="2.84859">
        <ele>739.6</ele>
        <time>2021-08-26T11:08:20.000Z</time>
      </trkpt>
      <trkpt lat="45.78896" lon="2.84851">
        <ele>738.8</ele>
        <time>2021-08-26T11:08:26.000Z</time>
      </trkpt>
      <trkpt lat="45.7889" lon="2.8485">
        <ele>738.3</ele>
        <time>2021-08-26T11:08:34.000Z</time>
      </trkpt>
      <trkpt lat="45.78887" lon="2.8484">
        <ele>737.4</ele>
        <time>2021-08-26T11:08:44.000Z</time>
      </trkpt>
      <trkpt lat="45.78885" lon="2.84831">
        <ele>736.6</ele>
        <time>2021-08-26T11:08:53.000Z</time>
      </trkpt>
      <trkpt lat="45.78883" lon="2.84822">
        <ele>735.8</ele>
        <time>2021-08-26T11:08:58.000Z</time>
      </trkpt>
      <trkpt lat="45.7888" lon="2.84812">
        <ele>734.9</ele>
        <time>2021-08-26T11:09:04.000Z</time>
      </trkpt>
      <trkpt lat="45.78877" lon="2.84802">
        <ele>733.9</ele>
        <time>2021-08-26T11:09:12.000Z</time>
      </trkpt>
      <trkpt lat="45.78876" lon="2.84793">
        <ele>733.2</ele>
        <time>2021-08-26T11:09:23.000Z</time>
      </trkpt>
      <trkpt lat="45.78872" lon="2.84785">
        <ele>732.2</ele>
        <time>2021-08-26T11:09:30.000Z</time>
      </trkpt>
      <trkpt lat="45.78866" lon="2.84778">
        <ele>731.1</ele>
        <time>2021-08-26T11:09:37.000Z</time>
      </trkpt>
      <trkpt lat="45.7886" lon="2.84769">
        <ele>729.7</ele>
        <time>2021-08-26T11:09:42.000Z</time>
      </trkpt>
      <trkpt lat="45.78854" lon="2.84762">
        <ele>728.5</ele>
        <time>2021-08-26T11:09:48.000Z</time>
      </trkpt>
      <trkpt lat="45.7885" lon="2.84753">
        <ele>727.3</ele>
        <time>2021-08-26T11:09:57.000Z</time>
      </trkpt>
      <trkpt lat="45.78848" lon="2.84743">
        <ele>726.7</ele>
        <time>2021-08-26T11:10:09.000Z</time>
      </trkpt>
      <trkpt lat="45.78847" lon="2.84733">
        <ele>726.4</ele>
        <time>2021-08-26T11:10:17.000Z</time>
      </trkpt>
      <trkpt lat="45.78846" lon="2.84724">
        <ele>726.2</ele>
        <time>2021-08-26T11:10:22.000Z</time>
      </trkpt>
      <trkpt lat="45.78844" lon="2.84714">
        <ele>725.8</ele>
        <time>2021-08-26T11:10:28.000Z</time>
      </trkpt>
      <trkpt lat="45.78841" lon="2.84704">
        <ele>725.3</ele>
        <time>2021-08-26T11:10:33.000Z</time>
      </trkpt>
      <trkpt lat="45.78843" lon="2.84695">
        <ele>725.4</ele>
        <time>2021-08-26T11:10:39.000Z</time>
      </trkpt>
      <trkpt lat="45.78844" lon="2.84684">
        <ele>725.4</ele>
        <time>2021-08-26T11:10:45.000Z</time>
      </trkpt>
      <trkpt lat="45.78845" lon="2.84674">
        <ele>725.4</ele>
        <time>2021-08-26T11:10:50.000Z</time>
      </trkpt>
      <trkpt lat="45.78845" lon="2.84664">
        <ele>725.2</ele>
        <time>2021-08-26T11:10:57.000Z</time>
      </trkpt>
      <trkpt lat="45.78849" lon="2.84656">
        <ele>725.4</ele>
        <time>2021-08-26T11:11:05.000Z</time>
      </trkpt>
      <trkpt lat="45.7885" lon="2.84645">
        <ele>725.2</ele>
        <time>2021-08-26T11:11:10.000Z</time>
      </trkpt>
      <trkpt lat="45.78849" lon="2.84628">
        <ele>724.7</ele>
        <time>2021-08-26T11:11:16.000Z</time>
      </trkpt>
      <trkpt lat="45.78848" lon="2.84614">
        <ele>724.3</ele>
        <time>2021-08-26T11:11:21.000Z</time>
      </trkpt>
      <trkpt lat="45.78851" lon="2.84605">
        <ele>724.2</ele>
        <time>2021-08-26T11:11:26.000Z</time>
      </trkpt>
      <trkpt lat="45.78853" lon="2.84595">
        <ele>724</ele>
        <time>2021-08-26T11:11:32.000Z</time>
      </trkpt>
      <trkpt lat="45.78856" lon="2.84586">
        <ele>723.9</ele>
        <time>2021-08-26T11:11:38.000Z</time>
      </trkpt>
      <trkpt lat="45.78859" lon="2.84578">
        <ele>723.9</ele>
        <time>2021-08-26T11:11:45.000Z</time>
      </trkpt>
      <trkpt lat="45.78863" lon="2.8457">
        <ele>723.9</ele>
        <time>2021-08-26T11:11:51.000Z</time>
      </trkpt>
      <trkpt lat="45.78868" lon="2.84565">
        <ele>723.9</ele>
        <time>2021-08-26T11:11:56.000Z</time>
      </trkpt>
      <trkpt lat="45.78873" lon="2.84554">
        <ele>723.6</ele>
        <time>2021-08-26T11:12:01.000Z</time>
      </trkpt>
      <trkpt lat="45.78878" lon="2.84547">
        <ele>723.4</ele>
        <time>2021-08-26T11:12:07.000Z</time>
      </trkpt>
      <trkpt lat="45.78883" lon="2.84539">
        <ele>723</ele>
        <time>2021-08-26T11:12:14.000Z</time>
      </trkpt>
      <trkpt lat="45.78886" lon="2.84528">
        <ele>722.4</ele>
        <time>2021-08-26T11:12:20.000Z</time>
      </trkpt>
      <trkpt lat="45.78889" lon="2.84517">
        <ele>721.8</ele>
        <time>2021-08-26T11:12:25.000Z</time>
      </trkpt>
      <trkpt lat="45.78894" lon="2.8451">
        <ele>721.2</ele>
        <time>2021-08-26T11:12:33.000Z</time>
      </trkpt>
      <trkpt lat="45.78899" lon="2.84503">
        <ele>720.5</ele>
        <time>2021-08-26T11:12:39.000Z</time>
      </trkpt>
      <trkpt lat="45.78903" lon="2.84496">
        <ele>720.4</ele>
        <time>2021-08-26T11:12:45.000Z</time>
      </trkpt>
      <trkpt lat="45.78907" lon="2.84486">
        <ele>721.1</ele>
        <time>2021-08-26T11:12:51.000Z</time>
      </trkpt>
      <trkpt lat="45.7891" lon="2.84478">
        <ele>721.6</ele>
        <time>2021-08-26T11:12:57.000Z</time>
      </trkpt>
      <trkpt lat="45.78915" lon="2.84469">
        <ele>722.1</ele>
        <time>2021-08-26T11:13:03.000Z</time>
      </trkpt>
      <trkpt lat="45.78918" lon="2.84455">
        <ele>723.3</ele>
        <time>2021-08-26T11:13:08.000Z</time>
      </trkpt>
      <trkpt lat="45.7892" lon="2.84442">
        <ele>724.5</ele>
        <time>2021-08-26T11:13:13.000Z</time>
      </trkpt>
      <trkpt lat="45.78923" lon="2.84428">
        <ele>725.6</ele>
        <time>2021-08-26T11:13:18.000Z</time>
      </trkpt>
      <trkpt lat="45.78927" lon="2.84419">
        <ele>726.1</ele>
        <time>2021-08-26T11:13:26.000Z</time>
      </trkpt>
      <trkpt lat="45.7893" lon="2.84411">
        <ele>727</ele>
        <time>2021-08-26T11:13:33.000Z</time>
      </trkpt>
      <trkpt lat="45.78939" lon="2.84406">
        <ele>727.3</ele>
        <time>2021-08-26T11:13:38.000Z</time>
      </trkpt>
      <trkpt lat="45.78941" lon="2.84396">
        <ele>728.9</ele>
        <time>2021-08-26T11:13:44.000Z</time>
      </trkpt>
      <trkpt lat="45.78945" lon="2.84386">
        <ele>730.5</ele>
        <time>2021-08-26T11:13:50.000Z</time>
      </trkpt>
      <trkpt lat="45.78951" lon="2.84382">
        <ele>730.9</ele>
        <time>2021-08-26T11:13:58.000Z</time>
      </trkpt>
      <trkpt lat="45.78957" lon="2.84376">
        <ele>731.6</ele>
        <time>2021-08-26T11:14:08.000Z</time>
      </trkpt>
      <trkpt lat="45.78963" lon="2.84372">
        <ele>732.1</ele>
        <time>2021-08-26T11:14:13.000Z</time>
      </trkpt>
      <trkpt lat="45.7897" lon="2.8437">
        <ele>732.1</ele>
        <time>2021-08-26T11:14:18.000Z</time>
      </trkpt>
      <trkpt lat="45.78978" lon="2.84367">
        <ele>732.2</ele>
        <time>2021-08-26T11:14:24.000Z</time>
      </trkpt>
      <trkpt lat="45.78985" lon="2.84363">
        <ele>732.7</ele>
        <time>2021-08-26T11:14:31.000Z</time>
      </trkpt>
      <trkpt lat="45.78991" lon="2.84356">
        <ele>733.8</ele>
        <time>2021-08-26T11:14:38.000Z</time>
      </trkpt>
      <trkpt lat="45.78996" lon="2.84351">
        <ele>734.6</ele>
        <time>2021-08-26T11:14:45.000Z</time>
      </trkpt>
      <trkpt lat="45.79" lon="2.84343">
        <ele>736</ele>
        <time>2021-08-26T11:15:05.000Z</time>
      </trkpt>
      <trkpt lat="45.79006" lon="2.84339">
        <ele>736</ele>
        <time>2021-08-26T11:15:15.000Z</time>
      </trkpt>
      <trkpt lat="45.79013" lon="2.84336">
        <ele>735.6</ele>
        <time>2021-08-26T11:15:21.000Z</time>
      </trkpt>
      <trkpt lat="45.79018" lon="2.84326">
        <ele>736.3</ele>
        <time>2021-08-26T11:15:26.000Z</time>
      </trkpt>
      <trkpt lat="45.79016" lon="2.84316">
        <ele>737.7</ele>
        <time>2021-08-26T11:15:32.000Z</time>
      </trkpt>
      <trkpt lat="45.79013" lon="2.84307">
        <ele>739.1</ele>
        <time>2021-08-26T11:15:41.000Z</time>
      </trkpt>
      <trkpt lat="45.79008" lon="2.843">
        <ele>740.6</ele>
        <time>2021-08-26T11:15:56.000Z</time>
      </trkpt>
      <trkpt lat="45.79011" lon="2.84291">
        <ele>741.2</ele>
        <time>2021-08-26T11:16:03.000Z</time>
      </trkpt>
      <trkpt lat="45.79015" lon="2.84282">
        <ele>741.7</ele>
        <time>2021-08-26T11:16:16.000Z</time>
      </trkpt>
      <trkpt lat="45.79021" lon="2.84279">
        <ele>741.3</ele>
        <time>2021-08-26T11:16:24.000Z</time>
      </trkpt>
      <trkpt lat="45.79023" lon="2.8427">
        <ele>742.2</ele>
        <time>2021-08-26T11:16:35.000Z</time>
      </trkpt>
      <trkpt lat="45.7902" lon="2.84262">
        <ele>743.4</ele>
        <time>2021-08-26T11:16:44.000Z</time>
      </trkpt>
      <trkpt lat="45.79014" lon="2.84251">
        <ele>745.4</ele>
        <time>2021-08-26T11:17:00.000Z</time>
      </trkpt>
      <trkpt lat="45.79007" lon="2.84253">
        <ele>745.9</ele>
        <time>2021-08-26T11:17:13.000Z</time>
      </trkpt>
      <trkpt lat="45.79002" lon="2.84245">
        <ele>746.3</ele>
        <time>2021-08-26T11:17:30.000Z</time>
      </trkpt>
      <trkpt lat="45.78998" lon="2.84233">
        <ele>745.4</ele>
        <time>2021-08-26T11:17:36.000Z</time>
      </trkpt>
      <trkpt lat="45.78993" lon="2.84222">
        <ele>744.4</ele>
        <time>2021-08-26T11:17:41.000Z</time>
      </trkpt>
      <trkpt lat="45.78986" lon="2.84217">
        <ele>744.1</ele>
        <time>2021-08-26T11:17:46.000Z</time>
      </trkpt>
      <trkpt lat="45.78985" lon="2.84208">
        <ele>743.3</ele>
        <time>2021-08-26T11:17:53.000Z</time>
      </trkpt>
      <trkpt lat="45.78978" lon="2.84206">
        <ele>743.3</ele>
        <time>2021-08-26T11:17:58.000Z</time>
      </trkpt>
      <trkpt lat="45.78971" lon="2.84203">
        <ele>743.3</ele>
        <time>2021-08-26T11:18:04.000Z</time>
      </trkpt>
      <trkpt lat="45.78964" lon="2.84202">
        <ele>743.4</ele>
        <time>2021-08-26T11:18:10.000Z</time>
      </trkpt>
      <trkpt lat="45.78958" lon="2.84203">
        <ele>743.6</ele>
        <time>2021-08-26T11:18:17.000Z</time>
      </trkpt>
      <trkpt lat="45.7895" lon="2.84198">
        <ele>743.5</ele>
        <time>2021-08-26T11:18:24.000Z</time>
      </trkpt>
      <trkpt lat="45.78945" lon="2.84193">
        <ele>743.3</ele>
        <time>2021-08-26T11:18:30.000Z</time>
      </trkpt>
      <trkpt lat="45.78937" lon="2.84191">
        <ele>743.5</ele>
        <time>2021-08-26T11:18:36.000Z</time>
      </trkpt>
      <trkpt lat="45.7893" lon="2.84193">
        <ele>743.8</ele>
        <time>2021-08-26T11:18:43.000Z</time>
      </trkpt>
      <trkpt lat="45.78923" lon="2.84193">
        <ele>744.1</ele>
        <time>2021-08-26T11:18:49.000Z</time>
      </trkpt>
      <trkpt lat="45.78914" lon="2.84195">
        <ele>744.5</ele>
        <time>2021-08-26T11:18:57.000Z</time>
      </trkpt>
      <trkpt lat="45.78907" lon="2.84195">
        <ele>744.9</ele>
        <time>2021-08-26T11:19:24.000Z</time>
      </trkpt>
      <trkpt lat="45.78901" lon="2.84192">
        <ele>745</ele>
        <time>2021-08-26T11:19:30.000Z</time>
      </trkpt>
      <trkpt lat="45.78894" lon="2.84191">
        <ele>745.4</ele>
        <time>2021-08-26T11:19:38.000Z</time>
      </trkpt>
      <trkpt lat="45.78886" lon="2.8419">
        <ele>745.8</ele>
        <time>2021-08-26T11:19:46.000Z</time>
      </trkpt>
      <trkpt lat="45.78879" lon="2.8419">
        <ele>746.1</ele>
        <time>2021-08-26T11:19:53.000Z</time>
      </trkpt>
      <trkpt lat="45.78872" lon="2.84189">
        <ele>746.5</ele>
        <time>2021-08-26T11:19:59.000Z</time>
      </trkpt>
      <trkpt lat="45.78865" lon="2.84188">
        <ele>746.8</ele>
        <time>2021-08-26T11:20:06.000Z</time>
      </trkpt>
      <trkpt lat="45.78856" lon="2.84189">
        <ele>747.3</ele>
        <time>2021-08-26T11:20:12.000Z</time>
      </trkpt>
      <trkpt lat="45.7885" lon="2.84193">
        <ele>747.8</ele>
        <time>2021-08-26T11:20:18.000Z</time>
      </trkpt>
      <trkpt lat="45.78842" lon="2.84198">
        <ele>748.3</ele>
        <time>2021-08-26T11:20:24.000Z</time>
      </trkpt>
      <trkpt lat="45.78835" lon="2.84203">
        <ele>748.8</ele>
        <time>2021-08-26T11:20:30.000Z</time>
      </trkpt>
      <trkpt lat="45.78829" lon="2.84207">
        <ele>749.1</ele>
        <time>2021-08-26T11:20:36.000Z</time>
      </trkpt>
      <trkpt lat="45.78822" lon="2.84209">
        <ele>749.4</ele>
        <time>2021-08-26T11:20:41.000Z</time>
      </trkpt>
      <trkpt lat="45.78815" lon="2.84212">
        <ele>749.6</ele>
        <time>2021-08-26T11:20:47.000Z</time>
      </trkpt>
      <trkpt lat="45.78809" lon="2.84211">
        <ele>749.8</ele>
        <time>2021-08-26T11:20:52.000Z</time>
      </trkpt>
      <trkpt lat="45.78802" lon="2.84211">
        <ele>750</ele>
        <time>2021-08-26T11:21:00.000Z</time>
      </trkpt>
      <trkpt lat="45.78797" lon="2.84218">
        <ele>750.3</ele>
        <time>2021-08-26T11:21:08.000Z</time>
      </trkpt>
      <trkpt lat="45.78788" lon="2.84223">
        <ele>750.6</ele>
        <time>2021-08-26T11:21:13.000Z</time>
      </trkpt>
      <trkpt lat="45.7878" lon="2.84225">
        <ele>750.9</ele>
        <time>2021-08-26T11:21:21.000Z</time>
      </trkpt>
      <trkpt lat="45.78772" lon="2.84225">
        <ele>751.1</ele>
        <time>2021-08-26T11:21:49.000Z</time>
      </trkpt>
      <trkpt lat="45.78767" lon="2.84231">
        <ele>751.3</ele>
        <time>2021-08-26T11:21:54.000Z</time>
      </trkpt>
      <trkpt lat="45.7876" lon="2.84234">
        <ele>751.5</ele>
        <time>2021-08-26T11:22:00.000Z</time>
      </trkpt>
      <trkpt lat="45.78753" lon="2.84239">
        <ele>751.8</ele>
        <time>2021-08-26T11:22:05.000Z</time>
      </trkpt>
      <trkpt lat="45.78746" lon="2.84242">
        <ele>751.9</ele>
        <time>2021-08-26T11:22:10.000Z</time>
      </trkpt>
      <trkpt lat="45.78738" lon="2.84247">
        <ele>752</ele>
        <time>2021-08-26T11:22:16.000Z</time>
      </trkpt>
      <trkpt lat="45.78731" lon="2.8425">
        <ele>752</ele>
        <time>2021-08-26T11:22:21.000Z</time>
      </trkpt>
      <trkpt lat="45.78724" lon="2.84252">
        <ele>752</ele>
        <time>2021-08-26T11:22:26.000Z</time>
      </trkpt>
      <trkpt lat="45.78717" lon="2.84253">
        <ele>751.9</ele>
        <time>2021-08-26T11:22:32.000Z</time>
      </trkpt>
      <trkpt lat="45.7871" lon="2.84255">
        <ele>751.9</ele>
        <time>2021-08-26T11:22:37.000Z</time>
      </trkpt>
      <trkpt lat="45.78704" lon="2.8426">
        <ele>751.8</ele>
        <time>2021-08-26T11:22:42.000Z</time>
      </trkpt>
      <trkpt lat="45.78698" lon="2.84266">
        <ele>751.7</ele>
        <time>2021-08-26T11:22:48.000Z</time>
      </trkpt>
      <trkpt lat="45.78691" lon="2.84272">
        <ele>751.7</ele>
        <time>2021-08-26T11:22:54.000Z</time>
      </trkpt>
      <trkpt lat="45.78684" lon="2.8427">
        <ele>751.7</ele>
        <time>2021-08-26T11:23:35.000Z</time>
      </trkpt>
      <trkpt lat="45.78691" lon="2.84266">
        <ele>751.8</ele>
        <time>2021-08-26T11:24:19.000Z</time>
      </trkpt>
      <trkpt lat="45.78698" lon="2.84263">
        <ele>751.8</ele>
        <time>2021-08-26T11:24:24.000Z</time>
      </trkpt>
      <trkpt lat="45.78705" lon="2.8426">
        <ele>751.8</ele>
        <time>2021-08-26T11:24:29.000Z</time>
      </trkpt>
      <trkpt lat="45.78712" lon="2.84256">
        <ele>751.9</ele>
        <time>2021-08-26T11:24:34.000Z</time>
      </trkpt>
      <trkpt lat="45.78721" lon="2.84253">
        <ele>751.9</ele>
        <time>2021-08-26T11:24:40.000Z</time>
      </trkpt>
      <trkpt lat="45.78728" lon="2.84252">
        <ele>752</ele>
        <time>2021-08-26T11:24:46.000Z</time>
      </trkpt>
      <trkpt lat="45.78737" lon="2.84248">
        <ele>752</ele>
        <time>2021-08-26T11:24:52.000Z</time>
      </trkpt>
      <trkpt lat="45.78744" lon="2.84246">
        <ele>752</ele>
        <time>2021-08-26T11:24:57.000Z</time>
      </trkpt>
      <trkpt lat="45.7875" lon="2.84243">
        <ele>751.9</ele>
        <time>2021-08-26T11:25:02.000Z</time>
      </trkpt>
      <trkpt lat="45.78758" lon="2.8424">
        <ele>751.7</ele>
        <time>2021-08-26T11:25:08.000Z</time>
      </trkpt>
      <trkpt lat="45.78765" lon="2.84238">
        <ele>751.5</ele>
        <time>2021-08-26T11:25:13.000Z</time>
      </trkpt>
      <trkpt lat="45.78772" lon="2.84236">
        <ele>751.3</ele>
        <time>2021-08-26T11:25:18.000Z</time>
      </trkpt>
      <trkpt lat="45.78781" lon="2.84234">
        <ele>751</ele>
        <time>2021-08-26T11:25:24.000Z</time>
      </trkpt>
      <trkpt lat="45.78788" lon="2.84232">
        <ele>750.8</ele>
        <time>2021-08-26T11:25:29.000Z</time>
      </trkpt>
      <trkpt lat="45.78794" lon="2.84227">
        <ele>750.5</ele>
        <time>2021-08-26T11:25:34.000Z</time>
      </trkpt>
      <trkpt lat="45.78802" lon="2.84223">
        <ele>750.2</ele>
        <time>2021-08-26T11:25:40.000Z</time>
      </trkpt>
      <trkpt lat="45.78808" lon="2.84219">
        <ele>750</ele>
        <time>2021-08-26T11:25:45.000Z</time>
      </trkpt>
      <trkpt lat="45.78814" lon="2.84214">
        <ele>749.7</ele>
        <time>2021-08-26T11:25:51.000Z</time>
      </trkpt>
      <trkpt lat="45.78819" lon="2.84208">
        <ele>749.4</ele>
        <time>2021-08-26T11:25:56.000Z</time>
      </trkpt>
      <trkpt lat="45.78825" lon="2.84202">
        <ele>749.1</ele>
        <time>2021-08-26T11:26:04.000Z</time>
      </trkpt>
      <trkpt lat="45.78827" lon="2.84193">
        <ele>748.8</ele>
        <time>2021-08-26T11:26:20.000Z</time>
      </trkpt>
      <trkpt lat="45.78833" lon="2.84185">
        <ele>748.5</ele>
        <time>2021-08-26T11:26:25.000Z</time>
      </trkpt>
      <trkpt lat="45.78841" lon="2.84178">
        <ele>747.8</ele>
        <time>2021-08-26T11:26:30.000Z</time>
      </trkpt>
      <trkpt lat="45.78851" lon="2.8417">
        <ele>747</ele>
        <time>2021-08-26T11:26:36.000Z</time>
      </trkpt>
      <trkpt lat="45.78858" lon="2.84167">
        <ele>746.5</ele>
        <time>2021-08-26T11:26:41.000Z</time>
      </trkpt>
      <trkpt lat="45.78865" lon="2.84164">
        <ele>745.9</ele>
        <time>2021-08-26T11:26:46.000Z</time>
      </trkpt>
      <trkpt lat="45.78874" lon="2.84163">
        <ele>745.3</ele>
        <time>2021-08-26T11:26:52.000Z</time>
      </trkpt>
      <trkpt lat="45.78881" lon="2.84163">
        <ele>744.8</ele>
        <time>2021-08-26T11:26:57.000Z</time>
      </trkpt>
      <trkpt lat="45.78888" lon="2.8416">
        <ele>744.1</ele>
        <time>2021-08-26T11:27:02.000Z</time>
      </trkpt>
      <trkpt lat="45.78895" lon="2.84155">
        <ele>743.2</ele>
        <time>2021-08-26T11:27:08.000Z</time>
      </trkpt>
      <trkpt lat="45.78902" lon="2.84149">
        <ele>742.2</ele>
        <time>2021-08-26T11:27:13.000Z</time>
      </trkpt>
      <trkpt lat="45.78907" lon="2.84142">
        <ele>741.1</ele>
        <time>2021-08-26T11:27:19.000Z</time>
      </trkpt>
      <trkpt lat="45.78913" lon="2.84138">
        <ele>740.2</ele>
        <time>2021-08-26T11:27:24.000Z</time>
      </trkpt>
      <trkpt lat="45.78921" lon="2.84134">
        <ele>739.3</ele>
        <time>2021-08-26T11:27:30.000Z</time>
      </trkpt>
      <trkpt lat="45.78927" lon="2.8413">
        <ele>738.7</ele>
        <time>2021-08-26T11:27:36.000Z</time>
      </trkpt>
      <trkpt lat="45.78934" lon="2.84127">
        <ele>738.1</ele>
        <time>2021-08-26T11:27:41.000Z</time>
      </trkpt>
      <trkpt lat="45.7894" lon="2.84122">
        <ele>737.4</ele>
        <time>2021-08-26T11:27:49.000Z</time>
      </trkpt>
      <trkpt lat="45.78945" lon="2.84116">
        <ele>736.6</ele>
        <time>2021-08-26T11:27:54.000Z</time>
      </trkpt>
      <trkpt lat="45.78953" lon="2.84112">
        <ele>735.9</ele>
        <time>2021-08-26T11:28:00.000Z</time>
      </trkpt>
      <trkpt lat="45.7896" lon="2.84109">
        <ele>735.4</ele>
        <time>2021-08-26T11:28:05.000Z</time>
      </trkpt>
      <trkpt lat="45.78967" lon="2.84106">
        <ele>734.9</ele>
        <time>2021-08-26T11:28:10.000Z</time>
      </trkpt>
      <trkpt lat="45.78974" lon="2.84101">
        <ele>734.2</ele>
        <time>2021-08-26T11:28:16.000Z</time>
      </trkpt>
      <trkpt lat="45.78979" lon="2.84095">
        <ele>733.6</ele>
        <time>2021-08-26T11:28:21.000Z</time>
      </trkpt>
      <trkpt lat="45.78985" lon="2.84089">
        <ele>732.9</ele>
        <time>2021-08-26T11:28:27.000Z</time>
      </trkpt>
      <trkpt lat="45.78992" lon="2.84083">
        <ele>732.1</ele>
        <time>2021-08-26T11:28:32.000Z</time>
      </trkpt>
      <trkpt lat="45.78997" lon="2.84077">
        <ele>731.2</ele>
        <time>2021-08-26T11:28:38.000Z</time>
      </trkpt>
      <trkpt lat="45.79004" lon="2.84073">
        <ele>730.5</ele>
        <time>2021-08-26T11:28:51.000Z</time>
      </trkpt>
      <trkpt lat="45.79011" lon="2.84069">
        <ele>729.8</ele>
        <time>2021-08-26T11:28:56.000Z</time>
      </trkpt>
      <trkpt lat="45.79017" lon="2.84061">
        <ele>728.5</ele>
        <time>2021-08-26T11:29:01.000Z</time>
      </trkpt>
      <trkpt lat="45.79024" lon="2.84059">
        <ele>728.1</ele>
        <time>2021-08-26T11:29:06.000Z</time>
      </trkpt>
      <trkpt lat="45.79031" lon="2.84057">
        <ele>727.7</ele>
        <time>2021-08-26T11:29:13.000Z</time>
      </trkpt>
      <trkpt lat="45.79038" lon="2.84054">
        <ele>727.2</ele>
        <time>2021-08-26T11:29:22.000Z</time>
      </trkpt>
      <trkpt lat="45.79047" lon="2.84052">
        <ele>726.7</ele>
        <time>2021-08-26T11:29:28.000Z</time>
      </trkpt>
      <trkpt lat="45.79054" lon="2.84051">
        <ele>726.4</ele>
        <time>2021-08-26T11:29:34.000Z</time>
      </trkpt>
      <trkpt lat="45.79062" lon="2.84052">
        <ele>726.5</ele>
        <time>2021-08-26T11:29:40.000Z</time>
      </trkpt>
      <trkpt lat="45.7907" lon="2.84054">
        <ele>726.6</ele>
        <time>2021-08-26T11:29:46.000Z</time>
      </trkpt>
      <trkpt lat="45.79077" lon="2.84056">
        <ele>726.8</ele>
        <time>2021-08-26T11:29:53.000Z</time>
      </trkpt>
      <trkpt lat="45.79084" lon="2.84057">
        <ele>726.9</ele>
        <time>2021-08-26T11:29:58.000Z</time>
      </trkpt>
      <trkpt lat="45.79077" lon="2.84058">
        <ele>727.1</ele>
        <time>2021-08-26T11:30:10.000Z</time>
      </trkpt>
      <trkpt lat="45.79084" lon="2.84059">
        <ele>727.2</ele>
        <time>2021-08-26T11:30:41.000Z</time>
      </trkpt>
      <trkpt lat="45.79092" lon="2.84061">
        <ele>727.3</ele>
        <time>2021-08-26T11:30:48.000Z</time>
      </trkpt>
      <trkpt lat="45.79098" lon="2.84064">
        <ele>727.6</ele>
        <time>2021-08-26T11:30:55.000Z</time>
      </trkpt>
      <trkpt lat="45.79108" lon="2.84066">
        <ele>727.7</ele>
        <time>2021-08-26T11:31:00.000Z</time>
      </trkpt>
      <trkpt lat="45.79114" lon="2.84068">
        <ele>728</ele>
        <time>2021-08-26T11:31:06.000Z</time>
      </trkpt>
      <trkpt lat="45.79121" lon="2.84067">
        <ele>727.7</ele>
        <time>2021-08-26T11:31:24.000Z</time>
      </trkpt>
      <trkpt lat="45.79128" lon="2.84067">
        <ele>727.5</ele>
        <time>2021-08-26T11:31:29.000Z</time>
      </trkpt>
      <trkpt lat="45.79134" lon="2.84064">
        <ele>726.7</ele>
        <time>2021-08-26T11:31:34.000Z</time>
      </trkpt>
      <trkpt lat="45.79141" lon="2.84062">
        <ele>726.1</ele>
        <time>2021-08-26T11:31:42.000Z</time>
      </trkpt>
      <trkpt lat="45.79147" lon="2.84058">
        <ele>725</ele>
        <time>2021-08-26T11:31:53.000Z</time>
      </trkpt>
      <trkpt lat="45.79153" lon="2.84054">
        <ele>723.8</ele>
        <time>2021-08-26T11:31:58.000Z</time>
      </trkpt>
      <trkpt lat="45.79162" lon="2.84051">
        <ele>722.7</ele>
        <time>2021-08-26T11:32:04.000Z</time>
      </trkpt>
      <trkpt lat="45.79169" lon="2.84048">
        <ele>721.8</ele>
        <time>2021-08-26T11:32:09.000Z</time>
      </trkpt>
      <trkpt lat="45.79177" lon="2.84046">
        <ele>721.5</ele>
        <time>2021-08-26T11:32:14.000Z</time>
      </trkpt>
      <trkpt lat="45.79184" lon="2.84039">
        <ele>720.1</ele>
        <time>2021-08-26T11:32:20.000Z</time>
      </trkpt>
      <trkpt lat="45.7919" lon="2.84032">
        <ele>718.7</ele>
        <time>2021-08-26T11:32:26.000Z</time>
      </trkpt>
      <trkpt lat="45.79195" lon="2.84024">
        <ele>717</ele>
        <time>2021-08-26T11:32:32.000Z</time>
      </trkpt>
      <trkpt lat="45.79199" lon="2.84017">
        <ele>715.6</ele>
        <time>2021-08-26T11:32:37.000Z</time>
      </trkpt>
      <trkpt lat="45.79205" lon="2.84012">
        <ele>714.9</ele>
        <time>2021-08-26T11:32:43.000Z</time>
      </trkpt>
      <trkpt lat="45.79211" lon="2.84008">
        <ele>714.5</ele>
        <time>2021-08-26T11:32:50.000Z</time>
      </trkpt>
      <trkpt lat="45.79219" lon="2.84007">
        <ele>714.9</ele>
        <time>2021-08-26T11:32:56.000Z</time>
      </trkpt>
      <trkpt lat="45.79225" lon="2.84007">
        <ele>715.3</ele>
        <time>2021-08-26T11:33:03.000Z</time>
      </trkpt>
      <trkpt lat="45.79232" lon="2.84008">
        <ele>716.1</ele>
        <time>2021-08-26T11:33:09.000Z</time>
      </trkpt>
      <trkpt lat="45.79239" lon="2.84006">
        <ele>716.2</ele>
        <time>2021-08-26T11:33:15.000Z</time>
      </trkpt>
      <trkpt lat="45.79246" lon="2.8401">
        <ele>717.5</ele>
        <time>2021-08-26T11:33:22.000Z</time>
      </trkpt>
      <trkpt lat="45.79253" lon="2.84008">
        <ele>717.7</ele>
        <time>2021-08-26T11:33:28.000Z</time>
      </trkpt>
      <trkpt lat="45.7926" lon="2.84007">
        <ele>718.1</ele>
        <time>2021-08-26T11:33:35.000Z</time>
      </trkpt>
      <trkpt lat="45.79267" lon="2.84004">
        <ele>718.3</ele>
        <time>2021-08-26T11:33:42.000Z</time>
      </trkpt>
      <trkpt lat="45.79274" lon="2.84002">
        <ele>718.6</ele>
        <time>2021-08-26T11:33:48.000Z</time>
      </trkpt>
      <trkpt lat="45.79281" lon="2.84">
        <ele>719</ele>
        <time>2021-08-26T11:33:53.000Z</time>
      </trkpt>
      <trkpt lat="45.79288" lon="2.83998">
        <ele>718.9</ele>
        <time>2021-08-26T11:34:01.000Z</time>
      </trkpt>
      <trkpt lat="45.79296" lon="2.83997">
        <ele>719.3</ele>
        <time>2021-08-26T11:34:06.000Z</time>
      </trkpt>
      <trkpt lat="45.79304" lon="2.83996">
        <ele>719.7</ele>
        <time>2021-08-26T11:34:12.000Z</time>
      </trkpt>
      <trkpt lat="45.79312" lon="2.83996">
        <ele>720.4</ele>
        <time>2021-08-26T11:34:17.000Z</time>
      </trkpt>
      <trkpt lat="45.79319" lon="2.83997">
        <ele>721.5</ele>
        <time>2021-08-26T11:34:22.000Z</time>
      </trkpt>
      <trkpt lat="45.79327" lon="2.84002">
        <ele>723.6</ele>
        <time>2021-08-26T11:34:28.000Z</time>
      </trkpt>
      <trkpt lat="45.79332" lon="2.84009">
        <ele>724.5</ele>
        <time>2021-08-26T11:34:33.000Z</time>
      </trkpt>
      <trkpt lat="45.79338" lon="2.84015">
        <ele>725.2</ele>
        <time>2021-08-26T11:34:38.000Z</time>
      </trkpt>
      <trkpt lat="45.79344" lon="2.84022">
        <ele>725.8</ele>
        <time>2021-08-26T11:34:44.000Z</time>
      </trkpt>
      <trkpt lat="45.79351" lon="2.8402">
        <ele>725.8</ele>
        <time>2021-08-26T11:34:52.000Z</time>
      </trkpt>
      <trkpt lat="45.79357" lon="2.84017">
        <ele>725.8</ele>
        <time>2021-08-26T11:34:59.000Z</time>
      </trkpt>
      <trkpt lat="45.79365" lon="2.84015">
        <ele>725.9</ele>
        <time>2021-08-26T11:35:06.000Z</time>
      </trkpt>
      <trkpt lat="45.79371" lon="2.84013">
        <ele>725.9</ele>
        <time>2021-08-26T11:35:13.000Z</time>
      </trkpt>
      <trkpt lat="45.79378" lon="2.84011">
        <ele>726</ele>
        <time>2021-08-26T11:35:19.000Z</time>
      </trkpt>
      <trkpt lat="45.79384" lon="2.84013">
        <ele>726.3</ele>
        <time>2021-08-26T11:35:25.000Z</time>
      </trkpt>
      <trkpt lat="45.79392" lon="2.84011">
        <ele>726.4</ele>
        <time>2021-08-26T11:35:32.000Z</time>
      </trkpt>
      <trkpt lat="45.79398" lon="2.84012">
        <ele>726.6</ele>
        <time>2021-08-26T11:35:38.000Z</time>
      </trkpt>
      <trkpt lat="45.79405" lon="2.84006">
        <ele>726.7</ele>
        <time>2021-08-26T11:35:44.000Z</time>
      </trkpt>
      <trkpt lat="45.79412" lon="2.84004">
        <ele>726.9</ele>
        <time>2021-08-26T11:35:49.000Z</time>
      </trkpt>
      <trkpt lat="45.79418" lon="2.84">
        <ele>727.1</ele>
        <time>2021-08-26T11:35:55.000Z</time>
      </trkpt>
      <trkpt lat="45.79422" lon="2.8399">
        <ele>724.2</ele>
        <time>2021-08-26T11:36:01.000Z</time>
      </trkpt>
      <trkpt lat="45.79428" lon="2.8398">
        <ele>721.6</ele>
        <time>2021-08-26T11:36:06.000Z</time>
      </trkpt>
      <trkpt lat="45.79438" lon="2.83976">
        <ele>721.2</ele>
        <time>2021-08-26T11:36:12.000Z</time>
      </trkpt>
      <trkpt lat="45.79443" lon="2.83959">
        <ele>716.9</ele>
        <time>2021-08-26T11:36:17.000Z</time>
      </trkpt>
      <trkpt lat="45.7945" lon="2.83941">
        <ele>712.7</ele>
        <time>2021-08-26T11:36:22.000Z</time>
      </trkpt>
      <trkpt lat="45.79455" lon="2.83931">
        <ele>710.7</ele>
        <time>2021-08-26T11:36:28.000Z</time>
      </trkpt>
      <trkpt lat="45.79461" lon="2.83931">
        <ele>711.6</ele>
        <time>2021-08-26T11:36:35.000Z</time>
      </trkpt>
      <trkpt lat="45.79468" lon="2.83932">
        <ele>712.8</ele>
        <time>2021-08-26T11:36:41.000Z</time>
      </trkpt>
      <trkpt lat="45.79475" lon="2.8393">
        <ele>713.3</ele>
        <time>2021-08-26T11:36:49.000Z</time>
      </trkpt>
      <trkpt lat="45.79483" lon="2.83931">
        <ele>714.6</ele>
        <time>2021-08-26T11:36:55.000Z</time>
      </trkpt>
      <trkpt lat="45.7949" lon="2.83933">
        <ele>716</ele>
        <time>2021-08-26T11:37:00.000Z</time>
      </trkpt>
      <trkpt lat="45.79499" lon="2.83934">
        <ele>717.4</ele>
        <time>2021-08-26T11:37:05.000Z</time>
      </trkpt>
      <trkpt lat="45.79509" lon="2.83935">
        <ele>717.6</ele>
        <time>2021-08-26T11:37:10.000Z</time>
      </trkpt>
      <trkpt lat="45.79516" lon="2.83936">
        <ele>717.7</ele>
        <time>2021-08-26T11:37:16.000Z</time>
      </trkpt>
      <trkpt lat="45.79527" lon="2.83936">
        <ele>717.5</ele>
        <time>2021-08-26T11:37:21.000Z</time>
      </trkpt>
      <trkpt lat="45.79535" lon="2.83933">
        <ele>716.7</ele>
        <time>2021-08-26T11:37:26.000Z</time>
      </trkpt>
      <trkpt lat="45.79541" lon="2.83931">
        <ele>716.3</ele>
        <time>2021-08-26T11:37:34.000Z</time>
      </trkpt>
      <trkpt lat="45.79549" lon="2.83931">
        <ele>716.1</ele>
        <time>2021-08-26T11:37:42.000Z</time>
      </trkpt>
      <trkpt lat="45.79556" lon="2.83933">
        <ele>716.4</ele>
        <time>2021-08-26T11:37:49.000Z</time>
      </trkpt>
      <trkpt lat="45.79563" lon="2.83935">
        <ele>716.7</ele>
        <time>2021-08-26T11:37:54.000Z</time>
      </trkpt>
      <trkpt lat="45.79569" lon="2.83935">
        <ele>716.5</ele>
        <time>2021-08-26T11:38:01.000Z</time>
      </trkpt>
      <trkpt lat="45.79576" lon="2.83936">
        <ele>716.6</ele>
        <time>2021-08-26T11:38:08.000Z</time>
      </trkpt>
      <trkpt lat="45.79584" lon="2.83936">
        <ele>716.4</ele>
        <time>2021-08-26T11:38:14.000Z</time>
      </trkpt>
      <trkpt lat="45.79592" lon="2.83939">
        <ele>715.9</ele>
        <time>2021-08-26T11:38:22.000Z</time>
      </trkpt>
      <trkpt lat="45.79597" lon="2.83945">
        <ele>716.4</ele>
        <time>2021-08-26T11:38:29.000Z</time>
      </trkpt>
      <trkpt lat="45.79603" lon="2.83949">
        <ele>716.4</ele>
        <time>2021-08-26T11:38:35.000Z</time>
      </trkpt>
      <trkpt lat="45.7961" lon="2.83953">
        <ele>716.3</ele>
        <time>2021-08-26T11:38:40.000Z</time>
      </trkpt>
      <trkpt lat="45.79617" lon="2.83956">
        <ele>716</ele>
        <time>2021-08-26T11:38:46.000Z</time>
      </trkpt>
      <trkpt lat="45.79622" lon="2.83962">
        <ele>716.6</ele>
        <time>2021-08-26T11:38:52.000Z</time>
      </trkpt>
      <trkpt lat="45.79628" lon="2.83966">
        <ele>716.7</ele>
        <time>2021-08-26T11:38:59.000Z</time>
      </trkpt>
      <trkpt lat="45.79636" lon="2.83967">
        <ele>716</ele>
        <time>2021-08-26T11:43:25.000Z</time>
      </trkpt>
      <trkpt lat="45.79643" lon="2.83965">
        <ele>714.8</ele>
        <time>2021-08-26T11:43:45.000Z</time>
      </trkpt>
      <trkpt lat="45.7965" lon="2.83962">
        <ele>713.3</ele>
        <time>2021-08-26T11:45:07.000Z</time>
      </trkpt>
      <trkpt lat="45.79655" lon="2.83955">
        <ele>711.2</ele>
        <time>2021-08-26T11:45:16.000Z</time>
      </trkpt>
      <trkpt lat="45.79661" lon="2.83951">
        <ele>709.5</ele>
        <time>2021-08-26T11:45:23.000Z</time>
      </trkpt>
      <trkpt lat="45.79667" lon="2.83948">
        <ele>708.1</ele>
        <time>2021-08-26T11:45:30.000Z</time>
      </trkpt>
      <trkpt lat="45.7967" lon="2.83938">
        <ele>705.3</ele>
        <time>2021-08-26T11:45:40.000Z</time>
      </trkpt>
      <trkpt lat="45.79677" lon="2.83942">
        <ele>704.9</ele>
        <time>2021-08-26T11:45:53.000Z</time>
      </trkpt>
      <trkpt lat="45.79677" lon="2.83932">
        <ele>702.8</ele>
        <time>2021-08-26T11:46:02.000Z</time>
      </trkpt>
      <trkpt lat="45.79677" lon="2.8392">
        <ele>700.2</ele>
        <time>2021-08-26T11:46:33.000Z</time>
      </trkpt>
      <trkpt lat="45.79673" lon="2.83912">
        <ele>699</ele>
        <time>2021-08-26T11:46:40.000Z</time>
      </trkpt>
      <trkpt lat="45.79669" lon="2.83903">
        <ele>697.6</ele>
        <time>2021-08-26T11:46:46.000Z</time>
      </trkpt>
      <trkpt lat="45.79663" lon="2.83893">
        <ele>696</ele>
        <time>2021-08-26T11:46:53.000Z</time>
      </trkpt>
      <trkpt lat="45.79657" lon="2.83884">
        <ele>694.6</ele>
        <time>2021-08-26T11:46:58.000Z</time>
      </trkpt>
      <trkpt lat="45.7965" lon="2.8388">
        <ele>694.4</ele>
        <time>2021-08-26T11:47:09.000Z</time>
      </trkpt>
      <trkpt lat="45.79645" lon="2.83873">
        <ele>693.2</ele>
        <time>2021-08-26T11:47:14.000Z</time>
      </trkpt>
      <trkpt lat="45.7964" lon="2.83864">
        <ele>691.4</ele>
        <time>2021-08-26T11:47:20.000Z</time>
      </trkpt>
      <trkpt lat="45.79633" lon="2.83866">
        <ele>692.6</ele>
        <time>2021-08-26T11:47:29.000Z</time>
      </trkpt>
      <trkpt lat="45.79626" lon="2.83863">
        <ele>692.4</ele>
        <time>2021-08-26T11:47:35.000Z</time>
      </trkpt>
      <trkpt lat="45.7962" lon="2.83858">
        <ele>691.6</ele>
        <time>2021-08-26T11:47:42.000Z</time>
      </trkpt>
      <trkpt lat="45.79613" lon="2.83857">
        <ele>691.9</ele>
        <time>2021-08-26T11:47:48.000Z</time>
      </trkpt>
      <trkpt lat="45.79605" lon="2.83854">
        <ele>691.7</ele>
        <time>2021-08-26T11:47:53.000Z</time>
      </trkpt>
      <trkpt lat="45.79597" lon="2.83848">
        <ele>690.6</ele>
        <time>2021-08-26T11:47:58.000Z</time>
      </trkpt>
      <trkpt lat="45.79589" lon="2.83846">
        <ele>690.5</ele>
        <time>2021-08-26T11:48:04.000Z</time>
      </trkpt>
      <trkpt lat="45.79583" lon="2.83842">
        <ele>689.7</ele>
        <time>2021-08-26T11:48:09.000Z</time>
      </trkpt>
      <trkpt lat="45.79583" lon="2.83833">
        <ele>686.9</ele>
        <time>2021-08-26T11:48:18.000Z</time>
      </trkpt>
      <trkpt lat="45.79589" lon="2.83832">
        <ele>686.5</ele>
        <time>2021-08-26T11:48:26.000Z</time>
      </trkpt>
      <trkpt lat="45.79596" lon="2.83833">
        <ele>686.2</ele>
        <time>2021-08-26T11:48:32.000Z</time>
      </trkpt>
      <trkpt lat="45.79602" lon="2.83837">
        <ele>687</ele>
        <time>2021-08-26T11:48:38.000Z</time>
      </trkpt>
      <trkpt lat="45.79608" lon="2.83843">
        <ele>688.3</ele>
        <time>2021-08-26T11:48:44.000Z</time>
      </trkpt>
      <trkpt lat="45.79615" lon="2.83847">
        <ele>688.9</ele>
        <time>2021-08-26T11:48:49.000Z</time>
      </trkpt>
      <trkpt lat="45.79623" lon="2.8385">
        <ele>689.2</ele>
        <time>2021-08-26T11:48:54.000Z</time>
      </trkpt>
      <trkpt lat="45.7963" lon="2.83854">
        <ele>689.7</ele>
        <time>2021-08-26T11:49:00.000Z</time>
      </trkpt>
      <trkpt lat="45.79636" lon="2.83857">
        <ele>690</ele>
        <time>2021-08-26T11:49:05.000Z</time>
      </trkpt>
      <trkpt lat="45.79643" lon="2.83862">
        <ele>690.6</ele>
        <time>2021-08-26T11:49:10.000Z</time>
      </trkpt>
      <trkpt lat="45.79652" lon="2.83866">
        <ele>690.8</ele>
        <time>2021-08-26T11:49:16.000Z</time>
      </trkpt>
      <trkpt lat="45.79659" lon="2.83871">
        <ele>691.3</ele>
        <time>2021-08-26T11:49:22.000Z</time>
      </trkpt>
      <trkpt lat="45.79665" lon="2.83875">
        <ele>691.7</ele>
        <time>2021-08-26T11:49:39.000Z</time>
      </trkpt>
      <trkpt lat="45.79671" lon="2.8388">
        <ele>692.2</ele>
        <time>2021-08-26T11:49:49.000Z</time>
      </trkpt>
      <trkpt lat="45.79675" lon="2.83887">
        <ele>693.2</ele>
        <time>2021-08-26T11:49:59.000Z</time>
      </trkpt>
      <trkpt lat="45.79679" lon="2.83895">
        <ele>694.5</ele>
        <time>2021-08-26T11:50:06.000Z</time>
      </trkpt>
      <trkpt lat="45.79679" lon="2.83904">
        <ele>696.5</ele>
        <time>2021-08-26T11:50:15.000Z</time>
      </trkpt>
      <trkpt lat="45.79676" lon="2.83913">
        <ele>698.8</ele>
        <time>2021-08-26T11:50:22.000Z</time>
      </trkpt>
      <trkpt lat="45.7968" lon="2.83921">
        <ele>700</ele>
        <time>2021-08-26T11:50:39.000Z</time>
      </trkpt>
      <trkpt lat="45.79689" lon="2.8392">
        <ele>698.4</ele>
        <time>2021-08-26T11:51:36.000Z</time>
      </trkpt>
      <trkpt lat="45.79693" lon="2.83928">
        <ele>699.4</ele>
        <time>2021-08-26T11:51:44.000Z</time>
      </trkpt>
      <trkpt lat="45.79701" lon="2.83934">
        <ele>699.2</ele>
        <time>2021-08-26T11:51:49.000Z</time>
      </trkpt>
      <trkpt lat="45.79708" lon="2.83942">
        <ele>699.3</ele>
        <time>2021-08-26T11:51:54.000Z</time>
      </trkpt>
      <trkpt lat="45.79715" lon="2.83947">
        <ele>698.8</ele>
        <time>2021-08-26T11:52:00.000Z</time>
      </trkpt>
      <trkpt lat="45.79721" lon="2.83952">
        <ele>698.5</ele>
        <time>2021-08-26T11:52:34.000Z</time>
      </trkpt>
      <trkpt lat="45.79727" lon="2.83959">
        <ele>698.3</ele>
        <time>2021-08-26T11:52:40.000Z</time>
      </trkpt>
      <trkpt lat="45.79733" lon="2.83965">
        <ele>697.9</ele>
        <time>2021-08-26T11:52:46.000Z</time>
      </trkpt>
      <trkpt lat="45.79741" lon="2.83972">
        <ele>697</ele>
        <time>2021-08-26T11:52:52.000Z</time>
      </trkpt>
      <trkpt lat="45.79748" lon="2.83977">
        <ele>696</ele>
        <time>2021-08-26T11:52:58.000Z</time>
      </trkpt>
      <trkpt lat="45.79755" lon="2.83981">
        <ele>694.8</ele>
        <time>2021-08-26T11:53:04.000Z</time>
      </trkpt>
      <trkpt lat="45.79763" lon="2.83984">
        <ele>693.2</ele>
        <time>2021-08-26T11:53:09.000Z</time>
      </trkpt>
      <trkpt lat="45.79773" lon="2.83988">
        <ele>691.2</ele>
        <time>2021-08-26T11:53:14.000Z</time>
      </trkpt>
      <trkpt lat="45.79782" lon="2.83993">
        <ele>689.4</ele>
        <time>2021-08-26T11:53:20.000Z</time>
      </trkpt>
      <trkpt lat="45.79789" lon="2.83996">
        <ele>687.9</ele>
        <time>2021-08-26T11:53:26.000Z</time>
      </trkpt>
      <trkpt lat="45.79797" lon="2.83999">
        <ele>686.1</ele>
        <time>2021-08-26T11:53:32.000Z</time>
      </trkpt>
      <trkpt lat="45.79804" lon="2.83997">
        <ele>684.3</ele>
        <time>2021-08-26T11:53:37.000Z</time>
      </trkpt>
      <trkpt lat="45.79814" lon="2.8399">
        <ele>681.5</ele>
        <time>2021-08-26T11:53:42.000Z</time>
      </trkpt>
      <trkpt lat="45.79822" lon="2.83981">
        <ele>679.4</ele>
        <time>2021-08-26T11:53:48.000Z</time>
      </trkpt>
      <trkpt lat="45.79833" lon="2.83977">
        <ele>676.8</ele>
        <time>2021-08-26T11:54:09.000Z</time>
      </trkpt>
      <trkpt lat="45.79838" lon="2.83983">
        <ele>677.3</ele>
        <time>2021-08-26T11:54:22.000Z</time>
      </trkpt>
      <trkpt lat="45.7984" lon="2.83993">
        <ele>677.7</ele>
        <time>2021-08-26T11:54:48.000Z</time>
      </trkpt>
      <trkpt lat="45.7984" lon="2.84006">
        <ele>678.1</ele>
        <time>2021-08-26T11:55:09.000Z</time>
      </trkpt>
      <trkpt lat="45.79845" lon="2.84014">
        <ele>679.1</ele>
        <time>2021-08-26T11:55:32.000Z</time>
      </trkpt>
      <trkpt lat="45.79852" lon="2.84009">
        <ele>679.9</ele>
        <time>2021-08-26T11:56:27.000Z</time>
      </trkpt>
      <trkpt lat="45.79859" lon="2.84007">
        <ele>680.8</ele>
        <time>2021-08-26T11:56:43.000Z</time>
      </trkpt>
      <trkpt lat="45.79866" lon="2.84001">
        <ele>681.4</ele>
        <time>2021-08-26T11:57:10.000Z</time>
      </trkpt>
      <trkpt lat="45.79873" lon="2.84002">
        <ele>682.4</ele>
        <time>2021-08-26T11:57:21.000Z</time>
      </trkpt>
      <trkpt lat="45.79876" lon="2.83993">
        <ele>682.1</ele>
        <time>2021-08-26T11:57:52.000Z</time>
      </trkpt>
      <trkpt lat="45.79883" lon="2.84002">
        <ele>683.7</ele>
        <time>2021-08-26T11:58:58.000Z</time>
      </trkpt>
      <trkpt lat="45.79887" lon="2.84014">
        <ele>685.5</ele>
        <time>2021-08-26T11:59:38.000Z</time>
      </trkpt>
      <trkpt lat="45.7989" lon="2.84026">
        <ele>687.2</ele>
        <time>2021-08-26T12:00:11.000Z</time>
      </trkpt>
      <trkpt lat="45.79891" lon="2.84036">
        <ele>688.5</ele>
        <time>2021-08-26T12:00:35.000Z</time>
      </trkpt>
      <trkpt lat="45.79891" lon="2.84047">
        <ele>689.6</ele>
        <time>2021-08-26T12:00:52.000Z</time>
      </trkpt>
      <trkpt lat="45.79895" lon="2.84055">
        <ele>691.3</ele>
        <time>2021-08-26T12:01:03.000Z</time>
      </trkpt>
      <trkpt lat="45.79898" lon="2.84064">
        <ele>693</ele>
        <time>2021-08-26T12:01:12.000Z</time>
      </trkpt>
      <trkpt lat="45.79897" lon="2.84073">
        <ele>693.8</ele>
        <time>2021-08-26T12:01:27.000Z</time>
      </trkpt>
      <trkpt lat="45.79897" lon="2.84083">
        <ele>695</ele>
        <time>2021-08-26T12:01:40.000Z</time>
      </trkpt>
      <trkpt lat="45.79897" lon="2.84095">
        <ele>696.1</ele>
        <time>2021-08-26T12:01:48.000Z</time>
      </trkpt>
      <trkpt lat="45.79898" lon="2.84106">
        <ele>697.4</ele>
        <time>2021-08-26T12:01:53.000Z</time>
      </trkpt>
      <trkpt lat="45.79905" lon="2.84124">
        <ele>700.8</ele>
        <time>2021-08-26T12:02:47.000Z</time>
      </trkpt>
      <trkpt lat="45.79903" lon="2.84134">
        <ele>701.2</ele>
        <time>2021-08-26T12:03:23.000Z</time>
      </trkpt>
      <trkpt lat="45.79908" lon="2.84141">
        <ele>703.2</ele>
        <time>2021-08-26T12:03:39.000Z</time>
      </trkpt>
      <trkpt lat="45.79915" lon="2.84139">
        <ele>704.9</ele>
        <time>2021-08-26T12:03:48.000Z</time>
      </trkpt>
      <trkpt lat="45.79921" lon="2.84135">
        <ele>706.2</ele>
        <time>2021-08-26T12:03:55.000Z</time>
      </trkpt>
      <trkpt lat="45.79927" lon="2.84129">
        <ele>707.5</ele>
        <time>2021-08-26T12:04:02.000Z</time>
      </trkpt>
      <trkpt lat="45.79932" lon="2.84121">
        <ele>708.2</ele>
        <time>2021-08-26T12:04:09.000Z</time>
      </trkpt>
      <trkpt lat="45.79936" lon="2.84113">
        <ele>708.7</ele>
        <time>2021-08-26T12:04:17.000Z</time>
      </trkpt>
      <trkpt lat="45.79944" lon="2.84106">
        <ele>710.5</ele>
        <time>2021-08-26T12:04:40.000Z</time>
      </trkpt>
      <trkpt lat="45.79945" lon="2.84096">
        <ele>710</ele>
        <time>2021-08-26T12:05:27.000Z</time>
      </trkpt>
      <trkpt lat="45.79948" lon="2.84088">
        <ele>710.2</ele>
        <time>2021-08-26T12:05:34.000Z</time>
      </trkpt>
      <trkpt lat="45.79949" lon="2.84078">
        <ele>709.1</ele>
        <time>2021-08-26T12:05:42.000Z</time>
      </trkpt>
      <trkpt lat="45.79954" lon="2.84072">
        <ele>709.6</ele>
        <time>2021-08-26T12:06:53.000Z</time>
      </trkpt>
      <trkpt lat="45.79961" lon="2.84073">
        <ele>711.9</ele>
        <time>2021-08-26T12:06:59.000Z</time>
      </trkpt>
      <trkpt lat="45.79968" lon="2.84072">
        <ele>713.8</ele>
        <time>2021-08-26T12:07:07.000Z</time>
      </trkpt>
      <trkpt lat="45.79975" lon="2.8407">
        <ele>715.5</ele>
        <time>2021-08-26T12:07:14.000Z</time>
      </trkpt>
      <trkpt lat="45.79982" lon="2.84068">
        <ele>717.2</ele>
        <time>2021-08-26T12:07:42.000Z</time>
      </trkpt>
      <trkpt lat="45.79989" lon="2.84067">
        <ele>719</ele>
        <time>2021-08-26T12:07:49.000Z</time>
      </trkpt>
      <trkpt lat="45.79996" lon="2.84067">
        <ele>721.1</ele>
        <time>2021-08-26T12:07:55.000Z</time>
      </trkpt>
      <trkpt lat="45.80003" lon="2.84065">
        <ele>722.1</ele>
        <time>2021-08-26T12:08:03.000Z</time>
      </trkpt>
      <trkpt lat="45.80009" lon="2.84063">
        <ele>722.3</ele>
        <time>2021-08-26T12:08:08.000Z</time>
      </trkpt>
      <trkpt lat="45.80016" lon="2.84062">
        <ele>722.8</ele>
        <time>2021-08-26T12:08:15.000Z</time>
      </trkpt>
      <trkpt lat="45.80023" lon="2.84063">
        <ele>723.8</ele>
        <time>2021-08-26T12:08:23.000Z</time>
      </trkpt>
      <trkpt lat="45.8003" lon="2.84066">
        <ele>725.3</ele>
        <time>2021-08-26T12:08:53.000Z</time>
      </trkpt>
      <trkpt lat="45.80036" lon="2.84069">
        <ele>726.7</ele>
        <time>2021-08-26T12:09:01.000Z</time>
      </trkpt>
      <trkpt lat="45.80044" lon="2.84069">
        <ele>727.6</ele>
        <time>2021-08-26T12:09:06.000Z</time>
      </trkpt>
      <trkpt lat="45.80052" lon="2.84072">
        <ele>729.2</ele>
        <time>2021-08-26T12:09:12.000Z</time>
      </trkpt>
      <trkpt lat="45.80059" lon="2.84076">
        <ele>731.1</ele>
        <time>2021-08-26T12:09:19.000Z</time>
      </trkpt>
      <trkpt lat="45.80066" lon="2.84078">
        <ele>732.5</ele>
        <time>2021-08-26T12:09:25.000Z</time>
      </trkpt>
      <trkpt lat="45.80073" lon="2.84078">
        <ele>733.3</ele>
        <time>2021-08-26T12:09:31.000Z</time>
      </trkpt>
      <trkpt lat="45.80079" lon="2.84082">
        <ele>735.1</ele>
        <time>2021-08-26T12:09:39.000Z</time>
      </trkpt>
      <trkpt lat="45.80086" lon="2.84085">
        <ele>736</ele>
        <time>2021-08-26T12:09:47.000Z</time>
      </trkpt>
      <trkpt lat="45.80093" lon="2.84087">
        <ele>735.9</ele>
        <time>2021-08-26T12:09:54.000Z</time>
      </trkpt>
      <trkpt lat="45.80099" lon="2.84094">
        <ele>735.9</ele>
        <time>2021-08-26T12:10:13.000Z</time>
      </trkpt>
      <trkpt lat="45.80101" lon="2.84105">
        <ele>735.9</ele>
        <time>2021-08-26T12:10:21.000Z</time>
      </trkpt>
      <trkpt lat="45.80103" lon="2.84114">
        <ele>735.8</ele>
        <time>2021-08-26T12:10:27.000Z</time>
      </trkpt>
      <trkpt lat="45.80104" lon="2.84124">
        <ele>735.8</ele>
        <time>2021-08-26T12:10:35.000Z</time>
      </trkpt>
      <trkpt lat="45.80106" lon="2.84134">
        <ele>735.6</ele>
        <time>2021-08-26T12:10:43.000Z</time>
      </trkpt>
      <trkpt lat="45.80102" lon="2.84141">
        <ele>735.9</ele>
        <time>2021-08-26T12:11:13.000Z</time>
      </trkpt>
      <trkpt lat="45.80091" lon="2.84154">
        <ele>737</ele>
        <time>2021-08-26T12:12:06.000Z</time>
      </trkpt>
      <trkpt lat="45.80085" lon="2.84156">
        <ele>737.6</ele>
        <time>2021-08-26T12:12:39.000Z</time>
      </trkpt>
      <trkpt lat="45.80078" lon="2.84161">
        <ele>737.5</ele>
        <time>2021-08-26T12:12:48.000Z</time>
      </trkpt>
      <trkpt lat="45.80073" lon="2.84167">
        <ele>737.2</ele>
        <time>2021-08-26T12:12:57.000Z</time>
      </trkpt>
      <trkpt lat="45.80066" lon="2.84166">
        <ele>736.7</ele>
        <time>2021-08-26T12:13:04.000Z</time>
      </trkpt>
      <trkpt lat="45.80058" lon="2.84167">
        <ele>736.1</ele>
        <time>2021-08-26T12:13:10.000Z</time>
      </trkpt>
      <trkpt lat="45.80052" lon="2.84167">
        <ele>735.7</ele>
        <time>2021-08-26T12:13:18.000Z</time>
      </trkpt>
      <trkpt lat="45.80045" lon="2.84168">
        <ele>735</ele>
        <time>2021-08-26T12:13:27.000Z</time>
      </trkpt>
      <trkpt lat="45.80038" lon="2.84168">
        <ele>734.5</ele>
        <time>2021-08-26T12:13:35.000Z</time>
      </trkpt>
      <trkpt lat="45.80032" lon="2.8417">
        <ele>733.8</ele>
        <time>2021-08-26T12:13:44.000Z</time>
      </trkpt>
      <trkpt lat="45.80026" lon="2.84173">
        <ele>733</ele>
        <time>2021-08-26T12:13:54.000Z</time>
      </trkpt>
      <trkpt lat="45.80019" lon="2.84177">
        <ele>732.1</ele>
        <time>2021-08-26T12:14:14.000Z</time>
      </trkpt>
      <trkpt lat="45.80015" lon="2.84185">
        <ele>731</ele>
        <time>2021-08-26T12:14:21.000Z</time>
      </trkpt>
      <trkpt lat="45.80009" lon="2.84192">
        <ele>730.1</ele>
        <time>2021-08-26T12:14:27.000Z</time>
      </trkpt>
      <trkpt lat="45.80004" lon="2.84197">
        <ele>729.5</ele>
        <time>2021-08-26T12:14:32.000Z</time>
      </trkpt>
      <trkpt lat="45.79999" lon="2.84204">
        <ele>728.7</ele>
        <time>2021-08-26T12:14:37.000Z</time>
      </trkpt>
      <trkpt lat="45.79992" lon="2.84208">
        <ele>727</ele>
        <time>2021-08-26T12:14:43.000Z</time>
      </trkpt>
      <trkpt lat="45.79986" lon="2.84212">
        <ele>725.6</ele>
        <time>2021-08-26T12:14:49.000Z</time>
      </trkpt>
      <trkpt lat="45.7998" lon="2.84218">
        <ele>724.3</ele>
        <time>2021-08-26T12:14:55.000Z</time>
      </trkpt>
      <trkpt lat="45.79973" lon="2.84221">
        <ele>723</ele>
        <time>2021-08-26T12:15:00.000Z</time>
      </trkpt>
      <trkpt lat="45.79967" lon="2.84224">
        <ele>722</ele>
        <time>2021-08-26T12:15:05.000Z</time>
      </trkpt>
      <trkpt lat="45.7996" lon="2.84229">
        <ele>721</ele>
        <time>2021-08-26T12:15:12.000Z</time>
      </trkpt>
      <trkpt lat="45.79954" lon="2.84229">
        <ele>720.1</ele>
        <time>2021-08-26T12:16:00.000Z</time>
      </trkpt>
      <trkpt lat="45.79947" lon="2.84235">
        <ele>719.3</ele>
        <time>2021-08-26T12:16:06.000Z</time>
      </trkpt>
      <trkpt lat="45.79941" lon="2.84243">
        <ele>719</ele>
        <time>2021-08-26T12:16:12.000Z</time>
      </trkpt>
      <trkpt lat="45.79935" lon="2.84248">
        <ele>718.6</ele>
        <time>2021-08-26T12:16:19.000Z</time>
      </trkpt>
      <trkpt lat="45.79929" lon="2.84254">
        <ele>718.2</ele>
        <time>2021-08-26T12:16:26.000Z</time>
      </trkpt>
      <trkpt lat="45.79922" lon="2.84259">
        <ele>717.7</ele>
        <time>2021-08-26T12:16:32.000Z</time>
      </trkpt>
      <trkpt lat="45.79916" lon="2.84261">
        <ele>717.3</ele>
        <time>2021-08-26T12:16:40.000Z</time>
      </trkpt>
      <trkpt lat="45.79909" lon="2.84263">
        <ele>716</ele>
        <time>2021-08-26T12:16:46.000Z</time>
      </trkpt>
      <trkpt lat="45.79903" lon="2.8427">
        <ele>715.3</ele>
        <time>2021-08-26T12:16:52.000Z</time>
      </trkpt>
      <trkpt lat="45.79897" lon="2.84273">
        <ele>714.4</ele>
        <time>2021-08-26T12:16:59.000Z</time>
      </trkpt>
      <trkpt lat="45.7989" lon="2.84277">
        <ele>713.6</ele>
        <time>2021-08-26T12:17:06.000Z</time>
      </trkpt>
      <trkpt lat="45.79884" lon="2.84281">
        <ele>713</ele>
        <time>2021-08-26T12:17:19.000Z</time>
      </trkpt>
      <trkpt lat="45.79887" lon="2.8429">
        <ele>714.3</ele>
        <time>2021-08-26T12:17:53.000Z</time>
      </trkpt>
      <trkpt lat="45.79892" lon="2.84295">
        <ele>715.4</ele>
        <time>2021-08-26T12:18:00.000Z</time>
      </trkpt>
      <trkpt lat="45.79897" lon="2.84304">
        <ele>716.7</ele>
        <time>2021-08-26T12:18:05.000Z</time>
      </trkpt>
      <trkpt lat="45.79904" lon="2.84307">
        <ele>717.7</ele>
        <time>2021-08-26T12:18:11.000Z</time>
      </trkpt>
      <trkpt lat="45.79911" lon="2.84307">
        <ele>718.4</ele>
        <time>2021-08-26T12:18:16.000Z</time>
      </trkpt>
      <trkpt lat="45.79917" lon="2.84304">
        <ele>718.9</ele>
        <time>2021-08-26T12:18:21.000Z</time>
      </trkpt>
      <trkpt lat="45.79924" lon="2.84303">
        <ele>718.8</ele>
        <time>2021-08-26T12:18:27.000Z</time>
      </trkpt>
      <trkpt lat="45.7993" lon="2.84298">
        <ele>718.7</ele>
        <time>2021-08-26T12:18:33.000Z</time>
      </trkpt>
      <trkpt lat="45.79937" lon="2.84294">
        <ele>718.7</ele>
        <time>2021-08-26T12:18:39.000Z</time>
      </trkpt>
      <trkpt lat="45.79943" lon="2.84289">
        <ele>718.9</ele>
        <time>2021-08-26T12:18:46.000Z</time>
      </trkpt>
      <trkpt lat="45.79949" lon="2.84287">
        <ele>719</ele>
        <time>2021-08-26T12:18:52.000Z</time>
      </trkpt>
      <trkpt lat="45.79956" lon="2.84289">
        <ele>719.1</ele>
        <time>2021-08-26T12:18:59.000Z</time>
      </trkpt>
      <trkpt lat="45.79963" lon="2.84288">
        <ele>719.3</ele>
        <time>2021-08-26T12:19:06.000Z</time>
      </trkpt>
      <trkpt lat="45.79969" lon="2.84286">
        <ele>719.5</ele>
        <time>2021-08-26T12:19:12.000Z</time>
      </trkpt>
      <trkpt lat="45.79976" lon="2.84285">
        <ele>719.8</ele>
        <time>2021-08-26T12:19:19.000Z</time>
      </trkpt>
      <trkpt lat="45.79983" lon="2.84285">
        <ele>719.9</ele>
        <time>2021-08-26T12:19:29.000Z</time>
      </trkpt>
      <trkpt lat="45.7999" lon="2.84282">
        <ele>720.5</ele>
        <time>2021-08-26T12:19:39.000Z</time>
      </trkpt>
      <trkpt lat="45.79996" lon="2.84281">
        <ele>720.8</ele>
        <time>2021-08-26T12:19:52.000Z</time>
      </trkpt>
      <trkpt lat="45.80003" lon="2.84279">
        <ele>720.7</ele>
        <time>2021-08-26T12:20:05.000Z</time>
      </trkpt>
      <trkpt lat="45.8001" lon="2.8428">
        <ele>719.6</ele>
        <time>2021-08-26T12:20:12.000Z</time>
      </trkpt>
      <trkpt lat="45.80017" lon="2.84277">
        <ele>719</ele>
        <time>2021-08-26T12:20:21.000Z</time>
      </trkpt>
      <trkpt lat="45.80023" lon="2.84276">
        <ele>718.3</ele>
        <time>2021-08-26T12:20:26.000Z</time>
      </trkpt>
      <trkpt lat="45.80029" lon="2.84272">
        <ele>718.3</ele>
        <time>2021-08-26T12:20:33.000Z</time>
      </trkpt>
      <trkpt lat="45.80036" lon="2.84271">
        <ele>717.6</ele>
        <time>2021-08-26T12:20:41.000Z</time>
      </trkpt>
      <trkpt lat="45.80049" lon="2.84267">
        <ele>716.8</ele>
        <time>2021-08-26T12:21:29.000Z</time>
      </trkpt>
      <trkpt lat="45.80056" lon="2.84267">
        <ele>716</ele>
        <time>2021-08-26T12:21:38.000Z</time>
      </trkpt>
      <trkpt lat="45.80062" lon="2.84265">
        <ele>715.8</ele>
        <time>2021-08-26T12:21:49.000Z</time>
      </trkpt>
      <trkpt lat="45.80069" lon="2.84263">
        <ele>715.6</ele>
        <time>2021-08-26T12:21:57.000Z</time>
      </trkpt>
      <trkpt lat="45.80076" lon="2.84264">
        <ele>714.5</ele>
        <time>2021-08-26T12:22:16.000Z</time>
      </trkpt>
      <trkpt lat="45.80083" lon="2.84265">
        <ele>713.4</ele>
        <time>2021-08-26T12:22:25.000Z</time>
      </trkpt>
      <trkpt lat="45.8009" lon="2.84264">
        <ele>712.6</ele>
        <time>2021-08-26T12:22:33.000Z</time>
      </trkpt>
      <trkpt lat="45.80097" lon="2.84265">
        <ele>711.2</ele>
        <time>2021-08-26T12:22:40.000Z</time>
      </trkpt>
      <trkpt lat="45.80104" lon="2.84263">
        <ele>710.7</ele>
        <time>2021-08-26T12:22:47.000Z</time>
      </trkpt>
      <trkpt lat="45.80117" lon="2.84259">
        <ele>709.8</ele>
        <time>2021-08-26T12:22:52.000Z</time>
      </trkpt>
      <trkpt lat="45.80126" lon="2.84256">
        <ele>709.1</ele>
        <time>2021-08-26T12:22:58.000Z</time>
      </trkpt>
      <trkpt lat="45.80133" lon="2.84253">
        <ele>708.8</ele>
        <time>2021-08-26T12:23:20.000Z</time>
      </trkpt>
      <trkpt lat="45.80139" lon="2.84252">
        <ele>708.1</ele>
        <time>2021-08-26T12:23:32.000Z</time>
      </trkpt>
      <trkpt lat="45.80146" lon="2.84251">
        <ele>707.2</ele>
        <time>2021-08-26T12:23:40.000Z</time>
      </trkpt>
      <trkpt lat="45.80153" lon="2.84248">
        <ele>706.9</ele>
        <time>2021-08-26T12:23:46.000Z</time>
      </trkpt>
      <trkpt lat="45.8016" lon="2.84246">
        <ele>706.3</ele>
        <time>2021-08-26T12:23:52.000Z</time>
      </trkpt>
      <trkpt lat="45.80166" lon="2.84245">
        <ele>705.6</ele>
        <time>2021-08-26T12:24:05.000Z</time>
      </trkpt>
      <trkpt lat="45.80173" lon="2.84244">
        <ele>704.7</ele>
        <time>2021-08-26T12:24:13.000Z</time>
      </trkpt>
      <trkpt lat="45.8018" lon="2.84242">
        <ele>704.1</ele>
        <time>2021-08-26T12:24:18.000Z</time>
      </trkpt>
      <trkpt lat="45.80188" lon="2.84238">
        <ele>703.8</ele>
        <time>2021-08-26T12:24:24.000Z</time>
      </trkpt>
      <trkpt lat="45.80195" lon="2.84235">
        <ele>703.3</ele>
        <time>2021-08-26T12:24:29.000Z</time>
      </trkpt>
      <trkpt lat="45.80202" lon="2.84232">
        <ele>702.8</ele>
        <time>2021-08-26T12:24:42.000Z</time>
      </trkpt>
      <trkpt lat="45.80206" lon="2.84239">
        <ele>700.3</ele>
        <time>2021-08-26T12:24:53.000Z</time>
      </trkpt>
      <trkpt lat="45.80209" lon="2.84248">
        <ele>697.4</ele>
        <time>2021-08-26T12:25:03.000Z</time>
      </trkpt>
      <trkpt lat="45.80212" lon="2.84256">
        <ele>695.1</ele>
        <time>2021-08-26T12:25:10.000Z</time>
      </trkpt>
      <trkpt lat="45.80218" lon="2.84262">
        <ele>692.9</ele>
        <time>2021-08-26T12:25:16.000Z</time>
      </trkpt>
      <trkpt lat="45.80223" lon="2.84268">
        <ele>690.9</ele>
        <time>2021-08-26T12:25:23.000Z</time>
      </trkpt>
      <trkpt lat="45.80229" lon="2.84272">
        <ele>689.2</ele>
        <time>2021-08-26T12:25:30.000Z</time>
      </trkpt>
      <trkpt lat="45.80236" lon="2.84277">
        <ele>687.2</ele>
        <time>2021-08-26T12:25:37.000Z</time>
      </trkpt>
      <trkpt lat="45.80242" lon="2.8428">
        <ele>685.7</ele>
        <time>2021-08-26T12:25:45.000Z</time>
      </trkpt>
      <trkpt lat="45.80247" lon="2.84288">
        <ele>683.6</ele>
        <time>2021-08-26T12:25:54.000Z</time>
      </trkpt>
      <trkpt lat="45.80254" lon="2.84294">
        <ele>681.8</ele>
        <time>2021-08-26T12:26:00.000Z</time>
      </trkpt>
      <trkpt lat="45.80261" lon="2.84297">
        <ele>680.8</ele>
        <time>2021-08-26T12:26:05.000Z</time>
      </trkpt>
      <trkpt lat="45.80268" lon="2.84301">
        <ele>679.6</ele>
        <time>2021-08-26T12:26:10.000Z</time>
      </trkpt>
      <trkpt lat="45.80272" lon="2.84308">
        <ele>678.3</ele>
        <time>2021-08-26T12:26:16.000Z</time>
      </trkpt>
      <trkpt lat="45.80277" lon="2.84316">
        <ele>676.9</ele>
        <time>2021-08-26T12:26:22.000Z</time>
      </trkpt>
      <trkpt lat="45.80281" lon="2.84323">
        <ele>675.7</ele>
        <time>2021-08-26T12:26:28.000Z</time>
      </trkpt>
      <trkpt lat="45.80285" lon="2.8433">
        <ele>674.6</ele>
        <time>2021-08-26T12:26:33.000Z</time>
      </trkpt>
      <trkpt lat="45.80289" lon="2.84339">
        <ele>673.8</ele>
        <time>2021-08-26T12:26:38.000Z</time>
      </trkpt>
      <trkpt lat="45.80291" lon="2.84349">
        <ele>673.2</ele>
        <time>2021-08-26T12:26:44.000Z</time>
      </trkpt>
      <trkpt lat="45.80294" lon="2.84358">
        <ele>672.6</ele>
        <time>2021-08-26T12:26:50.000Z</time>
      </trkpt>
      <trkpt lat="45.80297" lon="2.84368">
        <ele>672.1</ele>
        <time>2021-08-26T12:26:56.000Z</time>
      </trkpt>
      <trkpt lat="45.803" lon="2.84378">
        <ele>671.5</ele>
        <time>2021-08-26T12:27:02.000Z</time>
      </trkpt>
      <trkpt lat="45.80303" lon="2.84388">
        <ele>671</ele>
        <time>2021-08-26T12:27:09.000Z</time>
      </trkpt>
      <trkpt lat="45.80308" lon="2.84395">
        <ele>670.7</ele>
        <time>2021-08-26T12:27:17.000Z</time>
      </trkpt>
      <trkpt lat="45.80311" lon="2.84403">
        <ele>670.4</ele>
        <time>2021-08-26T12:27:24.000Z</time>
      </trkpt>
      <trkpt lat="45.80315" lon="2.8441">
        <ele>670.1</ele>
        <time>2021-08-26T12:27:30.000Z</time>
      </trkpt>
      <trkpt lat="45.80317" lon="2.8442">
        <ele>669.7</ele>
        <time>2021-08-26T12:27:56.000Z</time>
      </trkpt>
      <trkpt lat="45.80318" lon="2.8443">
        <ele>669.6</ele>
        <time>2021-08-26T12:28:02.000Z</time>
      </trkpt>
      <trkpt lat="45.80321" lon="2.84439">
        <ele>669.4</ele>
        <time>2021-08-26T12:28:08.000Z</time>
      </trkpt>
      <trkpt lat="45.80325" lon="2.84448">
        <ele>669.2</ele>
        <time>2021-08-26T12:28:14.000Z</time>
      </trkpt>
      <trkpt lat="45.80329" lon="2.84455">
        <ele>669.1</ele>
        <time>2021-08-26T12:28:20.000Z</time>
      </trkpt>
      <trkpt lat="45.80331" lon="2.84465">
        <ele>668.8</ele>
        <time>2021-08-26T12:28:26.000Z</time>
      </trkpt>
      <trkpt lat="45.80333" lon="2.84476">
        <ele>668.6</ele>
        <time>2021-08-26T12:28:32.000Z</time>
      </trkpt>
      <trkpt lat="45.80336" lon="2.84485">
        <ele>668.4</ele>
        <time>2021-08-26T12:28:38.000Z</time>
      </trkpt>
      <trkpt lat="45.80338" lon="2.84494">
        <ele>668.3</ele>
        <time>2021-08-26T12:28:45.000Z</time>
      </trkpt>
      <trkpt lat="45.80339" lon="2.84503">
        <ele>668.4</ele>
        <time>2021-08-26T12:28:53.000Z</time>
      </trkpt>
      <trkpt lat="45.80342" lon="2.84513">
        <ele>669.1</ele>
        <time>2021-08-26T12:29:00.000Z</time>
      </trkpt>
      <trkpt lat="45.80343" lon="2.84522">
        <ele>669.7</ele>
        <time>2021-08-26T12:29:07.000Z</time>
      </trkpt>
      <trkpt lat="45.80345" lon="2.84533">
        <ele>670.4</ele>
        <time>2021-08-26T12:29:13.000Z</time>
      </trkpt>
      <trkpt lat="45.80346" lon="2.84543">
        <ele>671</ele>
        <time>2021-08-26T12:29:18.000Z</time>
      </trkpt>
      <trkpt lat="45.8035" lon="2.84555">
        <ele>671.9</ele>
        <time>2021-08-26T12:29:57.000Z</time>
      </trkpt>
      <trkpt lat="45.80356" lon="2.84562">
        <ele>672.5</ele>
        <time>2021-08-26T12:30:22.000Z</time>
      </trkpt>
      <trkpt lat="45.80362" lon="2.84566">
        <ele>673</ele>
        <time>2021-08-26T12:30:28.000Z</time>
      </trkpt>
      <trkpt lat="45.80369" lon="2.84569">
        <ele>673.4</ele>
        <time>2021-08-26T12:30:36.000Z</time>
      </trkpt>
      <trkpt lat="45.80376" lon="2.84571">
        <ele>673.8</ele>
        <time>2021-08-26T12:30:41.000Z</time>
      </trkpt>
      <trkpt lat="45.80383" lon="2.84573">
        <ele>674.2</ele>
        <time>2021-08-26T12:30:48.000Z</time>
      </trkpt>
      <trkpt lat="45.80389" lon="2.84568">
        <ele>674.1</ele>
        <time>2021-08-26T12:30:54.000Z</time>
      </trkpt>
      <trkpt lat="45.80396" lon="2.84566">
        <ele>674.2</ele>
        <time>2021-08-26T12:31:03.000Z</time>
      </trkpt>
      <trkpt lat="45.80403" lon="2.84567">
        <ele>674.5</ele>
        <time>2021-08-26T12:31:17.000Z</time>
      </trkpt>
      <trkpt lat="45.8041" lon="2.84563">
        <ele>674.5</ele>
        <time>2021-08-26T12:31:22.000Z</time>
      </trkpt>
      <trkpt lat="45.80419" lon="2.84561">
        <ele>674.8</ele>
        <time>2021-08-26T12:31:28.000Z</time>
      </trkpt>
      <trkpt lat="45.80426" lon="2.84559">
        <ele>675.1</ele>
        <time>2021-08-26T12:31:34.000Z</time>
      </trkpt>
      <trkpt lat="45.80433" lon="2.84558">
        <ele>675.5</ele>
        <time>2021-08-26T12:31:40.000Z</time>
      </trkpt>
      <trkpt lat="45.8044" lon="2.84554">
        <ele>675.6</ele>
        <time>2021-08-26T12:31:45.000Z</time>
      </trkpt>
      <trkpt lat="45.80446" lon="2.84552">
        <ele>675.8</ele>
        <time>2021-08-26T12:31:50.000Z</time>
      </trkpt>
      <trkpt lat="45.80453" lon="2.84548">
        <ele>675.8</ele>
        <time>2021-08-26T12:31:57.000Z</time>
      </trkpt>
      <trkpt lat="45.80459" lon="2.84544">
        <ele>675.8</ele>
        <time>2021-08-26T12:32:04.000Z</time>
      </trkpt>
      <trkpt lat="45.80468" lon="2.84546">
        <ele>676.4</ele>
        <time>2021-08-26T12:32:10.000Z</time>
      </trkpt>
      <trkpt lat="45.80475" lon="2.84546">
        <ele>676.8</ele>
        <time>2021-08-26T12:32:25.000Z</time>
      </trkpt>
      <trkpt lat="45.8048" lon="2.8454">
        <ele>676.3</ele>
        <time>2021-08-26T12:32:33.000Z</time>
      </trkpt>
      <trkpt lat="45.80485" lon="2.84532">
        <ele>675.6</ele>
        <time>2021-08-26T12:32:42.000Z</time>
      </trkpt>
      <trkpt lat="45.80492" lon="2.84532">
        <ele>675.9</ele>
        <time>2021-08-26T12:32:58.000Z</time>
      </trkpt>
      <trkpt lat="45.80497" lon="2.84526">
        <ele>675.3</ele>
        <time>2021-08-26T12:33:06.000Z</time>
      </trkpt>
      <trkpt lat="45.80503" lon="2.84521">
        <ele>675</ele>
        <time>2021-08-26T12:33:18.000Z</time>
      </trkpt>
      <trkpt lat="45.80509" lon="2.8452">
        <ele>675.3</ele>
        <time>2021-08-26T12:33:29.000Z</time>
      </trkpt>
      <trkpt lat="45.80515" lon="2.84516">
        <ele>675.2</ele>
        <time>2021-08-26T12:33:38.000Z</time>
      </trkpt>
      <trkpt lat="45.80523" lon="2.84515">
        <ele>675.6</ele>
        <time>2021-08-26T12:33:44.000Z</time>
      </trkpt>
      <trkpt lat="45.80529" lon="2.84518">
        <ele>676.4</ele>
        <time>2021-08-26T12:33:50.000Z</time>
      </trkpt>
      <trkpt lat="45.80535" lon="2.84509">
        <ele>675.5</ele>
        <time>2021-08-26T12:33:58.000Z</time>
      </trkpt>
      <trkpt lat="45.8054" lon="2.84516">
        <ele>676.9</ele>
        <time>2021-08-26T12:34:41.000Z</time>
      </trkpt>
      <trkpt lat="45.80536" lon="2.84526">
        <ele>678.1</ele>
        <time>2021-08-26T12:34:51.000Z</time>
      </trkpt>
      <trkpt lat="45.80532" lon="2.84533">
        <ele>678.9</ele>
        <time>2021-08-26T12:35:17.000Z</time>
      </trkpt>
      <trkpt lat="45.80528" lon="2.84542">
        <ele>679.9</ele>
        <time>2021-08-26T12:35:22.000Z</time>
      </trkpt>
      <trkpt lat="45.80519" lon="2.84557">
        <ele>681.3</ele>
        <time>2021-08-26T12:35:38.000Z</time>
      </trkpt>
      <trkpt lat="45.80513" lon="2.84562">
        <ele>681.4</ele>
        <time>2021-08-26T12:35:47.000Z</time>
      </trkpt>
      <trkpt lat="45.80509" lon="2.84569">
        <ele>682</ele>
        <time>2021-08-26T12:35:59.000Z</time>
      </trkpt>
      <trkpt lat="45.80501" lon="2.84579">
        <ele>682.5</ele>
        <time>2021-08-26T12:36:11.000Z</time>
      </trkpt>
      <trkpt lat="45.80494" lon="2.84585">
        <ele>683</ele>
        <time>2021-08-26T12:36:23.000Z</time>
      </trkpt>
      <trkpt lat="45.80487" lon="2.8459">
        <ele>683.7</ele>
        <time>2021-08-26T12:36:34.000Z</time>
      </trkpt>
      <trkpt lat="45.80477" lon="2.84605">
        <ele>686.6</ele>
        <time>2021-08-26T12:36:53.000Z</time>
      </trkpt>
      <trkpt lat="45.80472" lon="2.8461">
        <ele>687.3</ele>
        <time>2021-08-26T12:37:05.000Z</time>
      </trkpt>
      <trkpt lat="45.80466" lon="2.84617">
        <ele>688.2</ele>
        <time>2021-08-26T12:37:15.000Z</time>
      </trkpt>
      <trkpt lat="45.80468" lon="2.84627">
        <ele>690.9</ele>
        <time>2021-08-26T12:37:27.000Z</time>
      </trkpt>
      <trkpt lat="45.8046" lon="2.84628">
        <ele>689.9</ele>
        <time>2021-08-26T12:37:36.000Z</time>
      </trkpt>
      <trkpt lat="45.80453" lon="2.84627">
        <ele>688.7</ele>
        <time>2021-08-26T12:37:44.000Z</time>
      </trkpt>
      <trkpt lat="45.80446" lon="2.84627">
        <ele>687.6</ele>
        <time>2021-08-26T12:37:55.000Z</time>
      </trkpt>
      <trkpt lat="45.8044" lon="2.84631">
        <ele>687.6</ele>
        <time>2021-08-26T12:38:07.000Z</time>
      </trkpt>
      <trkpt lat="45.80433" lon="2.84634">
        <ele>687.1</ele>
        <time>2021-08-26T12:38:16.000Z</time>
      </trkpt>
      <trkpt lat="45.80427" lon="2.84639">
        <ele>687</ele>
        <time>2021-08-26T12:38:36.000Z</time>
      </trkpt>
      <trkpt lat="45.80422" lon="2.84646">
        <ele>687.5</ele>
        <time>2021-08-26T12:38:46.000Z</time>
      </trkpt>
      <trkpt lat="45.80416" lon="2.8465">
        <ele>687.1</ele>
        <time>2021-08-26T12:38:52.000Z</time>
      </trkpt>
      <trkpt lat="45.8041" lon="2.84657">
        <ele>687.6</ele>
        <time>2021-08-26T12:38:57.000Z</time>
      </trkpt>
      <trkpt lat="45.80407" lon="2.84667">
        <ele>688.8</ele>
        <time>2021-08-26T12:39:05.000Z</time>
      </trkpt>
      <trkpt lat="45.80402" lon="2.84681">
        <ele>689.7</ele>
        <time>2021-08-26T12:39:10.000Z</time>
      </trkpt>
      <trkpt lat="45.80399" lon="2.8469">
        <ele>690.3</ele>
        <time>2021-08-26T12:39:34.000Z</time>
      </trkpt>
      <trkpt lat="45.80391" lon="2.84688">
        <ele>688.9</ele>
        <time>2021-08-26T12:39:44.000Z</time>
      </trkpt>
      <trkpt lat="45.80385" lon="2.8469">
        <ele>688.3</ele>
        <time>2021-08-26T12:39:53.000Z</time>
      </trkpt>
      <trkpt lat="45.80378" lon="2.84693">
        <ele>687.6</ele>
        <time>2021-08-26T12:40:05.000Z</time>
      </trkpt>
      <trkpt lat="45.80379" lon="2.84707">
        <ele>689.2</ele>
        <time>2021-08-26T12:40:34.000Z</time>
      </trkpt>
      <trkpt lat="45.80377" lon="2.84724">
        <ele>690.7</ele>
        <time>2021-08-26T12:40:44.000Z</time>
      </trkpt>
      <trkpt lat="45.80378" lon="2.84739">
        <ele>692.4</ele>
        <time>2021-08-26T12:41:08.000Z</time>
      </trkpt>
      <trkpt lat="45.80385" lon="2.84737">
        <ele>693.3</ele>
        <time>2021-08-26T12:41:20.000Z</time>
      </trkpt>
      <trkpt lat="45.80392" lon="2.84737">
        <ele>694.4</ele>
        <time>2021-08-26T12:41:29.000Z</time>
      </trkpt>
      <trkpt lat="45.80399" lon="2.84736">
        <ele>695.5</ele>
        <time>2021-08-26T12:41:47.000Z</time>
      </trkpt>
      <trkpt lat="45.80406" lon="2.84737">
        <ele>696.7</ele>
        <time>2021-08-26T12:41:54.000Z</time>
      </trkpt>
      <trkpt lat="45.80412" lon="2.84736">
        <ele>697.6</ele>
        <time>2021-08-26T12:42:07.000Z</time>
      </trkpt>
      <trkpt lat="45.80423" lon="2.84735">
        <ele>699.4</ele>
        <time>2021-08-26T12:42:26.000Z</time>
      </trkpt>
      <trkpt lat="45.80428" lon="2.84742">
        <ele>701.1</ele>
        <time>2021-08-26T12:42:37.000Z</time>
      </trkpt>
      <trkpt lat="45.80435" lon="2.84742">
        <ele>702.4</ele>
        <time>2021-08-26T12:42:43.000Z</time>
      </trkpt>
      <trkpt lat="45.80443" lon="2.84743">
        <ele>704</ele>
        <time>2021-08-26T12:42:54.000Z</time>
      </trkpt>
      <trkpt lat="45.8045" lon="2.84746">
        <ele>705.6</ele>
        <time>2021-08-26T12:43:04.000Z</time>
      </trkpt>
      <trkpt lat="45.80456" lon="2.84748">
        <ele>706.9</ele>
        <time>2021-08-26T12:43:12.000Z</time>
      </trkpt>
      <trkpt lat="45.80463" lon="2.84751">
        <ele>708.5</ele>
        <time>2021-08-26T12:43:32.000Z</time>
      </trkpt>
      <trkpt lat="45.80469" lon="2.84755">
        <ele>710</ele>
        <time>2021-08-26T12:43:46.000Z</time>
      </trkpt>
      <trkpt lat="45.80476" lon="2.84757">
        <ele>711.5</ele>
        <time>2021-08-26T12:43:52.000Z</time>
      </trkpt>
      <trkpt lat="45.80482" lon="2.84762">
        <ele>713.1</ele>
        <time>2021-08-26T12:44:00.000Z</time>
      </trkpt>
      <trkpt lat="45.80488" lon="2.84767">
        <ele>714.7</ele>
        <time>2021-08-26T12:44:12.000Z</time>
      </trkpt>
      <trkpt lat="45.8049" lon="2.84776">
        <ele>716</ele>
        <time>2021-08-26T12:44:23.000Z</time>
      </trkpt>
      <trkpt lat="45.80492" lon="2.84785">
        <ele>717.4</ele>
        <time>2021-08-26T12:44:34.000Z</time>
      </trkpt>
      <trkpt lat="45.80495" lon="2.84794">
        <ele>718.9</ele>
        <time>2021-08-26T12:44:44.000Z</time>
      </trkpt>
      <trkpt lat="45.80497" lon="2.84803">
        <ele>720.2</ele>
        <time>2021-08-26T12:44:53.000Z</time>
      </trkpt>
      <trkpt lat="45.805" lon="2.84812">
        <ele>721.7</ele>
        <time>2021-08-26T12:45:04.000Z</time>
      </trkpt>
      <trkpt lat="45.80501" lon="2.84821">
        <ele>722.8</ele>
        <time>2021-08-26T12:45:12.000Z</time>
      </trkpt>
      <trkpt lat="45.80502" lon="2.84831">
        <ele>724</ele>
        <time>2021-08-26T12:45:19.000Z</time>
      </trkpt>
      <trkpt lat="45.80504" lon="2.8484">
        <ele>725</ele>
        <time>2021-08-26T12:45:30.000Z</time>
      </trkpt>
      <trkpt lat="45.80507" lon="2.84848">
        <ele>726</ele>
        <time>2021-08-26T12:45:42.000Z</time>
      </trkpt>
      <trkpt lat="45.8051" lon="2.84857">
        <ele>727</ele>
        <time>2021-08-26T12:45:54.000Z</time>
      </trkpt>
      <trkpt lat="45.8051" lon="2.84867">
        <ele>727.9</ele>
        <time>2021-08-26T12:46:02.000Z</time>
      </trkpt>
      <trkpt lat="45.8051" lon="2.84877">
        <ele>728.7</ele>
        <time>2021-08-26T12:46:10.000Z</time>
      </trkpt>
      <trkpt lat="45.80511" lon="2.84887">
        <ele>729.6</ele>
        <time>2021-08-26T12:46:18.000Z</time>
      </trkpt>
      <trkpt lat="45.80512" lon="2.84896">
        <ele>730.5</ele>
        <time>2021-08-26T12:46:25.000Z</time>
      </trkpt>
      <trkpt lat="45.80514" lon="2.84905">
        <ele>731.4</ele>
        <time>2021-08-26T12:46:35.000Z</time>
      </trkpt>
      <trkpt lat="45.80514" lon="2.84915">
        <ele>732.2</ele>
        <time>2021-08-26T12:46:43.000Z</time>
      </trkpt>
      <trkpt lat="45.80514" lon="2.84925">
        <ele>733.1</ele>
        <time>2021-08-26T12:46:51.000Z</time>
      </trkpt>
      <trkpt lat="45.80514" lon="2.84935">
        <ele>734.1</ele>
        <time>2021-08-26T12:46:58.000Z</time>
      </trkpt>
      <trkpt lat="45.80512" lon="2.84951">
        <ele>735.4</ele>
        <time>2021-08-26T12:47:04.000Z</time>
      </trkpt>
      <trkpt lat="45.80511" lon="2.8496">
        <ele>736.2</ele>
        <time>2021-08-26T12:47:10.000Z</time>
      </trkpt>
      <trkpt lat="45.8051" lon="2.8497">
        <ele>737.1</ele>
        <time>2021-08-26T12:47:29.000Z</time>
      </trkpt>
      <trkpt lat="45.80509" lon="2.84979">
        <ele>737.8</ele>
        <time>2021-08-26T12:47:36.000Z</time>
      </trkpt>
      <trkpt lat="45.80512" lon="2.84988">
        <ele>739</ele>
        <time>2021-08-26T12:47:45.000Z</time>
      </trkpt>
      <trkpt lat="45.80511" lon="2.84998">
        <ele>739.9</ele>
        <time>2021-08-26T12:47:51.000Z</time>
      </trkpt>
      <trkpt lat="45.8051" lon="2.85008">
        <ele>740.5</ele>
        <time>2021-08-26T12:47:58.000Z</time>
      </trkpt>
      <trkpt lat="45.80509" lon="2.85018">
        <ele>741</ele>
        <time>2021-08-26T12:48:07.000Z</time>
      </trkpt>
      <trkpt lat="45.80509" lon="2.85028">
        <ele>741.6</ele>
        <time>2021-08-26T12:48:15.000Z</time>
      </trkpt>
      <trkpt lat="45.80509" lon="2.85039">
        <ele>742.3</ele>
        <time>2021-08-26T12:48:23.000Z</time>
      </trkpt>
      <trkpt lat="45.80508" lon="2.85049">
        <ele>742.8</ele>
        <time>2021-08-26T12:48:31.000Z</time>
      </trkpt>
      <trkpt lat="45.80508" lon="2.85059">
        <ele>743.4</ele>
        <time>2021-08-26T12:48:40.000Z</time>
      </trkpt>
      <trkpt lat="45.8051" lon="2.85068">
        <ele>744.1</ele>
        <time>2021-08-26T12:48:50.000Z</time>
      </trkpt>
      <trkpt lat="45.80512" lon="2.85077">
        <ele>744.9</ele>
        <time>2021-08-26T12:48:58.000Z</time>
      </trkpt>
      <trkpt lat="45.80515" lon="2.85087">
        <ele>745.7</ele>
        <time>2021-08-26T12:49:08.000Z</time>
      </trkpt>
      <trkpt lat="45.80514" lon="2.85102">
        <ele>746</ele>
        <time>2021-08-26T12:49:41.000Z</time>
      </trkpt>
      <trkpt lat="45.80514" lon="2.85112">
        <ele>746.3</ele>
        <time>2021-08-26T12:49:51.000Z</time>
      </trkpt>
      <trkpt lat="45.80516" lon="2.8512">
        <ele>746.8</ele>
        <time>2021-08-26T12:50:01.000Z</time>
      </trkpt>
      <trkpt lat="45.8052" lon="2.85133">
        <ele>747.6</ele>
        <time>2021-08-26T12:50:19.000Z</time>
      </trkpt>
      <trkpt lat="45.80521" lon="2.85142">
        <ele>748</ele>
        <time>2021-08-26T12:50:26.000Z</time>
      </trkpt>
      <trkpt lat="45.80526" lon="2.85149">
        <ele>748.9</ele>
        <time>2021-08-26T12:50:36.000Z</time>
      </trkpt>
      <trkpt lat="45.80528" lon="2.8516">
        <ele>749.5</ele>
        <time>2021-08-26T12:50:51.000Z</time>
      </trkpt>
      <trkpt lat="45.80528" lon="2.8517">
        <ele>749.7</ele>
        <time>2021-08-26T12:51:07.000Z</time>
      </trkpt>
      <trkpt lat="45.80532" lon="2.85179">
        <ele>750.4</ele>
        <time>2021-08-26T12:51:20.000Z</time>
      </trkpt>
      <trkpt lat="45.80533" lon="2.85188">
        <ele>750.6</ele>
        <time>2021-08-26T12:51:27.000Z</time>
      </trkpt>
      <trkpt lat="45.80536" lon="2.85197">
        <ele>751.1</ele>
        <time>2021-08-26T12:51:34.000Z</time>
      </trkpt>
      <trkpt lat="45.80535" lon="2.85207">
        <ele>751.1</ele>
        <time>2021-08-26T12:51:41.000Z</time>
      </trkpt>
      <trkpt lat="45.80534" lon="2.85217">
        <ele>751.1</ele>
        <time>2021-08-26T12:51:47.000Z</time>
      </trkpt>
      <trkpt lat="45.80534" lon="2.85227">
        <ele>751.2</ele>
        <time>2021-08-26T12:51:53.000Z</time>
      </trkpt>
      <trkpt lat="45.80531" lon="2.85236">
        <ele>750.9</ele>
        <time>2021-08-26T12:52:01.000Z</time>
      </trkpt>
      <trkpt lat="45.8053" lon="2.85249">
        <ele>750.9</ele>
        <time>2021-08-26T12:52:19.000Z</time>
      </trkpt>
      <trkpt lat="45.80534" lon="2.85257">
        <ele>751.5</ele>
        <time>2021-08-26T12:52:35.000Z</time>
      </trkpt>
      <trkpt lat="45.80533" lon="2.85268">
        <ele>751.4</ele>
        <time>2021-08-26T12:52:40.000Z</time>
      </trkpt>
      <trkpt lat="45.80531" lon="2.85278">
        <ele>751.1</ele>
        <time>2021-08-26T12:52:45.000Z</time>
      </trkpt>
      <trkpt lat="45.8053" lon="2.85288">
        <ele>751</ele>
        <time>2021-08-26T12:52:50.000Z</time>
      </trkpt>
      <trkpt lat="45.80529" lon="2.853">
        <ele>750.8</ele>
        <time>2021-08-26T12:52:56.000Z</time>
      </trkpt>
      <trkpt lat="45.80528" lon="2.8531">
        <ele>750.7</ele>
        <time>2021-08-26T12:53:01.000Z</time>
      </trkpt>
      <trkpt lat="45.80528" lon="2.85319">
        <ele>750.7</ele>
        <time>2021-08-26T12:53:06.000Z</time>
      </trkpt>
      <trkpt lat="45.80528" lon="2.85331">
        <ele>750.7</ele>
        <time>2021-08-26T12:53:12.000Z</time>
      </trkpt>
      <trkpt lat="45.80529" lon="2.85342">
        <ele>750.9</ele>
        <time>2021-08-26T12:53:18.000Z</time>
      </trkpt>
      <trkpt lat="45.80529" lon="2.85354">
        <ele>750.9</ele>
        <time>2021-08-26T12:53:24.000Z</time>
      </trkpt>
      <trkpt lat="45.80529" lon="2.85364">
        <ele>751</ele>
        <time>2021-08-26T12:53:30.000Z</time>
      </trkpt>
      <trkpt lat="45.80529" lon="2.85375">
        <ele>751</ele>
        <time>2021-08-26T12:53:37.000Z</time>
      </trkpt>
      <trkpt lat="45.80527" lon="2.85386">
        <ele>750.8</ele>
        <time>2021-08-26T12:53:43.000Z</time>
      </trkpt>
      <trkpt lat="45.80526" lon="2.85396">
        <ele>750.7</ele>
        <time>2021-08-26T12:53:50.000Z</time>
      </trkpt>
      <trkpt lat="45.80526" lon="2.85407">
        <ele>750.7</ele>
        <time>2021-08-26T12:53:56.000Z</time>
      </trkpt>
      <trkpt lat="45.80528" lon="2.85416">
        <ele>751</ele>
        <time>2021-08-26T12:54:02.000Z</time>
      </trkpt>
      <trkpt lat="45.80532" lon="2.85424">
        <ele>751.6</ele>
        <time>2021-08-26T12:54:08.000Z</time>
      </trkpt>
      <trkpt lat="45.80537" lon="2.85431">
        <ele>752.3</ele>
        <time>2021-08-26T12:54:15.000Z</time>
      </trkpt>
      <trkpt lat="45.80543" lon="2.85435">
        <ele>753.2</ele>
        <time>2021-08-26T12:54:23.000Z</time>
      </trkpt>
      <trkpt lat="45.8055" lon="2.85438">
        <ele>754.1</ele>
        <time>2021-08-26T12:54:31.000Z</time>
      </trkpt>
      <trkpt lat="45.80555" lon="2.85444">
        <ele>754.8</ele>
        <time>2021-08-26T12:54:38.000Z</time>
      </trkpt>
      <trkpt lat="45.80561" lon="2.85449">
        <ele>755.6</ele>
        <time>2021-08-26T12:54:44.000Z</time>
      </trkpt>
      <trkpt lat="45.80566" lon="2.85457">
        <ele>756.2</ele>
        <time>2021-08-26T12:54:51.000Z</time>
      </trkpt>
      <trkpt lat="45.80571" lon="2.85463">
        <ele>756.8</ele>
        <time>2021-08-26T12:54:59.000Z</time>
      </trkpt>
      <trkpt lat="45.80574" lon="2.85472">
        <ele>757.1</ele>
        <time>2021-08-26T12:55:06.000Z</time>
      </trkpt>
      <trkpt lat="45.80579" lon="2.85479">
        <ele>757.7</ele>
        <time>2021-08-26T12:55:12.000Z</time>
      </trkpt>
      <trkpt lat="45.80583" lon="2.85487">
        <ele>758.1</ele>
        <time>2021-08-26T12:55:19.000Z</time>
      </trkpt>
      <trkpt lat="45.80584" lon="2.85496">
        <ele>758.1</ele>
        <time>2021-08-26T12:55:27.000Z</time>
      </trkpt>
      <trkpt lat="45.80585" lon="2.85506">
        <ele>758.2</ele>
        <time>2021-08-26T12:55:46.000Z</time>
      </trkpt>
      <trkpt lat="45.80586" lon="2.85517">
        <ele>758.4</ele>
        <time>2021-08-26T12:55:53.000Z</time>
      </trkpt>
      <trkpt lat="45.80587" lon="2.85526">
        <ele>758.6</ele>
        <time>2021-08-26T12:56:00.000Z</time>
      </trkpt>
      <trkpt lat="45.80587" lon="2.85536">
        <ele>758.8</ele>
        <time>2021-08-26T12:56:06.000Z</time>
      </trkpt>
      <trkpt lat="45.80588" lon="2.85547">
        <ele>759</ele>
        <time>2021-08-26T12:56:13.000Z</time>
      </trkpt>
      <trkpt lat="45.80589" lon="2.85556">
        <ele>759.2</ele>
        <time>2021-08-26T12:56:21.000Z</time>
      </trkpt>
      <trkpt lat="45.8059" lon="2.85567">
        <ele>759.5</ele>
        <time>2021-08-26T12:56:31.000Z</time>
      </trkpt>
      <trkpt lat="45.80591" lon="2.85577">
        <ele>759.7</ele>
        <time>2021-08-26T12:56:38.000Z</time>
      </trkpt>
      <trkpt lat="45.80593" lon="2.85588">
        <ele>760.3</ele>
        <time>2021-08-26T12:56:45.000Z</time>
      </trkpt>
      <trkpt lat="45.80594" lon="2.85597">
        <ele>760.8</ele>
        <time>2021-08-26T12:56:51.000Z</time>
      </trkpt>
      <trkpt lat="45.80594" lon="2.85606">
        <ele>761.2</ele>
        <time>2021-08-26T12:56:58.000Z</time>
      </trkpt>
      <trkpt lat="45.80595" lon="2.85616">
        <ele>761.7</ele>
        <time>2021-08-26T12:57:06.000Z</time>
      </trkpt>
      <trkpt lat="45.80596" lon="2.85627">
        <ele>762.3</ele>
        <time>2021-08-26T12:57:13.000Z</time>
      </trkpt>
      <trkpt lat="45.80596" lon="2.85637">
        <ele>762.7</ele>
        <time>2021-08-26T12:57:18.000Z</time>
      </trkpt>
      <trkpt lat="45.80598" lon="2.85647">
        <ele>763.4</ele>
        <time>2021-08-26T12:57:24.000Z</time>
      </trkpt>
      <trkpt lat="45.80599" lon="2.85657">
        <ele>763.9</ele>
        <time>2021-08-26T12:57:29.000Z</time>
      </trkpt>
      <trkpt lat="45.80602" lon="2.85667">
        <ele>764.6</ele>
        <time>2021-08-26T12:57:36.000Z</time>
      </trkpt>
      <trkpt lat="45.80603" lon="2.85676">
        <ele>764.9</ele>
        <time>2021-08-26T12:57:44.000Z</time>
      </trkpt>
      <trkpt lat="45.80604" lon="2.85686">
        <ele>765.3</ele>
        <time>2021-08-26T12:57:51.000Z</time>
      </trkpt>
      <trkpt lat="45.80606" lon="2.85696">
        <ele>765.8</ele>
        <time>2021-08-26T12:58:05.000Z</time>
      </trkpt>
      <trkpt lat="45.80605" lon="2.85705">
        <ele>766</ele>
        <time>2021-08-26T12:58:15.000Z</time>
      </trkpt>
      <trkpt lat="45.80603" lon="2.85717">
        <ele>766.2</ele>
        <time>2021-08-26T12:58:26.000Z</time>
      </trkpt>
      <trkpt lat="45.80599" lon="2.8573">
        <ele>766.3</ele>
        <time>2021-08-26T12:58:32.000Z</time>
      </trkpt>
      <trkpt lat="45.80601" lon="2.85748">
        <ele>767</ele>
        <time>2021-08-26T12:58:37.000Z</time>
      </trkpt>
      <trkpt lat="45.80606" lon="2.85755">
        <ele>767.5</ele>
        <time>2021-08-26T12:58:44.000Z</time>
      </trkpt>
      <trkpt lat="45.80613" lon="2.85757">
        <ele>768</ele>
        <time>2021-08-26T12:59:00.000Z</time>
      </trkpt>
      <trkpt lat="45.8062" lon="2.85761">
        <ele>768.5</ele>
        <time>2021-08-26T12:59:10.000Z</time>
      </trkpt>
      <trkpt lat="45.80626" lon="2.85765">
        <ele>769</ele>
        <time>2021-08-26T12:59:16.000Z</time>
      </trkpt>
      <trkpt lat="45.8063" lon="2.85772">
        <ele>769.4</ele>
        <time>2021-08-26T12:59:21.000Z</time>
      </trkpt>
      <trkpt lat="45.80634" lon="2.8578">
        <ele>769.9</ele>
        <time>2021-08-26T12:59:27.000Z</time>
      </trkpt>
      <trkpt lat="45.80639" lon="2.85787">
        <ele>770.4</ele>
        <time>2021-08-26T12:59:33.000Z</time>
      </trkpt>
      <trkpt lat="45.80644" lon="2.85795">
        <ele>770.9</ele>
        <time>2021-08-26T12:59:39.000Z</time>
      </trkpt>
      <trkpt lat="45.8065" lon="2.85801">
        <ele>771.3</ele>
        <time>2021-08-26T12:59:46.000Z</time>
      </trkpt>
      <trkpt lat="45.80654" lon="2.8581">
        <ele>771.8</ele>
        <time>2021-08-26T12:59:54.000Z</time>
      </trkpt>
      <trkpt lat="45.80657" lon="2.8582">
        <ele>772.2</ele>
        <time>2021-08-26T13:00:00.000Z</time>
      </trkpt>
      <trkpt lat="45.80662" lon="2.85825">
        <ele>772.6</ele>
        <time>2021-08-26T13:00:05.000Z</time>
      </trkpt>
      <trkpt lat="45.80669" lon="2.85831">
        <ele>773</ele>
        <time>2021-08-26T13:00:10.000Z</time>
      </trkpt>
      <trkpt lat="45.80676" lon="2.85839">
        <ele>773.5</ele>
        <time>2021-08-26T13:00:16.000Z</time>
      </trkpt>
      <trkpt lat="45.80681" lon="2.85848">
        <ele>773.8</ele>
        <time>2021-08-26T13:00:22.000Z</time>
      </trkpt>
      <trkpt lat="45.80682" lon="2.85858">
        <ele>774</ele>
        <time>2021-08-26T13:00:28.000Z</time>
      </trkpt>
      <trkpt lat="45.80684" lon="2.85868">
        <ele>774.3</ele>
        <time>2021-08-26T13:00:35.000Z</time>
      </trkpt>
      <trkpt lat="45.80684" lon="2.85879">
        <ele>774.5</ele>
        <time>2021-08-26T13:00:43.000Z</time>
      </trkpt>
      <trkpt lat="45.80685" lon="2.85888">
        <ele>774.7</ele>
        <time>2021-08-26T13:00:48.000Z</time>
      </trkpt>
      <trkpt lat="45.80687" lon="2.85899">
        <ele>774.9</ele>
        <time>2021-08-26T13:00:54.000Z</time>
      </trkpt>
      <trkpt lat="45.8069" lon="2.85909">
        <ele>775.1</ele>
        <time>2021-08-26T13:01:00.000Z</time>
      </trkpt>
      <trkpt lat="45.80694" lon="2.85917">
        <ele>775.3</ele>
        <time>2021-08-26T13:01:05.000Z</time>
      </trkpt>
      <trkpt lat="45.80698" lon="2.85927">
        <ele>775.5</ele>
        <time>2021-08-26T13:01:11.000Z</time>
      </trkpt>
      <trkpt lat="45.80702" lon="2.85933">
        <ele>775.5</ele>
        <time>2021-08-26T13:01:16.000Z</time>
      </trkpt>
      <trkpt lat="45.80706" lon="2.85942">
        <ele>775.6</ele>
        <time>2021-08-26T13:01:22.000Z</time>
      </trkpt>
      <trkpt lat="45.80711" lon="2.85952">
        <ele>775.7</ele>
        <time>2021-08-26T13:01:28.000Z</time>
      </trkpt>
      <trkpt lat="45.80714" lon="2.85961">
        <ele>775.8</ele>
        <time>2021-08-26T13:01:33.000Z</time>
      </trkpt>
      <trkpt lat="45.8072" lon="2.85969">
        <ele>775.9</ele>
        <time>2021-08-26T13:01:39.000Z</time>
      </trkpt>
      <trkpt lat="45.80724" lon="2.85976">
        <ele>775.9</ele>
        <time>2021-08-26T13:01:45.000Z</time>
      </trkpt>
      <trkpt lat="45.80728" lon="2.85984">
        <ele>775.9</ele>
        <time>2021-08-26T13:01:51.000Z</time>
      </trkpt>
      <trkpt lat="45.80733" lon="2.85991">
        <ele>776</ele>
        <time>2021-08-26T13:01:57.000Z</time>
      </trkpt>
      <trkpt lat="45.80738" lon="2.85999">
        <ele>776</ele>
        <time>2021-08-26T13:02:03.000Z</time>
      </trkpt>
      <trkpt lat="45.80743" lon="2.86005">
        <ele>776.1</ele>
        <time>2021-08-26T13:02:15.000Z</time>
      </trkpt>
      <trkpt lat="45.80748" lon="2.86014">
        <ele>776.3</ele>
        <time>2021-08-26T13:02:22.000Z</time>
      </trkpt>
      <trkpt lat="45.80753" lon="2.86021">
        <ele>776.5</ele>
        <time>2021-08-26T13:02:28.000Z</time>
      </trkpt>
      <trkpt lat="45.80757" lon="2.8603">
        <ele>776.7</ele>
        <time>2021-08-26T13:02:35.000Z</time>
      </trkpt>
      <trkpt lat="45.8076" lon="2.86038">
        <ele>776.9</ele>
        <time>2021-08-26T13:02:41.000Z</time>
      </trkpt>
      <trkpt lat="45.80763" lon="2.86046">
        <ele>777</ele>
        <time>2021-08-26T13:02:47.000Z</time>
      </trkpt>
      <trkpt lat="45.80768" lon="2.86054">
        <ele>777.2</ele>
        <time>2021-08-26T13:03:14.000Z</time>
      </trkpt>
      <trkpt lat="45.80773" lon="2.86061">
        <ele>777.3</ele>
        <time>2021-08-26T13:03:20.000Z</time>
      </trkpt>
      <trkpt lat="45.80778" lon="2.86069">
        <ele>777.4</ele>
        <time>2021-08-26T13:03:27.000Z</time>
      </trkpt>
      <trkpt lat="45.80784" lon="2.86074">
        <ele>777.4</ele>
        <time>2021-08-26T13:03:34.000Z</time>
      </trkpt>
      <trkpt lat="45.8079" lon="2.8608">
        <ele>777.5</ele>
        <time>2021-08-26T13:03:44.000Z</time>
      </trkpt>
      <trkpt lat="45.80792" lon="2.8609">
        <ele>777.4</ele>
        <time>2021-08-26T13:03:50.000Z</time>
      </trkpt>
      <trkpt lat="45.80795" lon="2.86101">
        <ele>777.3</ele>
        <time>2021-08-26T13:03:56.000Z</time>
      </trkpt>
      <trkpt lat="45.80797" lon="2.86111">
        <ele>777.1</ele>
        <time>2021-08-26T13:04:02.000Z</time>
      </trkpt>
      <trkpt lat="45.808" lon="2.86121">
        <ele>777</ele>
        <time>2021-08-26T13:04:08.000Z</time>
      </trkpt>
      <trkpt lat="45.80802" lon="2.86129">
        <ele>777</ele>
        <time>2021-08-26T13:04:13.000Z</time>
      </trkpt>
      <trkpt lat="45.80804" lon="2.8614">
        <ele>776.9</ele>
        <time>2021-08-26T13:04:18.000Z</time>
      </trkpt>
      <trkpt lat="45.80804" lon="2.86152">
        <ele>776.8</ele>
        <time>2021-08-26T13:04:24.000Z</time>
      </trkpt>
      <trkpt lat="45.80804" lon="2.86169">
        <ele>776.6</ele>
        <time>2021-08-26T13:04:49.000Z</time>
      </trkpt>
      <trkpt lat="45.80804" lon="2.8618">
        <ele>776.6</ele>
        <time>2021-08-26T13:04:55.000Z</time>
      </trkpt>
      <trkpt lat="45.80808" lon="2.86189">
        <ele>776.7</ele>
        <time>2021-08-26T13:05:03.000Z</time>
      </trkpt>
      <trkpt lat="45.80813" lon="2.86197">
        <ele>776.8</ele>
        <time>2021-08-26T13:05:08.000Z</time>
      </trkpt>
      <trkpt lat="45.80815" lon="2.86208">
        <ele>776.8</ele>
        <time>2021-08-26T13:05:13.000Z</time>
      </trkpt>
      <trkpt lat="45.80821" lon="2.86215">
        <ele>776.9</ele>
        <time>2021-08-26T13:05:19.000Z</time>
      </trkpt>
      <trkpt lat="45.80825" lon="2.86224">
        <ele>776.9</ele>
        <time>2021-08-26T13:05:24.000Z</time>
      </trkpt>
      <trkpt lat="45.80827" lon="2.86236">
        <ele>776.9</ele>
        <time>2021-08-26T13:05:29.000Z</time>
      </trkpt>
      <trkpt lat="45.80828" lon="2.86247">
        <ele>776.9</ele>
        <time>2021-08-26T13:05:34.000Z</time>
      </trkpt>
      <trkpt lat="45.8083" lon="2.86259">
        <ele>777</ele>
        <time>2021-08-26T13:05:40.000Z</time>
      </trkpt>
      <trkpt lat="45.80832" lon="2.8627">
        <ele>777</ele>
        <time>2021-08-26T13:05:46.000Z</time>
      </trkpt>
      <trkpt lat="45.80832" lon="2.86281">
        <ele>777</ele>
        <time>2021-08-26T13:05:52.000Z</time>
      </trkpt>
      <trkpt lat="45.80834" lon="2.86291">
        <ele>777</ele>
        <time>2021-08-26T13:06:00.000Z</time>
      </trkpt>
      <trkpt lat="45.80837" lon="2.86301">
        <ele>777.1</ele>
        <time>2021-08-26T13:06:07.000Z</time>
      </trkpt>
      <trkpt lat="45.80843" lon="2.86306">
        <ele>777.3</ele>
        <time>2021-08-26T13:06:15.000Z</time>
      </trkpt>
      <trkpt lat="45.8085" lon="2.86306">
        <ele>777.5</ele>
        <time>2021-08-26T13:06:20.000Z</time>
      </trkpt>
      <trkpt lat="45.80857" lon="2.86308">
        <ele>777.8</ele>
        <time>2021-08-26T13:06:25.000Z</time>
      </trkpt>
      <trkpt lat="45.80863" lon="2.8631">
        <ele>778</ele>
        <time>2021-08-26T13:07:23.000Z</time>
      </trkpt>
      <trkpt lat="45.8087" lon="2.86307">
        <ele>778.2</ele>
        <time>2021-08-26T13:07:36.000Z</time>
      </trkpt>
      <trkpt lat="45.80877" lon="2.86307">
        <ele>778.4</ele>
        <time>2021-08-26T13:07:43.000Z</time>
      </trkpt>
      <trkpt lat="45.80885" lon="2.86307">
        <ele>778.7</ele>
        <time>2021-08-26T13:07:58.000Z</time>
      </trkpt>
      <trkpt lat="45.80893" lon="2.86308">
        <ele>778.9</ele>
        <time>2021-08-26T13:08:04.000Z</time>
      </trkpt>
      <trkpt lat="45.809" lon="2.86309">
        <ele>779.2</ele>
        <time>2021-08-26T13:08:09.000Z</time>
      </trkpt>
      <trkpt lat="45.80907" lon="2.86309">
        <ele>779.4</ele>
        <time>2021-08-26T13:08:15.000Z</time>
      </trkpt>
      <trkpt lat="45.80914" lon="2.8631">
        <ele>779.6</ele>
        <time>2021-08-26T13:08:22.000Z</time>
      </trkpt>
      <trkpt lat="45.80921" lon="2.8631">
        <ele>779.6</ele>
        <time>2021-08-26T13:08:28.000Z</time>
      </trkpt>
      <trkpt lat="45.80927" lon="2.86308">
        <ele>779.4</ele>
        <time>2021-08-26T13:08:34.000Z</time>
      </trkpt>
      <trkpt lat="45.80934" lon="2.8631">
        <ele>779.2</ele>
        <time>2021-08-26T13:08:40.000Z</time>
      </trkpt>
      <trkpt lat="45.80941" lon="2.86312">
        <ele>778.9</ele>
        <time>2021-08-26T13:08:48.000Z</time>
      </trkpt>
      <trkpt lat="45.80947" lon="2.86311">
        <ele>778.7</ele>
        <time>2021-08-26T13:08:56.000Z</time>
      </trkpt>
      <trkpt lat="45.80955" lon="2.86312">
        <ele>778.5</ele>
        <time>2021-08-26T13:09:01.000Z</time>
      </trkpt>
      <trkpt lat="45.80963" lon="2.86313">
        <ele>778.2</ele>
        <time>2021-08-26T13:09:06.000Z</time>
      </trkpt>
      <trkpt lat="45.80969" lon="2.8632">
        <ele>778.1</ele>
        <time>2021-08-26T13:09:14.000Z</time>
      </trkpt>
      <trkpt lat="45.80975" lon="2.86324">
        <ele>777.9</ele>
        <time>2021-08-26T13:09:20.000Z</time>
      </trkpt>
      <trkpt lat="45.80983" lon="2.86327">
        <ele>777.6</ele>
        <time>2021-08-26T13:09:25.000Z</time>
      </trkpt>
      <trkpt lat="45.80989" lon="2.86329">
        <ele>777.4</ele>
        <time>2021-08-26T13:09:30.000Z</time>
      </trkpt>
      <trkpt lat="45.80994" lon="2.86336">
        <ele>777.1</ele>
        <time>2021-08-26T13:09:39.000Z</time>
      </trkpt>
      <trkpt lat="45.80993" lon="2.86345">
        <ele>776.8</ele>
        <time>2021-08-26T13:09:50.000Z</time>
      </trkpt>
      <trkpt lat="45.80996" lon="2.86356">
        <ele>776.3</ele>
        <time>2021-08-26T13:10:00.000Z</time>
      </trkpt>
      <trkpt lat="45.80997" lon="2.86368">
        <ele>775.8</ele>
        <time>2021-08-26T13:10:08.000Z</time>
      </trkpt>
      <trkpt lat="45.80999" lon="2.86377">
        <ele>775.5</ele>
        <time>2021-08-26T13:10:13.000Z</time>
      </trkpt>
      <trkpt lat="45.81002" lon="2.86385">
        <ele>775.2</ele>
        <time>2021-08-26T13:10:24.000Z</time>
      </trkpt>
      <trkpt lat="45.81007" lon="2.86392">
        <ele>775.2</ele>
        <time>2021-08-26T13:10:35.000Z</time>
      </trkpt>
      <trkpt lat="45.81011" lon="2.86399">
        <ele>775.2</ele>
        <time>2021-08-26T13:10:44.000Z</time>
      </trkpt>
      <trkpt lat="45.81016" lon="2.86406">
        <ele>775.2</ele>
        <time>2021-08-26T13:10:52.000Z</time>
      </trkpt>
      <trkpt lat="45.81022" lon="2.86411">
        <ele>775.5</ele>
        <time>2021-08-26T13:11:01.000Z</time>
      </trkpt>
      <trkpt lat="45.81027" lon="2.86418">
        <ele>775.6</ele>
        <time>2021-08-26T13:11:11.000Z</time>
      </trkpt>
      <trkpt lat="45.81033" lon="2.86429">
        <ele>776.2</ele>
        <time>2021-08-26T13:11:26.000Z</time>
      </trkpt>
      <trkpt lat="45.81039" lon="2.86436">
        <ele>776.7</ele>
        <time>2021-08-26T13:11:32.000Z</time>
      </trkpt>
      <trkpt lat="45.81044" lon="2.86441">
        <ele>777.1</ele>
        <time>2021-08-26T13:11:38.000Z</time>
      </trkpt>
      <trkpt lat="45.81049" lon="2.86447">
        <ele>777.5</ele>
        <time>2021-08-26T13:11:44.000Z</time>
      </trkpt>
      <trkpt lat="45.81054" lon="2.86454">
        <ele>777.8</ele>
        <time>2021-08-26T13:11:51.000Z</time>
      </trkpt>
      <trkpt lat="45.8106" lon="2.86459">
        <ele>778.3</ele>
        <time>2021-08-26T13:11:58.000Z</time>
      </trkpt>
      <trkpt lat="45.81066" lon="2.86465">
        <ele>778.7</ele>
        <time>2021-08-26T13:12:10.000Z</time>
      </trkpt>
      <trkpt lat="45.8107" lon="2.86473">
        <ele>779</ele>
        <time>2021-08-26T13:12:20.000Z</time>
      </trkpt>
      <trkpt lat="45.81072" lon="2.86484">
        <ele>779.2</ele>
        <time>2021-08-26T13:12:27.000Z</time>
      </trkpt>
      <trkpt lat="45.81076" lon="2.86491">
        <ele>779.5</ele>
        <time>2021-08-26T13:12:35.000Z</time>
      </trkpt>
      <trkpt lat="45.8108" lon="2.86499">
        <ele>779.8</ele>
        <time>2021-08-26T13:12:42.000Z</time>
      </trkpt>
      <trkpt lat="45.81082" lon="2.86508">
        <ele>780</ele>
        <time>2021-08-26T13:13:01.000Z</time>
      </trkpt>
      <trkpt lat="45.81083" lon="2.86518">
        <ele>780.2</ele>
        <time>2021-08-26T13:13:25.000Z</time>
      </trkpt>
      <trkpt lat="45.81083" lon="2.86529">
        <ele>780.3</ele>
        <time>2021-08-26T13:13:32.000Z</time>
      </trkpt>
      <trkpt lat="45.81083" lon="2.86539">
        <ele>780.5</ele>
        <time>2021-08-26T13:13:37.000Z</time>
      </trkpt>
      <trkpt lat="45.81081" lon="2.86552">
        <ele>780.5</ele>
        <time>2021-08-26T13:13:42.000Z</time>
      </trkpt>
      <trkpt lat="45.8108" lon="2.86564">
        <ele>780.6</ele>
        <time>2021-08-26T13:13:48.000Z</time>
      </trkpt>
      <trkpt lat="45.81079" lon="2.86574">
        <ele>780.7</ele>
        <time>2021-08-26T13:13:54.000Z</time>
      </trkpt>
      <trkpt lat="45.81085" lon="2.8658">
        <ele>781</ele>
        <time>2021-08-26T13:14:02.000Z</time>
      </trkpt>
      <trkpt lat="45.81097" lon="2.86585">
        <ele>781.2</ele>
        <time>2021-08-26T13:14:08.000Z</time>
      </trkpt>
      <trkpt lat="45.81108" lon="2.86585">
        <ele>781.3</ele>
        <time>2021-08-26T13:14:13.000Z</time>
      </trkpt>
      <trkpt lat="45.81118" lon="2.86584">
        <ele>781.4</ele>
        <time>2021-08-26T13:14:21.000Z</time>
      </trkpt>
      <trkpt lat="45.81131" lon="2.86588">
        <ele>781.7</ele>
        <time>2021-08-26T13:14:41.000Z</time>
      </trkpt>
      <trkpt lat="45.81137" lon="2.86591">
        <ele>781.8</ele>
        <time>2021-08-26T13:14:49.000Z</time>
      </trkpt>
      <trkpt lat="45.81147" lon="2.86595">
        <ele>782</ele>
        <time>2021-08-26T13:15:17.000Z</time>
      </trkpt>
      <trkpt lat="45.81147" lon="2.86605">
        <ele>782.2</ele>
        <time>2021-08-26T13:15:35.000Z</time>
      </trkpt>
      <trkpt lat="45.81151" lon="2.86614">
        <ele>782.5</ele>
        <time>2021-08-26T13:15:59.000Z</time>
      </trkpt>
      <trkpt lat="45.81155" lon="2.86623">
        <ele>782.7</ele>
        <time>2021-08-26T13:16:05.000Z</time>
      </trkpt>
      <trkpt lat="45.8116" lon="2.86629">
        <ele>783</ele>
        <time>2021-08-26T13:16:10.000Z</time>
      </trkpt>
      <trkpt lat="45.8116" lon="2.8664">
        <ele>783.2</ele>
        <time>2021-08-26T13:16:16.000Z</time>
      </trkpt>
      <trkpt lat="45.81161" lon="2.8665">
        <ele>783.5</ele>
        <time>2021-08-26T13:16:21.000Z</time>
      </trkpt>
      <trkpt lat="45.81162" lon="2.8666">
        <ele>783.7</ele>
        <time>2021-08-26T13:16:26.000Z</time>
      </trkpt>
      <trkpt lat="45.81165" lon="2.86669">
        <ele>784</ele>
        <time>2021-08-26T13:16:32.000Z</time>
      </trkpt>
      <trkpt lat="45.81171" lon="2.86674">
        <ele>784.1</ele>
        <time>2021-08-26T13:16:43.000Z</time>
      </trkpt>
      <trkpt lat="45.8118" lon="2.86682">
        <ele>784</ele>
        <time>2021-08-26T13:17:09.000Z</time>
      </trkpt>
      <trkpt lat="45.81186" lon="2.86682">
        <ele>783.9</ele>
        <time>2021-08-26T13:17:17.000Z</time>
      </trkpt>
      <trkpt lat="45.81184" lon="2.86691">
        <ele>784.2</ele>
        <time>2021-08-26T13:17:37.000Z</time>
      </trkpt>
      <trkpt lat="45.81183" lon="2.86701">
        <ele>784.4</ele>
        <time>2021-08-26T13:17:51.000Z</time>
      </trkpt>
      <trkpt lat="45.81185" lon="2.86713">
        <ele>784.7</ele>
        <time>2021-08-26T13:18:24.000Z</time>
      </trkpt>
      <trkpt lat="45.81187" lon="2.86723">
        <ele>784.9</ele>
        <time>2021-08-26T13:18:37.000Z</time>
      </trkpt>
      <trkpt lat="45.81195" lon="2.86731">
        <ele>784.9</ele>
        <time>2021-08-26T13:19:29.000Z</time>
      </trkpt>
      <trkpt lat="45.81198" lon="2.86739">
        <ele>785</ele>
        <time>2021-08-26T13:19:41.000Z</time>
      </trkpt>
      <trkpt lat="45.81206" lon="2.86749">
        <ele>785</ele>
        <time>2021-08-26T13:20:11.000Z</time>
      </trkpt>
      <trkpt lat="45.81209" lon="2.86758">
        <ele>785.1</ele>
        <time>2021-08-26T13:20:17.000Z</time>
      </trkpt>
      <trkpt lat="45.81214" lon="2.86767">
        <ele>785.2</ele>
        <time>2021-08-26T13:20:24.000Z</time>
      </trkpt>
      <trkpt lat="45.8122" lon="2.86774">
        <ele>785.1</ele>
        <time>2021-08-26T13:20:29.000Z</time>
      </trkpt>
      <trkpt lat="45.81234" lon="2.86779">
        <ele>784.8</ele>
        <time>2021-08-26T13:20:40.000Z</time>
      </trkpt>
      <trkpt lat="45.81244" lon="2.86791">
        <ele>784.7</ele>
        <time>2021-08-26T13:21:09.000Z</time>
      </trkpt>
      <trkpt lat="45.81247" lon="2.86806">
        <ele>784.8</ele>
        <time>2021-08-26T13:21:45.000Z</time>
      </trkpt>
      <trkpt lat="45.81256" lon="2.86814">
        <ele>784.7</ele>
        <time>2021-08-26T13:23:08.000Z</time>
      </trkpt>
      <trkpt lat="45.81262" lon="2.86819">
        <ele>784.7</ele>
        <time>2021-08-26T13:23:21.000Z</time>
      </trkpt>
      <trkpt lat="45.81268" lon="2.86826">
        <ele>784.7</ele>
        <time>2021-08-26T13:23:31.000Z</time>
      </trkpt>
      <trkpt lat="45.81275" lon="2.86831">
        <ele>784.7</ele>
        <time>2021-08-26T13:23:51.000Z</time>
      </trkpt>
      <trkpt lat="45.81286" lon="2.86835">
        <ele>784.6</ele>
        <time>2021-08-26T13:24:42.000Z</time>
      </trkpt>
      <trkpt lat="45.81293" lon="2.86836">
        <ele>784.5</ele>
        <time>2021-08-26T13:25:11.000Z</time>
      </trkpt>
      <trkpt lat="45.81297" lon="2.86829">
        <ele>784.4</ele>
        <time>2021-08-26T13:26:00.000Z</time>
      </trkpt>
      <trkpt lat="45.81319" lon="2.86837">
        <ele>784.3</ele>
      </trkpt>
      <trkpt lat="45.81341" lon="2.86852">
        <ele>784.6</ele>
      </trkpt>
      <trkpt lat="45.81349" lon="2.86889">
        <ele>785.9</ele>
      </trkpt>
      <trkpt lat="45.81366" lon="2.86919">
        <ele>787.1</ele>
        <time>2021-08-26T13:26:05.000Z</time>
      </trkpt>
      <trkpt lat="45.81379" lon="2.86892">
        <ele>785.9</ele>
      </trkpt>
      <trkpt lat="45.814" lon="2.86881">
        <ele>785.4</ele>
      </trkpt>
      <trkpt lat="45.81421" lon="2.86898">
        <ele>786.2</ele>
      </trkpt>
      <trkpt lat="45.81434" lon="2.86896">
        <ele>786.3</ele>
        <time>2021-08-26T13:26:10.000Z</time>
      </trkpt>
      <trkpt lat="45.8147" lon="2.86877">
        <ele>786.3</ele>
        <time>2021-08-26T13:26:16.000Z</time>
      </trkpt>
      <trkpt lat="45.81488" lon="2.86871">
        <ele>786.6</ele>
        <time>2021-08-26T13:26:21.000Z</time>
      </trkpt>
      <trkpt lat="45.81504" lon="2.86859">
        <ele>786.7</ele>
        <time>2021-08-26T13:26:26.000Z</time>
      </trkpt>
      <trkpt lat="45.8152" lon="2.86847">
        <ele>786.6</ele>
        <time>2021-08-26T13:26:32.000Z</time>
      </trkpt>
      <trkpt lat="45.81528" lon="2.8684">
        <ele>786.5</ele>
        <time>2021-08-26T13:26:37.000Z</time>
      </trkpt>
      <trkpt lat="45.81533" lon="2.86831">
        <ele>786.3</ele>
        <time>2021-08-26T13:26:43.000Z</time>
      </trkpt>
      <trkpt lat="45.81535" lon="2.86818">
        <ele>785.9</ele>
        <time>2021-08-26T13:26:48.000Z</time>
      </trkpt>
      <trkpt lat="45.81537" lon="2.86808">
        <ele>785.6</ele>
        <time>2021-08-26T13:26:53.000Z</time>
      </trkpt>
      <trkpt lat="45.81538" lon="2.86798">
        <ele>785.2</ele>
        <time>2021-08-26T13:26:59.000Z</time>
      </trkpt>
      <trkpt lat="45.81542" lon="2.86789">
        <ele>784.9</ele>
        <time>2021-08-26T13:27:05.000Z</time>
      </trkpt>
      <trkpt lat="45.81547" lon="2.86781">
        <ele>784.6</ele>
        <time>2021-08-26T13:27:11.000Z</time>
      </trkpt>
      <trkpt lat="45.81552" lon="2.86768">
        <ele>784.1</ele>
        <time>2021-08-26T13:27:20.000Z</time>
      </trkpt>
      <trkpt lat="45.8155" lon="2.86757">
        <ele>783.7</ele>
        <time>2021-08-26T13:27:28.000Z</time>
      </trkpt>
      <trkpt lat="45.81547" lon="2.86746">
        <ele>783.3</ele>
        <time>2021-08-26T13:27:36.000Z</time>
      </trkpt>
      <trkpt lat="45.81551" lon="2.86737">
        <ele>783</ele>
        <time>2021-08-26T13:27:43.000Z</time>
      </trkpt>
      <trkpt lat="45.81553" lon="2.86727">
        <ele>782.7</ele>
        <time>2021-08-26T13:27:48.000Z</time>
      </trkpt>
      <trkpt lat="45.81546" lon="2.86714">
        <ele>782.5</ele>
        <time>2021-08-26T13:28:24.000Z</time>
      </trkpt>
      <trkpt lat="45.81544" lon="2.86704">
        <ele>782.3</ele>
        <time>2021-08-26T13:28:33.000Z</time>
      </trkpt>
      <trkpt lat="45.81548" lon="2.86686">
        <ele>781.8</ele>
        <time>2021-08-26T13:28:54.000Z</time>
      </trkpt>
      <trkpt lat="45.81549" lon="2.86676">
        <ele>781.5</ele>
        <time>2021-08-26T13:29:25.000Z</time>
      </trkpt>
      <trkpt lat="45.81547" lon="2.86667">
        <ele>781.3</ele>
        <time>2021-08-26T13:29:37.000Z</time>
      </trkpt>
      <trkpt lat="45.81543" lon="2.86659">
        <ele>781.5</ele>
        <time>2021-08-26T13:29:45.000Z</time>
      </trkpt>
      <trkpt lat="45.81545" lon="2.8665">
        <ele>781.6</ele>
        <time>2021-08-26T13:29:52.000Z</time>
      </trkpt>
      <trkpt lat="45.81544" lon="2.8664">
        <ele>781.8</ele>
        <time>2021-08-26T13:30:00.000Z</time>
      </trkpt>
      <trkpt lat="45.81542" lon="2.86631">
        <ele>781.9</ele>
        <time>2021-08-26T13:30:10.000Z</time>
      </trkpt>
      <trkpt lat="45.8154" lon="2.86621">
        <ele>782.1</ele>
        <time>2021-08-26T13:30:19.000Z</time>
      </trkpt>
      <trkpt lat="45.81539" lon="2.8661">
        <ele>782.2</ele>
        <time>2021-08-26T13:30:29.000Z</time>
      </trkpt>
      <trkpt lat="45.81532" lon="2.86599">
        <ele>782.5</ele>
        <time>2021-08-26T13:30:40.000Z</time>
      </trkpt>
      <trkpt lat="45.81531" lon="2.8659">
        <ele>782.6</ele>
        <time>2021-08-26T13:30:48.000Z</time>
      </trkpt>
      <trkpt lat="45.8153" lon="2.8658">
        <ele>782.6</ele>
        <time>2021-08-26T13:30:57.000Z</time>
      </trkpt>
      <trkpt lat="45.81531" lon="2.86571">
        <ele>782.5</ele>
        <time>2021-08-26T13:31:02.000Z</time>
      </trkpt>
      <trkpt lat="45.8153" lon="2.86559">
        <ele>782.5</ele>
        <time>2021-08-26T13:31:08.000Z</time>
      </trkpt>
      <trkpt lat="45.81528" lon="2.86547">
        <ele>782.4</ele>
        <time>2021-08-26T13:31:13.000Z</time>
      </trkpt>
      <trkpt lat="45.81534" lon="2.86551">
        <ele>782.4</ele>
        <time>2021-08-26T13:31:26.000Z</time>
      </trkpt>
      <trkpt lat="45.81534" lon="2.86542">
        <ele>782.3</ele>
        <time>2021-08-26T13:31:38.000Z</time>
      </trkpt>
      <trkpt lat="45.8153" lon="2.86533">
        <ele>782.3</ele>
        <time>2021-08-26T13:31:45.000Z</time>
      </trkpt>
      <trkpt lat="45.81529" lon="2.86523">
        <ele>782.2</ele>
        <time>2021-08-26T13:31:51.000Z</time>
      </trkpt>
      <trkpt lat="45.8152" lon="2.86505">
        <ele>782</ele>
        <time>2021-08-26T13:31:56.000Z</time>
      </trkpt>
      <trkpt lat="45.81514" lon="2.86504">
        <ele>782</ele>
        <time>2021-08-26T13:32:34.000Z</time>
      </trkpt>
      <trkpt lat="45.81516" lon="2.86513">
        <ele>782.1</ele>
        <time>2021-08-26T13:33:28.000Z</time>
      </trkpt>
      <trkpt lat="45.81523" lon="2.86525">
        <ele>782.2</ele>
        <time>2021-08-26T13:33:50.000Z</time>
      </trkpt>
      <trkpt lat="45.8153" lon="2.86535">
        <ele>782.3</ele>
        <time>2021-08-26T13:34:03.000Z</time>
      </trkpt>
      <trkpt lat="45.81535" lon="2.86541">
        <ele>782.3</ele>
        <time>2021-08-26T13:34:09.000Z</time>
      </trkpt>
      <trkpt lat="45.81545" lon="2.86543">
        <ele>782.2</ele>
        <time>2021-08-26T13:34:18.000Z</time>
      </trkpt>
      <trkpt lat="45.81553" lon="2.86546">
        <ele>782.2</ele>
        <time>2021-08-26T13:34:40.000Z</time>
      </trkpt>
      <trkpt lat="45.81555" lon="2.86555">
        <ele>782.2</ele>
        <time>2021-08-26T13:34:53.000Z</time>
      </trkpt>
      <trkpt lat="45.81559" lon="2.86563">
        <ele>782.2</ele>
        <time>2021-08-26T13:35:06.000Z</time>
      </trkpt>
      <trkpt lat="45.81563" lon="2.86571">
        <ele>782.2</ele>
        <time>2021-08-26T13:35:15.000Z</time>
      </trkpt>
      <trkpt lat="45.8157" lon="2.86574">
        <ele>782.1</ele>
        <time>2021-08-26T13:35:33.000Z</time>
      </trkpt>
      <trkpt lat="45.81576" lon="2.86574">
        <ele>782.1</ele>
        <time>2021-08-26T13:35:40.000Z</time>
      </trkpt>
      <trkpt lat="45.81583" lon="2.86575">
        <ele>782</ele>
        <time>2021-08-26T13:35:46.000Z</time>
      </trkpt>
      <trkpt lat="45.81597" lon="2.86576">
        <ele>782</ele>
        <time>2021-08-26T13:36:16.000Z</time>
      </trkpt>
      <trkpt lat="45.81603" lon="2.86571">
        <ele>781.9</ele>
        <time>2021-08-26T13:36:26.000Z</time>
      </trkpt>
      <trkpt lat="45.81612" lon="2.8657">
        <ele>781.8</ele>
        <time>2021-08-26T13:36:34.000Z</time>
      </trkpt>
      <trkpt lat="45.81622" lon="2.86569">
        <ele>781.8</ele>
        <time>2021-08-26T13:36:40.000Z</time>
      </trkpt>
      <trkpt lat="45.81631" lon="2.86566">
        <ele>781.6</ele>
        <time>2021-08-26T13:36:45.000Z</time>
      </trkpt>
      <trkpt lat="45.81638" lon="2.86566">
        <ele>781.6</ele>
        <time>2021-08-26T13:36:50.000Z</time>
      </trkpt>
      <trkpt lat="45.81644" lon="2.86565">
        <ele>781.5</ele>
        <time>2021-08-26T13:36:57.000Z</time>
      </trkpt>
      <trkpt lat="45.81652" lon="2.86564">
        <ele>781.4</ele>
        <time>2021-08-26T13:37:06.000Z</time>
      </trkpt>
      <trkpt lat="45.8166" lon="2.86556">
        <ele>781.1</ele>
        <time>2021-08-26T13:37:32.000Z</time>
      </trkpt>
      <trkpt lat="45.81666" lon="2.86555">
        <ele>781</ele>
        <time>2021-08-26T13:37:40.000Z</time>
      </trkpt>
      <trkpt lat="45.81674" lon="2.86554">
        <ele>780.8</ele>
        <time>2021-08-26T13:37:46.000Z</time>
      </trkpt>
      <trkpt lat="45.81681" lon="2.86554">
        <ele>780.7</ele>
        <time>2021-08-26T13:37:52.000Z</time>
      </trkpt>
      <trkpt lat="45.81689" lon="2.86554">
        <ele>780.6</ele>
        <time>2021-08-26T13:37:57.000Z</time>
      </trkpt>
      <trkpt lat="45.81696" lon="2.8655">
        <ele>780.4</ele>
        <time>2021-08-26T13:38:02.000Z</time>
      </trkpt>
      <trkpt lat="45.81702" lon="2.86546">
        <ele>780.2</ele>
        <time>2021-08-26T13:38:09.000Z</time>
      </trkpt>
      <trkpt lat="45.81709" lon="2.86542">
        <ele>780</ele>
        <time>2021-08-26T13:38:14.000Z</time>
      </trkpt>
      <trkpt lat="45.81716" lon="2.86538">
        <ele>779.8</ele>
        <time>2021-08-26T13:38:20.000Z</time>
      </trkpt>
      <trkpt lat="45.81723" lon="2.86535">
        <ele>779.7</ele>
        <time>2021-08-26T13:38:26.000Z</time>
      </trkpt>
      <trkpt lat="45.81732" lon="2.86531">
        <ele>779.5</ele>
        <time>2021-08-26T13:38:32.000Z</time>
      </trkpt>
      <trkpt lat="45.81738" lon="2.86525">
        <ele>779.4</ele>
        <time>2021-08-26T13:38:37.000Z</time>
      </trkpt>
      <trkpt lat="45.81744" lon="2.8652">
        <ele>779.3</ele>
        <time>2021-08-26T13:38:42.000Z</time>
      </trkpt>
      <trkpt lat="45.81752" lon="2.86514">
        <ele>779.2</ele>
        <time>2021-08-26T13:38:48.000Z</time>
      </trkpt>
      <trkpt lat="45.8176" lon="2.86499">
        <ele>779.1</ele>
        <time>2021-08-26T13:38:58.000Z</time>
      </trkpt>
      <trkpt lat="45.81766" lon="2.8649">
        <ele>779</ele>
        <time>2021-08-26T13:39:04.000Z</time>
      </trkpt>
      <trkpt lat="45.81777" lon="2.86479">
        <ele>778.9</ele>
        <time>2021-08-26T13:39:14.000Z</time>
      </trkpt>
      <trkpt lat="45.81784" lon="2.86469">
        <ele>778.8</ele>
        <time>2021-08-26T13:39:20.000Z</time>
      </trkpt>
      <trkpt lat="45.81789" lon="2.86463">
        <ele>778.8</ele>
        <time>2021-08-26T13:39:26.000Z</time>
      </trkpt>
      <trkpt lat="45.81794" lon="2.86455">
        <ele>778.7</ele>
        <time>2021-08-26T13:39:32.000Z</time>
      </trkpt>
      <trkpt lat="45.81802" lon="2.86447">
        <ele>778.7</ele>
        <time>2021-08-26T13:39:40.000Z</time>
      </trkpt>
      <trkpt lat="45.81817" lon="2.86444">
        <ele>779</ele>
        <time>2021-08-26T13:39:57.000Z</time>
      </trkpt>
      <trkpt lat="45.81825" lon="2.86442">
        <ele>779.1</ele>
        <time>2021-08-26T13:40:13.000Z</time>
      </trkpt>
      <trkpt lat="45.8183" lon="2.86449">
        <ele>779.3</ele>
        <time>2021-08-26T13:40:27.000Z</time>
      </trkpt>
      <trkpt lat="45.81836" lon="2.86454">
        <ele>779.3</ele>
        <time>2021-08-26T13:40:36.000Z</time>
      </trkpt>
      <trkpt lat="45.81842" lon="2.86461">
        <ele>779.2</ele>
        <time>2021-08-26T13:40:46.000Z</time>
      </trkpt>
      <trkpt lat="45.81849" lon="2.86465">
        <ele>778.9</ele>
        <time>2021-08-26T13:40:53.000Z</time>
      </trkpt>
      <trkpt lat="45.81856" lon="2.86468">
        <ele>778.6</ele>
        <time>2021-08-26T13:40:59.000Z</time>
      </trkpt>
      <trkpt lat="45.81863" lon="2.86473">
        <ele>778.4</ele>
        <time>2021-08-26T13:41:06.000Z</time>
      </trkpt>
      <trkpt lat="45.81871" lon="2.86478">
        <ele>778</ele>
        <time>2021-08-26T13:41:16.000Z</time>
      </trkpt>
      <trkpt lat="45.81877" lon="2.86481">
        <ele>777.8</ele>
        <time>2021-08-26T13:41:24.000Z</time>
      </trkpt>
      <trkpt lat="45.81886" lon="2.86481">
        <ele>777.4</ele>
        <time>2021-08-26T13:41:29.000Z</time>
      </trkpt>
      <trkpt lat="45.81893" lon="2.86482">
        <ele>777.1</ele>
        <time>2021-08-26T13:41:34.000Z</time>
      </trkpt>
      <trkpt lat="45.81903" lon="2.86484">
        <ele>776.6</ele>
        <time>2021-08-26T13:41:40.000Z</time>
      </trkpt>
      <trkpt lat="45.8191" lon="2.86492">
        <ele>776.3</ele>
        <time>2021-08-26T13:41:52.000Z</time>
      </trkpt>
      <trkpt lat="45.81911" lon="2.86503">
        <ele>776.3</ele>
        <time>2021-08-26T13:41:58.000Z</time>
      </trkpt>
      <trkpt lat="45.81917" lon="2.86507">
        <ele>776.1</ele>
        <time>2021-08-26T13:42:04.000Z</time>
      </trkpt>
      <trkpt lat="45.81931" lon="2.86505">
        <ele>775.9</ele>
        <time>2021-08-26T13:42:11.000Z</time>
      </trkpt>
      <trkpt lat="45.81938" lon="2.86506">
        <ele>775.8</ele>
        <time>2021-08-26T13:42:16.000Z</time>
      </trkpt>
      <trkpt lat="45.81942" lon="2.86514">
        <ele>775.8</ele>
        <time>2021-08-26T13:42:26.000Z</time>
      </trkpt>
      <trkpt lat="45.81944" lon="2.86524">
        <ele>775.8</ele>
        <time>2021-08-26T13:42:33.000Z</time>
      </trkpt>
      <trkpt lat="45.81945" lon="2.86539">
        <ele>775.8</ele>
        <time>2021-08-26T13:42:48.000Z</time>
      </trkpt>
      <trkpt lat="45.8195" lon="2.86545">
        <ele>775.7</ele>
        <time>2021-08-26T13:43:00.000Z</time>
      </trkpt>
      <trkpt lat="45.81955" lon="2.86552">
        <ele>775.6</ele>
        <time>2021-08-26T13:43:08.000Z</time>
      </trkpt>
      <trkpt lat="45.8196" lon="2.86573">
        <ele>775.4</ele>
        <time>2021-08-26T13:43:27.000Z</time>
      </trkpt>
      <trkpt lat="45.81964" lon="2.86583">
        <ele>775.3</ele>
        <time>2021-08-26T13:43:34.000Z</time>
      </trkpt>
      <trkpt lat="45.8197" lon="2.86583">
        <ele>775.1</ele>
        <time>2021-08-26T13:43:41.000Z</time>
      </trkpt>
      <trkpt lat="45.81973" lon="2.86591">
        <ele>775.1</ele>
        <time>2021-08-26T13:43:46.000Z</time>
      </trkpt>
      <trkpt lat="45.81979" lon="2.86598">
        <ele>774.9</ele>
        <time>2021-08-26T13:43:52.000Z</time>
      </trkpt>
      <trkpt lat="45.81984" lon="2.86607">
        <ele>774.7</ele>
        <time>2021-08-26T13:43:57.000Z</time>
      </trkpt>
      <trkpt lat="45.81991" lon="2.86607">
        <ele>774.4</ele>
        <time>2021-08-26T13:44:02.000Z</time>
      </trkpt>
      <trkpt lat="45.81999" lon="2.86611">
        <ele>774</ele>
        <time>2021-08-26T13:44:08.000Z</time>
      </trkpt>
      <trkpt lat="45.82005" lon="2.86615">
        <ele>773.8</ele>
        <time>2021-08-26T13:44:13.000Z</time>
      </trkpt>
      <trkpt lat="45.82012" lon="2.8662">
        <ele>773.6</ele>
        <time>2021-08-26T13:44:18.000Z</time>
      </trkpt>
      <trkpt lat="45.8202" lon="2.86624">
        <ele>773.3</ele>
        <time>2021-08-26T13:44:24.000Z</time>
      </trkpt>
      <trkpt lat="45.82025" lon="2.86632">
        <ele>773.2</ele>
        <time>2021-08-26T13:44:29.000Z</time>
      </trkpt>
      <trkpt lat="45.82029" lon="2.86642">
        <ele>773.1</ele>
        <time>2021-08-26T13:44:36.000Z</time>
      </trkpt>
      <trkpt lat="45.82033" lon="2.86651">
        <ele>773.1</ele>
        <time>2021-08-26T13:44:41.000Z</time>
      </trkpt>
      <trkpt lat="45.82041" lon="2.86659">
        <ele>772.9</ele>
        <time>2021-08-26T13:44:46.000Z</time>
      </trkpt>
      <trkpt lat="45.82047" lon="2.86673">
        <ele>773</ele>
        <time>2021-08-26T13:44:52.000Z</time>
      </trkpt>
      <trkpt lat="45.82053" lon="2.86678">
        <ele>772.9</ele>
        <time>2021-08-26T13:44:57.000Z</time>
      </trkpt>
      <trkpt lat="45.82058" lon="2.86685">
        <ele>772.9</ele>
        <time>2021-08-26T13:45:03.000Z</time>
      </trkpt>
      <trkpt lat="45.82064" lon="2.86685">
        <ele>772.8</ele>
        <time>2021-08-26T13:45:08.000Z</time>
      </trkpt>
      <trkpt lat="45.82071" lon="2.86683">
        <ele>772.6</ele>
        <time>2021-08-26T13:45:14.000Z</time>
      </trkpt>
      <trkpt lat="45.82082" lon="2.86682">
        <ele>772.4</ele>
        <time>2021-08-26T13:45:20.000Z</time>
      </trkpt>
      <trkpt lat="45.82091" lon="2.8668">
        <ele>772.3</ele>
        <time>2021-08-26T13:45:25.000Z</time>
      </trkpt>
      <trkpt lat="45.82101" lon="2.86675">
        <ele>772.1</ele>
        <time>2021-08-26T13:45:30.000Z</time>
      </trkpt>
      <trkpt lat="45.82108" lon="2.86669">
        <ele>772</ele>
        <time>2021-08-26T13:45:36.000Z</time>
      </trkpt>
      <trkpt lat="45.82119" lon="2.86663">
        <ele>771.9</ele>
        <time>2021-08-26T13:45:41.000Z</time>
      </trkpt>
      <trkpt lat="45.82131" lon="2.86657">
        <ele>771.7</ele>
        <time>2021-08-26T13:45:46.000Z</time>
      </trkpt>
      <trkpt lat="45.82138" lon="2.8665">
        <ele>771.5</ele>
        <time>2021-08-26T13:45:52.000Z</time>
      </trkpt>
      <trkpt lat="45.82143" lon="2.86644">
        <ele>771.3</ele>
        <time>2021-08-26T13:46:06.000Z</time>
      </trkpt>
      <trkpt lat="45.82147" lon="2.86636">
        <ele>771</ele>
        <time>2021-08-26T13:46:16.000Z</time>
      </trkpt>
      <trkpt lat="45.82153" lon="2.86631">
        <ele>770.8</ele>
        <time>2021-08-26T13:46:24.000Z</time>
      </trkpt>
      <trkpt lat="45.82159" lon="2.86623">
        <ele>770.5</ele>
        <time>2021-08-26T13:46:32.000Z</time>
      </trkpt>
      <trkpt lat="45.82165" lon="2.86619">
        <ele>770.3</ele>
        <time>2021-08-26T13:46:40.000Z</time>
      </trkpt>
      <trkpt lat="45.82172" lon="2.86616">
        <ele>770.2</ele>
        <time>2021-08-26T13:46:47.000Z</time>
      </trkpt>
      <trkpt lat="45.82178" lon="2.86612">
        <ele>770</ele>
        <time>2021-08-26T13:46:53.000Z</time>
      </trkpt>
      <trkpt lat="45.82187" lon="2.8661">
        <ele>770</ele>
        <time>2021-08-26T13:46:58.000Z</time>
      </trkpt>
      <trkpt lat="45.82192" lon="2.86603">
        <ele>769.8</ele>
        <time>2021-08-26T13:47:04.000Z</time>
      </trkpt>
      <trkpt lat="45.82197" lon="2.86596">
        <ele>769.7</ele>
        <time>2021-08-26T13:47:15.000Z</time>
      </trkpt>
      <trkpt lat="45.82203" lon="2.86591">
        <ele>769.6</ele>
        <time>2021-08-26T13:47:21.000Z</time>
      </trkpt>
      <trkpt lat="45.82209" lon="2.86585">
        <ele>769.5</ele>
        <time>2021-08-26T13:47:27.000Z</time>
      </trkpt>
      <trkpt lat="45.82216" lon="2.86582">
        <ele>769.5</ele>
        <time>2021-08-26T13:47:34.000Z</time>
      </trkpt>
      <trkpt lat="45.82222" lon="2.86581">
        <ele>769.6</ele>
        <time>2021-08-26T13:47:41.000Z</time>
      </trkpt>
      <trkpt lat="45.82229" lon="2.86582">
        <ele>769.7</ele>
        <time>2021-08-26T13:47:47.000Z</time>
      </trkpt>
      <trkpt lat="45.82236" lon="2.86584">
        <ele>769.8</ele>
        <time>2021-08-26T13:47:53.000Z</time>
      </trkpt>
      <trkpt lat="45.82244" lon="2.86584">
        <ele>769.9</ele>
        <time>2021-08-26T13:47:58.000Z</time>
      </trkpt>
      <trkpt lat="45.82252" lon="2.86583">
        <ele>769.9</ele>
        <time>2021-08-26T13:48:04.000Z</time>
      </trkpt>
      <trkpt lat="45.82258" lon="2.86586">
        <ele>769.5</ele>
        <time>2021-08-26T13:48:10.000Z</time>
      </trkpt>
      <trkpt lat="45.82266" lon="2.86587">
        <ele>769</ele>
        <time>2021-08-26T13:48:17.000Z</time>
      </trkpt>
      <trkpt lat="45.82272" lon="2.8659">
        <ele>768.6</ele>
        <time>2021-08-26T13:48:25.000Z</time>
      </trkpt>
      <trkpt lat="45.8228" lon="2.86592">
        <ele>768</ele>
        <time>2021-08-26T13:48:30.000Z</time>
      </trkpt>
      <trkpt lat="45.82293" lon="2.86593">
        <ele>767.1</ele>
        <time>2021-08-26T13:48:36.000Z</time>
      </trkpt>
      <trkpt lat="45.82304" lon="2.86592">
        <ele>766.4</ele>
        <time>2021-08-26T13:48:41.000Z</time>
      </trkpt>
      <trkpt lat="45.82312" lon="2.8659">
        <ele>766</ele>
        <time>2021-08-26T13:48:46.000Z</time>
      </trkpt>
      <trkpt lat="45.8232" lon="2.86588">
        <ele>765.6</ele>
        <time>2021-08-26T13:48:52.000Z</time>
      </trkpt>
      <trkpt lat="45.82327" lon="2.86585">
        <ele>765.3</ele>
        <time>2021-08-26T13:48:58.000Z</time>
      </trkpt>
      <trkpt lat="45.82334" lon="2.86582">
        <ele>764.9</ele>
        <time>2021-08-26T13:49:04.000Z</time>
      </trkpt>
      <trkpt lat="45.82341" lon="2.86579">
        <ele>764</ele>
        <time>2021-08-26T13:49:11.000Z</time>
      </trkpt>
      <trkpt lat="45.82347" lon="2.86574">
        <ele>763.3</ele>
        <time>2021-08-26T13:49:17.000Z</time>
      </trkpt>
      <trkpt lat="45.82352" lon="2.86568">
        <ele>762.8</ele>
        <time>2021-08-26T13:49:26.000Z</time>
      </trkpt>
      <trkpt lat="45.82359" lon="2.86567">
        <ele>761.9</ele>
        <time>2021-08-26T13:49:38.000Z</time>
      </trkpt>
      <trkpt lat="45.82365" lon="2.86563">
        <ele>761.2</ele>
        <time>2021-08-26T13:49:48.000Z</time>
      </trkpt>
      <trkpt lat="45.82372" lon="2.86561">
        <ele>760.4</ele>
        <time>2021-08-26T13:49:55.000Z</time>
      </trkpt>
      <trkpt lat="45.82379" lon="2.86565">
        <ele>759.4</ele>
        <time>2021-08-26T13:50:00.000Z</time>
      </trkpt>
      <trkpt lat="45.82386" lon="2.86568">
        <ele>758.5</ele>
        <time>2021-08-26T13:50:06.000Z</time>
      </trkpt>
      <trkpt lat="45.82394" lon="2.86569">
        <ele>757.4</ele>
        <time>2021-08-26T13:50:12.000Z</time>
      </trkpt>
      <trkpt lat="45.82401" lon="2.86568">
        <ele>756.6</ele>
        <time>2021-08-26T13:50:19.000Z</time>
      </trkpt>
      <trkpt lat="45.82408" lon="2.86568">
        <ele>755.7</ele>
        <time>2021-08-26T13:50:28.000Z</time>
      </trkpt>
      <trkpt lat="45.82415" lon="2.8657">
        <ele>754.7</ele>
        <time>2021-08-26T13:50:37.000Z</time>
      </trkpt>
      <trkpt lat="45.82422" lon="2.86572">
        <ele>754.2</ele>
        <time>2021-08-26T13:50:44.000Z</time>
      </trkpt>
      <trkpt lat="45.82428" lon="2.86577">
        <ele>753.7</ele>
        <time>2021-08-26T13:50:50.000Z</time>
      </trkpt>
      <trkpt lat="45.82436" lon="2.86583">
        <ele>753.1</ele>
        <time>2021-08-26T13:50:56.000Z</time>
      </trkpt>
      <trkpt lat="45.82447" lon="2.86585">
        <ele>752.6</ele>
        <time>2021-08-26T13:51:01.000Z</time>
      </trkpt>
      <trkpt lat="45.82445" lon="2.86595">
        <ele>752.8</ele>
        <time>2021-08-26T13:51:12.000Z</time>
      </trkpt>
      <trkpt lat="45.82446" lon="2.86604">
        <ele>752.9</ele>
        <time>2021-08-26T13:51:23.000Z</time>
      </trkpt>
      <trkpt lat="45.82453" lon="2.86606">
        <ele>752.6</ele>
        <time>2021-08-26T13:51:30.000Z</time>
      </trkpt>
      <trkpt lat="45.82459" lon="2.86611">
        <ele>752.5</ele>
        <time>2021-08-26T13:51:39.000Z</time>
      </trkpt>
      <trkpt lat="45.82464" lon="2.86618">
        <ele>752.4</ele>
        <time>2021-08-26T13:51:47.000Z</time>
      </trkpt>
      <trkpt lat="45.82469" lon="2.86625">
        <ele>752.3</ele>
        <time>2021-08-26T13:51:53.000Z</time>
      </trkpt>
      <trkpt lat="45.82475" lon="2.86634">
        <ele>752.2</ele>
        <time>2021-08-26T13:51:58.000Z</time>
      </trkpt>
      <trkpt lat="45.82481" lon="2.86641">
        <ele>752.1</ele>
        <time>2021-08-26T13:52:04.000Z</time>
      </trkpt>
      <trkpt lat="45.8249" lon="2.86649">
        <ele>752</ele>
        <time>2021-08-26T13:52:09.000Z</time>
      </trkpt>
      <trkpt lat="45.82498" lon="2.86657">
        <ele>751.8</ele>
        <time>2021-08-26T13:52:14.000Z</time>
      </trkpt>
      <trkpt lat="45.82507" lon="2.86666">
        <ele>751.8</ele>
        <time>2021-08-26T13:52:20.000Z</time>
      </trkpt>
      <trkpt lat="45.82517" lon="2.8667">
        <ele>751.7</ele>
        <time>2021-08-26T13:52:25.000Z</time>
      </trkpt>
      <trkpt lat="45.82522" lon="2.86679">
        <ele>751.7</ele>
        <time>2021-08-26T13:52:31.000Z</time>
      </trkpt>
      <trkpt lat="45.82528" lon="2.86684">
        <ele>751.6</ele>
        <time>2021-08-26T13:52:36.000Z</time>
      </trkpt>
      <trkpt lat="45.82536" lon="2.86682">
        <ele>751.3</ele>
        <time>2021-08-26T13:52:43.000Z</time>
      </trkpt>
      <trkpt lat="45.82542" lon="2.86683">
        <ele>751.2</ele>
        <time>2021-08-26T13:52:48.000Z</time>
      </trkpt>
      <trkpt lat="45.82548" lon="2.86689">
        <ele>751.1</ele>
        <time>2021-08-26T13:52:54.000Z</time>
      </trkpt>
      <trkpt lat="45.82555" lon="2.86689">
        <ele>750.9</ele>
        <time>2021-08-26T13:53:04.000Z</time>
      </trkpt>
      <trkpt lat="45.82562" lon="2.86688">
        <ele>750.6</ele>
        <time>2021-08-26T13:53:10.000Z</time>
      </trkpt>
      <trkpt lat="45.82568" lon="2.86682">
        <ele>750.4</ele>
        <time>2021-08-26T13:53:16.000Z</time>
      </trkpt>
      <trkpt lat="45.82575" lon="2.86683">
        <ele>750.2</ele>
        <time>2021-08-26T13:53:22.000Z</time>
      </trkpt>
      <trkpt lat="45.82582" lon="2.86685">
        <ele>750</ele>
        <time>2021-08-26T13:53:28.000Z</time>
      </trkpt>
      <trkpt lat="45.82589" lon="2.86685">
        <ele>750</ele>
        <time>2021-08-26T13:53:33.000Z</time>
      </trkpt>
      <trkpt lat="45.82598" lon="2.86686">
        <ele>750.1</ele>
        <time>2021-08-26T13:53:38.000Z</time>
      </trkpt>
      <trkpt lat="45.82607" lon="2.86685">
        <ele>750.2</ele>
        <time>2021-08-26T13:53:44.000Z</time>
      </trkpt>
      <trkpt lat="45.82616" lon="2.86683">
        <ele>750.2</ele>
        <time>2021-08-26T13:53:49.000Z</time>
      </trkpt>
      <trkpt lat="45.82623" lon="2.86682">
        <ele>750.3</ele>
        <time>2021-08-26T13:53:55.000Z</time>
      </trkpt>
      <trkpt lat="45.82629" lon="2.8668">
        <ele>750.4</ele>
        <time>2021-08-26T13:54:01.000Z</time>
      </trkpt>
      <trkpt lat="45.82637" lon="2.86681">
        <ele>750.4</ele>
        <time>2021-08-26T13:54:08.000Z</time>
      </trkpt>
      <trkpt lat="45.82643" lon="2.86679">
        <ele>750.5</ele>
        <time>2021-08-26T13:54:18.000Z</time>
      </trkpt>
      <trkpt lat="45.82649" lon="2.86675">
        <ele>750.6</ele>
        <time>2021-08-26T13:54:26.000Z</time>
      </trkpt>
      <trkpt lat="45.82657" lon="2.86675">
        <ele>750.7</ele>
        <time>2021-08-26T13:54:33.000Z</time>
      </trkpt>
      <trkpt lat="45.82664" lon="2.86675">
        <ele>750.8</ele>
        <time>2021-08-26T13:54:42.000Z</time>
      </trkpt>
      <trkpt lat="45.82671" lon="2.86673">
        <ele>750.8</ele>
        <time>2021-08-26T13:54:48.000Z</time>
      </trkpt>
      <trkpt lat="45.82678" lon="2.86669">
        <ele>750.7</ele>
        <time>2021-08-26T13:54:53.000Z</time>
      </trkpt>
      <trkpt lat="45.82684" lon="2.86665">
        <ele>750.6</ele>
        <time>2021-08-26T13:54:58.000Z</time>
      </trkpt>
      <trkpt lat="45.8269" lon="2.86661">
        <ele>750.4</ele>
        <time>2021-08-26T13:55:05.000Z</time>
      </trkpt>
      <trkpt lat="45.82695" lon="2.86653">
        <ele>750.1</ele>
        <time>2021-08-26T13:55:15.000Z</time>
      </trkpt>
      <trkpt lat="45.82698" lon="2.86645">
        <ele>749.9</ele>
        <time>2021-08-26T13:55:22.000Z</time>
      </trkpt>
      <trkpt lat="45.82704" lon="2.8664">
        <ele>749.5</ele>
        <time>2021-08-26T13:55:30.000Z</time>
      </trkpt>
      <trkpt lat="45.8271" lon="2.86634">
        <ele>749.1</ele>
        <time>2021-08-26T13:55:37.000Z</time>
      </trkpt>
      <trkpt lat="45.82715" lon="2.86628">
        <ele>748.8</ele>
        <time>2021-08-26T13:55:44.000Z</time>
      </trkpt>
      <trkpt lat="45.82719" lon="2.8662">
        <ele>748.3</ele>
        <time>2021-08-26T13:55:51.000Z</time>
      </trkpt>
      <trkpt lat="45.82722" lon="2.86597">
        <ele>747.5</ele>
        <time>2021-08-26T13:55:56.000Z</time>
      </trkpt>
      <trkpt lat="45.82728" lon="2.86581">
        <ele>746.6</ele>
        <time>2021-08-26T13:56:18.000Z</time>
      </trkpt>
      <trkpt lat="45.82729" lon="2.86571">
        <ele>746.8</ele>
        <time>2021-08-26T13:56:28.000Z</time>
      </trkpt>
      <trkpt lat="45.82723" lon="2.86567">
        <ele>747.4</ele>
        <time>2021-08-26T13:56:35.000Z</time>
      </trkpt>
      <trkpt lat="45.82716" lon="2.86568">
        <ele>747.9</ele>
        <time>2021-08-26T13:56:42.000Z</time>
      </trkpt>
      <trkpt lat="45.8271" lon="2.86574">
        <ele>748.2</ele>
        <time>2021-08-26T13:56:51.000Z</time>
      </trkpt>
      <trkpt lat="45.82703" lon="2.86577">
        <ele>748.6</ele>
        <time>2021-08-26T13:56:59.000Z</time>
      </trkpt>
      <trkpt lat="45.82707" lon="2.8657">
        <ele>748.5</ele>
        <time>2021-08-26T13:57:27.000Z</time>
      </trkpt>
      <trkpt lat="45.82701" lon="2.86576">
        <ele>748.8</ele>
        <time>2021-08-26T13:57:48.000Z</time>
      </trkpt>
      <trkpt lat="45.82699" lon="2.86587">
        <ele>748.7</ele>
        <time>2021-08-26T13:57:57.000Z</time>
      </trkpt>
      <trkpt lat="45.82706" lon="2.86589">
        <ele>748.3</ele>
        <time>2021-08-26T13:58:37.000Z</time>
      </trkpt>
      <trkpt lat="45.82712" lon="2.86584">
        <ele>747.8</ele>
        <time>2021-08-26T13:58:42.000Z</time>
      </trkpt>
      <trkpt lat="45.82718" lon="2.86579">
        <ele>747.4</ele>
        <time>2021-08-26T13:58:48.000Z</time>
      </trkpt>
      <trkpt lat="45.82724" lon="2.86574">
        <ele>747.1</ele>
        <time>2021-08-26T13:59:00.000Z</time>
      </trkpt>
      <trkpt lat="45.82725" lon="2.86564">
        <ele>747.3</ele>
        <time>2021-08-26T13:59:39.000Z</time>
      </trkpt>
      <trkpt lat="45.8273" lon="2.86557">
        <ele>747.1</ele>
        <time>2021-08-26T13:59:48.000Z</time>
      </trkpt>
      <trkpt lat="45.82736" lon="2.8655">
        <ele>746.9</ele>
        <time>2021-08-26T13:59:56.000Z</time>
      </trkpt>
      <trkpt lat="45.82739" lon="2.86536">
        <ele>747</ele>
        <time>2021-08-26T14:00:01.000Z</time>
      </trkpt>
      <trkpt lat="45.82741" lon="2.86523">
        <ele>747.2</ele>
        <time>2021-08-26T14:00:06.000Z</time>
      </trkpt>
      <trkpt lat="45.82741" lon="2.86513">
        <ele>747.4</ele>
        <time>2021-08-26T14:00:30.000Z</time>
      </trkpt>
      <trkpt lat="45.82745" lon="2.86505">
        <ele>747.3</ele>
        <time>2021-08-26T14:00:36.000Z</time>
      </trkpt>
      <trkpt lat="45.82751" lon="2.86498">
        <ele>747.2</ele>
        <time>2021-08-26T14:00:45.000Z</time>
      </trkpt>
      <trkpt lat="45.82756" lon="2.86494">
        <ele>747.8</ele>
        <time>2021-08-26T14:00:51.000Z</time>
      </trkpt>
      <trkpt lat="45.82763" lon="2.8649">
        <ele>748.4</ele>
        <time>2021-08-26T14:01:02.000Z</time>
      </trkpt>
      <trkpt lat="45.8277" lon="2.8649">
        <ele>748.7</ele>
        <time>2021-08-26T14:01:10.000Z</time>
      </trkpt>
      <trkpt lat="45.82777" lon="2.86488">
        <ele>749.1</ele>
        <time>2021-08-26T14:01:17.000Z</time>
      </trkpt>
      <trkpt lat="45.82783" lon="2.86491">
        <ele>749.2</ele>
        <time>2021-08-26T14:01:26.000Z</time>
      </trkpt>
      <trkpt lat="45.82791" lon="2.86492">
        <ele>749.5</ele>
        <time>2021-08-26T14:01:35.000Z</time>
      </trkpt>
      <trkpt lat="45.82797" lon="2.86489">
        <ele>749.9</ele>
        <time>2021-08-26T14:01:40.000Z</time>
      </trkpt>
      <trkpt lat="45.82806" lon="2.86486">
        <ele>750.4</ele>
        <time>2021-08-26T14:01:45.000Z</time>
      </trkpt>
      <trkpt lat="45.82816" lon="2.86482">
        <ele>751</ele>
        <time>2021-08-26T14:01:50.000Z</time>
      </trkpt>
      <trkpt lat="45.82826" lon="2.86479">
        <ele>751.5</ele>
        <time>2021-08-26T14:01:56.000Z</time>
      </trkpt>
      <trkpt lat="45.82833" lon="2.86475">
        <ele>751.9</ele>
        <time>2021-08-26T14:02:02.000Z</time>
      </trkpt>
      <trkpt lat="45.82839" lon="2.8647">
        <ele>752.1</ele>
        <time>2021-08-26T14:02:08.000Z</time>
      </trkpt>
      <trkpt lat="45.82843" lon="2.86463">
        <ele>752.4</ele>
        <time>2021-08-26T14:02:14.000Z</time>
      </trkpt>
      <trkpt lat="45.82849" lon="2.86459">
        <ele>752.5</ele>
        <time>2021-08-26T14:02:21.000Z</time>
      </trkpt>
      <trkpt lat="45.82854" lon="2.86451">
        <ele>752.7</ele>
        <time>2021-08-26T14:02:27.000Z</time>
      </trkpt>
      <trkpt lat="45.82858" lon="2.86444">
        <ele>752.8</ele>
        <time>2021-08-26T14:02:32.000Z</time>
      </trkpt>
      <trkpt lat="45.82864" lon="2.86439">
        <ele>752.9</ele>
        <time>2021-08-26T14:02:38.000Z</time>
      </trkpt>
      <trkpt lat="45.8287" lon="2.86434">
        <ele>752.9</ele>
        <time>2021-08-26T14:02:46.000Z</time>
      </trkpt>
      <trkpt lat="45.82877" lon="2.8643">
        <ele>752.8</ele>
        <time>2021-08-26T14:02:58.000Z</time>
      </trkpt>
      <trkpt lat="45.82882" lon="2.86423">
        <ele>752.8</ele>
        <time>2021-08-26T14:03:05.000Z</time>
      </trkpt>
      <trkpt lat="45.82888" lon="2.86418">
        <ele>752.7</ele>
        <time>2021-08-26T14:03:11.000Z</time>
      </trkpt>
      <trkpt lat="45.82894" lon="2.86413">
        <ele>752.2</ele>
        <time>2021-08-26T14:03:18.000Z</time>
      </trkpt>
      <trkpt lat="45.829" lon="2.8641">
        <ele>751.8</ele>
        <time>2021-08-26T14:03:25.000Z</time>
      </trkpt>
      <trkpt lat="45.82906" lon="2.86405">
        <ele>751.2</ele>
        <time>2021-08-26T14:03:33.000Z</time>
      </trkpt>
      <trkpt lat="45.82913" lon="2.86402">
        <ele>750.7</ele>
        <time>2021-08-26T14:03:39.000Z</time>
      </trkpt>
      <trkpt lat="45.8292" lon="2.86402">
        <ele>750.5</ele>
        <time>2021-08-26T14:03:46.000Z</time>
      </trkpt>
      <trkpt lat="45.82928" lon="2.86401">
        <ele>750.1</ele>
        <time>2021-08-26T14:03:53.000Z</time>
      </trkpt>
      <trkpt lat="45.82936" lon="2.864">
        <ele>749.8</ele>
        <time>2021-08-26T14:03:58.000Z</time>
      </trkpt>
      <trkpt lat="45.82948" lon="2.86398">
        <ele>749.3</ele>
        <time>2021-08-26T14:04:04.000Z</time>
      </trkpt>
      <trkpt lat="45.8296" lon="2.86398">
        <ele>748.9</ele>
        <time>2021-08-26T14:04:09.000Z</time>
      </trkpt>
      <trkpt lat="45.82967" lon="2.86397">
        <ele>748.7</ele>
        <time>2021-08-26T14:04:14.000Z</time>
      </trkpt>
      <trkpt lat="45.82973" lon="2.86391">
        <ele>748.3</ele>
        <time>2021-08-26T14:04:20.000Z</time>
      </trkpt>
      <trkpt lat="45.82979" lon="2.86385">
        <ele>748</ele>
        <time>2021-08-26T14:04:25.000Z</time>
      </trkpt>
      <trkpt lat="45.82987" lon="2.86382">
        <ele>747.8</ele>
        <time>2021-08-26T14:04:30.000Z</time>
      </trkpt>
      <trkpt lat="45.82996" lon="2.86376">
        <ele>747.5</ele>
        <time>2021-08-26T14:04:36.000Z</time>
      </trkpt>
      <trkpt lat="45.83001" lon="2.86369">
        <ele>747.4</ele>
        <time>2021-08-26T14:04:43.000Z</time>
      </trkpt>
      <trkpt lat="45.83008" lon="2.86366">
        <ele>747.1</ele>
        <time>2021-08-26T14:04:50.000Z</time>
      </trkpt>
      <trkpt lat="45.83017" lon="2.86363">
        <ele>746.8</ele>
        <time>2021-08-26T14:04:56.000Z</time>
      </trkpt>
      <trkpt lat="45.83025" lon="2.86361">
        <ele>746.5</ele>
        <time>2021-08-26T14:05:01.000Z</time>
      </trkpt>
      <trkpt lat="45.83033" lon="2.86359">
        <ele>746.3</ele>
        <time>2021-08-26T14:05:06.000Z</time>
      </trkpt>
      <trkpt lat="45.83047" lon="2.86357">
        <ele>745.9</ele>
        <time>2021-08-26T14:05:12.000Z</time>
      </trkpt>
      <trkpt lat="45.83055" lon="2.86354">
        <ele>745.8</ele>
        <time>2021-08-26T14:05:17.000Z</time>
      </trkpt>
      <trkpt lat="45.83065" lon="2.86353">
        <ele>745.5</ele>
        <time>2021-08-26T14:05:22.000Z</time>
      </trkpt>
      <trkpt lat="45.83072" lon="2.8635">
        <ele>745.5</ele>
        <time>2021-08-26T14:05:28.000Z</time>
      </trkpt>
      <trkpt lat="45.83078" lon="2.86344">
        <ele>745.6</ele>
        <time>2021-08-26T14:05:34.000Z</time>
      </trkpt>
      <trkpt lat="45.83084" lon="2.86337">
        <ele>745.8</ele>
        <time>2021-08-26T14:05:42.000Z</time>
      </trkpt>
      <trkpt lat="45.83086" lon="2.86329">
        <ele>745.7</ele>
        <time>2021-08-26T14:05:49.000Z</time>
      </trkpt>
      <trkpt lat="45.83087" lon="2.86319">
        <ele>745.5</ele>
        <time>2021-08-26T14:05:55.000Z</time>
      </trkpt>
      <trkpt lat="45.83089" lon="2.86309">
        <ele>745.2</ele>
        <time>2021-08-26T14:06:00.000Z</time>
      </trkpt>
      <trkpt lat="45.8309" lon="2.86299">
        <ele>745</ele>
        <time>2021-08-26T14:06:06.000Z</time>
      </trkpt>
      <trkpt lat="45.83093" lon="2.86286">
        <ele>744.6</ele>
        <time>2021-08-26T14:06:12.000Z</time>
      </trkpt>
      <trkpt lat="45.83096" lon="2.86274">
        <ele>744.2</ele>
        <time>2021-08-26T14:06:17.000Z</time>
      </trkpt>
      <trkpt lat="45.83099" lon="2.86263">
        <ele>743.8</ele>
        <time>2021-08-26T14:06:22.000Z</time>
      </trkpt>
      <trkpt lat="45.83103" lon="2.86254">
        <ele>743.4</ele>
        <time>2021-08-26T14:06:28.000Z</time>
      </trkpt>
      <trkpt lat="45.83108" lon="2.86247">
        <ele>742.9</ele>
        <time>2021-08-26T14:06:34.000Z</time>
      </trkpt>
      <trkpt lat="45.83111" lon="2.86237">
        <ele>742.5</ele>
        <time>2021-08-26T14:06:42.000Z</time>
      </trkpt>
      <trkpt lat="45.83117" lon="2.86231">
        <ele>742</ele>
        <time>2021-08-26T14:06:48.000Z</time>
      </trkpt>
      <trkpt lat="45.83121" lon="2.86224">
        <ele>741.6</ele>
        <time>2021-08-26T14:06:53.000Z</time>
      </trkpt>
      <trkpt lat="45.83123" lon="2.86215">
        <ele>741.4</ele>
        <time>2021-08-26T14:06:58.000Z</time>
      </trkpt>
      <trkpt lat="45.83126" lon="2.86199">
        <ele>741.1</ele>
        <time>2021-08-26T14:07:04.000Z</time>
      </trkpt>
      <trkpt lat="45.83129" lon="2.86186">
        <ele>740.9</ele>
        <time>2021-08-26T14:07:09.000Z</time>
      </trkpt>
      <trkpt lat="45.83134" lon="2.8618">
        <ele>740.6</ele>
        <time>2021-08-26T14:07:16.000Z</time>
      </trkpt>
      <trkpt lat="45.83139" lon="2.86174">
        <ele>740.3</ele>
        <time>2021-08-26T14:07:21.000Z</time>
      </trkpt>
      <trkpt lat="45.83141" lon="2.86164">
        <ele>740</ele>
        <time>2021-08-26T14:07:26.000Z</time>
      </trkpt>
      <trkpt lat="45.83143" lon="2.86155">
        <ele>739.2</ele>
        <time>2021-08-26T14:07:32.000Z</time>
      </trkpt>
      <trkpt lat="45.83149" lon="2.86151">
        <ele>738.6</ele>
        <time>2021-08-26T14:07:38.000Z</time>
      </trkpt>
      <trkpt lat="45.83155" lon="2.86142">
        <ele>737.5</ele>
        <time>2021-08-26T14:08:11.000Z</time>
      </trkpt>
      <trkpt lat="45.83161" lon="2.86135">
        <ele>736.6</ele>
        <time>2021-08-26T14:08:21.000Z</time>
      </trkpt>
      <trkpt lat="45.83167" lon="2.86133">
        <ele>736.1</ele>
        <time>2021-08-26T14:08:27.000Z</time>
      </trkpt>
      <trkpt lat="45.83177" lon="2.8613">
        <ele>735.1</ele>
        <time>2021-08-26T14:08:32.000Z</time>
      </trkpt>
      <trkpt lat="45.83185" lon="2.86125">
        <ele>734</ele>
        <time>2021-08-26T14:08:37.000Z</time>
      </trkpt>
      <trkpt lat="45.83192" lon="2.8612">
        <ele>733</ele>
        <time>2021-08-26T14:08:42.000Z</time>
      </trkpt>
      <trkpt lat="45.832" lon="2.86115">
        <ele>731.9</ele>
        <time>2021-08-26T14:08:48.000Z</time>
      </trkpt>
      <trkpt lat="45.83206" lon="2.86112">
        <ele>731.1</ele>
        <time>2021-08-26T14:08:56.000Z</time>
      </trkpt>
      <trkpt lat="45.83213" lon="2.86108">
        <ele>730.2</ele>
        <time>2021-08-26T14:09:03.000Z</time>
      </trkpt>
      <trkpt lat="45.83218" lon="2.86104">
        <ele>729.4</ele>
        <time>2021-08-26T14:09:08.000Z</time>
      </trkpt>
      <trkpt lat="45.83226" lon="2.86102">
        <ele>728.6</ele>
        <time>2021-08-26T14:09:13.000Z</time>
      </trkpt>
      <trkpt lat="45.83232" lon="2.86098">
        <ele>727.7</ele>
        <time>2021-08-26T14:09:18.000Z</time>
      </trkpt>
      <trkpt lat="45.8324" lon="2.86093">
        <ele>726.7</ele>
        <time>2021-08-26T14:09:24.000Z</time>
      </trkpt>
      <trkpt lat="45.83248" lon="2.86087">
        <ele>725.5</ele>
        <time>2021-08-26T14:09:29.000Z</time>
      </trkpt>
      <trkpt lat="45.83254" lon="2.86081">
        <ele>724.9</ele>
        <time>2021-08-26T14:09:35.000Z</time>
      </trkpt>
      <trkpt lat="45.8326" lon="2.86075">
        <ele>724.7</ele>
        <time>2021-08-26T14:09:42.000Z</time>
      </trkpt>
      <trkpt lat="45.83266" lon="2.86069">
        <ele>724.5</ele>
        <time>2021-08-26T14:09:49.000Z</time>
      </trkpt>
      <trkpt lat="45.8327" lon="2.86061">
        <ele>724.1</ele>
        <time>2021-08-26T14:09:57.000Z</time>
      </trkpt>
      <trkpt lat="45.83267" lon="2.86049">
        <ele>723.8</ele>
        <time>2021-08-26T14:10:02.000Z</time>
      </trkpt>
      <trkpt lat="45.83274" lon="2.86047">
        <ele>723.5</ele>
        <time>2021-08-26T14:10:26.000Z</time>
      </trkpt>
      <trkpt lat="45.83281" lon="2.8605">
        <ele>723.5</ele>
        <time>2021-08-26T14:10:37.000Z</time>
      </trkpt>
      <trkpt lat="45.83288" lon="2.86054">
        <ele>723.5</ele>
        <time>2021-08-26T14:10:46.000Z</time>
      </trkpt>
      <trkpt lat="45.83295" lon="2.86058">
        <ele>723.6</ele>
        <time>2021-08-26T14:11:01.000Z</time>
      </trkpt>
      <trkpt lat="45.83302" lon="2.86056">
        <ele>723.3</ele>
        <time>2021-08-26T14:11:08.000Z</time>
      </trkpt>
      <trkpt lat="45.83309" lon="2.86055">
        <ele>723.1</ele>
        <time>2021-08-26T14:11:13.000Z</time>
      </trkpt>
      <trkpt lat="45.83317" lon="2.86052">
        <ele>722.7</ele>
        <time>2021-08-26T14:11:18.000Z</time>
      </trkpt>
      <trkpt lat="45.83332" lon="2.86048">
        <ele>722.1</ele>
        <time>2021-08-26T14:11:24.000Z</time>
      </trkpt>
      <trkpt lat="45.83341" lon="2.86043">
        <ele>721.6</ele>
        <time>2021-08-26T14:11:29.000Z</time>
      </trkpt>
      <trkpt lat="45.83347" lon="2.86037">
        <ele>721.1</ele>
        <time>2021-08-26T14:11:34.000Z</time>
      </trkpt>
      <trkpt lat="45.83354" lon="2.8603">
        <ele>720.7</ele>
        <time>2021-08-26T14:11:40.000Z</time>
      </trkpt>
      <trkpt lat="45.83358" lon="2.86021">
        <ele>720.1</ele>
        <time>2021-08-26T14:11:48.000Z</time>
      </trkpt>
      <trkpt lat="45.83361" lon="2.86012">
        <ele>719.5</ele>
        <time>2021-08-26T14:11:54.000Z</time>
      </trkpt>
      <trkpt lat="45.83362" lon="2.86001">
        <ele>718.8</ele>
        <time>2021-08-26T14:12:01.000Z</time>
      </trkpt>
      <trkpt lat="45.83363" lon="2.85991">
        <ele>718.7</ele>
        <time>2021-08-26T14:12:07.000Z</time>
      </trkpt>
      <trkpt lat="45.83363" lon="2.85981">
        <ele>718.6</ele>
        <time>2021-08-26T14:12:14.000Z</time>
      </trkpt>
      <trkpt lat="45.83363" lon="2.85971">
        <ele>718.6</ele>
        <time>2021-08-26T14:12:24.000Z</time>
      </trkpt>
      <trkpt lat="45.83363" lon="2.85961">
        <ele>718.5</ele>
        <time>2021-08-26T14:12:32.000Z</time>
      </trkpt>
      <trkpt lat="45.83363" lon="2.8595">
        <ele>718.5</ele>
        <time>2021-08-26T14:12:39.000Z</time>
      </trkpt>
      <trkpt lat="45.83359" lon="2.85941">
        <ele>718.5</ele>
        <time>2021-08-26T14:12:44.000Z</time>
      </trkpt>
      <trkpt lat="45.83358" lon="2.85929">
        <ele>718.4</ele>
        <time>2021-08-26T14:12:49.000Z</time>
      </trkpt>
      <trkpt lat="45.83354" lon="2.85917">
        <ele>718.5</ele>
        <time>2021-08-26T14:12:54.000Z</time>
      </trkpt>
      <trkpt lat="45.83354" lon="2.85905">
        <ele>718.5</ele>
        <time>2021-08-26T14:13:00.000Z</time>
      </trkpt>
      <trkpt lat="45.83357" lon="2.85891">
        <ele>718.4</ele>
        <time>2021-08-26T14:13:05.000Z</time>
      </trkpt>
      <trkpt lat="45.83357" lon="2.8588">
        <ele>718.4</ele>
        <time>2021-08-26T14:13:11.000Z</time>
      </trkpt>
      <trkpt lat="45.83355" lon="2.8587">
        <ele>718.5</ele>
        <time>2021-08-26T14:13:17.000Z</time>
      </trkpt>
      <trkpt lat="45.83354" lon="2.8586">
        <ele>718.5</ele>
        <time>2021-08-26T14:13:23.000Z</time>
      </trkpt>
      <trkpt lat="45.83353" lon="2.85849">
        <ele>718.6</ele>
        <time>2021-08-26T14:13:28.000Z</time>
      </trkpt>
      <trkpt lat="45.83352" lon="2.85838">
        <ele>718.7</ele>
        <time>2021-08-26T14:13:34.000Z</time>
      </trkpt>
      <trkpt lat="45.8335" lon="2.85827">
        <ele>718.7</ele>
        <time>2021-08-26T14:13:40.000Z</time>
      </trkpt>
      <trkpt lat="45.83347" lon="2.85818">
        <ele>718.8</ele>
        <time>2021-08-26T14:13:45.000Z</time>
      </trkpt>
      <trkpt lat="45.83343" lon="2.85808">
        <ele>718.9</ele>
        <time>2021-08-26T14:13:51.000Z</time>
      </trkpt>
      <trkpt lat="45.83339" lon="2.85798">
        <ele>719.1</ele>
        <time>2021-08-26T14:13:56.000Z</time>
      </trkpt>
      <trkpt lat="45.83338" lon="2.85787">
        <ele>719</ele>
        <time>2021-08-26T14:14:01.000Z</time>
      </trkpt>
      <trkpt lat="45.83336" lon="2.85776">
        <ele>719.1</ele>
        <time>2021-08-26T14:14:06.000Z</time>
      </trkpt>
      <trkpt lat="45.83335" lon="2.85766">
        <ele>719</ele>
        <time>2021-08-26T14:14:12.000Z</time>
      </trkpt>
      <trkpt lat="45.83331" lon="2.85757">
        <ele>719.4</ele>
        <time>2021-08-26T14:14:17.000Z</time>
      </trkpt>
      <trkpt lat="45.83328" lon="2.85748">
        <ele>719.6</ele>
        <time>2021-08-26T14:14:22.000Z</time>
      </trkpt>
      <trkpt lat="45.83325" lon="2.85738">
        <ele>719.4</ele>
        <time>2021-08-26T14:14:28.000Z</time>
      </trkpt>
      <trkpt lat="45.83322" lon="2.85728">
        <ele>719.3</ele>
        <time>2021-08-26T14:14:34.000Z</time>
      </trkpt>
      <trkpt lat="45.83319" lon="2.85714">
        <ele>719</ele>
        <time>2021-08-26T14:14:40.000Z</time>
      </trkpt>
      <trkpt lat="45.83316" lon="2.85702">
        <ele>718.9</ele>
        <time>2021-08-26T14:14:45.000Z</time>
      </trkpt>
      <trkpt lat="45.83314" lon="2.85693">
        <ele>718.8</ele>
        <time>2021-08-26T14:14:50.000Z</time>
      </trkpt>
      <trkpt lat="45.83312" lon="2.85682">
        <ele>718.6</ele>
        <time>2021-08-26T14:14:56.000Z</time>
      </trkpt>
      <trkpt lat="45.8331" lon="2.85672">
        <ele>718.4</ele>
        <time>2021-08-26T14:15:01.000Z</time>
      </trkpt>
      <trkpt lat="45.83307" lon="2.85662">
        <ele>718.4</ele>
        <time>2021-08-26T14:15:07.000Z</time>
      </trkpt>
      <trkpt lat="45.83305" lon="2.85652">
        <ele>717.9</ele>
        <time>2021-08-26T14:15:12.000Z</time>
      </trkpt>
      <trkpt lat="45.83299" lon="2.85639">
        <ele>718</ele>
        <time>2021-08-26T14:15:17.000Z</time>
      </trkpt>
      <trkpt lat="45.83295" lon="2.85631">
        <ele>718.1</ele>
        <time>2021-08-26T14:15:22.000Z</time>
      </trkpt>
      <trkpt lat="45.8329" lon="2.85621">
        <ele>718.2</ele>
        <time>2021-08-26T14:15:28.000Z</time>
      </trkpt>
      <trkpt lat="45.83287" lon="2.85611">
        <ele>718</ele>
        <time>2021-08-26T14:15:33.000Z</time>
      </trkpt>
      <trkpt lat="45.83284" lon="2.85601">
        <ele>717.8</ele>
        <time>2021-08-26T14:15:38.000Z</time>
      </trkpt>
      <trkpt lat="45.83287" lon="2.85586">
        <ele>716.1</ele>
        <time>2021-08-26T14:15:44.000Z</time>
      </trkpt>
      <trkpt lat="45.83289" lon="2.85576">
        <ele>715</ele>
        <time>2021-08-26T14:15:49.000Z</time>
      </trkpt>
      <trkpt lat="45.83292" lon="2.85561">
        <ele>713.5</ele>
        <time>2021-08-26T14:15:54.000Z</time>
      </trkpt>
      <trkpt lat="45.83295" lon="2.85547">
        <ele>711.8</ele>
        <time>2021-08-26T14:16:00.000Z</time>
      </trkpt>
      <trkpt lat="45.83298" lon="2.85538">
        <ele>710.5</ele>
        <time>2021-08-26T14:16:10.000Z</time>
      </trkpt>
      <trkpt lat="45.83297" lon="2.85528">
        <ele>710</ele>
        <time>2021-08-26T14:16:16.000Z</time>
      </trkpt>
      <trkpt lat="45.83298" lon="2.85519">
        <ele>709.1</ele>
        <time>2021-08-26T14:16:22.000Z</time>
      </trkpt>
      <trkpt lat="45.833" lon="2.85509">
        <ele>707.9</ele>
        <time>2021-08-26T14:16:29.000Z</time>
      </trkpt>
      <trkpt lat="45.83296" lon="2.85501">
        <ele>708.4</ele>
        <time>2021-08-26T14:16:34.000Z</time>
      </trkpt>
      <trkpt lat="45.83291" lon="2.85491">
        <ele>708.9</ele>
        <time>2021-08-26T14:16:40.000Z</time>
      </trkpt>
      <trkpt lat="45.83291" lon="2.8548">
        <ele>708</ele>
        <time>2021-08-26T14:16:46.000Z</time>
      </trkpt>
      <trkpt lat="45.83287" lon="2.8547">
        <ele>708.3</ele>
        <time>2021-08-26T14:16:52.000Z</time>
      </trkpt>
      <trkpt lat="45.83285" lon="2.85462">
        <ele>708.1</ele>
        <time>2021-08-26T14:16:57.000Z</time>
      </trkpt>
      <trkpt lat="45.83284" lon="2.85452">
        <ele>707.6</ele>
        <time>2021-08-26T14:17:03.000Z</time>
      </trkpt>
      <trkpt lat="45.83276" lon="2.85443">
        <ele>709</ele>
        <time>2021-08-26T14:17:08.000Z</time>
      </trkpt>
      <trkpt lat="45.83273" lon="2.85433">
        <ele>709</ele>
        <time>2021-08-26T14:17:14.000Z</time>
      </trkpt>
      <trkpt lat="45.83268" lon="2.8542">
        <ele>709.3</ele>
        <time>2021-08-26T14:17:20.000Z</time>
      </trkpt>
      <trkpt lat="45.83267" lon="2.8541">
        <ele>708.6</ele>
        <time>2021-08-26T14:17:26.000Z</time>
      </trkpt>
      <trkpt lat="45.83264" lon="2.854">
        <ele>708.3</ele>
        <time>2021-08-26T14:17:32.000Z</time>
      </trkpt>
      <trkpt lat="45.83262" lon="2.8539">
        <ele>707.8</ele>
        <time>2021-08-26T14:17:38.000Z</time>
      </trkpt>
      <trkpt lat="45.83258" lon="2.85381">
        <ele>707.8</ele>
        <time>2021-08-26T14:17:44.000Z</time>
      </trkpt>
      <trkpt lat="45.83256" lon="2.85372">
        <ele>707.2</ele>
        <time>2021-08-26T14:17:50.000Z</time>
      </trkpt>
      <trkpt lat="45.83249" lon="2.85363">
        <ele>707.7</ele>
        <time>2021-08-26T14:17:56.000Z</time>
      </trkpt>
      <trkpt lat="45.83243" lon="2.85356">
        <ele>707.4</ele>
        <time>2021-08-26T14:18:01.000Z</time>
      </trkpt>
      <trkpt lat="45.83235" lon="2.85351">
        <ele>707.6</ele>
        <time>2021-08-26T14:18:06.000Z</time>
      </trkpt>
      <trkpt lat="45.83226" lon="2.85345">
        <ele>707.7</ele>
        <time>2021-08-26T14:18:12.000Z</time>
      </trkpt>
      <trkpt lat="45.8322" lon="2.85341">
        <ele>707.8</ele>
        <time>2021-08-26T14:18:21.000Z</time>
      </trkpt>
      <trkpt lat="45.83213" lon="2.85344">
        <ele>708.8</ele>
        <time>2021-08-26T14:18:31.000Z</time>
      </trkpt>
      <trkpt lat="45.83207" lon="2.8534">
        <ele>708.9</ele>
        <time>2021-08-26T14:18:42.000Z</time>
      </trkpt>
      <trkpt lat="45.83215" lon="2.85305">
        <ele>701.3</ele>
        <time>2021-08-26T14:19:27.000Z</time>
      </trkpt>
      <trkpt lat="45.83215" lon="2.85294">
        <ele>698.9</ele>
        <time>2021-08-26T14:19:34.000Z</time>
      </trkpt>
      <trkpt lat="45.83217" lon="2.85285">
        <ele>696.8</ele>
        <time>2021-08-26T14:19:41.000Z</time>
      </trkpt>
      <trkpt lat="45.83215" lon="2.85275">
        <ele>694.9</ele>
        <time>2021-08-26T14:19:47.000Z</time>
      </trkpt>
      <trkpt lat="45.83213" lon="2.85264">
        <ele>692.7</ele>
        <time>2021-08-26T14:19:53.000Z</time>
      </trkpt>
      <trkpt lat="45.83211" lon="2.85255">
        <ele>690.9</ele>
        <time>2021-08-26T14:20:01.000Z</time>
      </trkpt>
      <trkpt lat="45.8321" lon="2.85245">
        <ele>689</ele>
        <time>2021-08-26T14:20:07.000Z</time>
      </trkpt>
      <trkpt lat="45.83209" lon="2.85233">
        <ele>687.1</ele>
        <time>2021-08-26T14:20:13.000Z</time>
      </trkpt>
      <trkpt lat="45.83203" lon="2.85228">
        <ele>686.6</ele>
        <time>2021-08-26T14:20:21.000Z</time>
      </trkpt>
      <trkpt lat="45.832" lon="2.85218">
        <ele>685.1</ele>
        <time>2021-08-26T14:20:31.000Z</time>
      </trkpt>
      <trkpt lat="45.83197" lon="2.8521">
        <ele>683.8</ele>
        <time>2021-08-26T14:20:37.000Z</time>
      </trkpt>
      <trkpt lat="45.83193" lon="2.85202">
        <ele>682.6</ele>
        <time>2021-08-26T14:20:44.000Z</time>
      </trkpt>
      <trkpt lat="45.83194" lon="2.85192">
        <ele>680.8</ele>
        <time>2021-08-26T14:20:52.000Z</time>
      </trkpt>
      <trkpt lat="45.83191" lon="2.85184">
        <ele>679.5</ele>
        <time>2021-08-26T14:21:09.000Z</time>
      </trkpt>
      <trkpt lat="45.83189" lon="2.85174">
        <ele>677.8</ele>
        <time>2021-08-26T14:21:17.000Z</time>
      </trkpt>
      <trkpt lat="45.83188" lon="2.85164">
        <ele>676.3</ele>
        <time>2021-08-26T14:21:23.000Z</time>
      </trkpt>
      <trkpt lat="45.83188" lon="2.85155">
        <ele>675.7</ele>
        <time>2021-08-26T14:21:39.000Z</time>
      </trkpt>
      <trkpt lat="45.83189" lon="2.85145">
        <ele>674.9</ele>
        <time>2021-08-26T14:22:42.000Z</time>
      </trkpt>
      <trkpt lat="45.83241" lon="2.85128">
        <ele>673.6</ele>
        <time>2021-08-26T14:22:57.000Z</time>
      </trkpt>
      <trkpt lat="45.83236" lon="2.85122">
        <ele>673.4</ele>
        <time>2021-08-26T14:23:03.000Z</time>
      </trkpt>
      <trkpt lat="45.83229" lon="2.85118">
        <ele>673.2</ele>
        <time>2021-08-26T14:23:11.000Z</time>
      </trkpt>
      <trkpt lat="45.83223" lon="2.85111">
        <ele>672.8</ele>
        <time>2021-08-26T14:23:23.000Z</time>
      </trkpt>
      <trkpt lat="45.83215" lon="2.8511">
        <ele>672.7</ele>
        <time>2021-08-26T14:23:28.000Z</time>
      </trkpt>
      <trkpt lat="45.83203" lon="2.85105">
        <ele>672.2</ele>
        <time>2021-08-26T14:23:33.000Z</time>
      </trkpt>
      <trkpt lat="45.83196" lon="2.85105">
        <ele>672.2</ele>
        <time>2021-08-26T14:23:39.000Z</time>
      </trkpt>
      <trkpt lat="45.83159" lon="2.85108">
        <ele>671.9</ele>
        <time>2021-08-26T14:23:44.000Z</time>
      </trkpt>
      <trkpt lat="45.83126" lon="2.85098">
        <ele>670.4</ele>
        <time>2021-08-26T14:23:49.000Z</time>
      </trkpt>
      <trkpt lat="45.83117" lon="2.85098">
        <ele>670.2</ele>
        <time>2021-08-26T14:23:56.000Z</time>
      </trkpt>
      <trkpt lat="45.83127" lon="2.851">
        <ele>670.6</ele>
        <time>2021-08-26T14:24:01.000Z</time>
      </trkpt>
      <trkpt lat="45.83132" lon="2.85108">
        <ele>671.5</ele>
        <time>2021-08-26T14:24:14.000Z</time>
      </trkpt>
      <trkpt lat="45.83131" lon="2.85118">
        <ele>672.4</ele>
        <time>2021-08-26T14:24:20.000Z</time>
      </trkpt>
      <trkpt lat="45.83113" lon="2.85115">
        <ele>671.9</ele>
        <time>2021-08-26T14:24:25.000Z</time>
      </trkpt>
      <trkpt lat="45.83119" lon="2.85122">
        <ele>672.6</ele>
        <time>2021-08-26T14:25:23.000Z</time>
      </trkpt>
      <trkpt lat="45.83144" lon="2.85127">
        <ele>673.4</ele>
        <time>2021-08-26T14:25:29.000Z</time>
      </trkpt>
      <trkpt lat="45.8315" lon="2.85134">
        <ele>674.1</ele>
        <time>2021-08-26T14:25:34.000Z</time>
      </trkpt>
      <trkpt lat="45.8316" lon="2.85137">
        <ele>674.5</ele>
        <time>2021-08-26T14:25:39.000Z</time>
      </trkpt>
      <trkpt lat="45.83166" lon="2.8514">
        <ele>674.8</ele>
        <time>2021-08-26T14:25:45.000Z</time>
      </trkpt>
      <trkpt lat="45.83171" lon="2.85146">
        <ele>675.2</ele>
        <time>2021-08-26T14:26:03.000Z</time>
      </trkpt>
      <trkpt lat="45.83175" lon="2.85154">
        <ele>675.8</ele>
        <time>2021-08-26T14:26:09.000Z</time>
      </trkpt>
      <trkpt lat="45.83181" lon="2.85161">
        <ele>676.2</ele>
        <time>2021-08-26T14:28:22.000Z</time>
      </trkpt>
      <trkpt lat="45.83175" lon="2.85166">
        <ele>676.7</ele>
        <time>2021-08-26T14:28:38.000Z</time>
      </trkpt>
      <trkpt lat="45.83168" lon="2.85165">
        <ele>676.8</ele>
        <time>2021-08-26T14:28:44.000Z</time>
      </trkpt>
      <trkpt lat="45.83161" lon="2.85162">
        <ele>676.6</ele>
        <time>2021-08-26T14:28:50.000Z</time>
      </trkpt>
      <trkpt lat="45.83153" lon="2.8516">
        <ele>676.4</ele>
        <time>2021-08-26T14:28:56.000Z</time>
      </trkpt>
      <trkpt lat="45.83147" lon="2.85159">
        <ele>676.3</ele>
        <time>2021-08-26T14:29:02.000Z</time>
      </trkpt>
      <trkpt lat="45.83153" lon="2.85168">
        <ele>677.2</ele>
        <time>2021-08-26T14:29:46.000Z</time>
      </trkpt>
      <trkpt lat="45.83147" lon="2.85171">
        <ele>677.8</ele>
        <time>2021-08-26T14:29:55.000Z</time>
      </trkpt>
      <trkpt lat="45.83139" lon="2.85174">
        <ele>678.3</ele>
        <time>2021-08-26T14:30:07.000Z</time>
      </trkpt>
      <trkpt lat="45.83134" lon="2.85179">
        <ele>679.1</ele>
        <time>2021-08-26T14:30:24.000Z</time>
      </trkpt>
      <trkpt lat="45.83127" lon="2.85188">
        <ele>680.6</ele>
        <time>2021-08-26T14:33:46.000Z</time>
      </trkpt>
      <trkpt lat="45.83136" lon="2.85178">
        <ele>679</ele>
        <time>2021-08-26T14:33:52.000Z</time>
      </trkpt>
      <trkpt lat="45.83141" lon="2.85186">
        <ele>680.4</ele>
        <time>2021-08-26T14:34:03.000Z</time>
      </trkpt>
      <trkpt lat="45.83154" lon="2.85184">
        <ele>680.2</ele>
        <time>2021-08-26T14:35:33.000Z</time>
      </trkpt>
      <trkpt lat="45.83147" lon="2.85187">
        <ele>680.7</ele>
        <time>2021-08-26T14:40:38.000Z</time>
      </trkpt>
      <trkpt lat="45.83151" lon="2.85179">
        <ele>679.3</ele>
        <time>2021-08-26T14:51:11.000Z</time>
      </trkpt>
      <trkpt lat="45.83154" lon="2.85168">
        <ele>677.2</ele>
        <time>2021-08-26T14:51:18.000Z</time>
      </trkpt>
      <trkpt lat="45.83153" lon="2.85158">
        <ele>676.2</ele>
        <time>2021-08-26T14:51:23.000Z</time>
      </trkpt>
      <trkpt lat="45.83156" lon="2.85167">
        <ele>677.1</ele>
        <time>2021-08-26T14:51:47.000Z</time>
      </trkpt>
      <trkpt lat="45.8316" lon="2.85175">
        <ele>678.6</ele>
        <time>2021-08-26T14:51:55.000Z</time>
      </trkpt>
      <trkpt lat="45.83165" lon="2.85182">
        <ele>679.9</ele>
        <time>2021-08-26T14:52:03.000Z</time>
      </trkpt>
      <trkpt lat="45.83169" lon="2.85189">
        <ele>681.2</ele>
        <time>2021-08-26T14:52:10.000Z</time>
      </trkpt>
      <trkpt lat="45.83176" lon="2.85193">
        <ele>681.7</ele>
        <time>2021-08-26T14:52:15.000Z</time>
      </trkpt>
      <trkpt lat="45.83183" lon="2.85196">
        <ele>682</ele>
        <time>2021-08-26T14:52:21.000Z</time>
      </trkpt>
      <trkpt lat="45.83187" lon="2.85204">
        <ele>683.2</ele>
        <time>2021-08-26T14:52:28.000Z</time>
      </trkpt>
      <trkpt lat="45.83191" lon="2.85211">
        <ele>684.3</ele>
        <time>2021-08-26T14:52:36.000Z</time>
      </trkpt>
      <trkpt lat="45.83196" lon="2.85218">
        <ele>685.3</ele>
        <time>2021-08-26T14:52:44.000Z</time>
      </trkpt>
      <trkpt lat="45.83203" lon="2.85224">
        <ele>685.9</ele>
        <time>2021-08-26T14:52:52.000Z</time>
      </trkpt>
      <trkpt lat="45.83209" lon="2.85227">
        <ele>686.1</ele>
        <time>2021-08-26T14:52:59.000Z</time>
      </trkpt>
      <trkpt lat="45.83215" lon="2.85222">
        <ele>684.9</ele>
        <time>2021-08-26T14:53:05.000Z</time>
      </trkpt>
      <trkpt lat="45.83221" lon="2.85216">
        <ele>683.6</ele>
        <time>2021-08-26T14:53:13.000Z</time>
      </trkpt>
      <trkpt lat="45.83231" lon="2.85216">
        <ele>683.1</ele>
        <time>2021-08-26T14:53:18.000Z</time>
      </trkpt>
      <trkpt lat="45.83238" lon="2.85216">
        <ele>682.7</ele>
        <time>2021-08-26T14:53:24.000Z</time>
      </trkpt>
      <trkpt lat="45.83244" lon="2.85221">
        <ele>683.2</ele>
        <time>2021-08-26T14:53:42.000Z</time>
      </trkpt>
      <trkpt lat="45.83246" lon="2.8523">
        <ele>684.4</ele>
        <time>2021-08-26T14:53:54.000Z</time>
      </trkpt>
      <trkpt lat="45.83249" lon="2.85239">
        <ele>685.5</ele>
        <time>2021-08-26T14:54:06.000Z</time>
      </trkpt>
      <trkpt lat="45.83256" lon="2.8524">
        <ele>685.3</ele>
        <time>2021-08-26T14:54:17.000Z</time>
      </trkpt>
      <trkpt lat="45.83263" lon="2.85243">
        <ele>685.3</ele>
        <time>2021-08-26T14:54:26.000Z</time>
      </trkpt>
      <trkpt lat="45.8327" lon="2.85245">
        <ele>685.2</ele>
        <time>2021-08-26T14:54:31.000Z</time>
      </trkpt>
      <trkpt lat="45.83277" lon="2.85246">
        <ele>684.9</ele>
        <time>2021-08-26T14:54:37.000Z</time>
      </trkpt>
      <trkpt lat="45.83283" lon="2.85251">
        <ele>685.2</ele>
        <time>2021-08-26T14:54:49.000Z</time>
      </trkpt>
      <trkpt lat="45.83289" lon="2.85258">
        <ele>685.8</ele>
        <time>2021-08-26T14:54:56.000Z</time>
      </trkpt>
      <trkpt lat="45.83296" lon="2.85261">
        <ele>685.6</ele>
        <time>2021-08-26T14:55:01.000Z</time>
      </trkpt>
      <trkpt lat="45.83301" lon="2.85267">
        <ele>685.9</ele>
        <time>2021-08-26T14:55:46.000Z</time>
      </trkpt>
      <trkpt lat="45.83305" lon="2.85275">
        <ele>686.4</ele>
        <time>2021-08-26T14:55:54.000Z</time>
      </trkpt>
      <trkpt lat="45.83309" lon="2.85283">
        <ele>686.8</ele>
        <time>2021-08-26T14:56:02.000Z</time>
      </trkpt>
      <trkpt lat="45.83312" lon="2.85292">
        <ele>687.3</ele>
        <time>2021-08-26T14:56:11.000Z</time>
      </trkpt>
      <trkpt lat="45.83317" lon="2.85299">
        <ele>687.3</ele>
        <time>2021-08-26T14:56:23.000Z</time>
      </trkpt>
      <trkpt lat="45.83322" lon="2.85305">
        <ele>687.1</ele>
        <time>2021-08-26T14:56:32.000Z</time>
      </trkpt>
      <trkpt lat="45.83327" lon="2.85312">
        <ele>686.8</ele>
        <time>2021-08-26T14:56:42.000Z</time>
      </trkpt>
      <trkpt lat="45.83333" lon="2.85319">
        <ele>686.2</ele>
        <time>2021-08-26T14:56:48.000Z</time>
      </trkpt>
      <trkpt lat="45.83337" lon="2.85328">
        <ele>686.7</ele>
        <time>2021-08-26T14:56:54.000Z</time>
      </trkpt>
      <trkpt lat="45.83344" lon="2.85334">
        <ele>687</ele>
        <time>2021-08-26T14:57:01.000Z</time>
      </trkpt>
      <trkpt lat="45.83355" lon="2.85334">
        <ele>687</ele>
        <time>2021-08-26T14:57:06.000Z</time>
      </trkpt>
      <trkpt lat="45.83363" lon="2.85333">
        <ele>687</ele>
        <time>2021-08-26T14:57:11.000Z</time>
      </trkpt>
      <trkpt lat="45.83377" lon="2.85339">
        <ele>687.2</ele>
        <time>2021-08-26T14:57:57.000Z</time>
      </trkpt>
      <trkpt lat="45.8338" lon="2.85349">
        <ele>687.6</ele>
        <time>2021-08-26T14:58:05.000Z</time>
      </trkpt>
      <trkpt lat="45.83384" lon="2.85357">
        <ele>688</ele>
        <time>2021-08-26T14:58:13.000Z</time>
      </trkpt>
      <trkpt lat="45.83388" lon="2.85365">
        <ele>688.3</ele>
        <time>2021-08-26T14:58:21.000Z</time>
      </trkpt>
      <trkpt lat="45.83392" lon="2.85372">
        <ele>688.5</ele>
        <time>2021-08-26T14:58:28.000Z</time>
      </trkpt>
      <trkpt lat="45.83398" lon="2.85379">
        <ele>688.8</ele>
        <time>2021-08-26T14:58:33.000Z</time>
      </trkpt>
      <trkpt lat="45.83403" lon="2.85387">
        <ele>689</ele>
        <time>2021-08-26T14:58:40.000Z</time>
      </trkpt>
      <trkpt lat="45.83405" lon="2.85396">
        <ele>689.4</ele>
        <time>2021-08-26T14:58:48.000Z</time>
      </trkpt>
      <trkpt lat="45.83409" lon="2.85404">
        <ele>689.6</ele>
        <time>2021-08-26T14:58:57.000Z</time>
      </trkpt>
      <trkpt lat="45.83415" lon="2.85403">
        <ele>689.5</ele>
        <time>2021-08-26T14:59:06.000Z</time>
      </trkpt>
      <trkpt lat="45.83417" lon="2.85412">
        <ele>689.9</ele>
        <time>2021-08-26T14:59:42.000Z</time>
      </trkpt>
      <trkpt lat="45.83414" lon="2.85422">
        <ele>690.5</ele>
        <time>2021-08-26T15:00:12.000Z</time>
      </trkpt>
      <trkpt lat="45.83413" lon="2.85413">
        <ele>689.9</ele>
        <time>2021-08-26T15:00:23.000Z</time>
      </trkpt>
      <trkpt lat="45.83413" lon="2.85403">
        <ele>689.5</ele>
        <time>2021-08-26T15:00:31.000Z</time>
      </trkpt>
      <trkpt lat="45.8341" lon="2.85394">
        <ele>689.2</ele>
        <time>2021-08-26T15:00:43.000Z</time>
      </trkpt>
      <trkpt lat="45.83405" lon="2.85386">
        <ele>689</ele>
        <time>2021-08-26T15:00:51.000Z</time>
      </trkpt>
      <trkpt lat="45.83401" lon="2.85377">
        <ele>688.7</ele>
        <time>2021-08-26T15:00:57.000Z</time>
      </trkpt>
      <trkpt lat="45.83397" lon="2.85369">
        <ele>688.4</ele>
        <time>2021-08-26T15:01:03.000Z</time>
      </trkpt>
      <trkpt lat="45.83392" lon="2.85357">
        <ele>687.9</ele>
        <time>2021-08-26T15:01:09.000Z</time>
      </trkpt>
      <trkpt lat="45.83388" lon="2.85348">
        <ele>687.6</ele>
        <time>2021-08-26T15:01:14.000Z</time>
      </trkpt>
      <trkpt lat="45.83384" lon="2.85341">
        <ele>687.3</ele>
        <time>2021-08-26T15:01:19.000Z</time>
      </trkpt>
      <trkpt lat="45.8338" lon="2.85332">
        <ele>686.9</ele>
        <time>2021-08-26T15:01:25.000Z</time>
      </trkpt>
      <trkpt lat="45.83375" lon="2.85325">
        <ele>686.7</ele>
        <time>2021-08-26T15:01:31.000Z</time>
      </trkpt>
      <trkpt lat="45.8337" lon="2.85318">
        <ele>686.3</ele>
        <time>2021-08-26T15:01:38.000Z</time>
      </trkpt>
      <trkpt lat="45.83366" lon="2.8531">
        <ele>685.9</ele>
        <time>2021-08-26T15:01:45.000Z</time>
      </trkpt>
      <trkpt lat="45.8336" lon="2.85305">
        <ele>685.6</ele>
        <time>2021-08-26T15:01:51.000Z</time>
      </trkpt>
      <trkpt lat="45.83353" lon="2.853">
        <ele>685.3</ele>
        <time>2021-08-26T15:01:57.000Z</time>
      </trkpt>
      <trkpt lat="45.83347" lon="2.85294">
        <ele>684.9</ele>
        <time>2021-08-26T15:02:02.000Z</time>
      </trkpt>
      <trkpt lat="45.83341" lon="2.85298">
        <ele>685</ele>
        <time>2021-08-26T15:02:11.000Z</time>
      </trkpt>
      <trkpt lat="45.83336" lon="2.85305">
        <ele>685.3</ele>
        <time>2021-08-26T15:02:21.000Z</time>
      </trkpt>
      <trkpt lat="45.83329" lon="2.85309">
        <ele>686.2</ele>
        <time>2021-08-26T15:02:33.000Z</time>
      </trkpt>
      <trkpt lat="45.83323" lon="2.85315">
        <ele>687.7</ele>
        <time>2021-08-26T15:02:39.000Z</time>
      </trkpt>
      <trkpt lat="45.83317" lon="2.85321">
        <ele>689.2</ele>
        <time>2021-08-26T15:02:46.000Z</time>
      </trkpt>
      <trkpt lat="45.83311" lon="2.85328">
        <ele>691</ele>
        <time>2021-08-26T15:02:52.000Z</time>
      </trkpt>
      <trkpt lat="45.83306" lon="2.85334">
        <ele>692.6</ele>
        <time>2021-08-26T15:02:57.000Z</time>
      </trkpt>
      <trkpt lat="45.83302" lon="2.85343">
        <ele>694.1</ele>
        <time>2021-08-26T15:03:04.000Z</time>
      </trkpt>
      <trkpt lat="45.83297" lon="2.8535">
        <ele>695.7</ele>
        <time>2021-08-26T15:03:09.000Z</time>
      </trkpt>
      <trkpt lat="45.83292" lon="2.85358">
        <ele>697.5</ele>
        <time>2021-08-26T15:03:15.000Z</time>
      </trkpt>
      <trkpt lat="45.83287" lon="2.85365">
        <ele>699.2</ele>
        <time>2021-08-26T15:03:22.000Z</time>
      </trkpt>
      <trkpt lat="45.83279" lon="2.85368">
        <ele>701.4</ele>
        <time>2021-08-26T15:03:27.000Z</time>
      </trkpt>
      <trkpt lat="45.83273" lon="2.8538">
        <ele>704</ele>
        <time>2021-08-26T15:03:33.000Z</time>
      </trkpt>
      <trkpt lat="45.83273" lon="2.8539">
        <ele>705</ele>
        <time>2021-08-26T15:03:42.000Z</time>
      </trkpt>
      <trkpt lat="45.83279" lon="2.85393">
        <ele>703.7</ele>
        <time>2021-08-26T15:03:49.000Z</time>
      </trkpt>
      <trkpt lat="45.83285" lon="2.854">
        <ele>702.8</ele>
        <time>2021-08-26T15:03:55.000Z</time>
      </trkpt>
      <trkpt lat="45.83279" lon="2.85405">
        <ele>704.9</ele>
        <time>2021-08-26T15:04:02.000Z</time>
      </trkpt>
      <trkpt lat="45.83273" lon="2.85408">
        <ele>706.8</ele>
        <time>2021-08-26T15:04:07.000Z</time>
      </trkpt>
      <trkpt lat="45.83268" lon="2.85416">
        <ele>709</ele>
        <time>2021-08-26T15:04:13.000Z</time>
      </trkpt>
      <trkpt lat="45.83268" lon="2.85427">
        <ele>709.9</ele>
        <time>2021-08-26T15:04:21.000Z</time>
      </trkpt>
      <trkpt lat="45.83273" lon="2.85434">
        <ele>709.1</ele>
        <time>2021-08-26T15:04:27.000Z</time>
      </trkpt>
      <trkpt lat="45.83279" lon="2.85442">
        <ele>708.1</ele>
        <time>2021-08-26T15:04:33.000Z</time>
      </trkpt>
      <trkpt lat="45.83283" lon="2.85453">
        <ele>707.9</ele>
        <time>2021-08-26T15:04:38.000Z</time>
      </trkpt>
      <trkpt lat="45.83286" lon="2.85463">
        <ele>708</ele>
        <time>2021-08-26T15:04:43.000Z</time>
      </trkpt>
      <trkpt lat="45.83292" lon="2.85472">
        <ele>707.1</ele>
        <time>2021-08-26T15:04:49.000Z</time>
      </trkpt>
      <trkpt lat="45.83293" lon="2.85483">
        <ele>707.7</ele>
        <time>2021-08-26T15:04:55.000Z</time>
      </trkpt>
      <trkpt lat="45.83293" lon="2.85493">
        <ele>708.5</ele>
        <time>2021-08-26T15:05:02.000Z</time>
      </trkpt>
      <trkpt lat="45.83293" lon="2.85504">
        <ele>709.4</ele>
        <time>2021-08-26T15:05:09.000Z</time>
      </trkpt>
      <trkpt lat="45.83292" lon="2.85514">
        <ele>710.3</ele>
        <time>2021-08-26T15:05:14.000Z</time>
      </trkpt>
      <trkpt lat="45.83295" lon="2.85524">
        <ele>710.2</ele>
        <time>2021-08-26T15:05:21.000Z</time>
      </trkpt>
      <trkpt lat="45.83299" lon="2.85532">
        <ele>709.8</ele>
        <time>2021-08-26T15:05:29.000Z</time>
      </trkpt>
      <trkpt lat="45.83303" lon="2.8554">
        <ele>709.5</ele>
        <time>2021-08-26T15:05:37.000Z</time>
      </trkpt>
      <trkpt lat="45.83307" lon="2.85548">
        <ele>709.2</ele>
        <time>2021-08-26T15:05:44.000Z</time>
      </trkpt>
      <trkpt lat="45.8331" lon="2.85557">
        <ele>709.3</ele>
        <time>2021-08-26T15:05:51.000Z</time>
      </trkpt>
      <trkpt lat="45.83306" lon="2.85566">
        <ele>710.9</ele>
        <time>2021-08-26T15:05:57.000Z</time>
      </trkpt>
      <trkpt lat="45.83311" lon="2.85572">
        <ele>710.3</ele>
        <time>2021-08-26T15:06:02.000Z</time>
      </trkpt>
      <trkpt lat="45.83317" lon="2.85578">
        <ele>709.6</ele>
        <time>2021-08-26T15:06:08.000Z</time>
      </trkpt>
      <trkpt lat="45.83322" lon="2.85586">
        <ele>709.4</ele>
        <time>2021-08-26T15:06:15.000Z</time>
      </trkpt>
      <trkpt lat="45.83325" lon="2.85595">
        <ele>709.6</ele>
        <time>2021-08-26T15:06:26.000Z</time>
      </trkpt>
      <trkpt lat="45.83332" lon="2.85602">
        <ele>708.8</ele>
        <time>2021-08-26T15:06:34.000Z</time>
      </trkpt>
      <trkpt lat="45.83333" lon="2.85612">
        <ele>709.5</ele>
        <time>2021-08-26T15:06:40.000Z</time>
      </trkpt>
      <trkpt lat="45.83336" lon="2.85621">
        <ele>710</ele>
        <time>2021-08-26T15:06:46.000Z</time>
      </trkpt>
      <trkpt lat="45.83336" lon="2.85631">
        <ele>710.8</ele>
        <time>2021-08-26T15:06:52.000Z</time>
      </trkpt>
      <trkpt lat="45.83336" lon="2.85642">
        <ele>711.7</ele>
        <time>2021-08-26T15:06:58.000Z</time>
      </trkpt>
      <trkpt lat="45.83338" lon="2.85651">
        <ele>712.4</ele>
        <time>2021-08-26T15:07:04.000Z</time>
      </trkpt>
      <trkpt lat="45.83342" lon="2.8566">
        <ele>712.8</ele>
        <time>2021-08-26T15:07:10.000Z</time>
      </trkpt>
      <trkpt lat="45.83346" lon="2.85668">
        <ele>713.2</ele>
        <time>2021-08-26T15:07:16.000Z</time>
      </trkpt>
      <trkpt lat="45.83349" lon="2.85677">
        <ele>713.4</ele>
        <time>2021-08-26T15:07:23.000Z</time>
      </trkpt>
      <trkpt lat="45.83353" lon="2.85685">
        <ele>713.6</ele>
        <time>2021-08-26T15:07:30.000Z</time>
      </trkpt>
      <trkpt lat="45.83356" lon="2.85694">
        <ele>713.8</ele>
        <time>2021-08-26T15:07:38.000Z</time>
      </trkpt>
      <trkpt lat="45.83359" lon="2.85704">
        <ele>714.1</ele>
        <time>2021-08-26T15:07:45.000Z</time>
      </trkpt>
      <trkpt lat="45.83361" lon="2.85714">
        <ele>714.5</ele>
        <time>2021-08-26T15:07:50.000Z</time>
      </trkpt>
      <trkpt lat="45.83364" lon="2.85723">
        <ele>714.7</ele>
        <time>2021-08-26T15:07:56.000Z</time>
      </trkpt>
      <trkpt lat="45.83366" lon="2.85732">
        <ele>715</ele>
        <time>2021-08-26T15:08:02.000Z</time>
      </trkpt>
      <trkpt lat="45.83369" lon="2.85741">
        <ele>715.1</ele>
        <time>2021-08-26T15:08:09.000Z</time>
      </trkpt>
      <trkpt lat="45.83372" lon="2.85749">
        <ele>715.2</ele>
        <time>2021-08-26T15:08:14.000Z</time>
      </trkpt>
      <trkpt lat="45.83375" lon="2.85759">
        <ele>715.2</ele>
        <time>2021-08-26T15:08:20.000Z</time>
      </trkpt>
      <trkpt lat="45.83376" lon="2.8577">
        <ele>715.4</ele>
        <time>2021-08-26T15:08:25.000Z</time>
      </trkpt>
      <trkpt lat="45.83379" lon="2.8578">
        <ele>715.4</ele>
        <time>2021-08-26T15:08:30.000Z</time>
      </trkpt>
      <trkpt lat="45.8338" lon="2.85789">
        <ele>715.5</ele>
        <time>2021-08-26T15:08:37.000Z</time>
      </trkpt>
      <trkpt lat="45.83383" lon="2.85798">
        <ele>715.5</ele>
        <time>2021-08-26T15:08:43.000Z</time>
      </trkpt>
      <trkpt lat="45.83387" lon="2.85806">
        <ele>715.4</ele>
        <time>2021-08-26T15:08:52.000Z</time>
      </trkpt>
      <trkpt lat="45.83389" lon="2.85816">
        <ele>715.5</ele>
        <time>2021-08-26T15:08:59.000Z</time>
      </trkpt>
      <trkpt lat="45.83392" lon="2.85824">
        <ele>715.5</ele>
        <time>2021-08-26T15:09:07.000Z</time>
      </trkpt>
      <trkpt lat="45.83396" lon="2.85833">
        <ele>715.5</ele>
        <time>2021-08-26T15:09:15.000Z</time>
      </trkpt>
      <trkpt lat="45.83397" lon="2.85842">
        <ele>715.6</ele>
        <time>2021-08-26T15:09:23.000Z</time>
      </trkpt>
      <trkpt lat="45.83395" lon="2.85852">
        <ele>716</ele>
        <time>2021-08-26T15:09:30.000Z</time>
      </trkpt>
      <trkpt lat="45.83394" lon="2.85862">
        <ele>716.3</ele>
        <time>2021-08-26T15:09:38.000Z</time>
      </trkpt>
      <trkpt lat="45.83395" lon="2.85872">
        <ele>716.5</ele>
        <time>2021-08-26T15:09:47.000Z</time>
      </trkpt>
      <trkpt lat="45.83395" lon="2.85882">
        <ele>716.7</ele>
        <time>2021-08-26T15:09:53.000Z</time>
      </trkpt>
      <trkpt lat="45.83397" lon="2.85892">
        <ele>716.9</ele>
        <time>2021-08-26T15:09:59.000Z</time>
      </trkpt>
      <trkpt lat="45.83399" lon="2.85904">
        <ele>717.1</ele>
        <time>2021-08-26T15:10:05.000Z</time>
      </trkpt>
      <trkpt lat="45.834" lon="2.85914">
        <ele>717.3</ele>
        <time>2021-08-26T15:10:10.000Z</time>
      </trkpt>
      <trkpt lat="45.83402" lon="2.85925">
        <ele>717.6</ele>
        <time>2021-08-26T15:10:15.000Z</time>
      </trkpt>
      <trkpt lat="45.83406" lon="2.85938">
        <ele>717.9</ele>
        <time>2021-08-26T15:10:21.000Z</time>
      </trkpt>
      <trkpt lat="45.83408" lon="2.85951">
        <ele>718.3</ele>
        <time>2021-08-26T15:10:26.000Z</time>
      </trkpt>
      <trkpt lat="45.8341" lon="2.85961">
        <ele>718.6</ele>
        <time>2021-08-26T15:10:31.000Z</time>
      </trkpt>
      <trkpt lat="45.83408" lon="2.85971">
        <ele>718.9</ele>
        <time>2021-08-26T15:10:39.000Z</time>
      </trkpt>
      <trkpt lat="45.83405" lon="2.8598">
        <ele>719.1</ele>
        <time>2021-08-26T15:10:45.000Z</time>
      </trkpt>
      <trkpt lat="45.83405" lon="2.8599">
        <ele>719.4</ele>
        <time>2021-08-26T15:10:52.000Z</time>
      </trkpt>
      <trkpt lat="45.83404" lon="2.86001">
        <ele>719.7</ele>
        <time>2021-08-26T15:10:58.000Z</time>
      </trkpt>
      <trkpt lat="45.83405" lon="2.86011">
        <ele>720.2</ele>
        <time>2021-08-26T15:11:03.000Z</time>
      </trkpt>
      <trkpt lat="45.83406" lon="2.86022">
        <ele>720.7</ele>
        <time>2021-08-26T15:11:09.000Z</time>
      </trkpt>
      <trkpt lat="45.83407" lon="2.86032">
        <ele>721.1</ele>
        <time>2021-08-26T15:11:14.000Z</time>
      </trkpt>
      <trkpt lat="45.83408" lon="2.86042">
        <ele>721.5</ele>
        <time>2021-08-26T15:11:20.000Z</time>
      </trkpt>
      <trkpt lat="45.8341" lon="2.86052">
        <ele>721.9</ele>
        <time>2021-08-26T15:11:26.000Z</time>
      </trkpt>
      <trkpt lat="45.83412" lon="2.86061">
        <ele>722.2</ele>
        <time>2021-08-26T15:11:32.000Z</time>
      </trkpt>
      <trkpt lat="45.83414" lon="2.8607">
        <ele>722.6</ele>
        <time>2021-08-26T15:11:37.000Z</time>
      </trkpt>
      <trkpt lat="45.83417" lon="2.86079">
        <ele>722.9</ele>
        <time>2021-08-26T15:11:43.000Z</time>
      </trkpt>
      <trkpt lat="45.83421" lon="2.86089">
        <ele>723.2</ele>
        <time>2021-08-26T15:11:51.000Z</time>
      </trkpt>
      <trkpt lat="45.83424" lon="2.86099">
        <ele>723.5</ele>
        <time>2021-08-26T15:11:57.000Z</time>
      </trkpt>
      <trkpt lat="45.83428" lon="2.8611">
        <ele>723.8</ele>
        <time>2021-08-26T15:12:02.000Z</time>
      </trkpt>
      <trkpt lat="45.83431" lon="2.86123">
        <ele>724.1</ele>
        <time>2021-08-26T15:12:07.000Z</time>
      </trkpt>
      <trkpt lat="45.83433" lon="2.86135">
        <ele>724.3</ele>
        <time>2021-08-26T15:12:13.000Z</time>
      </trkpt>
      <trkpt lat="45.83437" lon="2.86145">
        <ele>724.4</ele>
        <time>2021-08-26T15:12:18.000Z</time>
      </trkpt>
      <trkpt lat="45.83441" lon="2.86155">
        <ele>724.6</ele>
        <time>2021-08-26T15:12:23.000Z</time>
      </trkpt>
      <trkpt lat="45.83445" lon="2.86171">
        <ele>724.6</ele>
        <time>2021-08-26T15:12:29.000Z</time>
      </trkpt>
      <trkpt lat="45.83448" lon="2.86183">
        <ele>724.5</ele>
        <time>2021-08-26T15:12:34.000Z</time>
      </trkpt>
      <trkpt lat="45.83451" lon="2.86195">
        <ele>724.4</ele>
        <time>2021-08-26T15:12:39.000Z</time>
      </trkpt>
      <trkpt lat="45.83451" lon="2.86209">
        <ele>724.3</ele>
        <time>2021-08-26T15:12:45.000Z</time>
      </trkpt>
      <trkpt lat="45.83453" lon="2.8622">
        <ele>724.2</ele>
        <time>2021-08-26T15:12:50.000Z</time>
      </trkpt>
      <trkpt lat="45.83458" lon="2.86231">
        <ele>724.1</ele>
        <time>2021-08-26T15:12:55.000Z</time>
      </trkpt>
      <trkpt lat="45.83457" lon="2.86245">
        <ele>724</ele>
        <time>2021-08-26T15:13:01.000Z</time>
      </trkpt>
      <trkpt lat="45.83455" lon="2.86254">
        <ele>724.1</ele>
        <time>2021-08-26T15:13:06.000Z</time>
      </trkpt>
      <trkpt lat="45.83458" lon="2.86263">
        <ele>724.3</ele>
        <time>2021-08-26T15:13:12.000Z</time>
      </trkpt>
      <trkpt lat="45.83462" lon="2.8627">
        <ele>724.5</ele>
        <time>2021-08-26T15:13:17.000Z</time>
      </trkpt>
      <trkpt lat="45.83464" lon="2.8628">
        <ele>724.7</ele>
        <time>2021-08-26T15:13:23.000Z</time>
      </trkpt>
      <trkpt lat="45.83467" lon="2.8629">
        <ele>724.9</ele>
        <time>2021-08-26T15:13:29.000Z</time>
      </trkpt>
      <trkpt lat="45.8347" lon="2.86299">
        <ele>725</ele>
        <time>2021-08-26T15:13:35.000Z</time>
      </trkpt>
      <trkpt lat="45.83472" lon="2.8631">
        <ele>725.2</ele>
        <time>2021-08-26T15:13:41.000Z</time>
      </trkpt>
      <trkpt lat="45.83474" lon="2.86319">
        <ele>725.3</ele>
        <time>2021-08-26T15:13:46.000Z</time>
      </trkpt>
      <trkpt lat="45.83475" lon="2.86328">
        <ele>725.5</ele>
        <time>2021-08-26T15:13:51.000Z</time>
      </trkpt>
      <trkpt lat="45.83478" lon="2.86341">
        <ele>725.6</ele>
        <time>2021-08-26T15:13:57.000Z</time>
      </trkpt>
      <trkpt lat="45.83479" lon="2.8635">
        <ele>725.7</ele>
        <time>2021-08-26T15:14:03.000Z</time>
      </trkpt>
      <trkpt lat="45.8348" lon="2.86359">
        <ele>725.7</ele>
        <time>2021-08-26T15:14:12.000Z</time>
      </trkpt>
      <trkpt lat="45.83483" lon="2.86368">
        <ele>725.7</ele>
        <time>2021-08-26T15:14:18.000Z</time>
      </trkpt>
      <trkpt lat="45.83485" lon="2.8638">
        <ele>725.7</ele>
        <time>2021-08-26T15:14:27.000Z</time>
      </trkpt>
      <trkpt lat="45.83485" lon="2.86389">
        <ele>725.7</ele>
        <time>2021-08-26T15:14:52.000Z</time>
      </trkpt>
      <trkpt lat="45.83486" lon="2.86399">
        <ele>725.7</ele>
        <time>2021-08-26T15:14:58.000Z</time>
      </trkpt>
      <trkpt lat="45.83487" lon="2.86409">
        <ele>725.7</ele>
        <time>2021-08-26T15:15:03.000Z</time>
      </trkpt>
      <trkpt lat="45.83487" lon="2.86418">
        <ele>725.8</ele>
        <time>2021-08-26T15:15:09.000Z</time>
      </trkpt>
      <trkpt lat="45.83486" lon="2.86427">
        <ele>725.7</ele>
        <time>2021-08-26T15:15:16.000Z</time>
      </trkpt>
      <trkpt lat="45.83488" lon="2.86437">
        <ele>725.5</ele>
        <time>2021-08-26T15:15:27.000Z</time>
      </trkpt>
      <trkpt lat="45.83489" lon="2.86446">
        <ele>725.4</ele>
        <time>2021-08-26T15:15:34.000Z</time>
      </trkpt>
      <trkpt lat="45.83488" lon="2.86457">
        <ele>725.3</ele>
        <time>2021-08-26T15:15:39.000Z</time>
      </trkpt>
      <trkpt lat="45.83491" lon="2.86467">
        <ele>725</ele>
        <time>2021-08-26T15:15:45.000Z</time>
      </trkpt>
      <trkpt lat="45.83494" lon="2.86476">
        <ele>724.7</ele>
        <time>2021-08-26T15:15:50.000Z</time>
      </trkpt>
      <trkpt lat="45.83499" lon="2.86482">
        <ele>724.3</ele>
        <time>2021-08-26T15:15:57.000Z</time>
      </trkpt>
      <trkpt lat="45.83507" lon="2.86485">
        <ele>724.7</ele>
        <time>2021-08-26T15:16:03.000Z</time>
      </trkpt>
      <trkpt lat="45.83513" lon="2.86488">
        <ele>725.1</ele>
        <time>2021-08-26T15:16:10.000Z</time>
      </trkpt>
      <trkpt lat="45.8352" lon="2.8649">
        <ele>725.7</ele>
        <time>2021-08-26T15:16:15.000Z</time>
      </trkpt>
      <trkpt lat="45.83525" lon="2.86496">
        <ele>726.1</ele>
        <time>2021-08-26T15:16:59.000Z</time>
      </trkpt>
      <trkpt lat="45.83531" lon="2.86501">
        <ele>726.6</ele>
        <time>2021-08-26T15:17:07.000Z</time>
      </trkpt>
      <trkpt lat="45.83538" lon="2.86505">
        <ele>727.4</ele>
        <time>2021-08-26T15:17:15.000Z</time>
      </trkpt>
      <trkpt lat="45.83544" lon="2.86505">
        <ele>727.9</ele>
        <time>2021-08-26T15:17:25.000Z</time>
      </trkpt>
      <trkpt lat="45.83551" lon="2.86509">
        <ele>728.6</ele>
        <time>2021-08-26T15:17:34.000Z</time>
      </trkpt>
      <trkpt lat="45.83562" lon="2.86497">
        <ele>729.1</ele>
        <time>2021-08-26T15:18:08.000Z</time>
      </trkpt>
      <trkpt lat="45.8357" lon="2.86494">
        <ele>729.6</ele>
        <time>2021-08-26T15:18:13.000Z</time>
      </trkpt>
      <trkpt lat="45.83577" lon="2.86492">
        <ele>730.1</ele>
        <time>2021-08-26T15:18:27.000Z</time>
      </trkpt>
      <trkpt lat="45.83582" lon="2.86499">
        <ele>730.8</ele>
        <time>2021-08-26T15:18:35.000Z</time>
      </trkpt>
      <trkpt lat="45.83588" lon="2.86504">
        <ele>731.5</ele>
        <time>2021-08-26T15:18:44.000Z</time>
      </trkpt>
      <trkpt lat="45.83591" lon="2.86513">
        <ele>732</ele>
        <time>2021-08-26T15:19:00.000Z</time>
      </trkpt>
      <trkpt lat="45.83594" lon="2.86522">
        <ele>732.5</ele>
        <time>2021-08-26T15:19:08.000Z</time>
      </trkpt>
      <trkpt lat="45.83593" lon="2.86511">
        <ele>732.2</ele>
        <time>2021-08-26T15:20:19.000Z</time>
      </trkpt>
      <trkpt lat="45.836" lon="2.86508">
        <ele>732.8</ele>
        <time>2021-08-26T15:21:17.000Z</time>
      </trkpt>
      <trkpt lat="45.83608" lon="2.86508">
        <ele>733.5</ele>
        <time>2021-08-26T15:21:24.000Z</time>
      </trkpt>
      <trkpt lat="45.83615" lon="2.86506">
        <ele>734.2</ele>
        <time>2021-08-26T15:21:31.000Z</time>
      </trkpt>
      <trkpt lat="45.83622" lon="2.86505">
        <ele>734.8</ele>
        <time>2021-08-26T15:21:39.000Z</time>
      </trkpt>
      <trkpt lat="45.83628" lon="2.86502">
        <ele>735.3</ele>
        <time>2021-08-26T15:21:47.000Z</time>
      </trkpt>
      <trkpt lat="45.83634" lon="2.86498">
        <ele>735.8</ele>
        <time>2021-08-26T15:21:54.000Z</time>
      </trkpt>
      <trkpt lat="45.83641" lon="2.86495">
        <ele>736.3</ele>
        <time>2021-08-26T15:22:05.000Z</time>
      </trkpt>
      <trkpt lat="45.83655" lon="2.86489">
        <ele>737.5</ele>
        <time>2021-08-26T15:22:40.000Z</time>
      </trkpt>
      <trkpt lat="45.83666" lon="2.86488">
        <ele>738.5</ele>
        <time>2021-08-26T15:22:58.000Z</time>
      </trkpt>
      <trkpt lat="45.83673" lon="2.86486">
        <ele>739.6</ele>
        <time>2021-08-26T15:23:06.000Z</time>
      </trkpt>
      <trkpt lat="45.83686" lon="2.86489">
        <ele>741.9</ele>
        <time>2021-08-26T15:23:30.000Z</time>
      </trkpt>
      <trkpt lat="45.83697" lon="2.86483">
        <ele>743.6</ele>
        <time>2021-08-26T15:23:45.000Z</time>
      </trkpt>
      <trkpt lat="45.83706" lon="2.86482">
        <ele>745.2</ele>
        <time>2021-08-26T15:23:50.000Z</time>
      </trkpt>
      <trkpt lat="45.83714" lon="2.86482">
        <ele>746.5</ele>
        <time>2021-08-26T15:23:57.000Z</time>
      </trkpt>
      <trkpt lat="45.83721" lon="2.86485">
        <ele>747.8</ele>
        <time>2021-08-26T15:24:03.000Z</time>
      </trkpt>
      <trkpt lat="45.83729" lon="2.86491">
        <ele>749.3</ele>
        <time>2021-08-26T15:24:13.000Z</time>
      </trkpt>
      <trkpt lat="45.83735" lon="2.86494">
        <ele>750.4</ele>
        <time>2021-08-26T15:24:18.000Z</time>
      </trkpt>
      <trkpt lat="45.83748" lon="2.86495">
        <ele>752.6</ele>
        <time>2021-08-26T15:24:24.000Z</time>
      </trkpt>
      <trkpt lat="45.83755" lon="2.86488">
        <ele>752.7</ele>
        <time>2021-08-26T15:24:29.000Z</time>
      </trkpt>
      <trkpt lat="45.83748" lon="2.86483">
        <ele>752.5</ele>
        <time>2021-08-26T15:24:36.000Z</time>
      </trkpt>
      <trkpt lat="45.83737" lon="2.86475">
        <ele>750.4</ele>
        <time>2021-08-26T15:24:41.000Z</time>
      </trkpt>
      <trkpt lat="45.83739" lon="2.86465">
        <ele>750.6</ele>
        <time>2021-08-26T15:24:50.000Z</time>
      </trkpt>
      <trkpt lat="45.83742" lon="2.86457">
        <ele>751</ele>
        <time>2021-08-26T15:24:57.000Z</time>
      </trkpt>
      <trkpt lat="45.83739" lon="2.86448">
        <ele>750.4</ele>
        <time>2021-08-26T15:25:02.000Z</time>
      </trkpt>
      <trkpt lat="45.83741" lon="2.86437">
        <ele>750.6</ele>
        <time>2021-08-26T15:25:07.000Z</time>
      </trkpt>
      <trkpt lat="45.83744" lon="2.86427">
        <ele>751</ele>
        <time>2021-08-26T15:25:13.000Z</time>
      </trkpt>
      <trkpt lat="45.83751" lon="2.86421">
        <ele>752</ele>
        <time>2021-08-26T15:25:18.000Z</time>
      </trkpt>
      <trkpt lat="45.83754" lon="2.86413">
        <ele>751.9</ele>
        <time>2021-08-26T15:25:27.000Z</time>
      </trkpt>
      <trkpt lat="45.83768" lon="2.86418">
        <ele>751.8</ele>
        <time>2021-08-26T15:25:33.000Z</time>
      </trkpt>
      <trkpt lat="45.83777" lon="2.86419">
        <ele>751.7</ele>
        <time>2021-08-26T15:25:38.000Z</time>
      </trkpt>
      <trkpt lat="45.83784" lon="2.86417">
        <ele>751.6</ele>
        <time>2021-08-26T15:25:43.000Z</time>
      </trkpt>
      <trkpt lat="45.83794" lon="2.86413">
        <ele>751.5</ele>
        <time>2021-08-26T15:25:53.000Z</time>
      </trkpt>
      <trkpt lat="45.83803" lon="2.86406">
        <ele>751.4</ele>
        <time>2021-08-26T15:25:58.000Z</time>
      </trkpt>
      <trkpt lat="45.83809" lon="2.86399">
        <ele>751.5</ele>
        <time>2021-08-26T15:26:05.000Z</time>
      </trkpt>
      <trkpt lat="45.83819" lon="2.86397">
        <ele>751.5</ele>
        <time>2021-08-26T15:26:10.000Z</time>
      </trkpt>
      <trkpt lat="45.83825" lon="2.86392">
        <ele>751.6</ele>
        <time>2021-08-26T15:26:19.000Z</time>
      </trkpt>
      <trkpt lat="45.83829" lon="2.86383">
        <ele>751.8</ele>
        <time>2021-08-26T15:26:30.000Z</time>
      </trkpt>
      <trkpt lat="45.83836" lon="2.86373">
        <ele>751.9</ele>
        <time>2021-08-26T15:26:38.000Z</time>
      </trkpt>
      <trkpt lat="45.83843" lon="2.86368">
        <ele>751.8</ele>
        <time>2021-08-26T15:26:43.000Z</time>
      </trkpt>
      <trkpt lat="45.83849" lon="2.86363">
        <ele>751.7</ele>
        <time>2021-08-26T15:26:51.000Z</time>
      </trkpt>
      <trkpt lat="45.83855" lon="2.86358">
        <ele>751.6</ele>
        <time>2021-08-26T15:26:59.000Z</time>
      </trkpt>
      <trkpt lat="45.83862" lon="2.86359">
        <ele>751.2</ele>
        <time>2021-08-26T15:27:07.000Z</time>
      </trkpt>
      <trkpt lat="45.8387" lon="2.86362">
        <ele>750.8</ele>
        <time>2021-08-26T15:27:13.000Z</time>
      </trkpt>
      <trkpt lat="45.83877" lon="2.86361">
        <ele>750.6</ele>
        <time>2021-08-26T15:27:20.000Z</time>
      </trkpt>
      <trkpt lat="45.83884" lon="2.86358">
        <ele>750.4</ele>
        <time>2021-08-26T15:27:28.000Z</time>
      </trkpt>
      <trkpt lat="45.8389" lon="2.86354">
        <ele>750.3</ele>
        <time>2021-08-26T15:27:35.000Z</time>
      </trkpt>
      <trkpt lat="45.83896" lon="2.86349">
        <ele>750.2</ele>
        <time>2021-08-26T15:27:45.000Z</time>
      </trkpt>
      <trkpt lat="45.83904" lon="2.86342">
        <ele>750.2</ele>
        <time>2021-08-26T15:28:06.000Z</time>
      </trkpt>
      <trkpt lat="45.8391" lon="2.86337">
        <ele>750.1</ele>
        <time>2021-08-26T15:28:19.000Z</time>
      </trkpt>
      <trkpt lat="45.83916" lon="2.86339">
        <ele>749.8</ele>
        <time>2021-08-26T15:28:27.000Z</time>
      </trkpt>
      <trkpt lat="45.83923" lon="2.86343">
        <ele>749.6</ele>
        <time>2021-08-26T15:28:33.000Z</time>
      </trkpt>
      <trkpt lat="45.83931" lon="2.86349">
        <ele>749.4</ele>
        <time>2021-08-26T15:28:38.000Z</time>
      </trkpt>
      <trkpt lat="45.83943" lon="2.86351">
        <ele>749.4</ele>
        <time>2021-08-26T15:28:43.000Z</time>
      </trkpt>
      <trkpt lat="45.8396" lon="2.86351">
        <ele>749.4</ele>
        <time>2021-08-26T15:28:49.000Z</time>
      </trkpt>
      <trkpt lat="45.83955" lon="2.86342">
        <ele>749.5</ele>
        <time>2021-08-26T15:29:07.000Z</time>
      </trkpt>
      <trkpt lat="45.83948" lon="2.86336">
        <ele>749.6</ele>
        <time>2021-08-26T15:29:17.000Z</time>
      </trkpt>
      <trkpt lat="45.83955" lon="2.86333">
        <ele>749.5</ele>
        <time>2021-08-26T15:29:34.000Z</time>
      </trkpt>
      <trkpt lat="45.83969" lon="2.86336">
        <ele>749.4</ele>
        <time>2021-08-26T15:29:39.000Z</time>
      </trkpt>
      <trkpt lat="45.83982" lon="2.86337">
        <ele>749.3</ele>
        <time>2021-08-26T15:29:45.000Z</time>
      </trkpt>
      <trkpt lat="45.83991" lon="2.86335">
        <ele>749.1</ele>
        <time>2021-08-26T15:29:50.000Z</time>
      </trkpt>
      <trkpt lat="45.84002" lon="2.86332">
        <ele>748.8</ele>
        <time>2021-08-26T15:29:55.000Z</time>
      </trkpt>
      <trkpt lat="45.8401" lon="2.86326">
        <ele>748</ele>
        <time>2021-08-26T15:30:01.000Z</time>
      </trkpt>
      <trkpt lat="45.84018" lon="2.86322">
        <ele>747.2</ele>
        <time>2021-08-26T15:30:06.000Z</time>
      </trkpt>
      <trkpt lat="45.84026" lon="2.86319">
        <ele>746.4</ele>
        <time>2021-08-26T15:30:11.000Z</time>
      </trkpt>
      <trkpt lat="45.84038" lon="2.86313">
        <ele>745.1</ele>
        <time>2021-08-26T15:30:17.000Z</time>
      </trkpt>
      <trkpt lat="45.84045" lon="2.86307">
        <ele>744.2</ele>
        <time>2021-08-26T15:30:22.000Z</time>
      </trkpt>
      <trkpt lat="45.84051" lon="2.86301">
        <ele>743.5</ele>
        <time>2021-08-26T15:30:27.000Z</time>
      </trkpt>
      <trkpt lat="45.84058" lon="2.86296">
        <ele>742.6</ele>
        <time>2021-08-26T15:30:33.000Z</time>
      </trkpt>
      <trkpt lat="45.84065" lon="2.86294">
        <ele>741.9</ele>
        <time>2021-08-26T15:30:38.000Z</time>
      </trkpt>
      <trkpt lat="45.84069" lon="2.86285">
        <ele>741.1</ele>
        <time>2021-08-26T15:30:46.000Z</time>
      </trkpt>
      <trkpt lat="45.84072" lon="2.86276">
        <ele>740.4</ele>
        <time>2021-08-26T15:30:53.000Z</time>
      </trkpt>
      <trkpt lat="45.84077" lon="2.86268">
        <ele>739.5</ele>
        <time>2021-08-26T15:30:59.000Z</time>
      </trkpt>
      <trkpt lat="45.84084" lon="2.86259">
        <ele>738.4</ele>
        <time>2021-08-26T15:31:05.000Z</time>
      </trkpt>
      <trkpt lat="45.84087" lon="2.86251">
        <ele>737.9</ele>
        <time>2021-08-26T15:31:10.000Z</time>
      </trkpt>
      <trkpt lat="45.84091" lon="2.86243">
        <ele>737.7</ele>
        <time>2021-08-26T15:31:15.000Z</time>
      </trkpt>
      <trkpt lat="45.84094" lon="2.86232">
        <ele>737.6</ele>
        <time>2021-08-26T15:31:21.000Z</time>
      </trkpt>
      <trkpt lat="45.84096" lon="2.86223">
        <ele>737.5</ele>
        <time>2021-08-26T15:31:26.000Z</time>
      </trkpt>
      <trkpt lat="45.84098" lon="2.86214">
        <ele>737.5</ele>
        <time>2021-08-26T15:31:34.000Z</time>
      </trkpt>
      <trkpt lat="45.84101" lon="2.86205">
        <ele>737.4</ele>
        <time>2021-08-26T15:31:42.000Z</time>
      </trkpt>
      <trkpt lat="45.84108" lon="2.86202">
        <ele>737.1</ele>
        <time>2021-08-26T15:31:51.000Z</time>
      </trkpt>
      <trkpt lat="45.84115" lon="2.862">
        <ele>736.9</ele>
        <time>2021-08-26T15:31:58.000Z</time>
      </trkpt>
      <trkpt lat="45.84121" lon="2.86198">
        <ele>736.6</ele>
        <time>2021-08-26T15:32:06.000Z</time>
      </trkpt>
      <trkpt lat="45.84129" lon="2.86196">
        <ele>736.4</ele>
        <time>2021-08-26T15:32:11.000Z</time>
      </trkpt>
      <trkpt lat="45.84136" lon="2.86186">
        <ele>736.1</ele>
        <time>2021-08-26T15:32:17.000Z</time>
      </trkpt>
      <trkpt lat="45.84143" lon="2.86185">
        <ele>735.9</ele>
        <time>2021-08-26T15:33:03.000Z</time>
      </trkpt>
      <trkpt lat="45.84149" lon="2.86189">
        <ele>735.6</ele>
        <time>2021-08-26T15:33:10.000Z</time>
      </trkpt>
      <trkpt lat="45.84156" lon="2.86192">
        <ele>735.4</ele>
        <time>2021-08-26T15:33:16.000Z</time>
      </trkpt>
      <trkpt lat="45.84163" lon="2.86193">
        <ele>735.1</ele>
        <time>2021-08-26T15:33:22.000Z</time>
      </trkpt>
      <trkpt lat="45.8417" lon="2.86194">
        <ele>735.2</ele>
        <time>2021-08-26T15:33:27.000Z</time>
      </trkpt>
      <trkpt lat="45.84178" lon="2.86195">
        <ele>735.7</ele>
        <time>2021-08-26T15:33:33.000Z</time>
      </trkpt>
      <trkpt lat="45.84185" lon="2.86196">
        <ele>736.2</ele>
        <time>2021-08-26T15:33:39.000Z</time>
      </trkpt>
      <trkpt lat="45.84193" lon="2.86197">
        <ele>736.7</ele>
        <time>2021-08-26T15:33:45.000Z</time>
      </trkpt>
      <trkpt lat="45.842" lon="2.86197">
        <ele>737.1</ele>
        <time>2021-08-26T15:33:51.000Z</time>
      </trkpt>
      <trkpt lat="45.84207" lon="2.86197">
        <ele>737.6</ele>
        <time>2021-08-26T15:33:57.000Z</time>
      </trkpt>
      <trkpt lat="45.84214" lon="2.86197">
        <ele>738</ele>
        <time>2021-08-26T15:34:04.000Z</time>
      </trkpt>
      <trkpt lat="45.84221" lon="2.86198">
        <ele>738.5</ele>
        <time>2021-08-26T15:34:10.000Z</time>
      </trkpt>
      <trkpt lat="45.84228" lon="2.86198">
        <ele>739</ele>
        <time>2021-08-26T15:34:15.000Z</time>
      </trkpt>
      <trkpt lat="45.84235" lon="2.862">
        <ele>739.4</ele>
        <time>2021-08-26T15:34:22.000Z</time>
      </trkpt>
      <trkpt lat="45.84242" lon="2.86201">
        <ele>739.9</ele>
        <time>2021-08-26T15:34:29.000Z</time>
      </trkpt>
      <trkpt lat="45.84249" lon="2.86202">
        <ele>740.4</ele>
        <time>2021-08-26T15:34:36.000Z</time>
      </trkpt>
      <trkpt lat="45.84256" lon="2.86199">
        <ele>740.6</ele>
        <time>2021-08-26T15:34:46.000Z</time>
      </trkpt>
      <trkpt lat="45.84262" lon="2.86204">
        <ele>740.8</ele>
        <time>2021-08-26T15:35:06.000Z</time>
      </trkpt>
      <trkpt lat="45.84268" lon="2.86207">
        <ele>741</ele>
        <time>2021-08-26T15:35:13.000Z</time>
      </trkpt>
      <trkpt lat="45.84276" lon="2.86208">
        <ele>741.3</ele>
        <time>2021-08-26T15:35:18.000Z</time>
      </trkpt>
      <trkpt lat="45.84285" lon="2.86209">
        <ele>741.6</ele>
        <time>2021-08-26T15:35:23.000Z</time>
      </trkpt>
      <trkpt lat="45.8429" lon="2.86215">
        <ele>741.8</ele>
        <time>2021-08-26T15:35:33.000Z</time>
      </trkpt>
      <trkpt lat="45.84297" lon="2.8622">
        <ele>742.1</ele>
        <time>2021-08-26T15:35:38.000Z</time>
      </trkpt>
      <trkpt lat="45.84308" lon="2.86224">
        <ele>742.6</ele>
        <time>2021-08-26T15:35:43.000Z</time>
      </trkpt>
      <trkpt lat="45.84318" lon="2.86229">
        <ele>743</ele>
        <time>2021-08-26T15:35:49.000Z</time>
      </trkpt>
      <trkpt lat="45.84325" lon="2.86234">
        <ele>743.3</ele>
        <time>2021-08-26T15:35:54.000Z</time>
      </trkpt>
      <trkpt lat="45.84331" lon="2.86238">
        <ele>743.6</ele>
        <time>2021-08-26T15:36:00.000Z</time>
      </trkpt>
      <trkpt lat="45.84338" lon="2.86242">
        <ele>743.5</ele>
        <time>2021-08-26T15:36:05.000Z</time>
      </trkpt>
      <trkpt lat="45.84344" lon="2.86245">
        <ele>743.3</ele>
        <time>2021-08-26T15:36:10.000Z</time>
      </trkpt>
      <trkpt lat="45.8435" lon="2.86249">
        <ele>743</ele>
        <time>2021-08-26T15:36:16.000Z</time>
      </trkpt>
      <trkpt lat="45.84357" lon="2.86251">
        <ele>742.6</ele>
        <time>2021-08-26T15:36:21.000Z</time>
      </trkpt>
      <trkpt lat="45.84364" lon="2.86254">
        <ele>742.2</ele>
        <time>2021-08-26T15:36:27.000Z</time>
      </trkpt>
      <trkpt lat="45.84371" lon="2.86258">
        <ele>741.9</ele>
        <time>2021-08-26T15:36:33.000Z</time>
      </trkpt>
      <trkpt lat="45.84378" lon="2.86259">
        <ele>741.5</ele>
        <time>2021-08-26T15:36:38.000Z</time>
      </trkpt>
      <trkpt lat="45.84385" lon="2.8626">
        <ele>741.2</ele>
        <time>2021-08-26T15:36:45.000Z</time>
      </trkpt>
      <trkpt lat="45.84392" lon="2.86262">
        <ele>740.8</ele>
        <time>2021-08-26T15:36:50.000Z</time>
      </trkpt>
      <trkpt lat="45.84399" lon="2.86264">
        <ele>740.5</ele>
        <time>2021-08-26T15:36:56.000Z</time>
      </trkpt>
      <trkpt lat="45.84406" lon="2.86266">
        <ele>740.2</ele>
        <time>2021-08-26T15:37:02.000Z</time>
      </trkpt>
      <trkpt lat="45.84414" lon="2.86267">
        <ele>739.8</ele>
        <time>2021-08-26T15:37:07.000Z</time>
      </trkpt>
      <trkpt lat="45.84422" lon="2.8627">
        <ele>739.3</ele>
        <time>2021-08-26T15:37:13.000Z</time>
      </trkpt>
      <trkpt lat="45.84429" lon="2.86272">
        <ele>738.8</ele>
        <time>2021-08-26T15:37:18.000Z</time>
      </trkpt>
      <trkpt lat="45.84436" lon="2.86275">
        <ele>738.3</ele>
        <time>2021-08-26T15:37:23.000Z</time>
      </trkpt>
      <trkpt lat="45.84442" lon="2.8628">
        <ele>738</ele>
        <time>2021-08-26T15:37:30.000Z</time>
      </trkpt>
      <trkpt lat="45.84449" lon="2.86284">
        <ele>737.5</ele>
        <time>2021-08-26T15:37:36.000Z</time>
      </trkpt>
      <trkpt lat="45.84456" lon="2.86289">
        <ele>737.1</ele>
        <time>2021-08-26T15:37:42.000Z</time>
      </trkpt>
      <trkpt lat="45.84462" lon="2.86294">
        <ele>736.8</ele>
        <time>2021-08-26T15:37:47.000Z</time>
      </trkpt>
      <trkpt lat="45.84469" lon="2.86301">
        <ele>736.4</ele>
        <time>2021-08-26T15:37:53.000Z</time>
      </trkpt>
      <trkpt lat="45.84475" lon="2.86307">
        <ele>736.2</ele>
        <time>2021-08-26T15:37:59.000Z</time>
      </trkpt>
      <trkpt lat="45.84479" lon="2.86316">
        <ele>736.1</ele>
        <time>2021-08-26T15:38:08.000Z</time>
      </trkpt>
      <trkpt lat="45.84483" lon="2.86325">
        <ele>736.1</ele>
        <time>2021-08-26T15:38:15.000Z</time>
      </trkpt>
      <trkpt lat="45.84489" lon="2.86332">
        <ele>735.9</ele>
        <time>2021-08-26T15:38:21.000Z</time>
      </trkpt>
      <trkpt lat="45.84494" lon="2.86339">
        <ele>736</ele>
        <time>2021-08-26T15:38:27.000Z</time>
      </trkpt>
      <trkpt lat="45.84498" lon="2.86348">
        <ele>736.4</ele>
        <time>2021-08-26T15:38:33.000Z</time>
      </trkpt>
      <trkpt lat="45.84503" lon="2.86355">
        <ele>736.6</ele>
        <time>2021-08-26T15:38:38.000Z</time>
      </trkpt>
      <trkpt lat="45.84511" lon="2.86361">
        <ele>736.6</ele>
        <time>2021-08-26T15:38:43.000Z</time>
      </trkpt>
      <trkpt lat="45.84517" lon="2.86362">
        <ele>736.3</ele>
        <time>2021-08-26T15:38:49.000Z</time>
      </trkpt>
      <trkpt lat="45.84524" lon="2.86363">
        <ele>736</ele>
        <time>2021-08-26T15:38:56.000Z</time>
      </trkpt>
      <trkpt lat="45.84532" lon="2.86363">
        <ele>735.5</ele>
        <time>2021-08-26T15:39:02.000Z</time>
      </trkpt>
      <trkpt lat="45.84539" lon="2.86364">
        <ele>735.1</ele>
        <time>2021-08-26T15:39:10.000Z</time>
      </trkpt>
      <trkpt lat="45.84545" lon="2.86367">
        <ele>735</ele>
        <time>2021-08-26T15:39:20.000Z</time>
      </trkpt>
      <trkpt lat="45.84553" lon="2.86367">
        <ele>734.5</ele>
        <time>2021-08-26T15:39:27.000Z</time>
      </trkpt>
      <trkpt lat="45.84559" lon="2.8637">
        <ele>734.5</ele>
        <time>2021-08-26T15:39:33.000Z</time>
      </trkpt>
      <trkpt lat="45.84567" lon="2.86369">
        <ele>733.9</ele>
        <time>2021-08-26T15:39:40.000Z</time>
      </trkpt>
      <trkpt lat="45.84573" lon="2.8637">
        <ele>733.6</ele>
        <time>2021-08-26T15:39:45.000Z</time>
      </trkpt>
      <trkpt lat="45.84581" lon="2.86374">
        <ele>733.5</ele>
        <time>2021-08-26T15:39:50.000Z</time>
      </trkpt>
      <trkpt lat="45.84587" lon="2.86378">
        <ele>733.8</ele>
        <time>2021-08-26T15:40:25.000Z</time>
      </trkpt>
      <trkpt lat="45.84593" lon="2.86386">
        <ele>734.7</ele>
        <time>2021-08-26T15:40:31.000Z</time>
      </trkpt>
      <trkpt lat="45.84599" lon="2.86391">
        <ele>735.2</ele>
        <time>2021-08-26T15:40:37.000Z</time>
      </trkpt>
      <trkpt lat="45.84605" lon="2.86395">
        <ele>735.7</ele>
        <time>2021-08-26T15:40:44.000Z</time>
      </trkpt>
      <trkpt lat="45.84612" lon="2.86399">
        <ele>736.1</ele>
        <time>2021-08-26T15:40:51.000Z</time>
      </trkpt>
      <trkpt lat="45.84617" lon="2.86405">
        <ele>736.7</ele>
        <time>2021-08-26T15:41:02.000Z</time>
      </trkpt>
      <trkpt lat="45.84619" lon="2.86415">
        <ele>737.8</ele>
        <time>2021-08-26T15:41:12.000Z</time>
      </trkpt>
      <trkpt lat="45.84619" lon="2.86427">
        <ele>739</ele>
        <time>2021-08-26T15:41:20.000Z</time>
      </trkpt>
      <trkpt lat="45.84623" lon="2.86436">
        <ele>740</ele>
        <time>2021-08-26T15:41:26.000Z</time>
      </trkpt>
      <trkpt lat="45.84628" lon="2.86444">
        <ele>740.8</ele>
        <time>2021-08-26T15:41:32.000Z</time>
      </trkpt>
      <trkpt lat="45.84633" lon="2.86451">
        <ele>741.5</ele>
        <time>2021-08-26T15:41:38.000Z</time>
      </trkpt>
      <trkpt lat="45.84638" lon="2.86458">
        <ele>742.3</ele>
        <time>2021-08-26T15:41:43.000Z</time>
      </trkpt>
      <trkpt lat="45.84643" lon="2.86466">
        <ele>743.2</ele>
        <time>2021-08-26T15:41:49.000Z</time>
      </trkpt>
      <trkpt lat="45.84648" lon="2.86474">
        <ele>744</ele>
        <time>2021-08-26T15:41:55.000Z</time>
      </trkpt>
      <trkpt lat="45.84653" lon="2.86482">
        <ele>744.9</ele>
        <time>2021-08-26T15:42:01.000Z</time>
      </trkpt>
      <trkpt lat="45.84658" lon="2.86488">
        <ele>745.6</ele>
        <time>2021-08-26T15:42:38.000Z</time>
      </trkpt>
      <trkpt lat="45.84662" lon="2.86496">
        <ele>746.5</ele>
        <time>2021-08-26T15:42:44.000Z</time>
      </trkpt>
      <trkpt lat="45.84666" lon="2.86505">
        <ele>747.2</ele>
        <time>2021-08-26T15:42:50.000Z</time>
      </trkpt>
      <trkpt lat="45.8467" lon="2.86512">
        <ele>747.4</ele>
        <time>2021-08-26T15:42:55.000Z</time>
      </trkpt>
      <trkpt lat="45.84676" lon="2.8652">
        <ele>747.4</ele>
        <time>2021-08-26T15:43:02.000Z</time>
      </trkpt>
      <trkpt lat="45.8468" lon="2.86529">
        <ele>747.6</ele>
        <time>2021-08-26T15:43:09.000Z</time>
      </trkpt>
      <trkpt lat="45.84684" lon="2.86537">
        <ele>747.8</ele>
        <time>2021-08-26T15:43:16.000Z</time>
      </trkpt>
      <trkpt lat="45.84689" lon="2.86545">
        <ele>748</ele>
        <time>2021-08-26T15:43:21.000Z</time>
      </trkpt>
      <trkpt lat="45.84693" lon="2.86553">
        <ele>748.3</ele>
        <time>2021-08-26T15:43:27.000Z</time>
      </trkpt>
      <trkpt lat="45.84697" lon="2.86561">
        <ele>748.5</ele>
        <time>2021-08-26T15:43:34.000Z</time>
      </trkpt>
      <trkpt lat="45.84702" lon="2.86568">
        <ele>748.8</ele>
        <time>2021-08-26T15:43:45.000Z</time>
      </trkpt>
      <trkpt lat="45.84706" lon="2.86576">
        <ele>749.1</ele>
        <time>2021-08-26T15:44:02.000Z</time>
      </trkpt>
      <trkpt lat="45.8471" lon="2.86583">
        <ele>749.4</ele>
        <time>2021-08-26T15:44:08.000Z</time>
      </trkpt>
      <trkpt lat="45.84716" lon="2.86591">
        <ele>749.9</ele>
        <time>2021-08-26T15:44:15.000Z</time>
      </trkpt>
      <trkpt lat="45.84714" lon="2.866">
        <ele>750.8</ele>
        <time>2021-08-26T15:44:24.000Z</time>
      </trkpt>
      <trkpt lat="45.84719" lon="2.86608">
        <ele>751.3</ele>
        <time>2021-08-26T15:44:42.000Z</time>
      </trkpt>
      <trkpt lat="45.84725" lon="2.8661">
        <ele>751.4</ele>
        <time>2021-08-26T15:44:51.000Z</time>
      </trkpt>
      <trkpt lat="45.8473" lon="2.86619">
        <ele>752.2</ele>
        <time>2021-08-26T15:44:58.000Z</time>
      </trkpt>
      <trkpt lat="45.84733" lon="2.86627">
        <ele>752.9</ele>
        <time>2021-08-26T15:45:05.000Z</time>
      </trkpt>
      <trkpt lat="45.84735" lon="2.86636">
        <ele>753.8</ele>
        <time>2021-08-26T15:45:13.000Z</time>
      </trkpt>
      <trkpt lat="45.84739" lon="2.86644">
        <ele>754.6</ele>
        <time>2021-08-26T15:45:21.000Z</time>
      </trkpt>
      <trkpt lat="45.8474" lon="2.86654">
        <ele>755.6</ele>
        <time>2021-08-26T15:45:27.000Z</time>
      </trkpt>
      <trkpt lat="45.84743" lon="2.86663">
        <ele>756.5</ele>
        <time>2021-08-26T15:45:34.000Z</time>
      </trkpt>
      <trkpt lat="45.84746" lon="2.86672">
        <ele>757.3</ele>
        <time>2021-08-26T15:45:41.000Z</time>
      </trkpt>
      <trkpt lat="45.84747" lon="2.86682">
        <ele>758.1</ele>
        <time>2021-08-26T15:45:48.000Z</time>
      </trkpt>
      <trkpt lat="45.84749" lon="2.86691">
        <ele>758.7</ele>
        <time>2021-08-26T15:45:54.000Z</time>
      </trkpt>
      <trkpt lat="45.84751" lon="2.86701">
        <ele>759.4</ele>
        <time>2021-08-26T15:46:01.000Z</time>
      </trkpt>
      <trkpt lat="45.84755" lon="2.86708">
        <ele>759.8</ele>
        <time>2021-08-26T15:46:08.000Z</time>
      </trkpt>
      <trkpt lat="45.84761" lon="2.86703">
        <ele>759.2</ele>
        <time>2021-08-26T15:46:33.000Z</time>
      </trkpt>
      <trkpt lat="45.84766" lon="2.86697">
        <ele>758.7</ele>
        <time>2021-08-26T15:46:45.000Z</time>
      </trkpt>
      <trkpt lat="45.84771" lon="2.8669">
        <ele>758</ele>
        <time>2021-08-26T15:46:54.000Z</time>
      </trkpt>
      <trkpt lat="45.84777" lon="2.86683">
        <ele>757.4</ele>
        <time>2021-08-26T15:47:02.000Z</time>
      </trkpt>
      <trkpt lat="45.84782" lon="2.86676">
        <ele>756.8</ele>
        <time>2021-08-26T15:47:10.000Z</time>
      </trkpt>
      <trkpt lat="45.84788" lon="2.8667">
        <ele>756.3</ele>
        <time>2021-08-26T15:47:17.000Z</time>
      </trkpt>
      <trkpt lat="45.84794" lon="2.86664">
        <ele>755.7</ele>
        <time>2021-08-26T15:47:24.000Z</time>
      </trkpt>
      <trkpt lat="45.848" lon="2.86658">
        <ele>754.9</ele>
        <time>2021-08-26T15:47:32.000Z</time>
      </trkpt>
      <trkpt lat="45.84806" lon="2.86653">
        <ele>754.3</ele>
        <time>2021-08-26T15:47:42.000Z</time>
      </trkpt>
      <trkpt lat="45.84801" lon="2.8666">
        <ele>755.1</ele>
        <time>2021-08-26T15:48:03.000Z</time>
      </trkpt>
      <trkpt lat="45.848" lon="2.8667">
        <ele>756</ele>
        <time>2021-08-26T15:48:17.000Z</time>
      </trkpt>
      <trkpt lat="45.84798" lon="2.8668">
        <ele>756.6</ele>
        <time>2021-08-26T15:48:26.000Z</time>
      </trkpt>
      <trkpt lat="45.84795" lon="2.86689">
        <ele>757.2</ele>
        <time>2021-08-26T15:48:36.000Z</time>
      </trkpt>
      <trkpt lat="45.84791" lon="2.86698">
        <ele>757.9</ele>
        <time>2021-08-26T15:48:45.000Z</time>
      </trkpt>
      <trkpt lat="45.84789" lon="2.86707">
        <ele>758.5</ele>
        <time>2021-08-26T15:48:56.000Z</time>
      </trkpt>
      <trkpt lat="45.84787" lon="2.86715">
        <ele>759.1</ele>
        <time>2021-08-26T15:49:05.000Z</time>
      </trkpt>
      <trkpt lat="45.84787" lon="2.86725">
        <ele>759.7</ele>
        <time>2021-08-26T15:49:16.000Z</time>
      </trkpt>
      <trkpt lat="45.84781" lon="2.86734">
        <ele>760.5</ele>
        <time>2021-08-26T15:50:16.000Z</time>
      </trkpt>
      <trkpt lat="45.84785" lon="2.86742">
        <ele>760.8</ele>
        <time>2021-08-26T15:54:13.000Z</time>
      </trkpt>
    </trkseg>
  </trk>
</gpx>